<?xml version="1.0" encoding="UTF-8" standalone="no" ?>
<gpx xmlns="http://www.topografix.com/GPX/1/1" xmlns:xsi="http://www.w3.org/2001/XMLSchema-instance" xsi:schemaLocation="http://www.topografix.com/GPX/1/1 http://www.topografix.com/GPX/1/1/gpx.xsd" version="1.1" creator="VisuGPX - https://www.visugpx.com">
  <metadata>
    <name>Départ et retour Saint Alby</name>
    <desc><![CDATA[Très beau parcours au départ de Saint Alby. Avec 1100m D+ pour une distance de 32 Km.
La montée est assez difficile (les 1100 m se font sur 19 km). En récompense   la descente est magnifique.]]></desc>
  </metadata>
  <trk>
    <name><![CDATA[2019-03-16-08-31-57 on GPSies.com]]></name>
    <trkseg>
      <trkpt lat="43.50788" lon="2.34388">
        <ele>256</ele>
        <time>2019-03-16T08:31:57Z</time>
      </trkpt>
      <trkpt lat="43.50788" lon="2.34388">
        <ele>258</ele>
        <time>2019-03-16T08:31:58Z</time>
      </trkpt>
      <trkpt lat="43.50789" lon="2.34388">
        <ele>258</ele>
        <time>2019-03-16T08:32:00Z</time>
      </trkpt>
      <trkpt lat="43.5079" lon="2.34388">
        <ele>258</ele>
        <time>2019-03-16T08:32:01Z</time>
      </trkpt>
      <trkpt lat="43.50792" lon="2.34387">
        <ele>258</ele>
        <time>2019-03-16T08:32:02Z</time>
      </trkpt>
      <trkpt lat="43.50794" lon="2.34388">
        <ele>258</ele>
        <time>2019-03-16T08:32:03Z</time>
      </trkpt>
      <trkpt lat="43.50798" lon="2.34388">
        <ele>258</ele>
        <time>2019-03-16T08:32:05Z</time>
      </trkpt>
      <trkpt lat="43.50799" lon="2.34386">
        <ele>258</ele>
        <time>2019-03-16T08:32:06Z</time>
      </trkpt>
      <trkpt lat="43.50802" lon="2.34368">
        <ele>258</ele>
        <time>2019-03-16T08:32:12Z</time>
      </trkpt>
      <trkpt lat="43.50805" lon="2.34353">
        <ele>258</ele>
        <time>2019-03-16T08:32:16Z</time>
      </trkpt>
      <trkpt lat="43.50806" lon="2.34349">
        <ele>258</ele>
        <time>2019-03-16T08:32:17Z</time>
      </trkpt>
      <trkpt lat="43.50809" lon="2.3433">
        <ele>257</ele>
        <time>2019-03-16T08:32:21Z</time>
      </trkpt>
      <trkpt lat="43.50813" lon="2.34317">
        <ele>257</ele>
        <time>2019-03-16T08:32:24Z</time>
      </trkpt>
      <trkpt lat="43.50816" lon="2.34305">
        <ele>257</ele>
        <time>2019-03-16T08:32:27Z</time>
      </trkpt>
      <trkpt lat="43.50819" lon="2.34289">
        <ele>257</ele>
        <time>2019-03-16T08:32:31Z</time>
      </trkpt>
      <trkpt lat="43.50822" lon="2.34255">
        <ele>257</ele>
        <time>2019-03-16T08:32:39Z</time>
      </trkpt>
      <trkpt lat="43.50827" lon="2.34238">
        <ele>257</ele>
        <time>2019-03-16T08:32:43Z</time>
      </trkpt>
      <trkpt lat="43.50829" lon="2.34226">
        <ele>257</ele>
        <time>2019-03-16T08:32:46Z</time>
      </trkpt>
      <trkpt lat="43.50835" lon="2.34202">
        <ele>257</ele>
        <time>2019-03-16T08:32:51Z</time>
      </trkpt>
      <trkpt lat="43.50837" lon="2.34188">
        <ele>257</ele>
        <time>2019-03-16T08:32:54Z</time>
      </trkpt>
      <trkpt lat="43.50838" lon="2.34177">
        <ele>257</ele>
        <time>2019-03-16T08:32:56Z</time>
      </trkpt>
      <trkpt lat="43.50845" lon="2.34148">
        <ele>257</ele>
        <time>2019-03-16T08:33:02Z</time>
      </trkpt>
      <trkpt lat="43.50852" lon="2.34123">
        <ele>257</ele>
        <time>2019-03-16T08:33:07Z</time>
      </trkpt>
      <trkpt lat="43.50854" lon="2.34117">
        <ele>256</ele>
        <time>2019-03-16T08:33:08Z</time>
      </trkpt>
      <trkpt lat="43.50855" lon="2.34105">
        <ele>256</ele>
        <time>2019-03-16T08:33:10Z</time>
      </trkpt>
      <trkpt lat="43.50849" lon="2.34094">
        <ele>254</ele>
        <time>2019-03-16T08:33:12Z</time>
      </trkpt>
      <trkpt lat="43.50844" lon="2.34088">
        <ele>254</ele>
        <time>2019-03-16T08:33:13Z</time>
      </trkpt>
      <trkpt lat="43.50838" lon="2.34081">
        <ele>253</ele>
        <time>2019-03-16T08:33:14Z</time>
      </trkpt>
      <trkpt lat="43.50827" lon="2.34069">
        <ele>252</ele>
        <time>2019-03-16T08:33:16Z</time>
      </trkpt>
      <trkpt lat="43.5082" lon="2.34064">
        <ele>251</ele>
        <time>2019-03-16T08:33:17Z</time>
      </trkpt>
      <trkpt lat="43.50801" lon="2.34051">
        <ele>251</ele>
        <time>2019-03-16T08:33:20Z</time>
      </trkpt>
      <trkpt lat="43.50799" lon="2.34048">
        <ele>251</ele>
        <time>2019-03-16T08:33:21Z</time>
      </trkpt>
      <trkpt lat="43.50787" lon="2.34033">
        <ele>252</ele>
        <time>2019-03-16T08:33:25Z</time>
      </trkpt>
      <trkpt lat="43.50785" lon="2.34029">
        <ele>253</ele>
        <time>2019-03-16T08:33:26Z</time>
      </trkpt>
      <trkpt lat="43.50776" lon="2.34013">
        <ele>254</ele>
        <time>2019-03-16T08:33:30Z</time>
      </trkpt>
      <trkpt lat="43.50772" lon="2.34006">
        <ele>254</ele>
        <time>2019-03-16T08:33:32Z</time>
      </trkpt>
      <trkpt lat="43.50766" lon="2.33996">
        <ele>254</ele>
        <time>2019-03-16T08:33:35Z</time>
      </trkpt>
      <trkpt lat="43.50756" lon="2.33992">
        <ele>255</ele>
        <time>2019-03-16T08:33:38Z</time>
      </trkpt>
      <trkpt lat="43.50752" lon="2.33991">
        <ele>256</ele>
        <time>2019-03-16T08:33:39Z</time>
      </trkpt>
      <trkpt lat="43.50742" lon="2.33986">
        <ele>256</ele>
        <time>2019-03-16T08:33:42Z</time>
      </trkpt>
      <trkpt lat="43.50734" lon="2.33985">
        <ele>257</ele>
        <time>2019-03-16T08:33:44Z</time>
      </trkpt>
      <trkpt lat="43.50729" lon="2.33984">
        <ele>258</ele>
        <time>2019-03-16T08:33:46Z</time>
      </trkpt>
      <trkpt lat="43.5072" lon="2.33983">
        <ele>258</ele>
        <time>2019-03-16T08:33:49Z</time>
      </trkpt>
      <trkpt lat="43.50713" lon="2.33982">
        <ele>259</ele>
        <time>2019-03-16T08:33:51Z</time>
      </trkpt>
      <trkpt lat="43.50701" lon="2.3398">
        <ele>259</ele>
        <time>2019-03-16T08:33:55Z</time>
      </trkpt>
      <trkpt lat="43.50677" lon="2.33978">
        <ele>259</ele>
        <time>2019-03-16T08:34:02Z</time>
      </trkpt>
      <trkpt lat="43.50658" lon="2.33973">
        <ele>260</ele>
        <time>2019-03-16T08:34:08Z</time>
      </trkpt>
      <trkpt lat="43.50655" lon="2.33973">
        <ele>260</ele>
        <time>2019-03-16T08:34:09Z</time>
      </trkpt>
      <trkpt lat="43.50641" lon="2.33968">
        <ele>261</ele>
        <time>2019-03-16T08:34:14Z</time>
      </trkpt>
      <trkpt lat="43.50629" lon="2.33965">
        <ele>261</ele>
        <time>2019-03-16T08:34:19Z</time>
      </trkpt>
      <trkpt lat="43.50627" lon="2.33965">
        <ele>261</ele>
        <time>2019-03-16T08:34:20Z</time>
      </trkpt>
      <trkpt lat="43.50622" lon="2.33963">
        <ele>262</ele>
        <time>2019-03-16T08:34:23Z</time>
      </trkpt>
      <trkpt lat="43.50616" lon="2.33957">
        <ele>262</ele>
        <time>2019-03-16T08:34:27Z</time>
      </trkpt>
      <trkpt lat="43.50612" lon="2.33955">
        <ele>263</ele>
        <time>2019-03-16T08:34:29Z</time>
      </trkpt>
      <trkpt lat="43.5061" lon="2.33952">
        <ele>264</ele>
        <time>2019-03-16T08:34:31Z</time>
      </trkpt>
      <trkpt lat="43.50602" lon="2.33947">
        <ele>265</ele>
        <time>2019-03-16T08:34:35Z</time>
      </trkpt>
      <trkpt lat="43.50591" lon="2.33943">
        <ele>266</ele>
        <time>2019-03-16T08:34:40Z</time>
      </trkpt>
      <trkpt lat="43.50587" lon="2.33942">
        <ele>266</ele>
        <time>2019-03-16T08:34:42Z</time>
      </trkpt>
      <trkpt lat="43.50583" lon="2.33943">
        <ele>266</ele>
        <time>2019-03-16T08:34:44Z</time>
      </trkpt>
      <trkpt lat="43.50575" lon="2.33943">
        <ele>266</ele>
        <time>2019-03-16T08:34:47Z</time>
      </trkpt>
      <trkpt lat="43.5056" lon="2.33942">
        <ele>266</ele>
        <time>2019-03-16T08:34:51Z</time>
      </trkpt>
      <trkpt lat="43.50544" lon="2.33935">
        <ele>266</ele>
        <time>2019-03-16T08:34:56Z</time>
      </trkpt>
      <trkpt lat="43.50538" lon="2.33924">
        <ele>266</ele>
        <time>2019-03-16T08:35:01Z</time>
      </trkpt>
      <trkpt lat="43.50534" lon="2.33917">
        <ele>266</ele>
        <time>2019-03-16T08:35:05Z</time>
      </trkpt>
      <trkpt lat="43.50533" lon="2.33916">
        <ele>266</ele>
        <time>2019-03-16T08:35:06Z</time>
      </trkpt>
      <trkpt lat="43.50527" lon="2.33912">
        <ele>266</ele>
        <time>2019-03-16T08:35:09Z</time>
      </trkpt>
      <trkpt lat="43.50524" lon="2.33909">
        <ele>266</ele>
        <time>2019-03-16T08:35:11Z</time>
      </trkpt>
      <trkpt lat="43.50513" lon="2.33902">
        <ele>266</ele>
        <time>2019-03-16T08:35:16Z</time>
      </trkpt>
      <trkpt lat="43.5051" lon="2.339">
        <ele>267</ele>
        <time>2019-03-16T08:35:18Z</time>
      </trkpt>
      <trkpt lat="43.50506" lon="2.33898">
        <ele>268</ele>
        <time>2019-03-16T08:35:20Z</time>
      </trkpt>
      <trkpt lat="43.50501" lon="2.33895">
        <ele>268</ele>
        <time>2019-03-16T08:35:23Z</time>
      </trkpt>
      <trkpt lat="43.50496" lon="2.33894">
        <ele>268</ele>
        <time>2019-03-16T08:35:25Z</time>
      </trkpt>
      <trkpt lat="43.50494" lon="2.33893">
        <ele>268</ele>
        <time>2019-03-16T08:35:26Z</time>
      </trkpt>
      <trkpt lat="43.50485" lon="2.33887">
        <ele>268</ele>
        <time>2019-03-16T08:35:30Z</time>
      </trkpt>
      <trkpt lat="43.50472" lon="2.33878">
        <ele>268</ele>
        <time>2019-03-16T08:35:36Z</time>
      </trkpt>
      <trkpt lat="43.50465" lon="2.33864">
        <ele>269</ele>
        <time>2019-03-16T08:35:41Z</time>
      </trkpt>
      <trkpt lat="43.50464" lon="2.33859">
        <ele>269</ele>
        <time>2019-03-16T08:35:43Z</time>
      </trkpt>
      <trkpt lat="43.50463" lon="2.33854">
        <ele>270</ele>
        <time>2019-03-16T08:35:45Z</time>
      </trkpt>
      <trkpt lat="43.50462" lon="2.33849">
        <ele>270</ele>
        <time>2019-03-16T08:35:47Z</time>
      </trkpt>
      <trkpt lat="43.50459" lon="2.33833">
        <ele>271</ele>
        <time>2019-03-16T08:35:52Z</time>
      </trkpt>
      <trkpt lat="43.50458" lon="2.33831">
        <ele>271</ele>
        <time>2019-03-16T08:35:53Z</time>
      </trkpt>
      <trkpt lat="43.50455" lon="2.33819">
        <ele>272</ele>
        <time>2019-03-16T08:35:57Z</time>
      </trkpt>
      <trkpt lat="43.50454" lon="2.33816">
        <ele>272</ele>
        <time>2019-03-16T08:35:58Z</time>
      </trkpt>
      <trkpt lat="43.50452" lon="2.33806">
        <ele>274</ele>
        <time>2019-03-16T08:36:01Z</time>
      </trkpt>
      <trkpt lat="43.50452" lon="2.33803">
        <ele>274</ele>
        <time>2019-03-16T08:36:02Z</time>
      </trkpt>
      <trkpt lat="43.5045" lon="2.33794">
        <ele>274</ele>
        <time>2019-03-16T08:36:05Z</time>
      </trkpt>
      <trkpt lat="43.50449" lon="2.33791">
        <ele>275</ele>
        <time>2019-03-16T08:36:06Z</time>
      </trkpt>
      <trkpt lat="43.50444" lon="2.33781">
        <ele>276</ele>
        <time>2019-03-16T08:36:09Z</time>
      </trkpt>
      <trkpt lat="43.50431" lon="2.33753">
        <ele>276</ele>
        <time>2019-03-16T08:36:16Z</time>
      </trkpt>
      <trkpt lat="43.50417" lon="2.33735">
        <ele>276</ele>
        <time>2019-03-16T08:36:22Z</time>
      </trkpt>
      <trkpt lat="43.50404" lon="2.3372">
        <ele>277</ele>
        <time>2019-03-16T08:36:28Z</time>
      </trkpt>
      <trkpt lat="43.50393" lon="2.33707">
        <ele>276</ele>
        <time>2019-03-16T08:36:33Z</time>
      </trkpt>
      <trkpt lat="43.50383" lon="2.33695">
        <ele>277</ele>
        <time>2019-03-16T08:36:38Z</time>
      </trkpt>
      <trkpt lat="43.50372" lon="2.33683">
        <ele>277</ele>
        <time>2019-03-16T08:36:43Z</time>
      </trkpt>
      <trkpt lat="43.50369" lon="2.33682">
        <ele>278</ele>
        <time>2019-03-16T08:36:44Z</time>
      </trkpt>
      <trkpt lat="43.50366" lon="2.33681">
        <ele>278</ele>
        <time>2019-03-16T08:36:45Z</time>
      </trkpt>
      <trkpt lat="43.5036" lon="2.33678">
        <ele>278</ele>
        <time>2019-03-16T08:36:47Z</time>
      </trkpt>
      <trkpt lat="43.50358" lon="2.33676">
        <ele>278</ele>
        <time>2019-03-16T08:36:48Z</time>
      </trkpt>
      <trkpt lat="43.50341" lon="2.33666">
        <ele>279</ele>
        <time>2019-03-16T08:36:54Z</time>
      </trkpt>
      <trkpt lat="43.50335" lon="2.33664">
        <ele>279</ele>
        <time>2019-03-16T08:36:56Z</time>
      </trkpt>
      <trkpt lat="43.50321" lon="2.33659">
        <ele>280</ele>
        <time>2019-03-16T08:37:01Z</time>
      </trkpt>
      <trkpt lat="43.50314" lon="2.33656">
        <ele>280</ele>
        <time>2019-03-16T08:37:04Z</time>
      </trkpt>
      <trkpt lat="43.50305" lon="2.33652">
        <ele>281</ele>
        <time>2019-03-16T08:37:08Z</time>
      </trkpt>
      <trkpt lat="43.50302" lon="2.33651">
        <ele>281</ele>
        <time>2019-03-16T08:37:10Z</time>
      </trkpt>
      <trkpt lat="43.50292" lon="2.33647">
        <ele>282</ele>
        <time>2019-03-16T08:37:15Z</time>
      </trkpt>
      <trkpt lat="43.50288" lon="2.33646">
        <ele>283</ele>
        <time>2019-03-16T08:37:17Z</time>
      </trkpt>
      <trkpt lat="43.50278" lon="2.33641">
        <ele>284</ele>
        <time>2019-03-16T08:37:22Z</time>
      </trkpt>
      <trkpt lat="43.50276" lon="2.33641">
        <ele>284</ele>
        <time>2019-03-16T08:37:23Z</time>
      </trkpt>
      <trkpt lat="43.50265" lon="2.33635">
        <ele>285</ele>
        <time>2019-03-16T08:37:29Z</time>
      </trkpt>
      <trkpt lat="43.50253" lon="2.33629">
        <ele>286</ele>
        <time>2019-03-16T08:37:35Z</time>
      </trkpt>
      <trkpt lat="43.50251" lon="2.33628">
        <ele>286</ele>
        <time>2019-03-16T08:37:36Z</time>
      </trkpt>
      <trkpt lat="43.50239" lon="2.33621">
        <ele>287</ele>
        <time>2019-03-16T08:37:42Z</time>
      </trkpt>
      <trkpt lat="43.50237" lon="2.33619">
        <ele>287</ele>
        <time>2019-03-16T08:37:43Z</time>
      </trkpt>
      <trkpt lat="43.50229" lon="2.33613">
        <ele>288</ele>
        <time>2019-03-16T08:37:47Z</time>
      </trkpt>
      <trkpt lat="43.50222" lon="2.33611">
        <ele>288</ele>
        <time>2019-03-16T08:37:50Z</time>
      </trkpt>
      <trkpt lat="43.5022" lon="2.3361">
        <ele>288</ele>
        <time>2019-03-16T08:37:51Z</time>
      </trkpt>
      <trkpt lat="43.50219" lon="2.33608">
        <ele>288</ele>
        <time>2019-03-16T08:37:52Z</time>
      </trkpt>
      <trkpt lat="43.5021" lon="2.336">
        <ele>289</ele>
        <time>2019-03-16T08:37:57Z</time>
      </trkpt>
      <trkpt lat="43.50208" lon="2.33599">
        <ele>289</ele>
        <time>2019-03-16T08:37:58Z</time>
      </trkpt>
      <trkpt lat="43.50195" lon="2.33589">
        <ele>290</ele>
        <time>2019-03-16T08:38:04Z</time>
      </trkpt>
      <trkpt lat="43.50191" lon="2.33587">
        <ele>291</ele>
        <time>2019-03-16T08:38:06Z</time>
      </trkpt>
      <trkpt lat="43.50183" lon="2.33581">
        <ele>291</ele>
        <time>2019-03-16T08:38:10Z</time>
      </trkpt>
      <trkpt lat="43.50175" lon="2.33576">
        <ele>292</ele>
        <time>2019-03-16T08:38:14Z</time>
      </trkpt>
      <trkpt lat="43.5017" lon="2.33573">
        <ele>292</ele>
        <time>2019-03-16T08:38:17Z</time>
      </trkpt>
      <trkpt lat="43.50162" lon="2.33566">
        <ele>293</ele>
        <time>2019-03-16T08:38:22Z</time>
      </trkpt>
      <trkpt lat="43.50161" lon="2.33564">
        <ele>293</ele>
        <time>2019-03-16T08:38:23Z</time>
      </trkpt>
      <trkpt lat="43.50152" lon="2.33558">
        <ele>294</ele>
        <time>2019-03-16T08:38:28Z</time>
      </trkpt>
      <trkpt lat="43.50151" lon="2.33557">
        <ele>294</ele>
        <time>2019-03-16T08:38:29Z</time>
      </trkpt>
      <trkpt lat="43.50144" lon="2.33551">
        <ele>295</ele>
        <time>2019-03-16T08:38:33Z</time>
      </trkpt>
      <trkpt lat="43.50141" lon="2.33547">
        <ele>295</ele>
        <time>2019-03-16T08:38:35Z</time>
      </trkpt>
      <trkpt lat="43.50136" lon="2.33543">
        <ele>295</ele>
        <time>2019-03-16T08:38:38Z</time>
      </trkpt>
      <trkpt lat="43.50129" lon="2.33538">
        <ele>296</ele>
        <time>2019-03-16T08:38:42Z</time>
      </trkpt>
      <trkpt lat="43.50125" lon="2.33534">
        <ele>296</ele>
        <time>2019-03-16T08:38:44Z</time>
      </trkpt>
      <trkpt lat="43.50112" lon="2.33524">
        <ele>297</ele>
        <time>2019-03-16T08:38:50Z</time>
      </trkpt>
      <trkpt lat="43.5011" lon="2.33522">
        <ele>297</ele>
        <time>2019-03-16T08:38:51Z</time>
      </trkpt>
      <trkpt lat="43.50102" lon="2.33515">
        <ele>298</ele>
        <time>2019-03-16T08:38:56Z</time>
      </trkpt>
      <trkpt lat="43.50099" lon="2.33513">
        <ele>298</ele>
        <time>2019-03-16T08:38:58Z</time>
      </trkpt>
      <trkpt lat="43.50092" lon="2.3351">
        <ele>299</ele>
        <time>2019-03-16T08:39:02Z</time>
      </trkpt>
      <trkpt lat="43.50081" lon="2.33501">
        <ele>300</ele>
        <time>2019-03-16T08:39:08Z</time>
      </trkpt>
      <trkpt lat="43.50075" lon="2.33496">
        <ele>300</ele>
        <time>2019-03-16T08:39:11Z</time>
      </trkpt>
      <trkpt lat="43.50066" lon="2.33492">
        <ele>301</ele>
        <time>2019-03-16T08:39:15Z</time>
      </trkpt>
      <trkpt lat="43.50065" lon="2.3349">
        <ele>302</ele>
        <time>2019-03-16T08:39:16Z</time>
      </trkpt>
      <trkpt lat="43.50053" lon="2.3348">
        <ele>302</ele>
        <time>2019-03-16T08:39:23Z</time>
      </trkpt>
      <trkpt lat="43.5005" lon="2.33477">
        <ele>303</ele>
        <time>2019-03-16T08:39:25Z</time>
      </trkpt>
      <trkpt lat="43.50038" lon="2.33468">
        <ele>304</ele>
        <time>2019-03-16T08:39:31Z</time>
      </trkpt>
      <trkpt lat="43.50026" lon="2.33459">
        <ele>304</ele>
        <time>2019-03-16T08:39:37Z</time>
      </trkpt>
      <trkpt lat="43.50015" lon="2.33452">
        <ele>304</ele>
        <time>2019-03-16T08:39:42Z</time>
      </trkpt>
      <trkpt lat="43.50013" lon="2.33451">
        <ele>305</ele>
        <time>2019-03-16T08:39:43Z</time>
      </trkpt>
      <trkpt lat="43.50009" lon="2.33449">
        <ele>305</ele>
        <time>2019-03-16T08:39:45Z</time>
      </trkpt>
      <trkpt lat="43.50003" lon="2.33445">
        <ele>305</ele>
        <time>2019-03-16T08:39:48Z</time>
      </trkpt>
      <trkpt lat="43.49992" lon="2.3344">
        <ele>306</ele>
        <time>2019-03-16T08:39:53Z</time>
      </trkpt>
      <trkpt lat="43.49989" lon="2.33439">
        <ele>306</ele>
        <time>2019-03-16T08:39:54Z</time>
      </trkpt>
      <trkpt lat="43.49973" lon="2.33432">
        <ele>307</ele>
        <time>2019-03-16T08:40:01Z</time>
      </trkpt>
      <trkpt lat="43.4996" lon="2.33426">
        <ele>308</ele>
        <time>2019-03-16T08:40:07Z</time>
      </trkpt>
      <trkpt lat="43.49951" lon="2.33422">
        <ele>308</ele>
        <time>2019-03-16T08:40:11Z</time>
      </trkpt>
      <trkpt lat="43.49945" lon="2.3342">
        <ele>308</ele>
        <time>2019-03-16T08:40:14Z</time>
      </trkpt>
      <trkpt lat="43.49933" lon="2.33413">
        <ele>309</ele>
        <time>2019-03-16T08:40:20Z</time>
      </trkpt>
      <trkpt lat="43.49918" lon="2.33409">
        <ele>310</ele>
        <time>2019-03-16T08:40:27Z</time>
      </trkpt>
      <trkpt lat="43.49916" lon="2.33408">
        <ele>310</ele>
        <time>2019-03-16T08:40:28Z</time>
      </trkpt>
      <trkpt lat="43.49903" lon="2.33404">
        <ele>311</ele>
        <time>2019-03-16T08:40:34Z</time>
      </trkpt>
      <trkpt lat="43.49901" lon="2.33404">
        <ele>311</ele>
        <time>2019-03-16T08:40:35Z</time>
      </trkpt>
      <trkpt lat="43.49886" lon="2.33399">
        <ele>312</ele>
        <time>2019-03-16T08:40:42Z</time>
      </trkpt>
      <trkpt lat="43.49876" lon="2.33396">
        <ele>313</ele>
        <time>2019-03-16T08:40:47Z</time>
      </trkpt>
      <trkpt lat="43.49872" lon="2.33394">
        <ele>314</ele>
        <time>2019-03-16T08:40:49Z</time>
      </trkpt>
      <trkpt lat="43.49862" lon="2.33392">
        <ele>315</ele>
        <time>2019-03-16T08:40:54Z</time>
      </trkpt>
      <trkpt lat="43.4986" lon="2.33391">
        <ele>315</ele>
        <time>2019-03-16T08:40:55Z</time>
      </trkpt>
      <trkpt lat="43.49854" lon="2.33389">
        <ele>315</ele>
        <time>2019-03-16T08:40:58Z</time>
      </trkpt>
      <trkpt lat="43.49846" lon="2.33386">
        <ele>316</ele>
        <time>2019-03-16T08:41:02Z</time>
      </trkpt>
      <trkpt lat="43.49837" lon="2.33383">
        <ele>317</ele>
        <time>2019-03-16T08:41:07Z</time>
      </trkpt>
      <trkpt lat="43.49832" lon="2.3338">
        <ele>317</ele>
        <time>2019-03-16T08:41:10Z</time>
      </trkpt>
      <trkpt lat="43.49824" lon="2.33378">
        <ele>318</ele>
        <time>2019-03-16T08:41:14Z</time>
      </trkpt>
      <trkpt lat="43.4981" lon="2.33373">
        <ele>319</ele>
        <time>2019-03-16T08:41:22Z</time>
      </trkpt>
      <trkpt lat="43.49809" lon="2.33373">
        <ele>319</ele>
        <time>2019-03-16T08:41:23Z</time>
      </trkpt>
      <trkpt lat="43.49798" lon="2.33369">
        <ele>320</ele>
        <time>2019-03-16T08:41:29Z</time>
      </trkpt>
      <trkpt lat="43.49792" lon="2.33367">
        <ele>321</ele>
        <time>2019-03-16T08:41:32Z</time>
      </trkpt>
      <trkpt lat="43.49789" lon="2.33365">
        <ele>321</ele>
        <time>2019-03-16T08:41:34Z</time>
      </trkpt>
      <trkpt lat="43.49778" lon="2.33361">
        <ele>322</ele>
        <time>2019-03-16T08:41:40Z</time>
      </trkpt>
      <trkpt lat="43.49776" lon="2.33361">
        <ele>323</ele>
        <time>2019-03-16T08:41:41Z</time>
      </trkpt>
      <trkpt lat="43.49767" lon="2.33357">
        <ele>324</ele>
        <time>2019-03-16T08:41:46Z</time>
      </trkpt>
      <trkpt lat="43.49761" lon="2.33357">
        <ele>324</ele>
        <time>2019-03-16T08:41:49Z</time>
      </trkpt>
      <trkpt lat="43.4976" lon="2.33357">
        <ele>324</ele>
        <time>2019-03-16T08:41:50Z</time>
      </trkpt>
      <trkpt lat="43.49757" lon="2.33358">
        <ele>325</ele>
        <time>2019-03-16T08:41:52Z</time>
      </trkpt>
      <trkpt lat="43.49751" lon="2.33358">
        <ele>326</ele>
        <time>2019-03-16T08:41:55Z</time>
      </trkpt>
      <trkpt lat="43.4975" lon="2.33359">
        <ele>326</ele>
        <time>2019-03-16T08:41:56Z</time>
      </trkpt>
      <trkpt lat="43.49735" lon="2.3336">
        <ele>327</ele>
        <time>2019-03-16T08:42:03Z</time>
      </trkpt>
      <trkpt lat="43.49731" lon="2.3336">
        <ele>327</ele>
        <time>2019-03-16T08:42:05Z</time>
      </trkpt>
      <trkpt lat="43.49722" lon="2.33363">
        <ele>328</ele>
        <time>2019-03-16T08:42:09Z</time>
      </trkpt>
      <trkpt lat="43.49717" lon="2.33364">
        <ele>329</ele>
        <time>2019-03-16T08:42:11Z</time>
      </trkpt>
      <trkpt lat="43.49711" lon="2.33366">
        <ele>329</ele>
        <time>2019-03-16T08:42:14Z</time>
      </trkpt>
      <trkpt lat="43.49705" lon="2.33368">
        <ele>330</ele>
        <time>2019-03-16T08:42:18Z</time>
      </trkpt>
      <trkpt lat="43.49703" lon="2.33369">
        <ele>330</ele>
        <time>2019-03-16T08:42:19Z</time>
      </trkpt>
      <trkpt lat="43.49695" lon="2.33371">
        <ele>331</ele>
        <time>2019-03-16T08:42:24Z</time>
      </trkpt>
      <trkpt lat="43.49691" lon="2.33372">
        <ele>332</ele>
        <time>2019-03-16T08:42:26Z</time>
      </trkpt>
      <trkpt lat="43.49686" lon="2.33374">
        <ele>333</ele>
        <time>2019-03-16T08:42:29Z</time>
      </trkpt>
      <trkpt lat="43.49679" lon="2.33376">
        <ele>333</ele>
        <time>2019-03-16T08:42:33Z</time>
      </trkpt>
      <trkpt lat="43.49677" lon="2.33376">
        <ele>334</ele>
        <time>2019-03-16T08:42:34Z</time>
      </trkpt>
      <trkpt lat="43.49664" lon="2.33378">
        <ele>335</ele>
        <time>2019-03-16T08:42:42Z</time>
      </trkpt>
      <trkpt lat="43.49658" lon="2.33379">
        <ele>336</ele>
        <time>2019-03-16T08:42:46Z</time>
      </trkpt>
      <trkpt lat="43.49653" lon="2.33381">
        <ele>337</ele>
        <time>2019-03-16T08:42:49Z</time>
      </trkpt>
      <trkpt lat="43.49651" lon="2.33381">
        <ele>337</ele>
        <time>2019-03-16T08:42:50Z</time>
      </trkpt>
      <trkpt lat="43.49642" lon="2.33382">
        <ele>338</ele>
        <time>2019-03-16T08:42:55Z</time>
      </trkpt>
      <trkpt lat="43.49641" lon="2.33382">
        <ele>338</ele>
        <time>2019-03-16T08:42:56Z</time>
      </trkpt>
      <trkpt lat="43.49633" lon="2.33382">
        <ele>339</ele>
        <time>2019-03-16T08:43:01Z</time>
      </trkpt>
      <trkpt lat="43.49632" lon="2.33382">
        <ele>340</ele>
        <time>2019-03-16T08:43:02Z</time>
      </trkpt>
      <trkpt lat="43.49625" lon="2.33382">
        <ele>341</ele>
        <time>2019-03-16T08:43:06Z</time>
      </trkpt>
      <trkpt lat="43.49624" lon="2.33382">
        <ele>341</ele>
        <time>2019-03-16T08:43:07Z</time>
      </trkpt>
      <trkpt lat="43.49616" lon="2.33382">
        <ele>342</ele>
        <time>2019-03-16T08:43:12Z</time>
      </trkpt>
      <trkpt lat="43.49615" lon="2.33382">
        <ele>342</ele>
        <time>2019-03-16T08:43:13Z</time>
      </trkpt>
      <trkpt lat="43.4961" lon="2.33382">
        <ele>343</ele>
        <time>2019-03-16T08:43:16Z</time>
      </trkpt>
      <trkpt lat="43.49602" lon="2.33382">
        <ele>345</ele>
        <time>2019-03-16T08:43:21Z</time>
      </trkpt>
      <trkpt lat="43.49598" lon="2.33381">
        <ele>345</ele>
        <time>2019-03-16T08:43:24Z</time>
      </trkpt>
      <trkpt lat="43.49595" lon="2.33382">
        <ele>346</ele>
        <time>2019-03-16T08:43:26Z</time>
      </trkpt>
      <trkpt lat="43.49593" lon="2.33381">
        <ele>346</ele>
        <time>2019-03-16T08:43:28Z</time>
      </trkpt>
      <trkpt lat="43.49587" lon="2.33382">
        <ele>347</ele>
        <time>2019-03-16T08:43:32Z</time>
      </trkpt>
      <trkpt lat="43.49579" lon="2.33382">
        <ele>348</ele>
        <time>2019-03-16T08:43:36Z</time>
      </trkpt>
      <trkpt lat="43.49578" lon="2.33382">
        <ele>348</ele>
        <time>2019-03-16T08:43:37Z</time>
      </trkpt>
      <trkpt lat="43.4957" lon="2.33381">
        <ele>349</ele>
        <time>2019-03-16T08:43:42Z</time>
      </trkpt>
      <trkpt lat="43.4957" lon="2.33381">
        <ele>349</ele>
        <time>2019-03-16T08:43:43Z</time>
      </trkpt>
      <trkpt lat="43.49566" lon="2.33379">
        <ele>350</ele>
        <time>2019-03-16T08:43:46Z</time>
      </trkpt>
      <trkpt lat="43.49562" lon="2.33374">
        <ele>350</ele>
        <time>2019-03-16T08:43:49Z</time>
      </trkpt>
      <trkpt lat="43.4956" lon="2.33373">
        <ele>350</ele>
        <time>2019-03-16T08:43:50Z</time>
      </trkpt>
      <trkpt lat="43.49553" lon="2.3337">
        <ele>351</ele>
        <time>2019-03-16T08:43:55Z</time>
      </trkpt>
      <trkpt lat="43.49548" lon="2.33369">
        <ele>351</ele>
        <time>2019-03-16T08:43:59Z</time>
      </trkpt>
      <trkpt lat="43.49546" lon="2.33369">
        <ele>352</ele>
        <time>2019-03-16T08:44:01Z</time>
      </trkpt>
      <trkpt lat="43.49544" lon="2.33367">
        <ele>352</ele>
        <time>2019-03-16T08:44:03Z</time>
      </trkpt>
      <trkpt lat="43.49542" lon="2.33364">
        <ele>352</ele>
        <time>2019-03-16T08:44:05Z</time>
      </trkpt>
      <trkpt lat="43.4954" lon="2.33362">
        <ele>352</ele>
        <time>2019-03-16T08:44:10Z</time>
      </trkpt>
      <trkpt lat="43.4954" lon="2.33361">
        <ele>352</ele>
        <time>2019-03-16T08:44:18Z</time>
      </trkpt>
      <trkpt lat="43.4954" lon="2.3336">
        <ele>352</ele>
        <time>2019-03-16T08:44:20Z</time>
      </trkpt>
      <trkpt lat="43.49538" lon="2.33359">
        <ele>353</ele>
        <time>2019-03-16T08:44:37Z</time>
      </trkpt>
      <trkpt lat="43.49537" lon="2.33358">
        <ele>353</ele>
        <time>2019-03-16T08:44:38Z</time>
      </trkpt>
      <trkpt lat="43.49535" lon="2.33356">
        <ele>353</ele>
        <time>2019-03-16T08:44:40Z</time>
      </trkpt>
      <trkpt lat="43.49532" lon="2.33353">
        <ele>353</ele>
        <time>2019-03-16T08:44:42Z</time>
      </trkpt>
      <trkpt lat="43.49527" lon="2.3335">
        <ele>353</ele>
        <time>2019-03-16T08:44:45Z</time>
      </trkpt>
      <trkpt lat="43.49517" lon="2.33344">
        <ele>353</ele>
        <time>2019-03-16T08:44:51Z</time>
      </trkpt>
      <trkpt lat="43.49506" lon="2.33337">
        <ele>353</ele>
        <time>2019-03-16T08:44:58Z</time>
      </trkpt>
      <trkpt lat="43.49504" lon="2.33336">
        <ele>353</ele>
        <time>2019-03-16T08:44:59Z</time>
      </trkpt>
      <trkpt lat="43.49503" lon="2.33334">
        <ele>354</ele>
        <time>2019-03-16T08:45:00Z</time>
      </trkpt>
      <trkpt lat="43.49489" lon="2.33326">
        <ele>354</ele>
        <time>2019-03-16T08:45:07Z</time>
      </trkpt>
      <trkpt lat="43.49482" lon="2.33321">
        <ele>355</ele>
        <time>2019-03-16T08:45:11Z</time>
      </trkpt>
      <trkpt lat="43.49471" lon="2.33314">
        <ele>355</ele>
        <time>2019-03-16T08:45:17Z</time>
      </trkpt>
      <trkpt lat="43.49464" lon="2.33308">
        <ele>356</ele>
        <time>2019-03-16T08:45:21Z</time>
      </trkpt>
      <trkpt lat="43.49455" lon="2.33302">
        <ele>357</ele>
        <time>2019-03-16T08:45:26Z</time>
      </trkpt>
      <trkpt lat="43.49446" lon="2.33294">
        <ele>358</ele>
        <time>2019-03-16T08:45:32Z</time>
      </trkpt>
      <trkpt lat="43.49439" lon="2.33289">
        <ele>358</ele>
        <time>2019-03-16T08:45:36Z</time>
      </trkpt>
      <trkpt lat="43.49432" lon="2.33284">
        <ele>359</ele>
        <time>2019-03-16T08:45:40Z</time>
      </trkpt>
      <trkpt lat="43.49423" lon="2.33281">
        <ele>359</ele>
        <time>2019-03-16T08:45:46Z</time>
      </trkpt>
      <trkpt lat="43.49421" lon="2.33282">
        <ele>360</ele>
        <time>2019-03-16T08:45:47Z</time>
      </trkpt>
      <trkpt lat="43.49416" lon="2.33285">
        <ele>360</ele>
        <time>2019-03-16T08:45:50Z</time>
      </trkpt>
      <trkpt lat="43.49411" lon="2.33289">
        <ele>361</ele>
        <time>2019-03-16T08:45:53Z</time>
      </trkpt>
      <trkpt lat="43.49408" lon="2.3329">
        <ele>361</ele>
        <time>2019-03-16T08:45:55Z</time>
      </trkpt>
      <trkpt lat="43.494" lon="2.33296">
        <ele>362</ele>
        <time>2019-03-16T08:45:59Z</time>
      </trkpt>
      <trkpt lat="43.49398" lon="2.33297">
        <ele>363</ele>
        <time>2019-03-16T08:46:00Z</time>
      </trkpt>
      <trkpt lat="43.49388" lon="2.33305">
        <ele>364</ele>
        <time>2019-03-16T08:46:06Z</time>
      </trkpt>
      <trkpt lat="43.49381" lon="2.33312">
        <ele>365</ele>
        <time>2019-03-16T08:46:11Z</time>
      </trkpt>
      <trkpt lat="43.4938" lon="2.33312">
        <ele>365</ele>
        <time>2019-03-16T08:46:12Z</time>
      </trkpt>
      <trkpt lat="43.49374" lon="2.33314">
        <ele>366</ele>
        <time>2019-03-16T08:46:16Z</time>
      </trkpt>
      <trkpt lat="43.49372" lon="2.33315">
        <ele>366</ele>
        <time>2019-03-16T08:46:17Z</time>
      </trkpt>
      <trkpt lat="43.49367" lon="2.33316">
        <ele>367</ele>
        <time>2019-03-16T08:46:20Z</time>
      </trkpt>
      <trkpt lat="43.49363" lon="2.33318">
        <ele>368</ele>
        <time>2019-03-16T08:46:23Z</time>
      </trkpt>
      <trkpt lat="43.49357" lon="2.3332">
        <ele>368</ele>
        <time>2019-03-16T08:46:28Z</time>
      </trkpt>
      <trkpt lat="43.49349" lon="2.33323">
        <ele>369</ele>
        <time>2019-03-16T08:46:33Z</time>
      </trkpt>
      <trkpt lat="43.49346" lon="2.33325">
        <ele>369</ele>
        <time>2019-03-16T08:46:35Z</time>
      </trkpt>
      <trkpt lat="43.49338" lon="2.33329">
        <ele>370</ele>
        <time>2019-03-16T08:46:39Z</time>
      </trkpt>
      <trkpt lat="43.49334" lon="2.3333">
        <ele>371</ele>
        <time>2019-03-16T08:46:41Z</time>
      </trkpt>
      <trkpt lat="43.49329" lon="2.33334">
        <ele>371</ele>
        <time>2019-03-16T08:46:44Z</time>
      </trkpt>
      <trkpt lat="43.49325" lon="2.33336">
        <ele>372</ele>
        <time>2019-03-16T08:46:46Z</time>
      </trkpt>
      <trkpt lat="43.49318" lon="2.3334">
        <ele>373</ele>
        <time>2019-03-16T08:46:51Z</time>
      </trkpt>
      <trkpt lat="43.49308" lon="2.33347">
        <ele>374</ele>
        <time>2019-03-16T08:46:57Z</time>
      </trkpt>
      <trkpt lat="43.49307" lon="2.33348">
        <ele>374</ele>
        <time>2019-03-16T08:46:58Z</time>
      </trkpt>
      <trkpt lat="43.49299" lon="2.33357">
        <ele>375</ele>
        <time>2019-03-16T08:47:04Z</time>
      </trkpt>
      <trkpt lat="43.49297" lon="2.33358">
        <ele>375</ele>
        <time>2019-03-16T08:47:05Z</time>
      </trkpt>
      <trkpt lat="43.49291" lon="2.33367">
        <ele>376</ele>
        <time>2019-03-16T08:47:10Z</time>
      </trkpt>
      <trkpt lat="43.49288" lon="2.3337">
        <ele>376</ele>
        <time>2019-03-16T08:47:12Z</time>
      </trkpt>
      <trkpt lat="43.49282" lon="2.33377">
        <ele>377</ele>
        <time>2019-03-16T08:47:17Z</time>
      </trkpt>
      <trkpt lat="43.49281" lon="2.33379">
        <ele>377</ele>
        <time>2019-03-16T08:47:18Z</time>
      </trkpt>
      <trkpt lat="43.49274" lon="2.3339">
        <ele>378</ele>
        <time>2019-03-16T08:47:24Z</time>
      </trkpt>
      <trkpt lat="43.49271" lon="2.33393">
        <ele>379</ele>
        <time>2019-03-16T08:47:26Z</time>
      </trkpt>
      <trkpt lat="43.49268" lon="2.33397">
        <ele>379</ele>
        <time>2019-03-16T08:47:28Z</time>
      </trkpt>
      <trkpt lat="43.49265" lon="2.334">
        <ele>380</ele>
        <time>2019-03-16T08:47:30Z</time>
      </trkpt>
      <trkpt lat="43.49262" lon="2.334">
        <ele>380</ele>
        <time>2019-03-16T08:47:32Z</time>
      </trkpt>
      <trkpt lat="43.4926" lon="2.33399">
        <ele>381</ele>
        <time>2019-03-16T08:47:33Z</time>
      </trkpt>
      <trkpt lat="43.49257" lon="2.33395">
        <ele>381</ele>
        <time>2019-03-16T08:47:36Z</time>
      </trkpt>
      <trkpt lat="43.49254" lon="2.33392">
        <ele>381</ele>
        <time>2019-03-16T08:47:38Z</time>
      </trkpt>
      <trkpt lat="43.49252" lon="2.33388">
        <ele>382</ele>
        <time>2019-03-16T08:47:40Z</time>
      </trkpt>
      <trkpt lat="43.4925" lon="2.33378">
        <ele>383</ele>
        <time>2019-03-16T08:47:44Z</time>
      </trkpt>
      <trkpt lat="43.49249" lon="2.33373">
        <ele>383</ele>
        <time>2019-03-16T08:47:46Z</time>
      </trkpt>
      <trkpt lat="43.49248" lon="2.33363">
        <ele>384</ele>
        <time>2019-03-16T08:47:51Z</time>
      </trkpt>
      <trkpt lat="43.49247" lon="2.33354">
        <ele>385</ele>
        <time>2019-03-16T08:47:55Z</time>
      </trkpt>
      <trkpt lat="43.49246" lon="2.33345">
        <ele>386</ele>
        <time>2019-03-16T08:47:59Z</time>
      </trkpt>
      <trkpt lat="43.49245" lon="2.33337">
        <ele>387</ele>
        <time>2019-03-16T08:48:03Z</time>
      </trkpt>
      <trkpt lat="43.49244" lon="2.33333">
        <ele>388</ele>
        <time>2019-03-16T08:48:05Z</time>
      </trkpt>
      <trkpt lat="43.49243" lon="2.33331">
        <ele>388</ele>
        <time>2019-03-16T08:48:06Z</time>
      </trkpt>
      <trkpt lat="43.49243" lon="2.33329">
        <ele>389</ele>
        <time>2019-03-16T08:48:07Z</time>
      </trkpt>
      <trkpt lat="43.49243" lon="2.33321">
        <ele>389</ele>
        <time>2019-03-16T08:48:10Z</time>
      </trkpt>
      <trkpt lat="43.49243" lon="2.33319">
        <ele>390</ele>
        <time>2019-03-16T08:48:11Z</time>
      </trkpt>
      <trkpt lat="43.49241" lon="2.33311">
        <ele>390</ele>
        <time>2019-03-16T08:48:14Z</time>
      </trkpt>
      <trkpt lat="43.49241" lon="2.33303">
        <ele>391</ele>
        <time>2019-03-16T08:48:17Z</time>
      </trkpt>
      <trkpt lat="43.4924" lon="2.33301">
        <ele>391</ele>
        <time>2019-03-16T08:48:18Z</time>
      </trkpt>
      <trkpt lat="43.49239" lon="2.33294">
        <ele>392</ele>
        <time>2019-03-16T08:48:21Z</time>
      </trkpt>
      <trkpt lat="43.49238" lon="2.33291">
        <ele>392</ele>
        <time>2019-03-16T08:48:22Z</time>
      </trkpt>
      <trkpt lat="43.49238" lon="2.33284">
        <ele>392</ele>
        <time>2019-03-16T08:48:25Z</time>
      </trkpt>
      <trkpt lat="43.49238" lon="2.3328">
        <ele>392</ele>
        <time>2019-03-16T08:48:27Z</time>
      </trkpt>
      <trkpt lat="43.49233" lon="2.33267">
        <ele>392</ele>
        <time>2019-03-16T08:48:33Z</time>
      </trkpt>
      <trkpt lat="43.49223" lon="2.33254">
        <ele>392</ele>
        <time>2019-03-16T08:48:39Z</time>
      </trkpt>
      <trkpt lat="43.49216" lon="2.33244">
        <ele>392</ele>
        <time>2019-03-16T08:48:43Z</time>
      </trkpt>
      <trkpt lat="43.49214" lon="2.33241">
        <ele>392</ele>
        <time>2019-03-16T08:48:44Z</time>
      </trkpt>
      <trkpt lat="43.49203" lon="2.33228">
        <ele>393</ele>
        <time>2019-03-16T08:48:49Z</time>
      </trkpt>
      <trkpt lat="43.49199" lon="2.33223">
        <ele>393</ele>
        <time>2019-03-16T08:48:51Z</time>
      </trkpt>
      <trkpt lat="43.49192" lon="2.33215">
        <ele>393</ele>
        <time>2019-03-16T08:48:54Z</time>
      </trkpt>
      <trkpt lat="43.49186" lon="2.33208">
        <ele>393</ele>
        <time>2019-03-16T08:48:57Z</time>
      </trkpt>
      <trkpt lat="43.49176" lon="2.33196">
        <ele>394</ele>
        <time>2019-03-16T08:49:02Z</time>
      </trkpt>
      <trkpt lat="43.49173" lon="2.33193">
        <ele>394</ele>
        <time>2019-03-16T08:49:03Z</time>
      </trkpt>
      <trkpt lat="43.49165" lon="2.33182">
        <ele>394</ele>
        <time>2019-03-16T08:49:07Z</time>
      </trkpt>
      <trkpt lat="43.4916" lon="2.33174">
        <ele>393</ele>
        <time>2019-03-16T08:49:09Z</time>
      </trkpt>
      <trkpt lat="43.49145" lon="2.33153">
        <ele>392</ele>
        <time>2019-03-16T08:49:15Z</time>
      </trkpt>
      <trkpt lat="43.49138" lon="2.33141">
        <ele>393</ele>
        <time>2019-03-16T08:49:19Z</time>
      </trkpt>
      <trkpt lat="43.49129" lon="2.33128">
        <ele>393</ele>
        <time>2019-03-16T08:49:23Z</time>
      </trkpt>
      <trkpt lat="43.49127" lon="2.33125">
        <ele>393</ele>
        <time>2019-03-16T08:49:24Z</time>
      </trkpt>
      <trkpt lat="43.49125" lon="2.33119">
        <ele>392</ele>
        <time>2019-03-16T08:49:26Z</time>
      </trkpt>
      <trkpt lat="43.49124" lon="2.33112">
        <ele>392</ele>
        <time>2019-03-16T08:49:28Z</time>
      </trkpt>
      <trkpt lat="43.49119" lon="2.33103">
        <ele>392</ele>
        <time>2019-03-16T08:49:31Z</time>
      </trkpt>
      <trkpt lat="43.49116" lon="2.33097">
        <ele>392</ele>
        <time>2019-03-16T08:49:33Z</time>
      </trkpt>
      <trkpt lat="43.49114" lon="2.3309">
        <ele>392</ele>
        <time>2019-03-16T08:49:36Z</time>
      </trkpt>
      <trkpt lat="43.49113" lon="2.33087">
        <ele>392</ele>
        <time>2019-03-16T08:49:37Z</time>
      </trkpt>
      <trkpt lat="43.49104" lon="2.33075">
        <ele>392</ele>
        <time>2019-03-16T08:49:42Z</time>
      </trkpt>
      <trkpt lat="43.49101" lon="2.3307">
        <ele>393</ele>
        <time>2019-03-16T08:49:44Z</time>
      </trkpt>
      <trkpt lat="43.49099" lon="2.33066">
        <ele>393</ele>
        <time>2019-03-16T08:49:46Z</time>
      </trkpt>
      <trkpt lat="43.49092" lon="2.33053">
        <ele>393</ele>
        <time>2019-03-16T08:49:52Z</time>
      </trkpt>
      <trkpt lat="43.49085" lon="2.33042">
        <ele>393</ele>
        <time>2019-03-16T08:49:57Z</time>
      </trkpt>
      <trkpt lat="43.49078" lon="2.3303">
        <ele>394</ele>
        <time>2019-03-16T08:50:02Z</time>
      </trkpt>
      <trkpt lat="43.49075" lon="2.33025">
        <ele>394</ele>
        <time>2019-03-16T08:50:04Z</time>
      </trkpt>
      <trkpt lat="43.49068" lon="2.33018">
        <ele>393</ele>
        <time>2019-03-16T08:50:07Z</time>
      </trkpt>
      <trkpt lat="43.49062" lon="2.33014">
        <ele>393</ele>
        <time>2019-03-16T08:50:10Z</time>
      </trkpt>
      <trkpt lat="43.49059" lon="2.33012">
        <ele>392</ele>
        <time>2019-03-16T08:50:11Z</time>
      </trkpt>
      <trkpt lat="43.49056" lon="2.33009">
        <ele>392</ele>
        <time>2019-03-16T08:50:12Z</time>
      </trkpt>
      <trkpt lat="43.49043" lon="2.33002">
        <ele>392</ele>
        <time>2019-03-16T08:50:16Z</time>
      </trkpt>
      <trkpt lat="43.49035" lon="2.32994">
        <ele>391</ele>
        <time>2019-03-16T08:50:20Z</time>
      </trkpt>
      <trkpt lat="43.49031" lon="2.32989">
        <ele>391</ele>
        <time>2019-03-16T08:50:22Z</time>
      </trkpt>
      <trkpt lat="43.49022" lon="2.32979">
        <ele>391</ele>
        <time>2019-03-16T08:50:26Z</time>
      </trkpt>
      <trkpt lat="43.49015" lon="2.32975">
        <ele>391</ele>
        <time>2019-03-16T08:50:28Z</time>
      </trkpt>
      <trkpt lat="43.49012" lon="2.32973">
        <ele>390</ele>
        <time>2019-03-16T08:50:29Z</time>
      </trkpt>
      <trkpt lat="43.4901" lon="2.32971">
        <ele>390</ele>
        <time>2019-03-16T08:50:30Z</time>
      </trkpt>
      <trkpt lat="43.48999" lon="2.32962">
        <ele>389</ele>
        <time>2019-03-16T08:50:34Z</time>
      </trkpt>
      <trkpt lat="43.48987" lon="2.32948">
        <ele>388</ele>
        <time>2019-03-16T08:50:37Z</time>
      </trkpt>
      <trkpt lat="43.4898" lon="2.32941">
        <ele>388</ele>
        <time>2019-03-16T08:50:39Z</time>
      </trkpt>
      <trkpt lat="43.48978" lon="2.32937">
        <ele>388</ele>
        <time>2019-03-16T08:50:40Z</time>
      </trkpt>
      <trkpt lat="43.48971" lon="2.32926">
        <ele>388</ele>
        <time>2019-03-16T08:50:43Z</time>
      </trkpt>
      <trkpt lat="43.48968" lon="2.32919">
        <ele>389</ele>
        <time>2019-03-16T08:50:45Z</time>
      </trkpt>
      <trkpt lat="43.48959" lon="2.32911">
        <ele>389</ele>
        <time>2019-03-16T08:50:48Z</time>
      </trkpt>
      <trkpt lat="43.48955" lon="2.32909">
        <ele>389</ele>
        <time>2019-03-16T08:50:49Z</time>
      </trkpt>
      <trkpt lat="43.48939" lon="2.329">
        <ele>390</ele>
        <time>2019-03-16T08:50:54Z</time>
      </trkpt>
      <trkpt lat="43.48927" lon="2.32894">
        <ele>391</ele>
        <time>2019-03-16T08:50:58Z</time>
      </trkpt>
      <trkpt lat="43.48917" lon="2.3289">
        <ele>392</ele>
        <time>2019-03-16T08:51:01Z</time>
      </trkpt>
      <trkpt lat="43.48911" lon="2.32888">
        <ele>393</ele>
        <time>2019-03-16T08:51:03Z</time>
      </trkpt>
      <trkpt lat="43.48909" lon="2.32886">
        <ele>394</ele>
        <time>2019-03-16T08:51:04Z</time>
      </trkpt>
      <trkpt lat="43.48901" lon="2.32879">
        <ele>395</ele>
        <time>2019-03-16T08:51:08Z</time>
      </trkpt>
      <trkpt lat="43.48892" lon="2.32874">
        <ele>396</ele>
        <time>2019-03-16T08:51:12Z</time>
      </trkpt>
      <trkpt lat="43.48891" lon="2.32873">
        <ele>396</ele>
        <time>2019-03-16T08:51:13Z</time>
      </trkpt>
      <trkpt lat="43.48892" lon="2.32871">
        <ele>396</ele>
        <time>2019-03-16T08:51:14Z</time>
      </trkpt>
      <trkpt lat="43.48887" lon="2.32866">
        <ele>397</ele>
        <time>2019-03-16T08:51:17Z</time>
      </trkpt>
      <trkpt lat="43.48885" lon="2.32862">
        <ele>397</ele>
        <time>2019-03-16T08:51:19Z</time>
      </trkpt>
      <trkpt lat="43.48885" lon="2.32859">
        <ele>397</ele>
        <time>2019-03-16T08:51:20Z</time>
      </trkpt>
      <trkpt lat="43.48883" lon="2.32856">
        <ele>398</ele>
        <time>2019-03-16T08:51:22Z</time>
      </trkpt>
      <trkpt lat="43.48882" lon="2.32849">
        <ele>399</ele>
        <time>2019-03-16T08:51:25Z</time>
      </trkpt>
      <trkpt lat="43.48881" lon="2.32846">
        <ele>399</ele>
        <time>2019-03-16T08:51:26Z</time>
      </trkpt>
      <trkpt lat="43.48879" lon="2.32846">
        <ele>399</ele>
        <time>2019-03-16T08:51:27Z</time>
      </trkpt>
      <trkpt lat="43.48872" lon="2.32837">
        <ele>400</ele>
        <time>2019-03-16T08:51:31Z</time>
      </trkpt>
      <trkpt lat="43.48871" lon="2.32835">
        <ele>400</ele>
        <time>2019-03-16T08:51:32Z</time>
      </trkpt>
      <trkpt lat="43.48869" lon="2.32834">
        <ele>400</ele>
        <time>2019-03-16T08:51:33Z</time>
      </trkpt>
      <trkpt lat="43.48867" lon="2.32831">
        <ele>401</ele>
        <time>2019-03-16T08:51:35Z</time>
      </trkpt>
      <trkpt lat="43.48864" lon="2.32827">
        <ele>401</ele>
        <time>2019-03-16T08:51:38Z</time>
      </trkpt>
      <trkpt lat="43.48864" lon="2.32824">
        <ele>401</ele>
        <time>2019-03-16T08:51:39Z</time>
      </trkpt>
      <trkpt lat="43.4886" lon="2.32821">
        <ele>402</ele>
        <time>2019-03-16T08:51:41Z</time>
      </trkpt>
      <trkpt lat="43.48854" lon="2.32818">
        <ele>403</ele>
        <time>2019-03-16T08:51:44Z</time>
      </trkpt>
      <trkpt lat="43.48849" lon="2.32812">
        <ele>404</ele>
        <time>2019-03-16T08:51:48Z</time>
      </trkpt>
      <trkpt lat="43.48846" lon="2.32813">
        <ele>404</ele>
        <time>2019-03-16T08:51:49Z</time>
      </trkpt>
      <trkpt lat="43.48837" lon="2.32809">
        <ele>404</ele>
        <time>2019-03-16T08:51:53Z</time>
      </trkpt>
      <trkpt lat="43.4883" lon="2.32804">
        <ele>405</ele>
        <time>2019-03-16T08:51:56Z</time>
      </trkpt>
      <trkpt lat="43.48826" lon="2.328">
        <ele>406</ele>
        <time>2019-03-16T08:51:58Z</time>
      </trkpt>
      <trkpt lat="43.4882" lon="2.32793">
        <ele>406</ele>
        <time>2019-03-16T08:52:02Z</time>
      </trkpt>
      <trkpt lat="43.48818" lon="2.32791">
        <ele>406</ele>
        <time>2019-03-16T08:52:03Z</time>
      </trkpt>
      <trkpt lat="43.4881" lon="2.32781">
        <ele>407</ele>
        <time>2019-03-16T08:52:08Z</time>
      </trkpt>
      <trkpt lat="43.48802" lon="2.32772">
        <ele>409</ele>
        <time>2019-03-16T08:52:12Z</time>
      </trkpt>
      <trkpt lat="43.48801" lon="2.3277">
        <ele>409</ele>
        <time>2019-03-16T08:52:13Z</time>
      </trkpt>
      <trkpt lat="43.48794" lon="2.32759">
        <ele>410</ele>
        <time>2019-03-16T08:52:19Z</time>
      </trkpt>
      <trkpt lat="43.48793" lon="2.32757">
        <ele>410</ele>
        <time>2019-03-16T08:52:20Z</time>
      </trkpt>
      <trkpt lat="43.48792" lon="2.32751">
        <ele>411</ele>
        <time>2019-03-16T08:52:23Z</time>
      </trkpt>
      <trkpt lat="43.48792" lon="2.32748">
        <ele>411</ele>
        <time>2019-03-16T08:52:25Z</time>
      </trkpt>
      <trkpt lat="43.4879" lon="2.32745">
        <ele>411</ele>
        <time>2019-03-16T08:52:27Z</time>
      </trkpt>
      <trkpt lat="43.48789" lon="2.32738">
        <ele>412</ele>
        <time>2019-03-16T08:52:32Z</time>
      </trkpt>
      <trkpt lat="43.48781" lon="2.32729">
        <ele>414</ele>
        <time>2019-03-16T08:52:39Z</time>
      </trkpt>
      <trkpt lat="43.48776" lon="2.32728">
        <ele>414</ele>
        <time>2019-03-16T08:52:41Z</time>
      </trkpt>
      <trkpt lat="43.48772" lon="2.32722">
        <ele>415</ele>
        <time>2019-03-16T08:52:45Z</time>
      </trkpt>
      <trkpt lat="43.4877" lon="2.32719">
        <ele>415</ele>
        <time>2019-03-16T08:52:47Z</time>
      </trkpt>
      <trkpt lat="43.48765" lon="2.32716">
        <ele>416</ele>
        <time>2019-03-16T08:52:50Z</time>
      </trkpt>
      <trkpt lat="43.4876" lon="2.32715">
        <ele>417</ele>
        <time>2019-03-16T08:52:53Z</time>
      </trkpt>
      <trkpt lat="43.48756" lon="2.32716">
        <ele>417</ele>
        <time>2019-03-16T08:52:55Z</time>
      </trkpt>
      <trkpt lat="43.48752" lon="2.32715">
        <ele>418</ele>
        <time>2019-03-16T08:52:57Z</time>
      </trkpt>
      <trkpt lat="43.4875" lon="2.32714">
        <ele>418</ele>
        <time>2019-03-16T08:52:59Z</time>
      </trkpt>
      <trkpt lat="43.4874" lon="2.32707">
        <ele>419</ele>
        <time>2019-03-16T08:53:05Z</time>
      </trkpt>
      <trkpt lat="43.48739" lon="2.32705">
        <ele>420</ele>
        <time>2019-03-16T08:53:06Z</time>
      </trkpt>
      <trkpt lat="43.48737" lon="2.32702">
        <ele>420</ele>
        <time>2019-03-16T08:53:08Z</time>
      </trkpt>
      <trkpt lat="43.48734" lon="2.32698">
        <ele>420</ele>
        <time>2019-03-16T08:53:11Z</time>
      </trkpt>
      <trkpt lat="43.48734" lon="2.32695">
        <ele>421</ele>
        <time>2019-03-16T08:53:13Z</time>
      </trkpt>
      <trkpt lat="43.48729" lon="2.32692">
        <ele>421</ele>
        <time>2019-03-16T08:53:17Z</time>
      </trkpt>
      <trkpt lat="43.48726" lon="2.32692">
        <ele>422</ele>
        <time>2019-03-16T08:53:19Z</time>
      </trkpt>
      <trkpt lat="43.48721" lon="2.32692">
        <ele>422</ele>
        <time>2019-03-16T08:53:23Z</time>
      </trkpt>
      <trkpt lat="43.48717" lon="2.32696">
        <ele>423</ele>
        <time>2019-03-16T08:53:26Z</time>
      </trkpt>
      <trkpt lat="43.48715" lon="2.32696">
        <ele>424</ele>
        <time>2019-03-16T08:53:28Z</time>
      </trkpt>
      <trkpt lat="43.48712" lon="2.32697">
        <ele>425</ele>
        <time>2019-03-16T08:53:31Z</time>
      </trkpt>
      <trkpt lat="43.48711" lon="2.32697">
        <ele>425</ele>
        <time>2019-03-16T08:53:33Z</time>
      </trkpt>
      <trkpt lat="43.48694" lon="2.32704">
        <ele>428</ele>
        <time>2019-03-16T08:53:47Z</time>
      </trkpt>
      <trkpt lat="43.4869" lon="2.32705">
        <ele>429</ele>
        <time>2019-03-16T08:53:49Z</time>
      </trkpt>
      <trkpt lat="43.48684" lon="2.32707">
        <ele>429</ele>
        <time>2019-03-16T08:53:52Z</time>
      </trkpt>
      <trkpt lat="43.48679" lon="2.32712">
        <ele>430</ele>
        <time>2019-03-16T08:53:55Z</time>
      </trkpt>
      <trkpt lat="43.48671" lon="2.32721">
        <ele>431</ele>
        <time>2019-03-16T08:54:00Z</time>
      </trkpt>
      <trkpt lat="43.48663" lon="2.32723">
        <ele>432</ele>
        <time>2019-03-16T08:54:04Z</time>
      </trkpt>
      <trkpt lat="43.48659" lon="2.32724">
        <ele>432</ele>
        <time>2019-03-16T08:54:06Z</time>
      </trkpt>
      <trkpt lat="43.48658" lon="2.32724">
        <ele>433</ele>
        <time>2019-03-16T08:54:07Z</time>
      </trkpt>
      <trkpt lat="43.48656" lon="2.32726">
        <ele>433</ele>
        <time>2019-03-16T08:54:08Z</time>
      </trkpt>
      <trkpt lat="43.48652" lon="2.32729">
        <ele>434</ele>
        <time>2019-03-16T08:54:11Z</time>
      </trkpt>
      <trkpt lat="43.48652" lon="2.32729">
        <ele>434</ele>
        <time>2019-03-16T08:54:12Z</time>
      </trkpt>
      <trkpt lat="43.48647" lon="2.32733">
        <ele>435</ele>
        <time>2019-03-16T08:54:16Z</time>
      </trkpt>
      <trkpt lat="43.48646" lon="2.32734">
        <ele>436</ele>
        <time>2019-03-16T08:54:17Z</time>
      </trkpt>
      <trkpt lat="43.48639" lon="2.3274">
        <ele>436</ele>
        <time>2019-03-16T08:54:22Z</time>
      </trkpt>
      <trkpt lat="43.48638" lon="2.32742">
        <ele>436</ele>
        <time>2019-03-16T08:54:23Z</time>
      </trkpt>
      <trkpt lat="43.48636" lon="2.32744">
        <ele>436</ele>
        <time>2019-03-16T08:54:24Z</time>
      </trkpt>
      <trkpt lat="43.48627" lon="2.32751">
        <ele>437</ele>
        <time>2019-03-16T08:54:29Z</time>
      </trkpt>
      <trkpt lat="43.48625" lon="2.32752">
        <ele>438</ele>
        <time>2019-03-16T08:54:30Z</time>
      </trkpt>
      <trkpt lat="43.48618" lon="2.32755">
        <ele>439</ele>
        <time>2019-03-16T08:54:34Z</time>
      </trkpt>
      <trkpt lat="43.48615" lon="2.32756">
        <ele>439</ele>
        <time>2019-03-16T08:54:36Z</time>
      </trkpt>
      <trkpt lat="43.48612" lon="2.32758">
        <ele>440</ele>
        <time>2019-03-16T08:54:39Z</time>
      </trkpt>
      <trkpt lat="43.48609" lon="2.32758">
        <ele>441</ele>
        <time>2019-03-16T08:54:41Z</time>
      </trkpt>
      <trkpt lat="43.48607" lon="2.32758">
        <ele>441</ele>
        <time>2019-03-16T08:54:43Z</time>
      </trkpt>
      <trkpt lat="43.48601" lon="2.3276">
        <ele>442</ele>
        <time>2019-03-16T08:54:47Z</time>
      </trkpt>
      <trkpt lat="43.48599" lon="2.32761">
        <ele>443</ele>
        <time>2019-03-16T08:54:49Z</time>
      </trkpt>
      <trkpt lat="43.48595" lon="2.32762">
        <ele>444</ele>
        <time>2019-03-16T08:54:53Z</time>
      </trkpt>
      <trkpt lat="43.48593" lon="2.32766">
        <ele>445</ele>
        <time>2019-03-16T08:54:58Z</time>
      </trkpt>
      <trkpt lat="43.48592" lon="2.32773">
        <ele>445</ele>
        <time>2019-03-16T08:55:01Z</time>
      </trkpt>
      <trkpt lat="43.48592" lon="2.32777">
        <ele>446</ele>
        <time>2019-03-16T08:55:03Z</time>
      </trkpt>
      <trkpt lat="43.48592" lon="2.32779">
        <ele>446</ele>
        <time>2019-03-16T08:55:04Z</time>
      </trkpt>
      <trkpt lat="43.48592" lon="2.32781">
        <ele>446</ele>
        <time>2019-03-16T08:55:05Z</time>
      </trkpt>
      <trkpt lat="43.48594" lon="2.32784">
        <ele>446</ele>
        <time>2019-03-16T08:55:08Z</time>
      </trkpt>
      <trkpt lat="43.48595" lon="2.32788">
        <ele>447</ele>
        <time>2019-03-16T08:55:12Z</time>
      </trkpt>
      <trkpt lat="43.48596" lon="2.32789">
        <ele>447</ele>
        <time>2019-03-16T08:55:13Z</time>
      </trkpt>
      <trkpt lat="43.486" lon="2.32795">
        <ele>448</ele>
        <time>2019-03-16T08:55:20Z</time>
      </trkpt>
      <trkpt lat="43.48601" lon="2.32799">
        <ele>449</ele>
        <time>2019-03-16T08:55:24Z</time>
      </trkpt>
      <trkpt lat="43.48602" lon="2.32799">
        <ele>449</ele>
        <time>2019-03-16T08:55:25Z</time>
      </trkpt>
      <trkpt lat="43.48607" lon="2.32803">
        <ele>450</ele>
        <time>2019-03-16T08:55:29Z</time>
      </trkpt>
      <trkpt lat="43.48611" lon="2.32804">
        <ele>450</ele>
        <time>2019-03-16T08:55:31Z</time>
      </trkpt>
      <trkpt lat="43.48613" lon="2.32804">
        <ele>450</ele>
        <time>2019-03-16T08:55:32Z</time>
      </trkpt>
      <trkpt lat="43.48621" lon="2.32802">
        <ele>451</ele>
        <time>2019-03-16T08:55:36Z</time>
      </trkpt>
      <trkpt lat="43.48624" lon="2.32802">
        <ele>451</ele>
        <time>2019-03-16T08:55:38Z</time>
      </trkpt>
      <trkpt lat="43.48628" lon="2.32801">
        <ele>452</ele>
        <time>2019-03-16T08:55:41Z</time>
      </trkpt>
      <trkpt lat="43.4863" lon="2.32801">
        <ele>452</ele>
        <time>2019-03-16T08:55:42Z</time>
      </trkpt>
      <trkpt lat="43.48631" lon="2.328">
        <ele>453</ele>
        <time>2019-03-16T08:55:43Z</time>
      </trkpt>
      <trkpt lat="43.48637" lon="2.328">
        <ele>453</ele>
        <time>2019-03-16T08:55:47Z</time>
      </trkpt>
      <trkpt lat="43.48644" lon="2.32799">
        <ele>455</ele>
        <time>2019-03-16T08:55:52Z</time>
      </trkpt>
      <trkpt lat="43.48651" lon="2.328">
        <ele>456</ele>
        <time>2019-03-16T08:55:57Z</time>
      </trkpt>
      <trkpt lat="43.4866" lon="2.32805">
        <ele>456</ele>
        <time>2019-03-16T08:56:02Z</time>
      </trkpt>
      <trkpt lat="43.48674" lon="2.32812">
        <ele>457</ele>
        <time>2019-03-16T08:56:09Z</time>
      </trkpt>
      <trkpt lat="43.48682" lon="2.32814">
        <ele>457</ele>
        <time>2019-03-16T08:56:12Z</time>
      </trkpt>
      <trkpt lat="43.48686" lon="2.32816">
        <ele>457</ele>
        <time>2019-03-16T08:56:14Z</time>
      </trkpt>
      <trkpt lat="43.48701" lon="2.32825">
        <ele>457</ele>
        <time>2019-03-16T08:56:19Z</time>
      </trkpt>
      <trkpt lat="43.48718" lon="2.32837">
        <ele>457</ele>
        <time>2019-03-16T08:56:24Z</time>
      </trkpt>
      <trkpt lat="43.48733" lon="2.32849">
        <ele>458</ele>
        <time>2019-03-16T08:56:29Z</time>
      </trkpt>
      <trkpt lat="43.48744" lon="2.32861">
        <ele>458</ele>
        <time>2019-03-16T08:56:34Z</time>
      </trkpt>
      <trkpt lat="43.48746" lon="2.32863">
        <ele>458</ele>
        <time>2019-03-16T08:56:35Z</time>
      </trkpt>
      <trkpt lat="43.48746" lon="2.32865">
        <ele>458</ele>
        <time>2019-03-16T08:56:36Z</time>
      </trkpt>
      <trkpt lat="43.48752" lon="2.32872">
        <ele>459</ele>
        <time>2019-03-16T08:56:39Z</time>
      </trkpt>
      <trkpt lat="43.48753" lon="2.32874">
        <ele>459</ele>
        <time>2019-03-16T08:56:40Z</time>
      </trkpt>
      <trkpt lat="43.48756" lon="2.32878">
        <ele>459</ele>
        <time>2019-03-16T08:56:42Z</time>
      </trkpt>
      <trkpt lat="43.48759" lon="2.32883">
        <ele>460</ele>
        <time>2019-03-16T08:56:44Z</time>
      </trkpt>
      <trkpt lat="43.48762" lon="2.32887">
        <ele>460</ele>
        <time>2019-03-16T08:56:46Z</time>
      </trkpt>
      <trkpt lat="43.48768" lon="2.32895">
        <ele>461</ele>
        <time>2019-03-16T08:56:49Z</time>
      </trkpt>
      <trkpt lat="43.48769" lon="2.32897">
        <ele>462</ele>
        <time>2019-03-16T08:56:50Z</time>
      </trkpt>
      <trkpt lat="43.48775" lon="2.32907">
        <ele>462</ele>
        <time>2019-03-16T08:56:54Z</time>
      </trkpt>
      <trkpt lat="43.48776" lon="2.32911">
        <ele>463</ele>
        <time>2019-03-16T08:56:56Z</time>
      </trkpt>
      <trkpt lat="43.48777" lon="2.32918">
        <ele>463</ele>
        <time>2019-03-16T08:56:59Z</time>
      </trkpt>
      <trkpt lat="43.48777" lon="2.3292">
        <ele>464</ele>
        <time>2019-03-16T08:57:00Z</time>
      </trkpt>
      <trkpt lat="43.48778" lon="2.32922">
        <ele>464</ele>
        <time>2019-03-16T08:57:01Z</time>
      </trkpt>
      <trkpt lat="43.48779" lon="2.32931">
        <ele>465</ele>
        <time>2019-03-16T08:57:05Z</time>
      </trkpt>
      <trkpt lat="43.4878" lon="2.32934">
        <ele>466</ele>
        <time>2019-03-16T08:57:07Z</time>
      </trkpt>
      <trkpt lat="43.48781" lon="2.32939">
        <ele>467</ele>
        <time>2019-03-16T08:57:10Z</time>
      </trkpt>
      <trkpt lat="43.48781" lon="2.32941">
        <ele>467</ele>
        <time>2019-03-16T08:57:11Z</time>
      </trkpt>
      <trkpt lat="43.48782" lon="2.32942">
        <ele>467</ele>
        <time>2019-03-16T08:57:12Z</time>
      </trkpt>
      <trkpt lat="43.48782" lon="2.32948">
        <ele>468</ele>
        <time>2019-03-16T08:57:16Z</time>
      </trkpt>
      <trkpt lat="43.48781" lon="2.3295">
        <ele>468</ele>
        <time>2019-03-16T08:57:17Z</time>
      </trkpt>
      <trkpt lat="43.48779" lon="2.32954">
        <ele>469</ele>
        <time>2019-03-16T08:57:20Z</time>
      </trkpt>
      <trkpt lat="43.48777" lon="2.32957">
        <ele>469</ele>
        <time>2019-03-16T08:57:22Z</time>
      </trkpt>
      <trkpt lat="43.48777" lon="2.32963">
        <ele>470</ele>
        <time>2019-03-16T08:57:26Z</time>
      </trkpt>
      <trkpt lat="43.48776" lon="2.32966">
        <ele>470</ele>
        <time>2019-03-16T08:57:28Z</time>
      </trkpt>
      <trkpt lat="43.48775" lon="2.32973">
        <ele>470</ele>
        <time>2019-03-16T08:57:32Z</time>
      </trkpt>
      <trkpt lat="43.48774" lon="2.3298">
        <ele>471</ele>
        <time>2019-03-16T08:57:35Z</time>
      </trkpt>
      <trkpt lat="43.48773" lon="2.32984">
        <ele>471</ele>
        <time>2019-03-16T08:57:37Z</time>
      </trkpt>
      <trkpt lat="43.48772" lon="2.32986">
        <ele>472</ele>
        <time>2019-03-16T08:57:38Z</time>
      </trkpt>
      <trkpt lat="43.4877" lon="2.32989">
        <ele>472</ele>
        <time>2019-03-16T08:57:39Z</time>
      </trkpt>
      <trkpt lat="43.48768" lon="2.32998">
        <ele>473</ele>
        <time>2019-03-16T08:57:43Z</time>
      </trkpt>
      <trkpt lat="43.48766" lon="2.33003">
        <ele>474</ele>
        <time>2019-03-16T08:57:45Z</time>
      </trkpt>
      <trkpt lat="43.48764" lon="2.33007">
        <ele>474</ele>
        <time>2019-03-16T08:57:47Z</time>
      </trkpt>
      <trkpt lat="43.48759" lon="2.33016">
        <ele>475</ele>
        <time>2019-03-16T08:57:51Z</time>
      </trkpt>
      <trkpt lat="43.48758" lon="2.33018">
        <ele>476</ele>
        <time>2019-03-16T08:57:52Z</time>
      </trkpt>
      <trkpt lat="43.48757" lon="2.3302">
        <ele>476</ele>
        <time>2019-03-16T08:57:53Z</time>
      </trkpt>
      <trkpt lat="43.48755" lon="2.33024">
        <ele>477</ele>
        <time>2019-03-16T08:57:55Z</time>
      </trkpt>
      <trkpt lat="43.48753" lon="2.33028">
        <ele>477</ele>
        <time>2019-03-16T08:57:57Z</time>
      </trkpt>
      <trkpt lat="43.4875" lon="2.33033">
        <ele>478</ele>
        <time>2019-03-16T08:58:00Z</time>
      </trkpt>
      <trkpt lat="43.48749" lon="2.33035">
        <ele>478</ele>
        <time>2019-03-16T08:58:03Z</time>
      </trkpt>
      <trkpt lat="43.48747" lon="2.33039">
        <ele>479</ele>
        <time>2019-03-16T08:58:16Z</time>
      </trkpt>
      <trkpt lat="43.48746" lon="2.3304">
        <ele>479</ele>
        <time>2019-03-16T08:58:21Z</time>
      </trkpt>
      <trkpt lat="43.48744" lon="2.33037">
        <ele>479</ele>
        <time>2019-03-16T08:58:33Z</time>
      </trkpt>
      <trkpt lat="43.48743" lon="2.33037">
        <ele>480</ele>
        <time>2019-03-16T08:58:35Z</time>
      </trkpt>
      <trkpt lat="43.48743" lon="2.33036">
        <ele>480</ele>
        <time>2019-03-16T08:58:37Z</time>
      </trkpt>
      <trkpt lat="43.48742" lon="2.33036">
        <ele>480</ele>
        <time>2019-03-16T08:58:38Z</time>
      </trkpt>
      <trkpt lat="43.48742" lon="2.33035">
        <ele>480</ele>
        <time>2019-03-16T08:58:39Z</time>
      </trkpt>
      <trkpt lat="43.4874" lon="2.33031">
        <ele>481</ele>
        <time>2019-03-16T08:58:46Z</time>
      </trkpt>
      <trkpt lat="43.48739" lon="2.3303">
        <ele>481</ele>
        <time>2019-03-16T08:58:49Z</time>
      </trkpt>
      <trkpt lat="43.48739" lon="2.33026">
        <ele>482</ele>
        <time>2019-03-16T08:58:57Z</time>
      </trkpt>
      <trkpt lat="43.48739" lon="2.33024">
        <ele>482</ele>
        <time>2019-03-16T08:58:59Z</time>
      </trkpt>
      <trkpt lat="43.48738" lon="2.33018">
        <ele>483</ele>
        <time>2019-03-16T08:59:06Z</time>
      </trkpt>
      <trkpt lat="43.48738" lon="2.33017">
        <ele>483</ele>
        <time>2019-03-16T08:59:07Z</time>
      </trkpt>
      <trkpt lat="43.48738" lon="2.33013">
        <ele>484</ele>
        <time>2019-03-16T08:59:12Z</time>
      </trkpt>
      <trkpt lat="43.48737" lon="2.3301">
        <ele>484</ele>
        <time>2019-03-16T08:59:16Z</time>
      </trkpt>
      <trkpt lat="43.48737" lon="2.33009">
        <ele>485</ele>
        <time>2019-03-16T08:59:17Z</time>
      </trkpt>
      <trkpt lat="43.48736" lon="2.33008">
        <ele>485</ele>
        <time>2019-03-16T08:59:19Z</time>
      </trkpt>
      <trkpt lat="43.48736" lon="2.33003">
        <ele>485</ele>
        <time>2019-03-16T08:59:24Z</time>
      </trkpt>
      <trkpt lat="43.48736" lon="2.33001">
        <ele>485</ele>
        <time>2019-03-16T08:59:26Z</time>
      </trkpt>
      <trkpt lat="43.48735" lon="2.32996">
        <ele>486</ele>
        <time>2019-03-16T08:59:33Z</time>
      </trkpt>
      <trkpt lat="43.48736" lon="2.32995">
        <ele>487</ele>
        <time>2019-03-16T08:59:55Z</time>
      </trkpt>
      <trkpt lat="43.48736" lon="2.32994">
        <ele>487</ele>
        <time>2019-03-16T08:59:57Z</time>
      </trkpt>
      <trkpt lat="43.48736" lon="2.32989">
        <ele>487</ele>
        <time>2019-03-16T09:00:11Z</time>
      </trkpt>
      <trkpt lat="43.48736" lon="2.32984">
        <ele>488</ele>
        <time>2019-03-16T09:00:15Z</time>
      </trkpt>
      <trkpt lat="43.48737" lon="2.32976">
        <ele>489</ele>
        <time>2019-03-16T09:00:21Z</time>
      </trkpt>
      <trkpt lat="43.48738" lon="2.32973">
        <ele>490</ele>
        <time>2019-03-16T09:00:24Z</time>
      </trkpt>
      <trkpt lat="43.48739" lon="2.32969">
        <ele>490</ele>
        <time>2019-03-16T09:00:29Z</time>
      </trkpt>
      <trkpt lat="43.48739" lon="2.32966">
        <ele>490</ele>
        <time>2019-03-16T09:00:31Z</time>
      </trkpt>
      <trkpt lat="43.4874" lon="2.32965">
        <ele>491</ele>
        <time>2019-03-16T09:00:32Z</time>
      </trkpt>
      <trkpt lat="43.48741" lon="2.32957">
        <ele>491</ele>
        <time>2019-03-16T09:00:38Z</time>
      </trkpt>
      <trkpt lat="43.48741" lon="2.32952">
        <ele>491</ele>
        <time>2019-03-16T09:00:42Z</time>
      </trkpt>
      <trkpt lat="43.48741" lon="2.32951">
        <ele>491</ele>
        <time>2019-03-16T09:00:43Z</time>
      </trkpt>
      <trkpt lat="43.48741" lon="2.32947">
        <ele>491</ele>
        <time>2019-03-16T09:00:46Z</time>
      </trkpt>
      <trkpt lat="43.4874" lon="2.32941">
        <ele>492</ele>
        <time>2019-03-16T09:00:50Z</time>
      </trkpt>
      <trkpt lat="43.48737" lon="2.32936">
        <ele>492</ele>
        <time>2019-03-16T09:00:55Z</time>
      </trkpt>
      <trkpt lat="43.48735" lon="2.32934">
        <ele>493</ele>
        <time>2019-03-16T09:00:58Z</time>
      </trkpt>
      <trkpt lat="43.48734" lon="2.32933">
        <ele>493</ele>
        <time>2019-03-16T09:00:59Z</time>
      </trkpt>
      <trkpt lat="43.48733" lon="2.32932">
        <ele>493</ele>
        <time>2019-03-16T09:01:02Z</time>
      </trkpt>
      <trkpt lat="43.48728" lon="2.32929">
        <ele>494</ele>
        <time>2019-03-16T09:01:09Z</time>
      </trkpt>
      <trkpt lat="43.48726" lon="2.32927">
        <ele>494</ele>
        <time>2019-03-16T09:01:13Z</time>
      </trkpt>
      <trkpt lat="43.4872" lon="2.32925">
        <ele>495</ele>
        <time>2019-03-16T09:01:21Z</time>
      </trkpt>
      <trkpt lat="43.4872" lon="2.32924">
        <ele>496</ele>
        <time>2019-03-16T09:01:22Z</time>
      </trkpt>
      <trkpt lat="43.48716" lon="2.32923">
        <ele>497</ele>
        <time>2019-03-16T09:01:27Z</time>
      </trkpt>
      <trkpt lat="43.48712" lon="2.32921">
        <ele>498</ele>
        <time>2019-03-16T09:01:34Z</time>
      </trkpt>
      <trkpt lat="43.48708" lon="2.3292">
        <ele>499</ele>
        <time>2019-03-16T09:01:40Z</time>
      </trkpt>
      <trkpt lat="43.48705" lon="2.32919">
        <ele>500</ele>
        <time>2019-03-16T09:01:44Z</time>
      </trkpt>
      <trkpt lat="43.48704" lon="2.32919">
        <ele>500</ele>
        <time>2019-03-16T09:01:45Z</time>
      </trkpt>
      <trkpt lat="43.48698" lon="2.32917">
        <ele>501</ele>
        <time>2019-03-16T09:01:52Z</time>
      </trkpt>
      <trkpt lat="43.48697" lon="2.32917">
        <ele>501</ele>
        <time>2019-03-16T09:01:53Z</time>
      </trkpt>
      <trkpt lat="43.48691" lon="2.32919">
        <ele>450</ele>
        <time>2019-03-16T09:02:00Z</time>
      </trkpt>
      <trkpt lat="43.48691" lon="2.32918">
        <ele>502</ele>
        <time>2019-03-16T09:02:01Z</time>
      </trkpt>
      <trkpt lat="43.48687" lon="2.32916">
        <ele>503</ele>
        <time>2019-03-16T09:02:05Z</time>
      </trkpt>
      <trkpt lat="43.48683" lon="2.32916">
        <ele>503</ele>
        <time>2019-03-16T09:02:10Z</time>
      </trkpt>
      <trkpt lat="43.48682" lon="2.32915">
        <ele>503</ele>
        <time>2019-03-16T09:02:11Z</time>
      </trkpt>
      <trkpt lat="43.48673" lon="2.32914">
        <ele>504</ele>
        <time>2019-03-16T09:02:20Z</time>
      </trkpt>
      <trkpt lat="43.48669" lon="2.32913">
        <ele>504</ele>
        <time>2019-03-16T09:02:24Z</time>
      </trkpt>
      <trkpt lat="43.48666" lon="2.32912">
        <ele>504</ele>
        <time>2019-03-16T09:02:27Z</time>
      </trkpt>
      <trkpt lat="43.4866" lon="2.32912">
        <ele>505</ele>
        <time>2019-03-16T09:02:33Z</time>
      </trkpt>
      <trkpt lat="43.48657" lon="2.32912">
        <ele>506</ele>
        <time>2019-03-16T09:02:35Z</time>
      </trkpt>
      <trkpt lat="43.48652" lon="2.32911">
        <ele>506</ele>
        <time>2019-03-16T09:02:41Z</time>
      </trkpt>
      <trkpt lat="43.48649" lon="2.3291">
        <ele>506</ele>
        <time>2019-03-16T09:02:44Z</time>
      </trkpt>
      <trkpt lat="43.48644" lon="2.3291">
        <ele>507</ele>
        <time>2019-03-16T09:02:51Z</time>
      </trkpt>
      <trkpt lat="43.48637" lon="2.32912">
        <ele>508</ele>
        <time>2019-03-16T09:02:59Z</time>
      </trkpt>
      <trkpt lat="43.48636" lon="2.32914">
        <ele>508</ele>
        <time>2019-03-16T09:03:01Z</time>
      </trkpt>
      <trkpt lat="43.48629" lon="2.32917">
        <ele>508</ele>
        <time>2019-03-16T09:03:08Z</time>
      </trkpt>
      <trkpt lat="43.48619" lon="2.32915">
        <ele>509</ele>
        <time>2019-03-16T09:03:18Z</time>
      </trkpt>
      <trkpt lat="43.48614" lon="2.32915">
        <ele>509</ele>
        <time>2019-03-16T09:03:24Z</time>
      </trkpt>
      <trkpt lat="43.48613" lon="2.32916">
        <ele>509</ele>
        <time>2019-03-16T09:03:26Z</time>
      </trkpt>
      <trkpt lat="43.48612" lon="2.32915">
        <ele>509</ele>
        <time>2019-03-16T09:03:27Z</time>
      </trkpt>
      <trkpt lat="43.48602" lon="2.32917">
        <ele>509</ele>
        <time>2019-03-16T09:03:34Z</time>
      </trkpt>
      <trkpt lat="43.48593" lon="2.32916">
        <ele>509</ele>
        <time>2019-03-16T09:03:40Z</time>
      </trkpt>
      <trkpt lat="43.48588" lon="2.32915">
        <ele>510</ele>
        <time>2019-03-16T09:03:45Z</time>
      </trkpt>
      <trkpt lat="43.48586" lon="2.32915">
        <ele>510</ele>
        <time>2019-03-16T09:03:46Z</time>
      </trkpt>
      <trkpt lat="43.4858" lon="2.32918">
        <ele>510</ele>
        <time>2019-03-16T09:03:51Z</time>
      </trkpt>
      <trkpt lat="43.48577" lon="2.3292">
        <ele>511</ele>
        <time>2019-03-16T09:03:53Z</time>
      </trkpt>
      <trkpt lat="43.48574" lon="2.3292">
        <ele>511</ele>
        <time>2019-03-16T09:03:56Z</time>
      </trkpt>
      <trkpt lat="43.48573" lon="2.3292">
        <ele>511</ele>
        <time>2019-03-16T09:03:58Z</time>
      </trkpt>
      <trkpt lat="43.48564" lon="2.32919">
        <ele>511</ele>
        <time>2019-03-16T09:06:26Z</time>
      </trkpt>
      <trkpt lat="43.48563" lon="2.32919">
        <ele>511</ele>
        <time>2019-03-16T09:06:27Z</time>
      </trkpt>
      <trkpt lat="43.48561" lon="2.32919">
        <ele>512</ele>
        <time>2019-03-16T09:06:29Z</time>
      </trkpt>
      <trkpt lat="43.48556" lon="2.3292">
        <ele>512</ele>
        <time>2019-03-16T09:06:36Z</time>
      </trkpt>
      <trkpt lat="43.48554" lon="2.3292">
        <ele>512</ele>
        <time>2019-03-16T09:06:40Z</time>
      </trkpt>
      <trkpt lat="43.48551" lon="2.3292">
        <ele>512</ele>
        <time>2019-03-16T09:06:43Z</time>
      </trkpt>
      <trkpt lat="43.48549" lon="2.32921">
        <ele>512</ele>
        <time>2019-03-16T09:06:45Z</time>
      </trkpt>
      <trkpt lat="43.48543" lon="2.3292">
        <ele>512</ele>
        <time>2019-03-16T09:06:50Z</time>
      </trkpt>
      <trkpt lat="43.48534" lon="2.3292">
        <ele>512</ele>
        <time>2019-03-16T09:06:56Z</time>
      </trkpt>
      <trkpt lat="43.48528" lon="2.3292">
        <ele>512</ele>
        <time>2019-03-16T09:06:59Z</time>
      </trkpt>
      <trkpt lat="43.48519" lon="2.32919">
        <ele>512</ele>
        <time>2019-03-16T09:07:04Z</time>
      </trkpt>
      <trkpt lat="43.48507" lon="2.32916">
        <ele>512</ele>
        <time>2019-03-16T09:07:11Z</time>
      </trkpt>
      <trkpt lat="43.48504" lon="2.32915">
        <ele>513</ele>
        <time>2019-03-16T09:07:13Z</time>
      </trkpt>
      <trkpt lat="43.48501" lon="2.32915">
        <ele>513</ele>
        <time>2019-03-16T09:07:15Z</time>
      </trkpt>
      <trkpt lat="43.48498" lon="2.32915">
        <ele>513</ele>
        <time>2019-03-16T09:07:17Z</time>
      </trkpt>
      <trkpt lat="43.4849" lon="2.32914">
        <ele>513</ele>
        <time>2019-03-16T09:07:21Z</time>
      </trkpt>
      <trkpt lat="43.48489" lon="2.32913">
        <ele>513</ele>
        <time>2019-03-16T09:07:22Z</time>
      </trkpt>
      <trkpt lat="43.4848" lon="2.32911">
        <ele>513</ele>
        <time>2019-03-16T09:07:28Z</time>
      </trkpt>
      <trkpt lat="43.48468" lon="2.32907">
        <ele>513</ele>
        <time>2019-03-16T09:07:35Z</time>
      </trkpt>
      <trkpt lat="43.48464" lon="2.32905">
        <ele>514</ele>
        <time>2019-03-16T09:07:38Z</time>
      </trkpt>
      <trkpt lat="43.48461" lon="2.32906">
        <ele>514</ele>
        <time>2019-03-16T09:07:40Z</time>
      </trkpt>
      <trkpt lat="43.4846" lon="2.32905">
        <ele>514</ele>
        <time>2019-03-16T09:07:41Z</time>
      </trkpt>
      <trkpt lat="43.48454" lon="2.32904">
        <ele>515</ele>
        <time>2019-03-16T09:07:45Z</time>
      </trkpt>
      <trkpt lat="43.48453" lon="2.32904">
        <ele>515</ele>
        <time>2019-03-16T09:07:46Z</time>
      </trkpt>
      <trkpt lat="43.48448" lon="2.32903">
        <ele>516</ele>
        <time>2019-03-16T09:07:50Z</time>
      </trkpt>
      <trkpt lat="43.48445" lon="2.32903">
        <ele>516</ele>
        <time>2019-03-16T09:07:52Z</time>
      </trkpt>
      <trkpt lat="43.48443" lon="2.32903">
        <ele>516</ele>
        <time>2019-03-16T09:07:53Z</time>
      </trkpt>
      <trkpt lat="43.4844" lon="2.32903">
        <ele>517</ele>
        <time>2019-03-16T09:07:56Z</time>
      </trkpt>
      <trkpt lat="43.48438" lon="2.32902">
        <ele>517</ele>
        <time>2019-03-16T09:07:58Z</time>
      </trkpt>
      <trkpt lat="43.48435" lon="2.32901">
        <ele>518</ele>
        <time>2019-03-16T09:08:01Z</time>
      </trkpt>
      <trkpt lat="43.48431" lon="2.32901">
        <ele>518</ele>
        <time>2019-03-16T09:08:05Z</time>
      </trkpt>
      <trkpt lat="43.48431" lon="2.329">
        <ele>519</ele>
        <time>2019-03-16T09:08:07Z</time>
      </trkpt>
      <trkpt lat="43.48431" lon="2.329">
        <ele>519</ele>
        <time>2019-03-16T09:08:08Z</time>
      </trkpt>
      <trkpt lat="43.48428" lon="2.32901">
        <ele>519</ele>
        <time>2019-03-16T09:08:11Z</time>
      </trkpt>
      <trkpt lat="43.48424" lon="2.32901">
        <ele>519</ele>
        <time>2019-03-16T09:08:18Z</time>
      </trkpt>
      <trkpt lat="43.48421" lon="2.329">
        <ele>520</ele>
        <time>2019-03-16T09:08:21Z</time>
      </trkpt>
      <trkpt lat="43.48418" lon="2.32898">
        <ele>520</ele>
        <time>2019-03-16T09:08:26Z</time>
      </trkpt>
      <trkpt lat="43.48409" lon="2.32898">
        <ele>520</ele>
        <time>2019-03-16T09:08:34Z</time>
      </trkpt>
      <trkpt lat="43.48408" lon="2.32899">
        <ele>521</ele>
        <time>2019-03-16T09:08:36Z</time>
      </trkpt>
      <trkpt lat="43.48399" lon="2.32902">
        <ele>522</ele>
        <time>2019-03-16T09:08:43Z</time>
      </trkpt>
      <trkpt lat="43.48398" lon="2.32902">
        <ele>522</ele>
        <time>2019-03-16T09:08:44Z</time>
      </trkpt>
      <trkpt lat="43.48389" lon="2.32906">
        <ele>523</ele>
        <time>2019-03-16T09:08:50Z</time>
      </trkpt>
      <trkpt lat="43.48388" lon="2.32907">
        <ele>523</ele>
        <time>2019-03-16T09:08:51Z</time>
      </trkpt>
      <trkpt lat="43.48385" lon="2.32909">
        <ele>524</ele>
        <time>2019-03-16T09:08:54Z</time>
      </trkpt>
      <trkpt lat="43.48382" lon="2.32912">
        <ele>525</ele>
        <time>2019-03-16T09:08:57Z</time>
      </trkpt>
      <trkpt lat="43.48381" lon="2.32913">
        <ele>525</ele>
        <time>2019-03-16T09:08:58Z</time>
      </trkpt>
      <trkpt lat="43.48377" lon="2.32917">
        <ele>525</ele>
        <time>2019-03-16T09:09:02Z</time>
      </trkpt>
      <trkpt lat="43.48374" lon="2.3292">
        <ele>525</ele>
        <time>2019-03-16T09:09:04Z</time>
      </trkpt>
      <trkpt lat="43.48367" lon="2.3293">
        <ele>525</ele>
        <time>2019-03-16T09:09:11Z</time>
      </trkpt>
      <trkpt lat="43.48366" lon="2.32932">
        <ele>525</ele>
        <time>2019-03-16T09:09:12Z</time>
      </trkpt>
      <trkpt lat="43.48366" lon="2.32934">
        <ele>525</ele>
        <time>2019-03-16T09:09:13Z</time>
      </trkpt>
      <trkpt lat="43.48364" lon="2.32939">
        <ele>526</ele>
        <time>2019-03-16T09:09:16Z</time>
      </trkpt>
      <trkpt lat="43.48364" lon="2.32947">
        <ele>528</ele>
        <time>2019-03-16T09:09:20Z</time>
      </trkpt>
      <trkpt lat="43.48363" lon="2.32949">
        <ele>528</ele>
        <time>2019-03-16T09:09:21Z</time>
      </trkpt>
      <trkpt lat="43.48364" lon="2.32951">
        <ele>528</ele>
        <time>2019-03-16T09:09:22Z</time>
      </trkpt>
      <trkpt lat="43.48365" lon="2.32955">
        <ele>529</ele>
        <time>2019-03-16T09:09:24Z</time>
      </trkpt>
      <trkpt lat="43.48366" lon="2.32956">
        <ele>529</ele>
        <time>2019-03-16T09:09:25Z</time>
      </trkpt>
      <trkpt lat="43.48367" lon="2.32957">
        <ele>529</ele>
        <time>2019-03-16T09:09:26Z</time>
      </trkpt>
      <trkpt lat="43.48371" lon="2.32958">
        <ele>530</ele>
        <time>2019-03-16T09:09:31Z</time>
      </trkpt>
      <trkpt lat="43.48372" lon="2.32958">
        <ele>530</ele>
        <time>2019-03-16T09:09:32Z</time>
      </trkpt>
      <trkpt lat="43.48373" lon="2.32955">
        <ele>531</ele>
        <time>2019-03-16T09:09:35Z</time>
      </trkpt>
      <trkpt lat="43.48375" lon="2.32954">
        <ele>531</ele>
        <time>2019-03-16T09:09:37Z</time>
      </trkpt>
      <trkpt lat="43.48377" lon="2.32951">
        <ele>532</ele>
        <time>2019-03-16T09:09:39Z</time>
      </trkpt>
      <trkpt lat="43.48378" lon="2.32947">
        <ele>533</ele>
        <time>2019-03-16T09:09:41Z</time>
      </trkpt>
      <trkpt lat="43.48378" lon="2.32944">
        <ele>534</ele>
        <time>2019-03-16T09:09:43Z</time>
      </trkpt>
      <trkpt lat="43.48379" lon="2.32943">
        <ele>535</ele>
        <time>2019-03-16T09:09:47Z</time>
      </trkpt>
      <trkpt lat="43.48383" lon="2.32942">
        <ele>537</ele>
        <time>2019-03-16T09:09:51Z</time>
      </trkpt>
      <trkpt lat="43.48385" lon="2.32941">
        <ele>537</ele>
        <time>2019-03-16T09:09:52Z</time>
      </trkpt>
      <trkpt lat="43.48387" lon="2.32941">
        <ele>537</ele>
        <time>2019-03-16T09:09:53Z</time>
      </trkpt>
      <trkpt lat="43.48389" lon="2.32941">
        <ele>537</ele>
        <time>2019-03-16T09:09:56Z</time>
      </trkpt>
      <trkpt lat="43.48395" lon="2.32945">
        <ele>537</ele>
        <time>2019-03-16T09:10:09Z</time>
      </trkpt>
      <trkpt lat="43.48395" lon="2.32945">
        <ele>537</ele>
        <time>2019-03-16T09:10:10Z</time>
      </trkpt>
      <trkpt lat="43.48397" lon="2.3295">
        <ele>538</ele>
        <time>2019-03-16T09:10:16Z</time>
      </trkpt>
      <trkpt lat="43.48397" lon="2.32951">
        <ele>538</ele>
        <time>2019-03-16T09:10:17Z</time>
      </trkpt>
      <trkpt lat="43.48394" lon="2.32956">
        <ele>539</ele>
        <time>2019-03-16T09:10:23Z</time>
      </trkpt>
      <trkpt lat="43.48393" lon="2.32957">
        <ele>539</ele>
        <time>2019-03-16T09:10:26Z</time>
      </trkpt>
      <trkpt lat="43.48392" lon="2.32957">
        <ele>540</ele>
        <time>2019-03-16T09:10:29Z</time>
      </trkpt>
      <trkpt lat="43.48389" lon="2.32963">
        <ele>540</ele>
        <time>2019-03-16T09:10:34Z</time>
      </trkpt>
      <trkpt lat="43.48388" lon="2.32964">
        <ele>540</ele>
        <time>2019-03-16T09:10:35Z</time>
      </trkpt>
      <trkpt lat="43.48385" lon="2.32971">
        <ele>541</ele>
        <time>2019-03-16T09:10:40Z</time>
      </trkpt>
      <trkpt lat="43.48385" lon="2.32973">
        <ele>542</ele>
        <time>2019-03-16T09:10:41Z</time>
      </trkpt>
      <trkpt lat="43.48382" lon="2.32982">
        <ele>542</ele>
        <time>2019-03-16T09:10:47Z</time>
      </trkpt>
      <trkpt lat="43.48381" lon="2.32984">
        <ele>543</ele>
        <time>2019-03-16T09:10:48Z</time>
      </trkpt>
      <trkpt lat="43.48379" lon="2.32989">
        <ele>543</ele>
        <time>2019-03-16T09:10:51Z</time>
      </trkpt>
      <trkpt lat="43.48377" lon="2.32992">
        <ele>544</ele>
        <time>2019-03-16T09:10:54Z</time>
      </trkpt>
      <trkpt lat="43.48376" lon="2.32992">
        <ele>544</ele>
        <time>2019-03-16T09:10:55Z</time>
      </trkpt>
      <trkpt lat="43.48373" lon="2.32993">
        <ele>545</ele>
        <time>2019-03-16T09:10:57Z</time>
      </trkpt>
      <trkpt lat="43.48371" lon="2.32993">
        <ele>545</ele>
        <time>2019-03-16T09:10:59Z</time>
      </trkpt>
      <trkpt lat="43.4837" lon="2.32993">
        <ele>545</ele>
        <time>2019-03-16T09:11:00Z</time>
      </trkpt>
      <trkpt lat="43.48366" lon="2.32993">
        <ele>546</ele>
        <time>2019-03-16T09:11:03Z</time>
      </trkpt>
      <trkpt lat="43.48365" lon="2.32993">
        <ele>546</ele>
        <time>2019-03-16T09:11:04Z</time>
      </trkpt>
      <trkpt lat="43.48362" lon="2.32993">
        <ele>546</ele>
        <time>2019-03-16T09:11:06Z</time>
      </trkpt>
      <trkpt lat="43.48359" lon="2.32993">
        <ele>547</ele>
        <time>2019-03-16T09:11:08Z</time>
      </trkpt>
      <trkpt lat="43.48356" lon="2.32993">
        <ele>547</ele>
        <time>2019-03-16T09:11:10Z</time>
      </trkpt>
      <trkpt lat="43.48354" lon="2.32994">
        <ele>548</ele>
        <time>2019-03-16T09:11:12Z</time>
      </trkpt>
      <trkpt lat="43.48352" lon="2.32995">
        <ele>548</ele>
        <time>2019-03-16T09:11:14Z</time>
      </trkpt>
      <trkpt lat="43.48348" lon="2.32995">
        <ele>549</ele>
        <time>2019-03-16T09:11:17Z</time>
      </trkpt>
      <trkpt lat="43.48345" lon="2.32999">
        <ele>549</ele>
        <time>2019-03-16T09:11:20Z</time>
      </trkpt>
      <trkpt lat="43.48341" lon="2.33001">
        <ele>550</ele>
        <time>2019-03-16T09:11:24Z</time>
      </trkpt>
      <trkpt lat="43.48338" lon="2.33002">
        <ele>551</ele>
        <time>2019-03-16T09:11:26Z</time>
      </trkpt>
      <trkpt lat="43.48334" lon="2.33003">
        <ele>551</ele>
        <time>2019-03-16T09:11:29Z</time>
      </trkpt>
      <trkpt lat="43.48329" lon="2.33004">
        <ele>552</ele>
        <time>2019-03-16T09:11:32Z</time>
      </trkpt>
      <trkpt lat="43.4832" lon="2.33004">
        <ele>553</ele>
        <time>2019-03-16T09:11:40Z</time>
      </trkpt>
      <trkpt lat="43.48319" lon="2.33004">
        <ele>553</ele>
        <time>2019-03-16T09:11:41Z</time>
      </trkpt>
      <trkpt lat="43.48311" lon="2.33005">
        <ele>554</ele>
        <time>2019-03-16T09:11:47Z</time>
      </trkpt>
      <trkpt lat="43.4831" lon="2.33005">
        <ele>554</ele>
        <time>2019-03-16T09:11:48Z</time>
      </trkpt>
      <trkpt lat="43.48305" lon="2.33006">
        <ele>555</ele>
        <time>2019-03-16T09:11:52Z</time>
      </trkpt>
      <trkpt lat="43.48302" lon="2.33006">
        <ele>556</ele>
        <time>2019-03-16T09:11:55Z</time>
      </trkpt>
      <trkpt lat="43.483" lon="2.33007">
        <ele>556</ele>
        <time>2019-03-16T09:11:56Z</time>
      </trkpt>
      <trkpt lat="43.48292" lon="2.33009">
        <ele>557</ele>
        <time>2019-03-16T09:12:02Z</time>
      </trkpt>
      <trkpt lat="43.48291" lon="2.33009">
        <ele>557</ele>
        <time>2019-03-16T09:12:03Z</time>
      </trkpt>
      <trkpt lat="43.48284" lon="2.33013">
        <ele>558</ele>
        <time>2019-03-16T09:12:08Z</time>
      </trkpt>
      <trkpt lat="43.48283" lon="2.33014">
        <ele>558</ele>
        <time>2019-03-16T09:12:09Z</time>
      </trkpt>
      <trkpt lat="43.48275" lon="2.33019">
        <ele>559</ele>
        <time>2019-03-16T09:12:15Z</time>
      </trkpt>
      <trkpt lat="43.48267" lon="2.33027">
        <ele>560</ele>
        <time>2019-03-16T09:12:22Z</time>
      </trkpt>
      <trkpt lat="43.48263" lon="2.33033">
        <ele>561</ele>
        <time>2019-03-16T09:12:27Z</time>
      </trkpt>
      <trkpt lat="43.4826" lon="2.33036">
        <ele>562</ele>
        <time>2019-03-16T09:12:30Z</time>
      </trkpt>
      <trkpt lat="43.4826" lon="2.33037">
        <ele>562</ele>
        <time>2019-03-16T09:12:31Z</time>
      </trkpt>
      <trkpt lat="43.48257" lon="2.33041">
        <ele>563</ele>
        <time>2019-03-16T09:12:34Z</time>
      </trkpt>
      <trkpt lat="43.48257" lon="2.33042">
        <ele>563</ele>
        <time>2019-03-16T09:12:35Z</time>
      </trkpt>
      <trkpt lat="43.48255" lon="2.33043">
        <ele>564</ele>
        <time>2019-03-16T09:12:36Z</time>
      </trkpt>
      <trkpt lat="43.48252" lon="2.33046">
        <ele>564</ele>
        <time>2019-03-16T09:12:39Z</time>
      </trkpt>
      <trkpt lat="43.48249" lon="2.33047">
        <ele>565</ele>
        <time>2019-03-16T09:12:41Z</time>
      </trkpt>
      <trkpt lat="43.48243" lon="2.33049">
        <ele>565</ele>
        <time>2019-03-16T09:12:46Z</time>
      </trkpt>
      <trkpt lat="43.48242" lon="2.3305">
        <ele>566</ele>
        <time>2019-03-16T09:12:47Z</time>
      </trkpt>
      <trkpt lat="43.48238" lon="2.33051">
        <ele>566</ele>
        <time>2019-03-16T09:12:50Z</time>
      </trkpt>
      <trkpt lat="43.48235" lon="2.33052">
        <ele>567</ele>
        <time>2019-03-16T09:12:52Z</time>
      </trkpt>
      <trkpt lat="43.4823" lon="2.33053">
        <ele>568</ele>
        <time>2019-03-16T09:12:56Z</time>
      </trkpt>
      <trkpt lat="43.48229" lon="2.33052">
        <ele>568</ele>
        <time>2019-03-16T09:12:57Z</time>
      </trkpt>
      <trkpt lat="43.48225" lon="2.33049">
        <ele>569</ele>
        <time>2019-03-16T09:13:02Z</time>
      </trkpt>
      <trkpt lat="43.48224" lon="2.33049">
        <ele>570</ele>
        <time>2019-03-16T09:13:03Z</time>
      </trkpt>
      <trkpt lat="43.48224" lon="2.33048">
        <ele>570</ele>
        <time>2019-03-16T09:13:04Z</time>
      </trkpt>
      <trkpt lat="43.48219" lon="2.33044">
        <ele>570</ele>
        <time>2019-03-16T09:13:09Z</time>
      </trkpt>
      <trkpt lat="43.48217" lon="2.33042">
        <ele>571</ele>
        <time>2019-03-16T09:13:11Z</time>
      </trkpt>
      <trkpt lat="43.48214" lon="2.33041">
        <ele>571</ele>
        <time>2019-03-16T09:13:13Z</time>
      </trkpt>
      <trkpt lat="43.48209" lon="2.33039">
        <ele>572</ele>
        <time>2019-03-16T09:13:18Z</time>
      </trkpt>
      <trkpt lat="43.48204" lon="2.33036">
        <ele>574</ele>
        <time>2019-03-16T09:13:23Z</time>
      </trkpt>
      <trkpt lat="43.48202" lon="2.33035">
        <ele>574</ele>
        <time>2019-03-16T09:13:25Z</time>
      </trkpt>
      <trkpt lat="43.48196" lon="2.33034">
        <ele>575</ele>
        <time>2019-03-16T09:13:29Z</time>
      </trkpt>
      <trkpt lat="43.4819" lon="2.33033">
        <ele>575</ele>
        <time>2019-03-16T09:13:33Z</time>
      </trkpt>
      <trkpt lat="43.48187" lon="2.33032">
        <ele>576</ele>
        <time>2019-03-16T09:13:35Z</time>
      </trkpt>
      <trkpt lat="43.48182" lon="2.33032">
        <ele>577</ele>
        <time>2019-03-16T09:13:39Z</time>
      </trkpt>
      <trkpt lat="43.48181" lon="2.33031">
        <ele>577</ele>
        <time>2019-03-16T09:13:40Z</time>
      </trkpt>
      <trkpt lat="43.48176" lon="2.33031">
        <ele>577</ele>
        <time>2019-03-16T09:13:44Z</time>
      </trkpt>
      <trkpt lat="43.48172" lon="2.33032">
        <ele>578</ele>
        <time>2019-03-16T09:13:48Z</time>
      </trkpt>
      <trkpt lat="43.48167" lon="2.33033">
        <ele>579</ele>
        <time>2019-03-16T09:13:51Z</time>
      </trkpt>
      <trkpt lat="43.48165" lon="2.33033">
        <ele>579</ele>
        <time>2019-03-16T09:13:53Z</time>
      </trkpt>
      <trkpt lat="43.48161" lon="2.33034">
        <ele>580</ele>
        <time>2019-03-16T09:13:57Z</time>
      </trkpt>
      <trkpt lat="43.48155" lon="2.33035">
        <ele>580</ele>
        <time>2019-03-16T09:14:01Z</time>
      </trkpt>
      <trkpt lat="43.48151" lon="2.33034">
        <ele>581</ele>
        <time>2019-03-16T09:14:05Z</time>
      </trkpt>
      <trkpt lat="43.4815" lon="2.33034">
        <ele>582</ele>
        <time>2019-03-16T09:14:06Z</time>
      </trkpt>
      <trkpt lat="43.48142" lon="2.33035">
        <ele>583</ele>
        <time>2019-03-16T09:14:12Z</time>
      </trkpt>
      <trkpt lat="43.48141" lon="2.33035">
        <ele>583</ele>
        <time>2019-03-16T09:14:13Z</time>
      </trkpt>
      <trkpt lat="43.48135" lon="2.33036">
        <ele>584</ele>
        <time>2019-03-16T09:14:18Z</time>
      </trkpt>
      <trkpt lat="43.4813" lon="2.33038">
        <ele>585</ele>
        <time>2019-03-16T09:14:21Z</time>
      </trkpt>
      <trkpt lat="43.48127" lon="2.33039">
        <ele>585</ele>
        <time>2019-03-16T09:14:23Z</time>
      </trkpt>
      <trkpt lat="43.48122" lon="2.33042">
        <ele>586</ele>
        <time>2019-03-16T09:14:27Z</time>
      </trkpt>
      <trkpt lat="43.48121" lon="2.33043">
        <ele>587</ele>
        <time>2019-03-16T09:14:28Z</time>
      </trkpt>
      <trkpt lat="43.48119" lon="2.33046">
        <ele>587</ele>
        <time>2019-03-16T09:14:31Z</time>
      </trkpt>
      <trkpt lat="43.48114" lon="2.33049">
        <ele>588</ele>
        <time>2019-03-16T09:14:35Z</time>
      </trkpt>
      <trkpt lat="43.48112" lon="2.33052">
        <ele>588</ele>
        <time>2019-03-16T09:14:37Z</time>
      </trkpt>
      <trkpt lat="43.4811" lon="2.33055">
        <ele>589</ele>
        <time>2019-03-16T09:14:40Z</time>
      </trkpt>
      <trkpt lat="43.48109" lon="2.33056">
        <ele>589</ele>
        <time>2019-03-16T09:14:41Z</time>
      </trkpt>
      <trkpt lat="43.48108" lon="2.33057">
        <ele>589</ele>
        <time>2019-03-16T09:14:42Z</time>
      </trkpt>
      <trkpt lat="43.48104" lon="2.33062">
        <ele>590</ele>
        <time>2019-03-16T09:14:46Z</time>
      </trkpt>
      <trkpt lat="43.48103" lon="2.33065">
        <ele>590</ele>
        <time>2019-03-16T09:14:48Z</time>
      </trkpt>
      <trkpt lat="43.48101" lon="2.33069">
        <ele>591</ele>
        <time>2019-03-16T09:14:51Z</time>
      </trkpt>
      <trkpt lat="43.48098" lon="2.33074">
        <ele>592</ele>
        <time>2019-03-16T09:14:55Z</time>
      </trkpt>
      <trkpt lat="43.48094" lon="2.33079">
        <ele>592</ele>
        <time>2019-03-16T09:14:59Z</time>
      </trkpt>
      <trkpt lat="43.48091" lon="2.33081">
        <ele>592</ele>
        <time>2019-03-16T09:15:01Z</time>
      </trkpt>
      <trkpt lat="43.48089" lon="2.33084">
        <ele>593</ele>
        <time>2019-03-16T09:15:03Z</time>
      </trkpt>
      <trkpt lat="43.48087" lon="2.33087">
        <ele>593</ele>
        <time>2019-03-16T09:15:05Z</time>
      </trkpt>
      <trkpt lat="43.48084" lon="2.33092">
        <ele>594</ele>
        <time>2019-03-16T09:15:08Z</time>
      </trkpt>
      <trkpt lat="43.48083" lon="2.33093">
        <ele>594</ele>
        <time>2019-03-16T09:15:09Z</time>
      </trkpt>
      <trkpt lat="43.48082" lon="2.33095">
        <ele>594</ele>
        <time>2019-03-16T09:15:10Z</time>
      </trkpt>
      <trkpt lat="43.48077" lon="2.33098">
        <ele>595</ele>
        <time>2019-03-16T09:15:15Z</time>
      </trkpt>
      <trkpt lat="43.48068" lon="2.33091">
        <ele>597</ele>
        <time>2019-03-16T09:15:22Z</time>
      </trkpt>
      <trkpt lat="43.48067" lon="2.33086">
        <ele>597</ele>
        <time>2019-03-16T09:15:26Z</time>
      </trkpt>
      <trkpt lat="43.48067" lon="2.33085">
        <ele>597</ele>
        <time>2019-03-16T09:15:27Z</time>
      </trkpt>
      <trkpt lat="43.48067" lon="2.33084">
        <ele>598</ele>
        <time>2019-03-16T09:15:28Z</time>
      </trkpt>
      <trkpt lat="43.48065" lon="2.33078">
        <ele>598</ele>
        <time>2019-03-16T09:15:32Z</time>
      </trkpt>
      <trkpt lat="43.48065" lon="2.33077">
        <ele>599</ele>
        <time>2019-03-16T09:15:33Z</time>
      </trkpt>
      <trkpt lat="43.48064" lon="2.33071">
        <ele>600</ele>
        <time>2019-03-16T09:15:37Z</time>
      </trkpt>
      <trkpt lat="43.48064" lon="2.3307">
        <ele>600</ele>
        <time>2019-03-16T09:15:38Z</time>
      </trkpt>
      <trkpt lat="43.48062" lon="2.33068">
        <ele>601</ele>
        <time>2019-03-16T09:15:41Z</time>
      </trkpt>
      <trkpt lat="43.48061" lon="2.33065">
        <ele>602</ele>
        <time>2019-03-16T09:15:43Z</time>
      </trkpt>
      <trkpt lat="43.48061" lon="2.33063">
        <ele>602</ele>
        <time>2019-03-16T09:15:45Z</time>
      </trkpt>
      <trkpt lat="43.48059" lon="2.33057">
        <ele>603</ele>
        <time>2019-03-16T09:15:50Z</time>
      </trkpt>
      <trkpt lat="43.48055" lon="2.33048">
        <ele>605</ele>
        <time>2019-03-16T09:15:57Z</time>
      </trkpt>
      <trkpt lat="43.48054" lon="2.33047">
        <ele>605</ele>
        <time>2019-03-16T09:15:58Z</time>
      </trkpt>
      <trkpt lat="43.48053" lon="2.33044">
        <ele>606</ele>
        <time>2019-03-16T09:16:01Z</time>
      </trkpt>
      <trkpt lat="43.48052" lon="2.33038">
        <ele>607</ele>
        <time>2019-03-16T09:16:05Z</time>
      </trkpt>
      <trkpt lat="43.48051" lon="2.33036">
        <ele>607</ele>
        <time>2019-03-16T09:16:07Z</time>
      </trkpt>
      <trkpt lat="43.4805" lon="2.33031">
        <ele>608</ele>
        <time>2019-03-16T09:16:10Z</time>
      </trkpt>
      <trkpt lat="43.4805" lon="2.33026">
        <ele>609</ele>
        <time>2019-03-16T09:16:14Z</time>
      </trkpt>
      <trkpt lat="43.4805" lon="2.33023">
        <ele>610</ele>
        <time>2019-03-16T09:16:16Z</time>
      </trkpt>
      <trkpt lat="43.4805" lon="2.3302">
        <ele>610</ele>
        <time>2019-03-16T09:16:18Z</time>
      </trkpt>
      <trkpt lat="43.48049" lon="2.33015">
        <ele>611</ele>
        <time>2019-03-16T09:16:22Z</time>
      </trkpt>
      <trkpt lat="43.48049" lon="2.33013">
        <ele>612</ele>
        <time>2019-03-16T09:16:23Z</time>
      </trkpt>
      <trkpt lat="43.48047" lon="2.33005">
        <ele>613</ele>
        <time>2019-03-16T09:16:28Z</time>
      </trkpt>
      <trkpt lat="43.48046" lon="2.33002">
        <ele>613</ele>
        <time>2019-03-16T09:16:30Z</time>
      </trkpt>
      <trkpt lat="43.48045" lon="2.32997">
        <ele>614</ele>
        <time>2019-03-16T09:16:33Z</time>
      </trkpt>
      <trkpt lat="43.48045" lon="2.32996">
        <ele>614</ele>
        <time>2019-03-16T09:16:34Z</time>
      </trkpt>
      <trkpt lat="43.48044" lon="2.32993">
        <ele>615</ele>
        <time>2019-03-16T09:16:36Z</time>
      </trkpt>
      <trkpt lat="43.48044" lon="2.32991">
        <ele>615</ele>
        <time>2019-03-16T09:16:37Z</time>
      </trkpt>
      <trkpt lat="43.48043" lon="2.32985">
        <ele>616</ele>
        <time>2019-03-16T09:16:42Z</time>
      </trkpt>
      <trkpt lat="43.48042" lon="2.32983">
        <ele>616</ele>
        <time>2019-03-16T09:16:44Z</time>
      </trkpt>
      <trkpt lat="43.48042" lon="2.32979">
        <ele>617</ele>
        <time>2019-03-16T09:16:48Z</time>
      </trkpt>
      <trkpt lat="43.48041" lon="2.3297">
        <ele>618</ele>
        <time>2019-03-16T09:17:05Z</time>
      </trkpt>
      <trkpt lat="43.48041" lon="2.32969">
        <ele>618</ele>
        <time>2019-03-16T09:17:06Z</time>
      </trkpt>
      <trkpt lat="43.48041" lon="2.32969">
        <ele>618</ele>
        <time>2019-03-16T09:17:07Z</time>
      </trkpt>
      <trkpt lat="43.4804" lon="2.3296">
        <ele>619</ele>
        <time>2019-03-16T09:21:14Z</time>
      </trkpt>
      <trkpt lat="43.48039" lon="2.3296">
        <ele>619</ele>
        <time>2019-03-16T09:21:17Z</time>
      </trkpt>
      <trkpt lat="43.48039" lon="2.3296">
        <ele>619</ele>
        <time>2019-03-16T09:21:18Z</time>
      </trkpt>
      <trkpt lat="43.48036" lon="2.32956">
        <ele>619</ele>
        <time>2019-03-16T09:24:25Z</time>
      </trkpt>
      <trkpt lat="43.48036" lon="2.32955">
        <ele>619</ele>
        <time>2019-03-16T09:24:26Z</time>
      </trkpt>
      <trkpt lat="43.48035" lon="2.32954">
        <ele>620</ele>
        <time>2019-03-16T09:24:29Z</time>
      </trkpt>
      <trkpt lat="43.48035" lon="2.32953">
        <ele>621</ele>
        <time>2019-03-16T09:24:30Z</time>
      </trkpt>
      <trkpt lat="43.4803" lon="2.32949">
        <ele>622</ele>
        <time>2019-03-16T09:24:48Z</time>
      </trkpt>
      <trkpt lat="43.48029" lon="2.32948">
        <ele>623</ele>
        <time>2019-03-16T09:24:52Z</time>
      </trkpt>
      <trkpt lat="43.48025" lon="2.32947">
        <ele>623</ele>
        <time>2019-03-16T09:24:56Z</time>
      </trkpt>
      <trkpt lat="43.4802" lon="2.32945">
        <ele>624</ele>
        <time>2019-03-16T09:25:01Z</time>
      </trkpt>
      <trkpt lat="43.48019" lon="2.32945">
        <ele>625</ele>
        <time>2019-03-16T09:25:02Z</time>
      </trkpt>
      <trkpt lat="43.48017" lon="2.32944">
        <ele>626</ele>
        <time>2019-03-16T09:25:04Z</time>
      </trkpt>
      <trkpt lat="43.48014" lon="2.32942">
        <ele>627</ele>
        <time>2019-03-16T09:25:07Z</time>
      </trkpt>
      <trkpt lat="43.48011" lon="2.32941">
        <ele>627</ele>
        <time>2019-03-16T09:25:09Z</time>
      </trkpt>
      <trkpt lat="43.48009" lon="2.32941">
        <ele>628</ele>
        <time>2019-03-16T09:25:11Z</time>
      </trkpt>
      <trkpt lat="43.48005" lon="2.32939">
        <ele>628</ele>
        <time>2019-03-16T09:25:14Z</time>
      </trkpt>
      <trkpt lat="43.48002" lon="2.32937">
        <ele>629</ele>
        <time>2019-03-16T09:25:17Z</time>
      </trkpt>
      <trkpt lat="43.47997" lon="2.32936">
        <ele>630</ele>
        <time>2019-03-16T09:25:21Z</time>
      </trkpt>
      <trkpt lat="43.47993" lon="2.32934">
        <ele>631</ele>
        <time>2019-03-16T09:25:25Z</time>
      </trkpt>
      <trkpt lat="43.47989" lon="2.32932">
        <ele>632</ele>
        <time>2019-03-16T09:25:29Z</time>
      </trkpt>
      <trkpt lat="43.47987" lon="2.32932">
        <ele>632</ele>
        <time>2019-03-16T09:25:30Z</time>
      </trkpt>
      <trkpt lat="43.47986" lon="2.32931">
        <ele>633</ele>
        <time>2019-03-16T09:25:31Z</time>
      </trkpt>
      <trkpt lat="43.47986" lon="2.3293">
        <ele>633</ele>
        <time>2019-03-16T09:25:33Z</time>
      </trkpt>
      <trkpt lat="43.47985" lon="2.32928">
        <ele>634</ele>
        <time>2019-03-16T09:25:35Z</time>
      </trkpt>
      <trkpt lat="43.47979" lon="2.32927">
        <ele>634</ele>
        <time>2019-03-16T09:25:40Z</time>
      </trkpt>
      <trkpt lat="43.47976" lon="2.32927">
        <ele>635</ele>
        <time>2019-03-16T09:25:43Z</time>
      </trkpt>
      <trkpt lat="43.47974" lon="2.32927">
        <ele>636</ele>
        <time>2019-03-16T09:25:45Z</time>
      </trkpt>
      <trkpt lat="43.47969" lon="2.32926">
        <ele>637</ele>
        <time>2019-03-16T09:25:51Z</time>
      </trkpt>
      <trkpt lat="43.47968" lon="2.32926">
        <ele>637</ele>
        <time>2019-03-16T09:25:52Z</time>
      </trkpt>
      <trkpt lat="43.47964" lon="2.32925">
        <ele>638</ele>
        <time>2019-03-16T09:25:57Z</time>
      </trkpt>
      <trkpt lat="43.47959" lon="2.32926">
        <ele>639</ele>
        <time>2019-03-16T09:26:02Z</time>
      </trkpt>
      <trkpt lat="43.47958" lon="2.32929">
        <ele>639</ele>
        <time>2019-03-16T09:26:04Z</time>
      </trkpt>
      <trkpt lat="43.47954" lon="2.32935">
        <ele>640</ele>
        <time>2019-03-16T09:26:08Z</time>
      </trkpt>
      <trkpt lat="43.47954" lon="2.32937">
        <ele>640</ele>
        <time>2019-03-16T09:26:10Z</time>
      </trkpt>
      <trkpt lat="43.47955" lon="2.32939">
        <ele>640</ele>
        <time>2019-03-16T09:26:11Z</time>
      </trkpt>
      <trkpt lat="43.47956" lon="2.3294">
        <ele>641</ele>
        <time>2019-03-16T09:26:13Z</time>
      </trkpt>
      <trkpt lat="43.47961" lon="2.32943">
        <ele>641</ele>
        <time>2019-03-16T09:26:19Z</time>
      </trkpt>
      <trkpt lat="43.47968" lon="2.32946">
        <ele>641</ele>
        <time>2019-03-16T09:26:24Z</time>
      </trkpt>
      <trkpt lat="43.47974" lon="2.32952">
        <ele>642</ele>
        <time>2019-03-16T09:26:28Z</time>
      </trkpt>
      <trkpt lat="43.47975" lon="2.32954">
        <ele>642</ele>
        <time>2019-03-16T09:26:29Z</time>
      </trkpt>
      <trkpt lat="43.47976" lon="2.32956">
        <ele>642</ele>
        <time>2019-03-16T09:26:30Z</time>
      </trkpt>
      <trkpt lat="43.47978" lon="2.32964">
        <ele>642</ele>
        <time>2019-03-16T09:26:33Z</time>
      </trkpt>
      <trkpt lat="43.47981" lon="2.32975">
        <ele>642</ele>
        <time>2019-03-16T09:26:38Z</time>
      </trkpt>
      <trkpt lat="43.47983" lon="2.3298">
        <ele>643</ele>
        <time>2019-03-16T09:26:41Z</time>
      </trkpt>
      <trkpt lat="43.47983" lon="2.32986">
        <ele>643</ele>
        <time>2019-03-16T09:26:44Z</time>
      </trkpt>
      <trkpt lat="43.47984" lon="2.32996">
        <ele>644</ele>
        <time>2019-03-16T09:26:49Z</time>
      </trkpt>
      <trkpt lat="43.47984" lon="2.32998">
        <ele>644</ele>
        <time>2019-03-16T09:26:50Z</time>
      </trkpt>
      <trkpt lat="43.47985" lon="2.33005">
        <ele>644</ele>
        <time>2019-03-16T09:26:53Z</time>
      </trkpt>
      <trkpt lat="43.47986" lon="2.33011">
        <ele>644</ele>
        <time>2019-03-16T09:26:56Z</time>
      </trkpt>
      <trkpt lat="43.47986" lon="2.33017">
        <ele>644</ele>
        <time>2019-03-16T09:26:59Z</time>
      </trkpt>
      <trkpt lat="43.47987" lon="2.33021">
        <ele>645</ele>
        <time>2019-03-16T09:27:01Z</time>
      </trkpt>
      <trkpt lat="43.47987" lon="2.33024">
        <ele>645</ele>
        <time>2019-03-16T09:27:02Z</time>
      </trkpt>
      <trkpt lat="43.47986" lon="2.33034">
        <ele>645</ele>
        <time>2019-03-16T09:27:07Z</time>
      </trkpt>
      <trkpt lat="43.47987" lon="2.33041">
        <ele>646</ele>
        <time>2019-03-16T09:27:11Z</time>
      </trkpt>
      <trkpt lat="43.47987" lon="2.33043">
        <ele>646</ele>
        <time>2019-03-16T09:27:12Z</time>
      </trkpt>
      <trkpt lat="43.47987" lon="2.33055">
        <ele>647</ele>
        <time>2019-03-16T09:27:17Z</time>
      </trkpt>
      <trkpt lat="43.47987" lon="2.33057">
        <ele>647</ele>
        <time>2019-03-16T09:27:18Z</time>
      </trkpt>
      <trkpt lat="43.47986" lon="2.33064">
        <ele>647</ele>
        <time>2019-03-16T09:27:21Z</time>
      </trkpt>
      <trkpt lat="43.47985" lon="2.33067">
        <ele>647</ele>
        <time>2019-03-16T09:27:23Z</time>
      </trkpt>
      <trkpt lat="43.47985" lon="2.33075">
        <ele>648</ele>
        <time>2019-03-16T09:27:26Z</time>
      </trkpt>
      <trkpt lat="43.47984" lon="2.3308">
        <ele>648</ele>
        <time>2019-03-16T09:27:28Z</time>
      </trkpt>
      <trkpt lat="43.47983" lon="2.33089">
        <ele>648</ele>
        <time>2019-03-16T09:27:32Z</time>
      </trkpt>
      <trkpt lat="43.47983" lon="2.33091">
        <ele>648</ele>
        <time>2019-03-16T09:27:33Z</time>
      </trkpt>
      <trkpt lat="43.47982" lon="2.33094">
        <ele>649</ele>
        <time>2019-03-16T09:27:35Z</time>
      </trkpt>
      <trkpt lat="43.47982" lon="2.33102">
        <ele>649</ele>
        <time>2019-03-16T09:27:38Z</time>
      </trkpt>
      <trkpt lat="43.47978" lon="2.33118">
        <ele>649</ele>
        <time>2019-03-16T09:27:44Z</time>
      </trkpt>
      <trkpt lat="43.47978" lon="2.33121">
        <ele>649</ele>
        <time>2019-03-16T09:27:45Z</time>
      </trkpt>
      <trkpt lat="43.47977" lon="2.33129">
        <ele>650</ele>
        <time>2019-03-16T09:27:49Z</time>
      </trkpt>
      <trkpt lat="43.47976" lon="2.33139">
        <ele>650</ele>
        <time>2019-03-16T09:27:54Z</time>
      </trkpt>
      <trkpt lat="43.47975" lon="2.33141">
        <ele>650</ele>
        <time>2019-03-16T09:27:55Z</time>
      </trkpt>
      <trkpt lat="43.47975" lon="2.33149">
        <ele>650</ele>
        <time>2019-03-16T09:27:58Z</time>
      </trkpt>
      <trkpt lat="43.47974" lon="2.33153">
        <ele>650</ele>
        <time>2019-03-16T09:28:00Z</time>
      </trkpt>
      <trkpt lat="43.47974" lon="2.33158">
        <ele>651</ele>
        <time>2019-03-16T09:28:02Z</time>
      </trkpt>
      <trkpt lat="43.47974" lon="2.33164">
        <ele>651</ele>
        <time>2019-03-16T09:28:04Z</time>
      </trkpt>
      <trkpt lat="43.47973" lon="2.33176">
        <ele>652</ele>
        <time>2019-03-16T09:28:08Z</time>
      </trkpt>
      <trkpt lat="43.47974" lon="2.33192">
        <ele>652</ele>
        <time>2019-03-16T09:28:14Z</time>
      </trkpt>
      <trkpt lat="43.47975" lon="2.33199">
        <ele>653</ele>
        <time>2019-03-16T09:28:18Z</time>
      </trkpt>
      <trkpt lat="43.47975" lon="2.33201">
        <ele>653</ele>
        <time>2019-03-16T09:28:19Z</time>
      </trkpt>
      <trkpt lat="43.47976" lon="2.33209">
        <ele>654</ele>
        <time>2019-03-16T09:28:22Z</time>
      </trkpt>
      <trkpt lat="43.47975" lon="2.33214">
        <ele>654</ele>
        <time>2019-03-16T09:28:24Z</time>
      </trkpt>
      <trkpt lat="43.47975" lon="2.33223">
        <ele>654</ele>
        <time>2019-03-16T09:28:28Z</time>
      </trkpt>
      <trkpt lat="43.47974" lon="2.33226">
        <ele>655</ele>
        <time>2019-03-16T09:28:29Z</time>
      </trkpt>
      <trkpt lat="43.47974" lon="2.3323">
        <ele>655</ele>
        <time>2019-03-16T09:28:31Z</time>
      </trkpt>
      <trkpt lat="43.47973" lon="2.33235">
        <ele>655</ele>
        <time>2019-03-16T09:28:33Z</time>
      </trkpt>
      <trkpt lat="43.47973" lon="2.33243">
        <ele>656</ele>
        <time>2019-03-16T09:28:36Z</time>
      </trkpt>
      <trkpt lat="43.47972" lon="2.3325">
        <ele>656</ele>
        <time>2019-03-16T09:28:39Z</time>
      </trkpt>
      <trkpt lat="43.47969" lon="2.33262">
        <ele>657</ele>
        <time>2019-03-16T09:28:45Z</time>
      </trkpt>
      <trkpt lat="43.47968" lon="2.33267">
        <ele>657</ele>
        <time>2019-03-16T09:28:47Z</time>
      </trkpt>
      <trkpt lat="43.47967" lon="2.33273">
        <ele>657</ele>
        <time>2019-03-16T09:28:50Z</time>
      </trkpt>
      <trkpt lat="43.47967" lon="2.33276">
        <ele>657</ele>
        <time>2019-03-16T09:28:51Z</time>
      </trkpt>
      <trkpt lat="43.47966" lon="2.33285">
        <ele>658</ele>
        <time>2019-03-16T09:28:55Z</time>
      </trkpt>
      <trkpt lat="43.47965" lon="2.33294">
        <ele>658</ele>
        <time>2019-03-16T09:28:58Z</time>
      </trkpt>
      <trkpt lat="43.47965" lon="2.33299">
        <ele>659</ele>
        <time>2019-03-16T09:29:00Z</time>
      </trkpt>
      <trkpt lat="43.47965" lon="2.33308">
        <ele>660</ele>
        <time>2019-03-16T09:29:04Z</time>
      </trkpt>
      <trkpt lat="43.47965" lon="2.33311">
        <ele>660</ele>
        <time>2019-03-16T09:29:05Z</time>
      </trkpt>
      <trkpt lat="43.47964" lon="2.3332">
        <ele>661</ele>
        <time>2019-03-16T09:29:09Z</time>
      </trkpt>
      <trkpt lat="43.47962" lon="2.33326">
        <ele>662</ele>
        <time>2019-03-16T09:29:12Z</time>
      </trkpt>
      <trkpt lat="43.47959" lon="2.33336">
        <ele>663</ele>
        <time>2019-03-16T09:29:17Z</time>
      </trkpt>
      <trkpt lat="43.47958" lon="2.33339">
        <ele>664</ele>
        <time>2019-03-16T09:29:19Z</time>
      </trkpt>
      <trkpt lat="43.47955" lon="2.33344">
        <ele>665</ele>
        <time>2019-03-16T09:29:23Z</time>
      </trkpt>
      <trkpt lat="43.47955" lon="2.33345">
        <ele>665</ele>
        <time>2019-03-16T09:29:24Z</time>
      </trkpt>
      <trkpt lat="43.47954" lon="2.33347">
        <ele>665</ele>
        <time>2019-03-16T09:29:25Z</time>
      </trkpt>
      <trkpt lat="43.47952" lon="2.33349">
        <ele>666</ele>
        <time>2019-03-16T09:29:29Z</time>
      </trkpt>
      <trkpt lat="43.47946" lon="2.33353">
        <ele>666</ele>
        <time>2019-03-16T09:34:11Z</time>
      </trkpt>
      <trkpt lat="43.47945" lon="2.33353">
        <ele>666</ele>
        <time>2019-03-16T09:34:12Z</time>
      </trkpt>
      <trkpt lat="43.47942" lon="2.33355">
        <ele>666</ele>
        <time>2019-03-16T09:34:15Z</time>
      </trkpt>
      <trkpt lat="43.4794" lon="2.33358">
        <ele>667</ele>
        <time>2019-03-16T09:34:18Z</time>
      </trkpt>
      <trkpt lat="43.4793" lon="2.33361">
        <ele>667</ele>
        <time>2019-03-16T09:34:25Z</time>
      </trkpt>
      <trkpt lat="43.47929" lon="2.33362">
        <ele>667</ele>
        <time>2019-03-16T09:34:26Z</time>
      </trkpt>
      <trkpt lat="43.47922" lon="2.33364">
        <ele>668</ele>
        <time>2019-03-16T09:34:32Z</time>
      </trkpt>
      <trkpt lat="43.47919" lon="2.33365">
        <ele>668</ele>
        <time>2019-03-16T09:34:34Z</time>
      </trkpt>
      <trkpt lat="43.47915" lon="2.33368">
        <ele>669</ele>
        <time>2019-03-16T09:34:38Z</time>
      </trkpt>
      <trkpt lat="43.47913" lon="2.33372">
        <ele>669</ele>
        <time>2019-03-16T09:34:41Z</time>
      </trkpt>
      <trkpt lat="43.47913" lon="2.33377">
        <ele>669</ele>
        <time>2019-03-16T09:34:43Z</time>
      </trkpt>
      <trkpt lat="43.47915" lon="2.33386">
        <ele>669</ele>
        <time>2019-03-16T09:34:47Z</time>
      </trkpt>
      <trkpt lat="43.47915" lon="2.33395">
        <ele>670</ele>
        <time>2019-03-16T09:34:50Z</time>
      </trkpt>
      <trkpt lat="43.47916" lon="2.33409">
        <ele>670</ele>
        <time>2019-03-16T09:34:55Z</time>
      </trkpt>
      <trkpt lat="43.47919" lon="2.33427">
        <ele>671</ele>
        <time>2019-03-16T09:35:02Z</time>
      </trkpt>
      <trkpt lat="43.4792" lon="2.33429">
        <ele>671</ele>
        <time>2019-03-16T09:35:03Z</time>
      </trkpt>
      <trkpt lat="43.47921" lon="2.33434">
        <ele>671</ele>
        <time>2019-03-16T09:35:05Z</time>
      </trkpt>
      <trkpt lat="43.47926" lon="2.33443">
        <ele>672</ele>
        <time>2019-03-16T09:35:10Z</time>
      </trkpt>
      <trkpt lat="43.4793" lon="2.33448">
        <ele>672</ele>
        <time>2019-03-16T09:35:13Z</time>
      </trkpt>
      <trkpt lat="43.47935" lon="2.33457">
        <ele>673</ele>
        <time>2019-03-16T09:35:18Z</time>
      </trkpt>
      <trkpt lat="43.47939" lon="2.33461">
        <ele>674</ele>
        <time>2019-03-16T09:35:21Z</time>
      </trkpt>
      <trkpt lat="43.47942" lon="2.33464">
        <ele>674</ele>
        <time>2019-03-16T09:35:23Z</time>
      </trkpt>
      <trkpt lat="43.47948" lon="2.33472">
        <ele>675</ele>
        <time>2019-03-16T09:35:28Z</time>
      </trkpt>
      <trkpt lat="43.47952" lon="2.33475">
        <ele>675</ele>
        <time>2019-03-16T09:35:31Z</time>
      </trkpt>
      <trkpt lat="43.4796" lon="2.33483">
        <ele>676</ele>
        <time>2019-03-16T09:35:37Z</time>
      </trkpt>
      <trkpt lat="43.47964" lon="2.33487">
        <ele>677</ele>
        <time>2019-03-16T09:35:40Z</time>
      </trkpt>
      <trkpt lat="43.4797" lon="2.33494">
        <ele>678</ele>
        <time>2019-03-16T09:35:45Z</time>
      </trkpt>
      <trkpt lat="43.47975" lon="2.33502">
        <ele>679</ele>
        <time>2019-03-16T09:35:50Z</time>
      </trkpt>
      <trkpt lat="43.47978" lon="2.33507">
        <ele>679</ele>
        <time>2019-03-16T09:35:53Z</time>
      </trkpt>
      <trkpt lat="43.47979" lon="2.33514">
        <ele>680</ele>
        <time>2019-03-16T09:35:56Z</time>
      </trkpt>
      <trkpt lat="43.47979" lon="2.33522">
        <ele>681</ele>
        <time>2019-03-16T09:36:00Z</time>
      </trkpt>
      <trkpt lat="43.4798" lon="2.33533">
        <ele>682</ele>
        <time>2019-03-16T09:36:05Z</time>
      </trkpt>
      <trkpt lat="43.4798" lon="2.33537">
        <ele>682</ele>
        <time>2019-03-16T09:36:07Z</time>
      </trkpt>
      <trkpt lat="43.47982" lon="2.33547">
        <ele>683</ele>
        <time>2019-03-16T09:36:12Z</time>
      </trkpt>
      <trkpt lat="43.47983" lon="2.33557">
        <ele>684</ele>
        <time>2019-03-16T09:36:17Z</time>
      </trkpt>
      <trkpt lat="43.47984" lon="2.33561">
        <ele>684</ele>
        <time>2019-03-16T09:36:19Z</time>
      </trkpt>
      <trkpt lat="43.47987" lon="2.33573">
        <ele>685</ele>
        <time>2019-03-16T09:36:25Z</time>
      </trkpt>
      <trkpt lat="43.47988" lon="2.33577">
        <ele>685</ele>
        <time>2019-03-16T09:36:27Z</time>
      </trkpt>
      <trkpt lat="43.47991" lon="2.33587">
        <ele>686</ele>
        <time>2019-03-16T09:36:32Z</time>
      </trkpt>
      <trkpt lat="43.47994" lon="2.33595">
        <ele>687</ele>
        <time>2019-03-16T09:36:36Z</time>
      </trkpt>
      <trkpt lat="43.47995" lon="2.33599">
        <ele>687</ele>
        <time>2019-03-16T09:36:38Z</time>
      </trkpt>
      <trkpt lat="43.47997" lon="2.33608">
        <ele>688</ele>
        <time>2019-03-16T09:36:42Z</time>
      </trkpt>
      <trkpt lat="43.47998" lon="2.33612">
        <ele>688</ele>
        <time>2019-03-16T09:36:44Z</time>
      </trkpt>
      <trkpt lat="43.48002" lon="2.33628">
        <ele>689</ele>
        <time>2019-03-16T09:36:50Z</time>
      </trkpt>
      <trkpt lat="43.48005" lon="2.33647">
        <ele>689</ele>
        <time>2019-03-16T09:36:56Z</time>
      </trkpt>
      <trkpt lat="43.48008" lon="2.33672">
        <ele>688</ele>
        <time>2019-03-16T09:37:02Z</time>
      </trkpt>
      <trkpt lat="43.4801" lon="2.33693">
        <ele>688</ele>
        <time>2019-03-16T09:37:07Z</time>
      </trkpt>
      <trkpt lat="43.48021" lon="2.33727">
        <ele>689</ele>
        <time>2019-03-16T09:37:16Z</time>
      </trkpt>
      <trkpt lat="43.48026" lon="2.33736">
        <ele>690</ele>
        <time>2019-03-16T09:37:19Z</time>
      </trkpt>
      <trkpt lat="43.48033" lon="2.33747">
        <ele>691</ele>
        <time>2019-03-16T09:37:23Z</time>
      </trkpt>
      <trkpt lat="43.48035" lon="2.3375">
        <ele>691</ele>
        <time>2019-03-16T09:37:24Z</time>
      </trkpt>
      <trkpt lat="43.48036" lon="2.33752">
        <ele>691</ele>
        <time>2019-03-16T09:37:25Z</time>
      </trkpt>
      <trkpt lat="43.48041" lon="2.33759">
        <ele>692</ele>
        <time>2019-03-16T09:37:28Z</time>
      </trkpt>
      <trkpt lat="43.4805" lon="2.3377">
        <ele>692</ele>
        <time>2019-03-16T09:37:33Z</time>
      </trkpt>
      <trkpt lat="43.48059" lon="2.33773">
        <ele>693</ele>
        <time>2019-03-16T09:37:37Z</time>
      </trkpt>
      <trkpt lat="43.48064" lon="2.33774">
        <ele>693</ele>
        <time>2019-03-16T09:37:39Z</time>
      </trkpt>
      <trkpt lat="43.48078" lon="2.33775">
        <ele>694</ele>
        <time>2019-03-16T09:37:45Z</time>
      </trkpt>
      <trkpt lat="43.48083" lon="2.33777">
        <ele>694</ele>
        <time>2019-03-16T09:37:47Z</time>
      </trkpt>
      <trkpt lat="43.48098" lon="2.33787">
        <ele>694</ele>
        <time>2019-03-16T09:37:54Z</time>
      </trkpt>
      <trkpt lat="43.48115" lon="2.338">
        <ele>695</ele>
        <time>2019-03-16T09:38:01Z</time>
      </trkpt>
      <trkpt lat="43.48132" lon="2.33811">
        <ele>694</ele>
        <time>2019-03-16T09:38:07Z</time>
      </trkpt>
      <trkpt lat="43.48155" lon="2.33824">
        <ele>694</ele>
        <time>2019-03-16T09:38:14Z</time>
      </trkpt>
      <trkpt lat="43.48174" lon="2.33831">
        <ele>694</ele>
        <time>2019-03-16T09:38:19Z</time>
      </trkpt>
      <trkpt lat="43.4819" lon="2.33837">
        <ele>694</ele>
        <time>2019-03-16T09:38:24Z</time>
      </trkpt>
      <trkpt lat="43.48205" lon="2.33842">
        <ele>695</ele>
        <time>2019-03-16T09:38:29Z</time>
      </trkpt>
      <trkpt lat="43.48209" lon="2.33843">
        <ele>696</ele>
        <time>2019-03-16T09:38:30Z</time>
      </trkpt>
      <trkpt lat="43.48216" lon="2.33841">
        <ele>696</ele>
        <time>2019-03-16T09:38:32Z</time>
      </trkpt>
      <trkpt lat="43.48223" lon="2.3384">
        <ele>696</ele>
        <time>2019-03-16T09:38:34Z</time>
      </trkpt>
      <trkpt lat="43.48231" lon="2.3384">
        <ele>694</ele>
        <time>2019-03-16T09:38:36Z</time>
      </trkpt>
      <trkpt lat="43.48237" lon="2.33842">
        <ele>694</ele>
        <time>2019-03-16T09:38:37Z</time>
      </trkpt>
      <trkpt lat="43.48244" lon="2.33844">
        <ele>693</ele>
        <time>2019-03-16T09:38:38Z</time>
      </trkpt>
      <trkpt lat="43.48263" lon="2.33857">
        <ele>692</ele>
        <time>2019-03-16T09:38:41Z</time>
      </trkpt>
      <trkpt lat="43.48269" lon="2.33863">
        <ele>692</ele>
        <time>2019-03-16T09:38:42Z</time>
      </trkpt>
      <trkpt lat="43.48285" lon="2.33879">
        <ele>691</ele>
        <time>2019-03-16T09:38:45Z</time>
      </trkpt>
      <trkpt lat="43.48295" lon="2.33895">
        <ele>691</ele>
        <time>2019-03-16T09:38:48Z</time>
      </trkpt>
      <trkpt lat="43.48298" lon="2.339">
        <ele>691</ele>
        <time>2019-03-16T09:38:49Z</time>
      </trkpt>
      <trkpt lat="43.48305" lon="2.33909">
        <ele>691</ele>
        <time>2019-03-16T09:38:51Z</time>
      </trkpt>
      <trkpt lat="43.48316" lon="2.33923">
        <ele>691</ele>
        <time>2019-03-16T09:38:55Z</time>
      </trkpt>
      <trkpt lat="43.48334" lon="2.33943">
        <ele>691</ele>
        <time>2019-03-16T09:39:01Z</time>
      </trkpt>
      <trkpt lat="43.48338" lon="2.33947">
        <ele>690</ele>
        <time>2019-03-16T09:39:02Z</time>
      </trkpt>
      <trkpt lat="43.48343" lon="2.33951">
        <ele>689</ele>
        <time>2019-03-16T09:39:03Z</time>
      </trkpt>
      <trkpt lat="43.48348" lon="2.33955">
        <ele>688</ele>
        <time>2019-03-16T09:39:04Z</time>
      </trkpt>
      <trkpt lat="43.48354" lon="2.3396">
        <ele>687</ele>
        <time>2019-03-16T09:39:05Z</time>
      </trkpt>
      <trkpt lat="43.4836" lon="2.33965">
        <ele>686</ele>
        <time>2019-03-16T09:39:06Z</time>
      </trkpt>
      <trkpt lat="43.48373" lon="2.33977">
        <ele>684</ele>
        <time>2019-03-16T09:39:08Z</time>
      </trkpt>
      <trkpt lat="43.4838" lon="2.33984">
        <ele>683</ele>
        <time>2019-03-16T09:39:09Z</time>
      </trkpt>
      <trkpt lat="43.48386" lon="2.33993">
        <ele>681</ele>
        <time>2019-03-16T09:39:10Z</time>
      </trkpt>
      <trkpt lat="43.48393" lon="2.34002">
        <ele>678</ele>
        <time>2019-03-16T09:39:11Z</time>
      </trkpt>
      <trkpt lat="43.48398" lon="2.34011">
        <ele>677</ele>
        <time>2019-03-16T09:39:12Z</time>
      </trkpt>
      <trkpt lat="43.48404" lon="2.34019">
        <ele>676</ele>
        <time>2019-03-16T09:39:13Z</time>
      </trkpt>
      <trkpt lat="43.4841" lon="2.34025">
        <ele>676</ele>
        <time>2019-03-16T09:39:14Z</time>
      </trkpt>
      <trkpt lat="43.48425" lon="2.34035">
        <ele>674</ele>
        <time>2019-03-16T09:39:16Z</time>
      </trkpt>
      <trkpt lat="43.4844" lon="2.34047">
        <ele>673</ele>
        <time>2019-03-16T09:39:18Z</time>
      </trkpt>
      <trkpt lat="43.48448" lon="2.34053">
        <ele>671</ele>
        <time>2019-03-16T09:39:19Z</time>
      </trkpt>
      <trkpt lat="43.48456" lon="2.34059">
        <ele>670</ele>
        <time>2019-03-16T09:39:20Z</time>
      </trkpt>
      <trkpt lat="43.48473" lon="2.34073">
        <ele>667</ele>
        <time>2019-03-16T09:39:22Z</time>
      </trkpt>
      <trkpt lat="43.48481" lon="2.34079">
        <ele>666</ele>
        <time>2019-03-16T09:39:23Z</time>
      </trkpt>
      <trkpt lat="43.48493" lon="2.34094">
        <ele>665</ele>
        <time>2019-03-16T09:39:25Z</time>
      </trkpt>
      <trkpt lat="43.48494" lon="2.34103">
        <ele>664</ele>
        <time>2019-03-16T09:39:26Z</time>
      </trkpt>
      <trkpt lat="43.48494" lon="2.34113">
        <ele>663</ele>
        <time>2019-03-16T09:39:27Z</time>
      </trkpt>
      <trkpt lat="43.48491" lon="2.34134">
        <ele>663</ele>
        <time>2019-03-16T09:39:29Z</time>
      </trkpt>
      <trkpt lat="43.48489" lon="2.34144">
        <ele>662</ele>
        <time>2019-03-16T09:39:30Z</time>
      </trkpt>
      <trkpt lat="43.48488" lon="2.34153">
        <ele>662</ele>
        <time>2019-03-16T09:39:31Z</time>
      </trkpt>
      <trkpt lat="43.48488" lon="2.34162">
        <ele>661</ele>
        <time>2019-03-16T09:39:32Z</time>
      </trkpt>
      <trkpt lat="43.48489" lon="2.34169">
        <ele>660</ele>
        <time>2019-03-16T09:39:33Z</time>
      </trkpt>
      <trkpt lat="43.48492" lon="2.34174">
        <ele>659</ele>
        <time>2019-03-16T09:39:34Z</time>
      </trkpt>
      <trkpt lat="43.48493" lon="2.34177">
        <ele>659</ele>
        <time>2019-03-16T09:39:35Z</time>
      </trkpt>
      <trkpt lat="43.48494" lon="2.34182">
        <ele>659</ele>
        <time>2019-03-16T09:39:37Z</time>
      </trkpt>
      <trkpt lat="43.48495" lon="2.34186">
        <ele>658</ele>
        <time>2019-03-16T09:39:41Z</time>
      </trkpt>
      <trkpt lat="43.48495" lon="2.34188">
        <ele>658</ele>
        <time>2019-03-16T09:39:42Z</time>
      </trkpt>
      <trkpt lat="43.48495" lon="2.34194">
        <ele>658</ele>
        <time>2019-03-16T09:40:44Z</time>
      </trkpt>
      <trkpt lat="43.48496" lon="2.342">
        <ele>658</ele>
        <time>2019-03-16T09:40:47Z</time>
      </trkpt>
      <trkpt lat="43.48499" lon="2.34218">
        <ele>656</ele>
        <time>2019-03-16T09:40:51Z</time>
      </trkpt>
      <trkpt lat="43.48496" lon="2.34229">
        <ele>655</ele>
        <time>2019-03-16T09:40:53Z</time>
      </trkpt>
      <trkpt lat="43.48491" lon="2.34237">
        <ele>655</ele>
        <time>2019-03-16T09:40:55Z</time>
      </trkpt>
      <trkpt lat="43.48489" lon="2.34249">
        <ele>654</ele>
        <time>2019-03-16T09:40:57Z</time>
      </trkpt>
      <trkpt lat="43.48489" lon="2.34256">
        <ele>653</ele>
        <time>2019-03-16T09:40:58Z</time>
      </trkpt>
      <trkpt lat="43.48488" lon="2.34262">
        <ele>652</ele>
        <time>2019-03-16T09:40:59Z</time>
      </trkpt>
      <trkpt lat="43.48487" lon="2.3427">
        <ele>650</ele>
        <time>2019-03-16T09:41:01Z</time>
      </trkpt>
      <trkpt lat="43.48487" lon="2.34273">
        <ele>649</ele>
        <time>2019-03-16T09:41:02Z</time>
      </trkpt>
      <trkpt lat="43.48487" lon="2.34277">
        <ele>649</ele>
        <time>2019-03-16T09:41:03Z</time>
      </trkpt>
      <trkpt lat="43.48487" lon="2.3428">
        <ele>647</ele>
        <time>2019-03-16T09:41:04Z</time>
      </trkpt>
      <trkpt lat="43.48487" lon="2.34288">
        <ele>645</ele>
        <time>2019-03-16T09:41:06Z</time>
      </trkpt>
      <trkpt lat="43.48485" lon="2.34299">
        <ele>643</ele>
        <time>2019-03-16T09:41:08Z</time>
      </trkpt>
      <trkpt lat="43.48483" lon="2.34305">
        <ele>641</ele>
        <time>2019-03-16T09:41:09Z</time>
      </trkpt>
      <trkpt lat="43.48482" lon="2.34311">
        <ele>640</ele>
        <time>2019-03-16T09:41:10Z</time>
      </trkpt>
      <trkpt lat="43.48481" lon="2.34317">
        <ele>637</ele>
        <time>2019-03-16T09:41:11Z</time>
      </trkpt>
      <trkpt lat="43.48481" lon="2.34324">
        <ele>635</ele>
        <time>2019-03-16T09:41:12Z</time>
      </trkpt>
      <trkpt lat="43.48481" lon="2.34332">
        <ele>633</ele>
        <time>2019-03-16T09:41:13Z</time>
      </trkpt>
      <trkpt lat="43.48481" lon="2.3434">
        <ele>631</ele>
        <time>2019-03-16T09:41:14Z</time>
      </trkpt>
      <trkpt lat="43.48481" lon="2.34347">
        <ele>629</ele>
        <time>2019-03-16T09:41:15Z</time>
      </trkpt>
      <trkpt lat="43.48481" lon="2.34355">
        <ele>628</ele>
        <time>2019-03-16T09:41:16Z</time>
      </trkpt>
      <trkpt lat="43.48481" lon="2.34362">
        <ele>627</ele>
        <time>2019-03-16T09:41:17Z</time>
      </trkpt>
      <trkpt lat="43.48481" lon="2.34368">
        <ele>626</ele>
        <time>2019-03-16T09:41:18Z</time>
      </trkpt>
      <trkpt lat="43.48482" lon="2.34378">
        <ele>625</ele>
        <time>2019-03-16T09:41:20Z</time>
      </trkpt>
      <trkpt lat="43.48483" lon="2.34385">
        <ele>622</ele>
        <time>2019-03-16T09:41:22Z</time>
      </trkpt>
      <trkpt lat="43.48485" lon="2.34389">
        <ele>621</ele>
        <time>2019-03-16T09:41:23Z</time>
      </trkpt>
      <trkpt lat="43.48486" lon="2.34391">
        <ele>620</ele>
        <time>2019-03-16T09:41:24Z</time>
      </trkpt>
      <trkpt lat="43.48487" lon="2.34394">
        <ele>619</ele>
        <time>2019-03-16T09:41:25Z</time>
      </trkpt>
      <trkpt lat="43.48488" lon="2.34397">
        <ele>618</ele>
        <time>2019-03-16T09:41:26Z</time>
      </trkpt>
      <trkpt lat="43.48489" lon="2.34402">
        <ele>616</ele>
        <time>2019-03-16T09:41:28Z</time>
      </trkpt>
      <trkpt lat="43.4849" lon="2.34407">
        <ele>614</ele>
        <time>2019-03-16T09:41:30Z</time>
      </trkpt>
      <trkpt lat="43.48489" lon="2.34409">
        <ele>613</ele>
        <time>2019-03-16T09:41:31Z</time>
      </trkpt>
      <trkpt lat="43.48488" lon="2.34411">
        <ele>612</ele>
        <time>2019-03-16T09:41:32Z</time>
      </trkpt>
      <trkpt lat="43.48486" lon="2.34412">
        <ele>611</ele>
        <time>2019-03-16T09:41:34Z</time>
      </trkpt>
      <trkpt lat="43.48486" lon="2.34415">
        <ele>610</ele>
        <time>2019-03-16T09:41:37Z</time>
      </trkpt>
      <trkpt lat="43.4849" lon="2.34445">
        <ele>601</ele>
        <time>2019-03-16T09:42:28Z</time>
      </trkpt>
      <trkpt lat="43.48492" lon="2.3445">
        <ele>601</ele>
        <time>2019-03-16T09:42:29Z</time>
      </trkpt>
      <trkpt lat="43.48494" lon="2.34454">
        <ele>600</ele>
        <time>2019-03-16T09:42:30Z</time>
      </trkpt>
      <trkpt lat="43.48497" lon="2.34458">
        <ele>599</ele>
        <time>2019-03-16T09:42:31Z</time>
      </trkpt>
      <trkpt lat="43.48501" lon="2.34462">
        <ele>597</ele>
        <time>2019-03-16T09:42:32Z</time>
      </trkpt>
      <trkpt lat="43.48504" lon="2.34466">
        <ele>595</ele>
        <time>2019-03-16T09:42:33Z</time>
      </trkpt>
      <trkpt lat="43.48507" lon="2.3447">
        <ele>594</ele>
        <time>2019-03-16T09:42:34Z</time>
      </trkpt>
      <trkpt lat="43.48508" lon="2.34473">
        <ele>593</ele>
        <time>2019-03-16T09:42:35Z</time>
      </trkpt>
      <trkpt lat="43.48509" lon="2.34474">
        <ele>592</ele>
        <time>2019-03-16T09:42:36Z</time>
      </trkpt>
      <trkpt lat="43.4851" lon="2.34477">
        <ele>591</ele>
        <time>2019-03-16T09:42:37Z</time>
      </trkpt>
      <trkpt lat="43.4851" lon="2.3448">
        <ele>591</ele>
        <time>2019-03-16T09:42:38Z</time>
      </trkpt>
      <trkpt lat="43.48512" lon="2.34484">
        <ele>590</ele>
        <time>2019-03-16T09:42:39Z</time>
      </trkpt>
      <trkpt lat="43.48514" lon="2.34488">
        <ele>589</ele>
        <time>2019-03-16T09:42:40Z</time>
      </trkpt>
      <trkpt lat="43.48522" lon="2.34495">
        <ele>587</ele>
        <time>2019-03-16T09:42:42Z</time>
      </trkpt>
      <trkpt lat="43.48528" lon="2.34497">
        <ele>586</ele>
        <time>2019-03-16T09:42:43Z</time>
      </trkpt>
      <trkpt lat="43.48533" lon="2.34499">
        <ele>585</ele>
        <time>2019-03-16T09:42:44Z</time>
      </trkpt>
      <trkpt lat="43.48538" lon="2.34501">
        <ele>584</ele>
        <time>2019-03-16T09:42:46Z</time>
      </trkpt>
      <trkpt lat="43.4854" lon="2.34502">
        <ele>583</ele>
        <time>2019-03-16T09:42:47Z</time>
      </trkpt>
      <trkpt lat="43.48542" lon="2.34504">
        <ele>583</ele>
        <time>2019-03-16T09:42:49Z</time>
      </trkpt>
      <trkpt lat="43.48543" lon="2.34508">
        <ele>583</ele>
        <time>2019-03-16T09:43:44Z</time>
      </trkpt>
      <trkpt lat="43.48542" lon="2.34515">
        <ele>582</ele>
        <time>2019-03-16T09:43:47Z</time>
      </trkpt>
      <trkpt lat="43.48542" lon="2.34518">
        <ele>582</ele>
        <time>2019-03-16T09:43:48Z</time>
      </trkpt>
      <trkpt lat="43.48541" lon="2.34524">
        <ele>580</ele>
        <time>2019-03-16T09:43:50Z</time>
      </trkpt>
      <trkpt lat="43.48542" lon="2.34529">
        <ele>579</ele>
        <time>2019-03-16T09:43:51Z</time>
      </trkpt>
      <trkpt lat="43.48542" lon="2.34534">
        <ele>578</ele>
        <time>2019-03-16T09:43:52Z</time>
      </trkpt>
      <trkpt lat="43.48543" lon="2.3454">
        <ele>577</ele>
        <time>2019-03-16T09:43:53Z</time>
      </trkpt>
      <trkpt lat="43.48543" lon="2.34546">
        <ele>576</ele>
        <time>2019-03-16T09:43:54Z</time>
      </trkpt>
      <trkpt lat="43.48543" lon="2.34552">
        <ele>576</ele>
        <time>2019-03-16T09:43:55Z</time>
      </trkpt>
      <trkpt lat="43.48544" lon="2.34559">
        <ele>575</ele>
        <time>2019-03-16T09:43:56Z</time>
      </trkpt>
      <trkpt lat="43.48546" lon="2.34566">
        <ele>575</ele>
        <time>2019-03-16T09:43:57Z</time>
      </trkpt>
      <trkpt lat="43.48548" lon="2.34573">
        <ele>574</ele>
        <time>2019-03-16T09:43:58Z</time>
      </trkpt>
      <trkpt lat="43.48551" lon="2.34583">
        <ele>573</ele>
        <time>2019-03-16T09:44:00Z</time>
      </trkpt>
      <trkpt lat="43.48556" lon="2.34597">
        <ele>572</ele>
        <time>2019-03-16T09:44:03Z</time>
      </trkpt>
      <trkpt lat="43.48564" lon="2.34607">
        <ele>571</ele>
        <time>2019-03-16T09:44:06Z</time>
      </trkpt>
      <trkpt lat="43.48566" lon="2.34612">
        <ele>570</ele>
        <time>2019-03-16T09:44:07Z</time>
      </trkpt>
      <trkpt lat="43.48571" lon="2.34622">
        <ele>568</ele>
        <time>2019-03-16T09:44:09Z</time>
      </trkpt>
      <trkpt lat="43.48573" lon="2.34626">
        <ele>568</ele>
        <time>2019-03-16T09:44:10Z</time>
      </trkpt>
      <trkpt lat="43.48576" lon="2.34629">
        <ele>567</ele>
        <time>2019-03-16T09:44:11Z</time>
      </trkpt>
      <trkpt lat="43.48583" lon="2.34637">
        <ele>566</ele>
        <time>2019-03-16T09:44:13Z</time>
      </trkpt>
      <trkpt lat="43.48591" lon="2.34647">
        <ele>565</ele>
        <time>2019-03-16T09:44:15Z</time>
      </trkpt>
      <trkpt lat="43.486" lon="2.34658">
        <ele>564</ele>
        <time>2019-03-16T09:44:18Z</time>
      </trkpt>
      <trkpt lat="43.48601" lon="2.34662">
        <ele>564</ele>
        <time>2019-03-16T09:44:19Z</time>
      </trkpt>
      <trkpt lat="43.48602" lon="2.34668">
        <ele>563</ele>
        <time>2019-03-16T09:44:20Z</time>
      </trkpt>
      <trkpt lat="43.48602" lon="2.34673">
        <ele>562</ele>
        <time>2019-03-16T09:44:21Z</time>
      </trkpt>
      <trkpt lat="43.48603" lon="2.34678">
        <ele>561</ele>
        <time>2019-03-16T09:44:22Z</time>
      </trkpt>
      <trkpt lat="43.48604" lon="2.3469">
        <ele>559</ele>
        <time>2019-03-16T09:44:24Z</time>
      </trkpt>
      <trkpt lat="43.48605" lon="2.34696">
        <ele>559</ele>
        <time>2019-03-16T09:44:25Z</time>
      </trkpt>
      <trkpt lat="43.48607" lon="2.34703">
        <ele>558</ele>
        <time>2019-03-16T09:44:26Z</time>
      </trkpt>
      <trkpt lat="43.48613" lon="2.34713">
        <ele>556</ele>
        <time>2019-03-16T09:44:28Z</time>
      </trkpt>
      <trkpt lat="43.48617" lon="2.34716">
        <ele>555</ele>
        <time>2019-03-16T09:44:29Z</time>
      </trkpt>
      <trkpt lat="43.48621" lon="2.34719">
        <ele>555</ele>
        <time>2019-03-16T09:44:30Z</time>
      </trkpt>
      <trkpt lat="43.48624" lon="2.34723">
        <ele>554</ele>
        <time>2019-03-16T09:44:31Z</time>
      </trkpt>
      <trkpt lat="43.48627" lon="2.34728">
        <ele>553</ele>
        <time>2019-03-16T09:44:32Z</time>
      </trkpt>
      <trkpt lat="43.48629" lon="2.34734">
        <ele>552</ele>
        <time>2019-03-16T09:44:33Z</time>
      </trkpt>
      <trkpt lat="43.48633" lon="2.34745">
        <ele>551</ele>
        <time>2019-03-16T09:44:35Z</time>
      </trkpt>
      <trkpt lat="43.48637" lon="2.34748">
        <ele>550</ele>
        <time>2019-03-16T09:44:36Z</time>
      </trkpt>
      <trkpt lat="43.4864" lon="2.34751">
        <ele>549</ele>
        <time>2019-03-16T09:44:37Z</time>
      </trkpt>
      <trkpt lat="43.48645" lon="2.34759">
        <ele>548</ele>
        <time>2019-03-16T09:44:39Z</time>
      </trkpt>
      <trkpt lat="43.48644" lon="2.34762">
        <ele>548</ele>
        <time>2019-03-16T09:44:40Z</time>
      </trkpt>
      <trkpt lat="43.48632" lon="2.34767">
        <ele>547</ele>
        <time>2019-03-16T09:44:44Z</time>
      </trkpt>
      <trkpt lat="43.48628" lon="2.34766">
        <ele>547</ele>
        <time>2019-03-16T09:44:45Z</time>
      </trkpt>
      <trkpt lat="43.48622" lon="2.34765">
        <ele>546</ele>
        <time>2019-03-16T09:44:47Z</time>
      </trkpt>
      <trkpt lat="43.48619" lon="2.34764">
        <ele>546</ele>
        <time>2019-03-16T09:44:48Z</time>
      </trkpt>
      <trkpt lat="43.48613" lon="2.34763">
        <ele>545</ele>
        <time>2019-03-16T09:44:50Z</time>
      </trkpt>
      <trkpt lat="43.4861" lon="2.34761">
        <ele>544</ele>
        <time>2019-03-16T09:44:51Z</time>
      </trkpt>
      <trkpt lat="43.48608" lon="2.34759">
        <ele>543</ele>
        <time>2019-03-16T09:44:52Z</time>
      </trkpt>
      <trkpt lat="43.48606" lon="2.34761">
        <ele>543</ele>
        <time>2019-03-16T09:44:53Z</time>
      </trkpt>
      <trkpt lat="43.48604" lon="2.34767">
        <ele>541</ele>
        <time>2019-03-16T09:44:55Z</time>
      </trkpt>
      <trkpt lat="43.48604" lon="2.34776">
        <ele>539</ele>
        <time>2019-03-16T09:44:57Z</time>
      </trkpt>
      <trkpt lat="43.48605" lon="2.34782">
        <ele>538</ele>
        <time>2019-03-16T09:44:59Z</time>
      </trkpt>
      <trkpt lat="43.48606" lon="2.34784">
        <ele>537</ele>
        <time>2019-03-16T09:45:00Z</time>
      </trkpt>
      <trkpt lat="43.48607" lon="2.34785">
        <ele>536</ele>
        <time>2019-03-16T09:45:01Z</time>
      </trkpt>
      <trkpt lat="43.48611" lon="2.34789">
        <ele>534</ele>
        <time>2019-03-16T09:45:03Z</time>
      </trkpt>
      <trkpt lat="43.48614" lon="2.34792">
        <ele>532</ele>
        <time>2019-03-16T09:45:04Z</time>
      </trkpt>
      <trkpt lat="43.48619" lon="2.34795">
        <ele>531</ele>
        <time>2019-03-16T09:45:05Z</time>
      </trkpt>
      <trkpt lat="43.48625" lon="2.34798">
        <ele>531</ele>
        <time>2019-03-16T09:45:06Z</time>
      </trkpt>
      <trkpt lat="43.48638" lon="2.34807">
        <ele>529</ele>
        <time>2019-03-16T09:45:08Z</time>
      </trkpt>
      <trkpt lat="43.48645" lon="2.34811">
        <ele>528</ele>
        <time>2019-03-16T09:45:09Z</time>
      </trkpt>
      <trkpt lat="43.48655" lon="2.34819">
        <ele>526</ele>
        <time>2019-03-16T09:45:11Z</time>
      </trkpt>
      <trkpt lat="43.48662" lon="2.34825">
        <ele>525</ele>
        <time>2019-03-16T09:45:14Z</time>
      </trkpt>
      <trkpt lat="43.48663" lon="2.34828">
        <ele>525</ele>
        <time>2019-03-16T09:45:15Z</time>
      </trkpt>
      <trkpt lat="43.48668" lon="2.34836">
        <ele>524</ele>
        <time>2019-03-16T09:45:18Z</time>
      </trkpt>
      <trkpt lat="43.4867" lon="2.34839">
        <ele>523</ele>
        <time>2019-03-16T09:45:19Z</time>
      </trkpt>
      <trkpt lat="43.48672" lon="2.34843">
        <ele>522</ele>
        <time>2019-03-16T09:45:20Z</time>
      </trkpt>
      <trkpt lat="43.48674" lon="2.34848">
        <ele>521</ele>
        <time>2019-03-16T09:45:21Z</time>
      </trkpt>
      <trkpt lat="43.48676" lon="2.34853">
        <ele>520</ele>
        <time>2019-03-16T09:45:22Z</time>
      </trkpt>
      <trkpt lat="43.48679" lon="2.34857">
        <ele>519</ele>
        <time>2019-03-16T09:45:23Z</time>
      </trkpt>
      <trkpt lat="43.48683" lon="2.34861">
        <ele>518</ele>
        <time>2019-03-16T09:45:24Z</time>
      </trkpt>
      <trkpt lat="43.48685" lon="2.34866">
        <ele>517</ele>
        <time>2019-03-16T09:45:25Z</time>
      </trkpt>
      <trkpt lat="43.48688" lon="2.34877">
        <ele>515</ele>
        <time>2019-03-16T09:45:27Z</time>
      </trkpt>
      <trkpt lat="43.48689" lon="2.34883">
        <ele>514</ele>
        <time>2019-03-16T09:45:28Z</time>
      </trkpt>
      <trkpt lat="43.48692" lon="2.34888">
        <ele>513</ele>
        <time>2019-03-16T09:45:29Z</time>
      </trkpt>
      <trkpt lat="43.48695" lon="2.34893">
        <ele>512</ele>
        <time>2019-03-16T09:45:30Z</time>
      </trkpt>
      <trkpt lat="43.48704" lon="2.34904">
        <ele>510</ele>
        <time>2019-03-16T09:45:33Z</time>
      </trkpt>
      <trkpt lat="43.48714" lon="2.34911">
        <ele>510</ele>
        <time>2019-03-16T09:45:36Z</time>
      </trkpt>
      <trkpt lat="43.48728" lon="2.34924">
        <ele>510</ele>
        <time>2019-03-16T09:45:41Z</time>
      </trkpt>
      <trkpt lat="43.48731" lon="2.34933">
        <ele>509</ele>
        <time>2019-03-16T09:45:43Z</time>
      </trkpt>
      <trkpt lat="43.48734" lon="2.34943">
        <ele>508</ele>
        <time>2019-03-16T09:45:45Z</time>
      </trkpt>
      <trkpt lat="43.48736" lon="2.34948">
        <ele>508</ele>
        <time>2019-03-16T09:45:46Z</time>
      </trkpt>
      <trkpt lat="43.48737" lon="2.34958">
        <ele>507</ele>
        <time>2019-03-16T09:45:49Z</time>
      </trkpt>
      <trkpt lat="43.48737" lon="2.3496">
        <ele>506</ele>
        <time>2019-03-16T09:45:50Z</time>
      </trkpt>
      <trkpt lat="43.48739" lon="2.34963">
        <ele>506</ele>
        <time>2019-03-16T09:45:53Z</time>
      </trkpt>
      <trkpt lat="43.4874" lon="2.34968">
        <ele>506</ele>
        <time>2019-03-16T09:46:17Z</time>
      </trkpt>
      <trkpt lat="43.48748" lon="2.34975">
        <ele>507</ele>
        <time>2019-03-16T09:46:23Z</time>
      </trkpt>
      <trkpt lat="43.4875" lon="2.34976">
        <ele>508</ele>
        <time>2019-03-16T09:46:24Z</time>
      </trkpt>
      <trkpt lat="43.48753" lon="2.34979">
        <ele>509</ele>
        <time>2019-03-16T09:46:26Z</time>
      </trkpt>
      <trkpt lat="43.48757" lon="2.34983">
        <ele>509</ele>
        <time>2019-03-16T09:46:28Z</time>
      </trkpt>
      <trkpt lat="43.48758" lon="2.34985">
        <ele>509</ele>
        <time>2019-03-16T09:46:29Z</time>
      </trkpt>
      <trkpt lat="43.48761" lon="2.34988">
        <ele>510</ele>
        <time>2019-03-16T09:46:31Z</time>
      </trkpt>
      <trkpt lat="43.48764" lon="2.34992">
        <ele>511</ele>
        <time>2019-03-16T09:46:33Z</time>
      </trkpt>
      <trkpt lat="43.48767" lon="2.34997">
        <ele>511</ele>
        <time>2019-03-16T09:46:35Z</time>
      </trkpt>
      <trkpt lat="43.48768" lon="2.35">
        <ele>511</ele>
        <time>2019-03-16T09:46:36Z</time>
      </trkpt>
      <trkpt lat="43.4877" lon="2.35002">
        <ele>511</ele>
        <time>2019-03-16T09:46:37Z</time>
      </trkpt>
      <trkpt lat="43.48775" lon="2.35006">
        <ele>512</ele>
        <time>2019-03-16T09:46:39Z</time>
      </trkpt>
      <trkpt lat="43.48777" lon="2.35016">
        <ele>512</ele>
        <time>2019-03-16T09:46:42Z</time>
      </trkpt>
      <trkpt lat="43.48778" lon="2.35023">
        <ele>512</ele>
        <time>2019-03-16T09:46:44Z</time>
      </trkpt>
      <trkpt lat="43.48783" lon="2.35042">
        <ele>512</ele>
        <time>2019-03-16T09:46:49Z</time>
      </trkpt>
      <trkpt lat="43.48785" lon="2.35046">
        <ele>512</ele>
        <time>2019-03-16T09:46:50Z</time>
      </trkpt>
      <trkpt lat="43.48787" lon="2.3505">
        <ele>512</ele>
        <time>2019-03-16T09:46:51Z</time>
      </trkpt>
      <trkpt lat="43.48792" lon="2.35055">
        <ele>513</ele>
        <time>2019-03-16T09:46:53Z</time>
      </trkpt>
      <trkpt lat="43.48794" lon="2.35057">
        <ele>514</ele>
        <time>2019-03-16T09:46:55Z</time>
      </trkpt>
      <trkpt lat="43.48797" lon="2.3506">
        <ele>515</ele>
        <time>2019-03-16T09:46:57Z</time>
      </trkpt>
      <trkpt lat="43.48799" lon="2.35062">
        <ele>516</ele>
        <time>2019-03-16T09:46:58Z</time>
      </trkpt>
      <trkpt lat="43.48802" lon="2.35067">
        <ele>516</ele>
        <time>2019-03-16T09:47:00Z</time>
      </trkpt>
      <trkpt lat="43.48803" lon="2.35072">
        <ele>517</ele>
        <time>2019-03-16T09:47:02Z</time>
      </trkpt>
      <trkpt lat="43.48805" lon="2.35076">
        <ele>517</ele>
        <time>2019-03-16T09:47:04Z</time>
      </trkpt>
      <trkpt lat="43.48805" lon="2.35079">
        <ele>517</ele>
        <time>2019-03-16T09:47:05Z</time>
      </trkpt>
      <trkpt lat="43.48806" lon="2.35085">
        <ele>518</ele>
        <time>2019-03-16T09:47:08Z</time>
      </trkpt>
      <trkpt lat="43.48805" lon="2.35091">
        <ele>518</ele>
        <time>2019-03-16T09:47:11Z</time>
      </trkpt>
      <trkpt lat="43.48804" lon="2.35095">
        <ele>518</ele>
        <time>2019-03-16T09:47:13Z</time>
      </trkpt>
      <trkpt lat="43.48804" lon="2.35098">
        <ele>517</ele>
        <time>2019-03-16T09:47:15Z</time>
      </trkpt>
      <trkpt lat="43.48804" lon="2.351">
        <ele>517</ele>
        <time>2019-03-16T09:47:18Z</time>
      </trkpt>
      <trkpt lat="43.48804" lon="2.35104">
        <ele>517</ele>
        <time>2019-03-16T09:47:26Z</time>
      </trkpt>
      <trkpt lat="43.48804" lon="2.35104">
        <ele>517</ele>
        <time>2019-03-16T09:47:28Z</time>
      </trkpt>
      <trkpt lat="43.48804" lon="2.3511">
        <ele>516</ele>
        <time>2019-03-16T09:49:21Z</time>
      </trkpt>
      <trkpt lat="43.48804" lon="2.35111">
        <ele>516</ele>
        <time>2019-03-16T09:49:22Z</time>
      </trkpt>
      <trkpt lat="43.48806" lon="2.35111">
        <ele>516</ele>
        <time>2019-03-16T09:49:23Z</time>
      </trkpt>
      <trkpt lat="43.48814" lon="2.35111">
        <ele>516</ele>
        <time>2019-03-16T09:49:27Z</time>
      </trkpt>
      <trkpt lat="43.48818" lon="2.35111">
        <ele>516</ele>
        <time>2019-03-16T09:49:28Z</time>
      </trkpt>
      <trkpt lat="43.48821" lon="2.35111">
        <ele>515</ele>
        <time>2019-03-16T09:49:29Z</time>
      </trkpt>
      <trkpt lat="43.48826" lon="2.35111">
        <ele>513</ele>
        <time>2019-03-16T09:49:30Z</time>
      </trkpt>
      <trkpt lat="43.48831" lon="2.35112">
        <ele>512</ele>
        <time>2019-03-16T09:49:31Z</time>
      </trkpt>
      <trkpt lat="43.48836" lon="2.35113">
        <ele>511</ele>
        <time>2019-03-16T09:49:32Z</time>
      </trkpt>
      <trkpt lat="43.48842" lon="2.35114">
        <ele>509</ele>
        <time>2019-03-16T09:49:33Z</time>
      </trkpt>
      <trkpt lat="43.48847" lon="2.35116">
        <ele>508</ele>
        <time>2019-03-16T09:49:34Z</time>
      </trkpt>
      <trkpt lat="43.48852" lon="2.3512">
        <ele>506</ele>
        <time>2019-03-16T09:49:35Z</time>
      </trkpt>
      <trkpt lat="43.48858" lon="2.35123">
        <ele>505</ele>
        <time>2019-03-16T09:49:36Z</time>
      </trkpt>
      <trkpt lat="43.48863" lon="2.35124">
        <ele>504</ele>
        <time>2019-03-16T09:49:37Z</time>
      </trkpt>
      <trkpt lat="43.48871" lon="2.35125">
        <ele>503</ele>
        <time>2019-03-16T09:49:38Z</time>
      </trkpt>
      <trkpt lat="43.48878" lon="2.35126">
        <ele>502</ele>
        <time>2019-03-16T09:49:39Z</time>
      </trkpt>
      <trkpt lat="43.48892" lon="2.35132">
        <ele>501</ele>
        <time>2019-03-16T09:49:41Z</time>
      </trkpt>
      <trkpt lat="43.489" lon="2.35134">
        <ele>501</ele>
        <time>2019-03-16T09:49:42Z</time>
      </trkpt>
      <trkpt lat="43.48907" lon="2.35135">
        <ele>501</ele>
        <time>2019-03-16T09:49:43Z</time>
      </trkpt>
      <trkpt lat="43.48913" lon="2.35136">
        <ele>500</ele>
        <time>2019-03-16T09:49:44Z</time>
      </trkpt>
      <trkpt lat="43.48917" lon="2.35138">
        <ele>500</ele>
        <time>2019-03-16T09:49:45Z</time>
      </trkpt>
      <trkpt lat="43.48921" lon="2.35141">
        <ele>500</ele>
        <time>2019-03-16T09:49:48Z</time>
      </trkpt>
      <trkpt lat="43.48922" lon="2.35142">
        <ele>500</ele>
        <time>2019-03-16T09:49:49Z</time>
      </trkpt>
      <trkpt lat="43.48927" lon="2.3514">
        <ele>500</ele>
        <time>2019-03-16T09:55:42Z</time>
      </trkpt>
      <trkpt lat="43.48928" lon="2.3514">
        <ele>500</ele>
        <time>2019-03-16T09:55:43Z</time>
      </trkpt>
      <trkpt lat="43.4893" lon="2.35138">
        <ele>500</ele>
        <time>2019-03-16T09:55:45Z</time>
      </trkpt>
      <trkpt lat="43.4894" lon="2.35129">
        <ele>499</ele>
        <time>2019-03-16T09:55:49Z</time>
      </trkpt>
      <trkpt lat="43.48943" lon="2.35126">
        <ele>499</ele>
        <time>2019-03-16T09:55:50Z</time>
      </trkpt>
      <trkpt lat="43.4895" lon="2.35122">
        <ele>497</ele>
        <time>2019-03-16T09:55:52Z</time>
      </trkpt>
      <trkpt lat="43.48953" lon="2.3512">
        <ele>496</ele>
        <time>2019-03-16T09:55:53Z</time>
      </trkpt>
      <trkpt lat="43.48955" lon="2.35117">
        <ele>495</ele>
        <time>2019-03-16T09:55:54Z</time>
      </trkpt>
      <trkpt lat="43.48959" lon="2.35114">
        <ele>493</ele>
        <time>2019-03-16T09:55:55Z</time>
      </trkpt>
      <trkpt lat="43.48962" lon="2.3511">
        <ele>492</ele>
        <time>2019-03-16T09:55:56Z</time>
      </trkpt>
      <trkpt lat="43.48964" lon="2.35106">
        <ele>491</ele>
        <time>2019-03-16T09:55:57Z</time>
      </trkpt>
      <trkpt lat="43.48965" lon="2.351">
        <ele>490</ele>
        <time>2019-03-16T09:55:58Z</time>
      </trkpt>
      <trkpt lat="43.48964" lon="2.35095">
        <ele>488</ele>
        <time>2019-03-16T09:55:59Z</time>
      </trkpt>
      <trkpt lat="43.48959" lon="2.35088">
        <ele>488</ele>
        <time>2019-03-16T09:56:01Z</time>
      </trkpt>
      <trkpt lat="43.48954" lon="2.35082">
        <ele>488</ele>
        <time>2019-03-16T09:56:03Z</time>
      </trkpt>
      <trkpt lat="43.4895" lon="2.35077">
        <ele>488</ele>
        <time>2019-03-16T09:56:05Z</time>
      </trkpt>
      <trkpt lat="43.48942" lon="2.35068">
        <ele>489</ele>
        <time>2019-03-16T09:56:09Z</time>
      </trkpt>
      <trkpt lat="43.48935" lon="2.35059">
        <ele>489</ele>
        <time>2019-03-16T09:56:13Z</time>
      </trkpt>
      <trkpt lat="43.48928" lon="2.35051">
        <ele>489</ele>
        <time>2019-03-16T09:56:16Z</time>
      </trkpt>
      <trkpt lat="43.48924" lon="2.35047">
        <ele>490</ele>
        <time>2019-03-16T09:56:18Z</time>
      </trkpt>
      <trkpt lat="43.48909" lon="2.35034">
        <ele>490</ele>
        <time>2019-03-16T09:56:24Z</time>
      </trkpt>
      <trkpt lat="43.48898" lon="2.35027">
        <ele>491</ele>
        <time>2019-03-16T09:56:29Z</time>
      </trkpt>
      <trkpt lat="43.48891" lon="2.35021">
        <ele>491</ele>
        <time>2019-03-16T09:56:32Z</time>
      </trkpt>
      <trkpt lat="43.48887" lon="2.35017">
        <ele>491</ele>
        <time>2019-03-16T09:56:34Z</time>
      </trkpt>
      <trkpt lat="43.48877" lon="2.35007">
        <ele>492</ele>
        <time>2019-03-16T09:56:39Z</time>
      </trkpt>
      <trkpt lat="43.48872" lon="2.34999">
        <ele>492</ele>
        <time>2019-03-16T09:56:43Z</time>
      </trkpt>
      <trkpt lat="43.4887" lon="2.34997">
        <ele>492</ele>
        <time>2019-03-16T09:56:44Z</time>
      </trkpt>
      <trkpt lat="43.48866" lon="2.34993">
        <ele>493</ele>
        <time>2019-03-16T09:56:46Z</time>
      </trkpt>
      <trkpt lat="43.48861" lon="2.34987">
        <ele>494</ele>
        <time>2019-03-16T09:56:49Z</time>
      </trkpt>
      <trkpt lat="43.48858" lon="2.34983">
        <ele>494</ele>
        <time>2019-03-16T09:56:51Z</time>
      </trkpt>
      <trkpt lat="43.48852" lon="2.34975">
        <ele>494</ele>
        <time>2019-03-16T09:56:54Z</time>
      </trkpt>
      <trkpt lat="43.48844" lon="2.34969">
        <ele>495</ele>
        <time>2019-03-16T09:56:58Z</time>
      </trkpt>
      <trkpt lat="43.48835" lon="2.34962">
        <ele>496</ele>
        <time>2019-03-16T09:57:01Z</time>
      </trkpt>
      <trkpt lat="43.48827" lon="2.34955">
        <ele>496</ele>
        <time>2019-03-16T09:57:05Z</time>
      </trkpt>
      <trkpt lat="43.48823" lon="2.34951">
        <ele>497</ele>
        <time>2019-03-16T09:57:07Z</time>
      </trkpt>
      <trkpt lat="43.48816" lon="2.34945">
        <ele>497</ele>
        <time>2019-03-16T09:57:10Z</time>
      </trkpt>
      <trkpt lat="43.48808" lon="2.3494">
        <ele>498</ele>
        <time>2019-03-16T09:57:12Z</time>
      </trkpt>
      <trkpt lat="43.48803" lon="2.34935">
        <ele>498</ele>
        <time>2019-03-16T09:57:16Z</time>
      </trkpt>
      <trkpt lat="43.48796" lon="2.34927">
        <ele>499</ele>
        <time>2019-03-16T09:57:19Z</time>
      </trkpt>
      <trkpt lat="43.48786" lon="2.34912">
        <ele>500</ele>
        <time>2019-03-16T09:57:26Z</time>
      </trkpt>
      <trkpt lat="43.48783" lon="2.34907">
        <ele>500</ele>
        <time>2019-03-16T09:57:27Z</time>
      </trkpt>
      <trkpt lat="43.48776" lon="2.34899">
        <ele>500</ele>
        <time>2019-03-16T09:57:31Z</time>
      </trkpt>
      <trkpt lat="43.48769" lon="2.34886">
        <ele>501</ele>
        <time>2019-03-16T09:57:36Z</time>
      </trkpt>
      <trkpt lat="43.4876" lon="2.34867">
        <ele>502</ele>
        <time>2019-03-16T09:57:41Z</time>
      </trkpt>
      <trkpt lat="43.48756" lon="2.34862">
        <ele>502</ele>
        <time>2019-03-16T09:57:44Z</time>
      </trkpt>
      <trkpt lat="43.48752" lon="2.34853">
        <ele>503</ele>
        <time>2019-03-16T09:57:48Z</time>
      </trkpt>
      <trkpt lat="43.4875" lon="2.34849">
        <ele>504</ele>
        <time>2019-03-16T09:57:50Z</time>
      </trkpt>
      <trkpt lat="43.48748" lon="2.34838">
        <ele>505</ele>
        <time>2019-03-16T09:57:53Z</time>
      </trkpt>
      <trkpt lat="43.48745" lon="2.34826">
        <ele>505</ele>
        <time>2019-03-16T09:57:58Z</time>
      </trkpt>
      <trkpt lat="43.48743" lon="2.34818">
        <ele>505</ele>
        <time>2019-03-16T09:57:59Z</time>
      </trkpt>
      <trkpt lat="43.48743" lon="2.34816">
        <ele>506</ele>
        <time>2019-03-16T09:58:00Z</time>
      </trkpt>
      <trkpt lat="43.48742" lon="2.34806">
        <ele>506</ele>
        <time>2019-03-16T09:58:04Z</time>
      </trkpt>
      <trkpt lat="43.48741" lon="2.34797">
        <ele>507</ele>
        <time>2019-03-16T09:58:06Z</time>
      </trkpt>
      <trkpt lat="43.4874" lon="2.34794">
        <ele>507</ele>
        <time>2019-03-16T09:58:07Z</time>
      </trkpt>
      <trkpt lat="43.4874" lon="2.34789">
        <ele>507</ele>
        <time>2019-03-16T09:58:10Z</time>
      </trkpt>
      <trkpt lat="43.48739" lon="2.34784">
        <ele>508</ele>
        <time>2019-03-16T09:58:11Z</time>
      </trkpt>
      <trkpt lat="43.48738" lon="2.34771">
        <ele>509</ele>
        <time>2019-03-16T09:58:15Z</time>
      </trkpt>
      <trkpt lat="43.48737" lon="2.34765">
        <ele>509</ele>
        <time>2019-03-16T09:58:17Z</time>
      </trkpt>
      <trkpt lat="43.48736" lon="2.34752">
        <ele>510</ele>
        <time>2019-03-16T09:58:21Z</time>
      </trkpt>
      <trkpt lat="43.48735" lon="2.34732">
        <ele>511</ele>
        <time>2019-03-16T09:58:27Z</time>
      </trkpt>
      <trkpt lat="43.48735" lon="2.34725">
        <ele>512</ele>
        <time>2019-03-16T09:58:29Z</time>
      </trkpt>
      <trkpt lat="43.48735" lon="2.34711">
        <ele>512</ele>
        <time>2019-03-16T09:58:33Z</time>
      </trkpt>
      <trkpt lat="43.48736" lon="2.34706">
        <ele>512</ele>
        <time>2019-03-16T09:58:35Z</time>
      </trkpt>
      <trkpt lat="43.48735" lon="2.34699">
        <ele>512</ele>
        <time>2019-03-16T09:58:38Z</time>
      </trkpt>
      <trkpt lat="43.48734" lon="2.34669">
        <ele>513</ele>
        <time>2019-03-16T09:58:45Z</time>
      </trkpt>
      <trkpt lat="43.48733" lon="2.3466">
        <ele>513</ele>
        <time>2019-03-16T09:58:48Z</time>
      </trkpt>
      <trkpt lat="43.48733" lon="2.34656">
        <ele>513</ele>
        <time>2019-03-16T09:58:50Z</time>
      </trkpt>
      <trkpt lat="43.48734" lon="2.34633">
        <ele>513</ele>
        <time>2019-03-16T09:58:56Z</time>
      </trkpt>
      <trkpt lat="43.48735" lon="2.34625">
        <ele>513</ele>
        <time>2019-03-16T09:58:57Z</time>
      </trkpt>
      <trkpt lat="43.48736" lon="2.34616">
        <ele>513</ele>
        <time>2019-03-16T09:58:59Z</time>
      </trkpt>
      <trkpt lat="43.48737" lon="2.34612">
        <ele>513</ele>
        <time>2019-03-16T09:59:00Z</time>
      </trkpt>
      <trkpt lat="43.48737" lon="2.34585">
        <ele>513</ele>
        <time>2019-03-16T09:59:05Z</time>
      </trkpt>
      <trkpt lat="43.48736" lon="2.34563">
        <ele>513</ele>
        <time>2019-03-16T09:59:10Z</time>
      </trkpt>
      <trkpt lat="43.48732" lon="2.34524">
        <ele>512</ele>
        <time>2019-03-16T09:59:17Z</time>
      </trkpt>
      <trkpt lat="43.48729" lon="2.34504">
        <ele>513</ele>
        <time>2019-03-16T09:59:22Z</time>
      </trkpt>
      <trkpt lat="43.48726" lon="2.34491">
        <ele>513</ele>
        <time>2019-03-16T09:59:24Z</time>
      </trkpt>
      <trkpt lat="43.48729" lon="2.34476">
        <ele>513</ele>
        <time>2019-03-16T09:59:27Z</time>
      </trkpt>
      <trkpt lat="43.48733" lon="2.34469">
        <ele>513</ele>
        <time>2019-03-16T09:59:29Z</time>
      </trkpt>
      <trkpt lat="43.48736" lon="2.34464">
        <ele>513</ele>
        <time>2019-03-16T09:59:31Z</time>
      </trkpt>
      <trkpt lat="43.48742" lon="2.34462">
        <ele>512</ele>
        <time>2019-03-16T09:59:33Z</time>
      </trkpt>
      <trkpt lat="43.4875" lon="2.34462">
        <ele>512</ele>
        <time>2019-03-16T09:59:36Z</time>
      </trkpt>
      <trkpt lat="43.48777" lon="2.34469">
        <ele>512</ele>
        <time>2019-03-16T09:59:42Z</time>
      </trkpt>
      <trkpt lat="43.48781" lon="2.3447">
        <ele>512</ele>
        <time>2019-03-16T09:59:43Z</time>
      </trkpt>
      <trkpt lat="43.48805" lon="2.34475">
        <ele>512</ele>
        <time>2019-03-16T09:59:49Z</time>
      </trkpt>
      <trkpt lat="43.48825" lon="2.34469">
        <ele>513</ele>
        <time>2019-03-16T09:59:54Z</time>
      </trkpt>
      <trkpt lat="43.48832" lon="2.34459">
        <ele>513</ele>
        <time>2019-03-16T09:59:58Z</time>
      </trkpt>
      <trkpt lat="43.48834" lon="2.34452">
        <ele>513</ele>
        <time>2019-03-16T09:59:59Z</time>
      </trkpt>
      <trkpt lat="43.48837" lon="2.34435">
        <ele>513</ele>
        <time>2019-03-16T10:00:05Z</time>
      </trkpt>
      <trkpt lat="43.48836" lon="2.34433">
        <ele>513</ele>
        <time>2019-03-16T10:00:06Z</time>
      </trkpt>
      <trkpt lat="43.48831" lon="2.34423">
        <ele>513</ele>
        <time>2019-03-16T10:00:11Z</time>
      </trkpt>
      <trkpt lat="43.48831" lon="2.3442">
        <ele>513</ele>
        <time>2019-03-16T10:00:13Z</time>
      </trkpt>
      <trkpt lat="43.48831" lon="2.3442">
        <ele>513</ele>
        <time>2019-03-16T10:00:16Z</time>
      </trkpt>
      <trkpt lat="43.48831" lon="2.3442">
        <ele>513</ele>
        <time>2019-03-16T10:00:20Z</time>
      </trkpt>
      <trkpt lat="43.4883" lon="2.34417">
        <ele>513</ele>
        <time>2019-03-16T10:00:22Z</time>
      </trkpt>
      <trkpt lat="43.48823" lon="2.34402">
        <ele>514</ele>
        <time>2019-03-16T10:00:28Z</time>
      </trkpt>
      <trkpt lat="43.48818" lon="2.34391">
        <ele>514</ele>
        <time>2019-03-16T10:00:31Z</time>
      </trkpt>
      <trkpt lat="43.48816" lon="2.34385">
        <ele>513</ele>
        <time>2019-03-16T10:00:34Z</time>
      </trkpt>
      <trkpt lat="43.48808" lon="2.3436">
        <ele>514</ele>
        <time>2019-03-16T10:00:41Z</time>
      </trkpt>
      <trkpt lat="43.48806" lon="2.34354">
        <ele>514</ele>
        <time>2019-03-16T10:00:43Z</time>
      </trkpt>
      <trkpt lat="43.48799" lon="2.34332">
        <ele>515</ele>
        <time>2019-03-16T10:00:50Z</time>
      </trkpt>
      <trkpt lat="43.48798" lon="2.34315">
        <ele>515</ele>
        <time>2019-03-16T10:00:53Z</time>
      </trkpt>
      <trkpt lat="43.488" lon="2.34306">
        <ele>515</ele>
        <time>2019-03-16T10:00:55Z</time>
      </trkpt>
      <trkpt lat="43.48812" lon="2.34284">
        <ele>515</ele>
        <time>2019-03-16T10:01:01Z</time>
      </trkpt>
      <trkpt lat="43.48827" lon="2.34258">
        <ele>514</ele>
        <time>2019-03-16T10:01:08Z</time>
      </trkpt>
      <trkpt lat="43.48841" lon="2.34225">
        <ele>513</ele>
        <time>2019-03-16T10:01:14Z</time>
      </trkpt>
      <trkpt lat="43.48844" lon="2.34214">
        <ele>513</ele>
        <time>2019-03-16T10:01:15Z</time>
      </trkpt>
      <trkpt lat="43.48843" lon="2.34206">
        <ele>513</ele>
        <time>2019-03-16T10:01:17Z</time>
      </trkpt>
      <trkpt lat="43.48842" lon="2.34196">
        <ele>512</ele>
        <time>2019-03-16T10:01:19Z</time>
      </trkpt>
      <trkpt lat="43.48831" lon="2.34165">
        <ele>513</ele>
        <time>2019-03-16T10:01:26Z</time>
      </trkpt>
      <trkpt lat="43.48828" lon="2.34138">
        <ele>512</ele>
        <time>2019-03-16T10:01:30Z</time>
      </trkpt>
      <trkpt lat="43.48834" lon="2.3412">
        <ele>512</ele>
        <time>2019-03-16T10:01:33Z</time>
      </trkpt>
      <trkpt lat="43.48839" lon="2.3411">
        <ele>512</ele>
        <time>2019-03-16T10:01:35Z</time>
      </trkpt>
      <trkpt lat="43.48845" lon="2.34101">
        <ele>512</ele>
        <time>2019-03-16T10:01:38Z</time>
      </trkpt>
      <trkpt lat="43.4885" lon="2.34092">
        <ele>512</ele>
        <time>2019-03-16T10:01:39Z</time>
      </trkpt>
      <trkpt lat="43.48853" lon="2.34079">
        <ele>512</ele>
        <time>2019-03-16T10:01:41Z</time>
      </trkpt>
      <trkpt lat="43.48854" lon="2.34073">
        <ele>512</ele>
        <time>2019-03-16T10:01:42Z</time>
      </trkpt>
      <trkpt lat="43.48851" lon="2.34055">
        <ele>512</ele>
        <time>2019-03-16T10:01:46Z</time>
      </trkpt>
      <trkpt lat="43.48847" lon="2.34046">
        <ele>512</ele>
        <time>2019-03-16T10:01:47Z</time>
      </trkpt>
      <trkpt lat="43.48842" lon="2.34037">
        <ele>512</ele>
        <time>2019-03-16T10:01:50Z</time>
      </trkpt>
      <trkpt lat="43.48836" lon="2.34029">
        <ele>512</ele>
        <time>2019-03-16T10:01:51Z</time>
      </trkpt>
      <trkpt lat="43.48826" lon="2.34019">
        <ele>512</ele>
        <time>2019-03-16T10:01:54Z</time>
      </trkpt>
      <trkpt lat="43.48818" lon="2.34007">
        <ele>512</ele>
        <time>2019-03-16T10:01:57Z</time>
      </trkpt>
      <trkpt lat="43.48815" lon="2.33983">
        <ele>512</ele>
        <time>2019-03-16T10:02:01Z</time>
      </trkpt>
      <trkpt lat="43.48819" lon="2.33962">
        <ele>513</ele>
        <time>2019-03-16T10:02:05Z</time>
      </trkpt>
      <trkpt lat="43.48822" lon="2.33951">
        <ele>512</ele>
        <time>2019-03-16T10:02:07Z</time>
      </trkpt>
      <trkpt lat="43.48832" lon="2.33931">
        <ele>512</ele>
        <time>2019-03-16T10:02:11Z</time>
      </trkpt>
      <trkpt lat="43.48837" lon="2.33921">
        <ele>512</ele>
        <time>2019-03-16T10:02:13Z</time>
      </trkpt>
      <trkpt lat="43.48844" lon="2.33913">
        <ele>512</ele>
        <time>2019-03-16T10:02:15Z</time>
      </trkpt>
      <trkpt lat="43.48852" lon="2.33906">
        <ele>512</ele>
        <time>2019-03-16T10:02:17Z</time>
      </trkpt>
      <trkpt lat="43.48856" lon="2.33904">
        <ele>512</ele>
        <time>2019-03-16T10:02:18Z</time>
      </trkpt>
      <trkpt lat="43.4887" lon="2.33898">
        <ele>512</ele>
        <time>2019-03-16T10:02:21Z</time>
      </trkpt>
      <trkpt lat="43.48884" lon="2.33894">
        <ele>512</ele>
        <time>2019-03-16T10:02:24Z</time>
      </trkpt>
      <trkpt lat="43.48907" lon="2.33889">
        <ele>511</ele>
        <time>2019-03-16T10:02:29Z</time>
      </trkpt>
      <trkpt lat="43.48912" lon="2.33887">
        <ele>511</ele>
        <time>2019-03-16T10:02:30Z</time>
      </trkpt>
      <trkpt lat="43.48917" lon="2.33886">
        <ele>511</ele>
        <time>2019-03-16T10:02:31Z</time>
      </trkpt>
      <trkpt lat="43.48936" lon="2.33879">
        <ele>510</ele>
        <time>2019-03-16T10:02:35Z</time>
      </trkpt>
      <trkpt lat="43.48945" lon="2.33873">
        <ele>510</ele>
        <time>2019-03-16T10:02:37Z</time>
      </trkpt>
      <trkpt lat="43.48955" lon="2.33865">
        <ele>510</ele>
        <time>2019-03-16T10:02:39Z</time>
      </trkpt>
      <trkpt lat="43.48963" lon="2.33857">
        <ele>510</ele>
        <time>2019-03-16T10:02:41Z</time>
      </trkpt>
      <trkpt lat="43.4897" lon="2.33847">
        <ele>510</ele>
        <time>2019-03-16T10:02:43Z</time>
      </trkpt>
      <trkpt lat="43.48977" lon="2.3383">
        <ele>510</ele>
        <time>2019-03-16T10:02:47Z</time>
      </trkpt>
      <trkpt lat="43.48977" lon="2.33826">
        <ele>510</ele>
        <time>2019-03-16T10:02:52Z</time>
      </trkpt>
      <trkpt lat="43.48978" lon="2.33824">
        <ele>510</ele>
        <time>2019-03-16T10:03:00Z</time>
      </trkpt>
      <trkpt lat="43.48978" lon="2.33823">
        <ele>510</ele>
        <time>2019-03-16T10:03:01Z</time>
      </trkpt>
      <trkpt lat="43.48977" lon="2.33812">
        <ele>510</ele>
        <time>2019-03-16T10:03:05Z</time>
      </trkpt>
      <trkpt lat="43.48976" lon="2.33809">
        <ele>510</ele>
        <time>2019-03-16T10:03:06Z</time>
      </trkpt>
      <trkpt lat="43.48975" lon="2.33806">
        <ele>510</ele>
        <time>2019-03-16T10:03:08Z</time>
      </trkpt>
      <trkpt lat="43.48967" lon="2.33777">
        <ele>511</ele>
        <time>2019-03-16T10:03:16Z</time>
      </trkpt>
      <trkpt lat="43.48964" lon="2.33768">
        <ele>511</ele>
        <time>2019-03-16T10:03:18Z</time>
      </trkpt>
      <trkpt lat="43.48955" lon="2.33754">
        <ele>512</ele>
        <time>2019-03-16T10:03:23Z</time>
      </trkpt>
      <trkpt lat="43.48952" lon="2.33749">
        <ele>512</ele>
        <time>2019-03-16T10:03:25Z</time>
      </trkpt>
      <trkpt lat="43.48939" lon="2.3374">
        <ele>513</ele>
        <time>2019-03-16T10:03:32Z</time>
      </trkpt>
      <trkpt lat="43.48935" lon="2.33738">
        <ele>513</ele>
        <time>2019-03-16T10:03:34Z</time>
      </trkpt>
      <trkpt lat="43.48926" lon="2.33737">
        <ele>514</ele>
        <time>2019-03-16T10:03:37Z</time>
      </trkpt>
      <trkpt lat="43.48922" lon="2.33735">
        <ele>514</ele>
        <time>2019-03-16T10:03:39Z</time>
      </trkpt>
      <trkpt lat="43.48914" lon="2.33731">
        <ele>515</ele>
        <time>2019-03-16T10:03:44Z</time>
      </trkpt>
      <trkpt lat="43.48911" lon="2.3373">
        <ele>516</ele>
        <time>2019-03-16T10:03:46Z</time>
      </trkpt>
      <trkpt lat="43.48903" lon="2.33726">
        <ele>516</ele>
        <time>2019-03-16T10:03:50Z</time>
      </trkpt>
      <trkpt lat="43.48899" lon="2.33724">
        <ele>517</ele>
        <time>2019-03-16T10:03:51Z</time>
      </trkpt>
      <trkpt lat="43.48896" lon="2.33722">
        <ele>517</ele>
        <time>2019-03-16T10:03:53Z</time>
      </trkpt>
      <trkpt lat="43.48892" lon="2.33721">
        <ele>518</ele>
        <time>2019-03-16T10:03:56Z</time>
      </trkpt>
      <trkpt lat="43.48882" lon="2.33718">
        <ele>519</ele>
        <time>2019-03-16T10:04:01Z</time>
      </trkpt>
      <trkpt lat="43.48879" lon="2.33719">
        <ele>519</ele>
        <time>2019-03-16T10:04:03Z</time>
      </trkpt>
      <trkpt lat="43.48873" lon="2.33717">
        <ele>520</ele>
        <time>2019-03-16T10:04:06Z</time>
      </trkpt>
      <trkpt lat="43.48872" lon="2.33717">
        <ele>520</ele>
        <time>2019-03-16T10:04:07Z</time>
      </trkpt>
      <trkpt lat="43.48864" lon="2.33717">
        <ele>521</ele>
        <time>2019-03-16T10:04:11Z</time>
      </trkpt>
      <trkpt lat="43.48856" lon="2.33717">
        <ele>522</ele>
        <time>2019-03-16T10:04:15Z</time>
      </trkpt>
      <trkpt lat="43.48852" lon="2.33717">
        <ele>522</ele>
        <time>2019-03-16T10:04:17Z</time>
      </trkpt>
      <trkpt lat="43.48845" lon="2.33719">
        <ele>523</ele>
        <time>2019-03-16T10:04:22Z</time>
      </trkpt>
      <trkpt lat="43.48841" lon="2.3372">
        <ele>524</ele>
        <time>2019-03-16T10:04:23Z</time>
      </trkpt>
      <trkpt lat="43.4884" lon="2.3372">
        <ele>524</ele>
        <time>2019-03-16T10:04:24Z</time>
      </trkpt>
      <trkpt lat="43.48834" lon="2.33721">
        <ele>525</ele>
        <time>2019-03-16T10:04:27Z</time>
      </trkpt>
      <trkpt lat="43.48827" lon="2.33722">
        <ele>525</ele>
        <time>2019-03-16T10:04:31Z</time>
      </trkpt>
      <trkpt lat="43.4882" lon="2.33722">
        <ele>526</ele>
        <time>2019-03-16T10:04:35Z</time>
      </trkpt>
      <trkpt lat="43.48813" lon="2.33722">
        <ele>527</ele>
        <time>2019-03-16T10:04:39Z</time>
      </trkpt>
      <trkpt lat="43.48809" lon="2.33723">
        <ele>527</ele>
        <time>2019-03-16T10:04:41Z</time>
      </trkpt>
      <trkpt lat="43.48801" lon="2.33721">
        <ele>528</ele>
        <time>2019-03-16T10:04:46Z</time>
      </trkpt>
      <trkpt lat="43.48798" lon="2.33721">
        <ele>528</ele>
        <time>2019-03-16T10:04:47Z</time>
      </trkpt>
      <trkpt lat="43.48786" lon="2.33721">
        <ele>529</ele>
        <time>2019-03-16T10:04:54Z</time>
      </trkpt>
      <trkpt lat="43.48784" lon="2.33722">
        <ele>529</ele>
        <time>2019-03-16T10:04:55Z</time>
      </trkpt>
      <trkpt lat="43.48775" lon="2.33722">
        <ele>530</ele>
        <time>2019-03-16T10:05:01Z</time>
      </trkpt>
      <trkpt lat="43.4877" lon="2.33723">
        <ele>531</ele>
        <time>2019-03-16T10:05:05Z</time>
      </trkpt>
      <trkpt lat="43.48768" lon="2.33722">
        <ele>531</ele>
        <time>2019-03-16T10:05:07Z</time>
      </trkpt>
      <trkpt lat="43.48766" lon="2.33722">
        <ele>532</ele>
        <time>2019-03-16T10:05:10Z</time>
      </trkpt>
      <trkpt lat="43.48764" lon="2.33722">
        <ele>532</ele>
        <time>2019-03-16T10:05:11Z</time>
      </trkpt>
      <trkpt lat="43.48761" lon="2.33722">
        <ele>532</ele>
        <time>2019-03-16T10:05:14Z</time>
      </trkpt>
      <trkpt lat="43.48754" lon="2.33719">
        <ele>533</ele>
        <time>2019-03-16T10:05:18Z</time>
      </trkpt>
      <trkpt lat="43.48746" lon="2.33713">
        <ele>533</ele>
        <time>2019-03-16T10:05:25Z</time>
      </trkpt>
      <trkpt lat="43.48742" lon="2.33705">
        <ele>534</ele>
        <time>2019-03-16T10:05:30Z</time>
      </trkpt>
      <trkpt lat="43.48736" lon="2.33698">
        <ele>534</ele>
        <time>2019-03-16T10:05:36Z</time>
      </trkpt>
      <trkpt lat="43.48733" lon="2.33694">
        <ele>535</ele>
        <time>2019-03-16T10:05:39Z</time>
      </trkpt>
      <trkpt lat="43.4873" lon="2.33694">
        <ele>535</ele>
        <time>2019-03-16T10:05:41Z</time>
      </trkpt>
      <trkpt lat="43.48729" lon="2.33695">
        <ele>535</ele>
        <time>2019-03-16T10:05:42Z</time>
      </trkpt>
      <trkpt lat="43.48728" lon="2.33696">
        <ele>535</ele>
        <time>2019-03-16T10:05:43Z</time>
      </trkpt>
      <trkpt lat="43.48728" lon="2.337">
        <ele>535</ele>
        <time>2019-03-16T10:05:47Z</time>
      </trkpt>
      <trkpt lat="43.48728" lon="2.33702">
        <ele>535</ele>
        <time>2019-03-16T10:05:50Z</time>
      </trkpt>
      <trkpt lat="43.4873" lon="2.33709">
        <ele>536</ele>
        <time>2019-03-16T10:05:58Z</time>
      </trkpt>
      <trkpt lat="43.48731" lon="2.33711">
        <ele>536</ele>
        <time>2019-03-16T10:06:00Z</time>
      </trkpt>
      <trkpt lat="43.48737" lon="2.33719">
        <ele>537</ele>
        <time>2019-03-16T10:06:09Z</time>
      </trkpt>
      <trkpt lat="43.4874" lon="2.33723">
        <ele>537</ele>
        <time>2019-03-16T10:06:12Z</time>
      </trkpt>
      <trkpt lat="43.48746" lon="2.33731">
        <ele>538</ele>
        <time>2019-03-16T10:06:20Z</time>
      </trkpt>
      <trkpt lat="43.48748" lon="2.33733">
        <ele>539</ele>
        <time>2019-03-16T10:06:22Z</time>
      </trkpt>
      <trkpt lat="43.48752" lon="2.33738">
        <ele>539</ele>
        <time>2019-03-16T10:06:27Z</time>
      </trkpt>
      <trkpt lat="43.48756" lon="2.33741">
        <ele>540</ele>
        <time>2019-03-16T10:06:32Z</time>
      </trkpt>
      <trkpt lat="43.48761" lon="2.33746">
        <ele>540</ele>
        <time>2019-03-16T10:06:36Z</time>
      </trkpt>
      <trkpt lat="43.48769" lon="2.3375">
        <ele>541</ele>
        <time>2019-03-16T10:06:41Z</time>
      </trkpt>
      <trkpt lat="43.4877" lon="2.3375">
        <ele>541</ele>
        <time>2019-03-16T10:06:42Z</time>
      </trkpt>
      <trkpt lat="43.48777" lon="2.33752">
        <ele>542</ele>
        <time>2019-03-16T10:06:48Z</time>
      </trkpt>
      <trkpt lat="43.48779" lon="2.33753">
        <ele>542</ele>
        <time>2019-03-16T10:06:49Z</time>
      </trkpt>
      <trkpt lat="43.48785" lon="2.33757">
        <ele>543</ele>
        <time>2019-03-16T10:06:55Z</time>
      </trkpt>
      <trkpt lat="43.48788" lon="2.33758">
        <ele>544</ele>
        <time>2019-03-16T10:06:58Z</time>
      </trkpt>
      <trkpt lat="43.4879" lon="2.33759">
        <ele>544</ele>
        <time>2019-03-16T10:06:59Z</time>
      </trkpt>
      <trkpt lat="43.48794" lon="2.33762">
        <ele>545</ele>
        <time>2019-03-16T10:07:04Z</time>
      </trkpt>
      <trkpt lat="43.48795" lon="2.33763">
        <ele>545</ele>
        <time>2019-03-16T10:07:05Z</time>
      </trkpt>
      <trkpt lat="43.48803" lon="2.33766">
        <ele>545</ele>
        <time>2019-03-16T10:07:14Z</time>
      </trkpt>
      <trkpt lat="43.48807" lon="2.33766">
        <ele>546</ele>
        <time>2019-03-16T10:07:15Z</time>
      </trkpt>
      <trkpt lat="43.48815" lon="2.33769">
        <ele>546</ele>
        <time>2019-03-16T10:07:21Z</time>
      </trkpt>
      <trkpt lat="43.48817" lon="2.33771">
        <ele>546</ele>
        <time>2019-03-16T10:07:23Z</time>
      </trkpt>
      <trkpt lat="43.48826" lon="2.33775">
        <ele>546</ele>
        <time>2019-03-16T10:07:29Z</time>
      </trkpt>
      <trkpt lat="43.48838" lon="2.33773">
        <ele>546</ele>
        <time>2019-03-16T10:07:35Z</time>
      </trkpt>
      <trkpt lat="43.48846" lon="2.33775">
        <ele>545</ele>
        <time>2019-03-16T10:07:40Z</time>
      </trkpt>
      <trkpt lat="43.48853" lon="2.33783">
        <ele>545</ele>
        <time>2019-03-16T10:07:43Z</time>
      </trkpt>
      <trkpt lat="43.48854" lon="2.33788">
        <ele>545</ele>
        <time>2019-03-16T10:07:45Z</time>
      </trkpt>
      <trkpt lat="43.48853" lon="2.33797">
        <ele>546</ele>
        <time>2019-03-16T10:07:49Z</time>
      </trkpt>
      <trkpt lat="43.48852" lon="2.33802">
        <ele>546</ele>
        <time>2019-03-16T10:07:52Z</time>
      </trkpt>
      <trkpt lat="43.48851" lon="2.33806">
        <ele>546</ele>
        <time>2019-03-16T10:07:53Z</time>
      </trkpt>
      <trkpt lat="43.48848" lon="2.33811">
        <ele>547</ele>
        <time>2019-03-16T10:07:58Z</time>
      </trkpt>
      <trkpt lat="43.48844" lon="2.33815">
        <ele>548</ele>
        <time>2019-03-16T10:08:01Z</time>
      </trkpt>
      <trkpt lat="43.4884" lon="2.33818">
        <ele>548</ele>
        <time>2019-03-16T10:08:06Z</time>
      </trkpt>
      <trkpt lat="43.4884" lon="2.33817">
        <ele>548</ele>
        <time>2019-03-16T10:08:07Z</time>
      </trkpt>
      <trkpt lat="43.48835" lon="2.33819">
        <ele>550</ele>
        <time>2019-03-16T10:08:12Z</time>
      </trkpt>
      <trkpt lat="43.48831" lon="2.33822">
        <ele>550</ele>
        <time>2019-03-16T10:08:16Z</time>
      </trkpt>
      <trkpt lat="43.48829" lon="2.33823">
        <ele>551</ele>
        <time>2019-03-16T10:08:17Z</time>
      </trkpt>
      <trkpt lat="43.48822" lon="2.33828">
        <ele>552</ele>
        <time>2019-03-16T10:08:23Z</time>
      </trkpt>
      <trkpt lat="43.48818" lon="2.33832">
        <ele>552</ele>
        <time>2019-03-16T10:08:28Z</time>
      </trkpt>
      <trkpt lat="43.48813" lon="2.33834">
        <ele>553</ele>
        <time>2019-03-16T10:08:32Z</time>
      </trkpt>
      <trkpt lat="43.4881" lon="2.33834">
        <ele>553</ele>
        <time>2019-03-16T10:08:33Z</time>
      </trkpt>
      <trkpt lat="43.48801" lon="2.33838">
        <ele>554</ele>
        <time>2019-03-16T10:08:40Z</time>
      </trkpt>
      <trkpt lat="43.48794" lon="2.3384">
        <ele>554</ele>
        <time>2019-03-16T10:08:46Z</time>
      </trkpt>
      <trkpt lat="43.48789" lon="2.33844">
        <ele>555</ele>
        <time>2019-03-16T10:08:49Z</time>
      </trkpt>
      <trkpt lat="43.48784" lon="2.33846">
        <ele>555</ele>
        <time>2019-03-16T10:08:53Z</time>
      </trkpt>
      <trkpt lat="43.48783" lon="2.33847">
        <ele>556</ele>
        <time>2019-03-16T10:08:54Z</time>
      </trkpt>
      <trkpt lat="43.4878" lon="2.3385">
        <ele>556</ele>
        <time>2019-03-16T10:08:58Z</time>
      </trkpt>
      <trkpt lat="43.48773" lon="2.33858">
        <ele>557</ele>
        <time>2019-03-16T10:09:04Z</time>
      </trkpt>
      <trkpt lat="43.4877" lon="2.33863">
        <ele>557</ele>
        <time>2019-03-16T10:09:07Z</time>
      </trkpt>
      <trkpt lat="43.48763" lon="2.33869">
        <ele>558</ele>
        <time>2019-03-16T10:09:14Z</time>
      </trkpt>
      <trkpt lat="43.48761" lon="2.33872">
        <ele>558</ele>
        <time>2019-03-16T10:09:15Z</time>
      </trkpt>
      <trkpt lat="43.48756" lon="2.33878">
        <ele>559</ele>
        <time>2019-03-16T10:09:21Z</time>
      </trkpt>
      <trkpt lat="43.48754" lon="2.33881">
        <ele>559</ele>
        <time>2019-03-16T10:09:24Z</time>
      </trkpt>
      <trkpt lat="43.48748" lon="2.33889">
        <ele>560</ele>
        <time>2019-03-16T10:09:30Z</time>
      </trkpt>
      <trkpt lat="43.48746" lon="2.33891">
        <ele>560</ele>
        <time>2019-03-16T10:09:32Z</time>
      </trkpt>
      <trkpt lat="43.48739" lon="2.339">
        <ele>561</ele>
        <time>2019-03-16T10:09:38Z</time>
      </trkpt>
      <trkpt lat="43.48734" lon="2.33909">
        <ele>562</ele>
        <time>2019-03-16T10:09:42Z</time>
      </trkpt>
      <trkpt lat="43.48731" lon="2.33914">
        <ele>562</ele>
        <time>2019-03-16T10:09:45Z</time>
      </trkpt>
      <trkpt lat="43.48727" lon="2.33921">
        <ele>563</ele>
        <time>2019-03-16T10:09:50Z</time>
      </trkpt>
      <trkpt lat="43.48724" lon="2.33926">
        <ele>563</ele>
        <time>2019-03-16T10:09:51Z</time>
      </trkpt>
      <trkpt lat="43.48723" lon="2.33929">
        <ele>564</ele>
        <time>2019-03-16T10:09:53Z</time>
      </trkpt>
      <trkpt lat="43.4872" lon="2.33938">
        <ele>564</ele>
        <time>2019-03-16T10:09:57Z</time>
      </trkpt>
      <trkpt lat="43.48719" lon="2.33941">
        <ele>565</ele>
        <time>2019-03-16T10:09:59Z</time>
      </trkpt>
      <trkpt lat="43.48717" lon="2.33948">
        <ele>565</ele>
        <time>2019-03-16T10:10:04Z</time>
      </trkpt>
      <trkpt lat="43.48717" lon="2.33951">
        <ele>565</ele>
        <time>2019-03-16T10:10:05Z</time>
      </trkpt>
      <trkpt lat="43.48716" lon="2.3396">
        <ele>566</ele>
        <time>2019-03-16T10:10:11Z</time>
      </trkpt>
      <trkpt lat="43.48716" lon="2.33961">
        <ele>566</ele>
        <time>2019-03-16T10:10:12Z</time>
      </trkpt>
      <trkpt lat="43.48713" lon="2.33973">
        <ele>567</ele>
        <time>2019-03-16T10:10:20Z</time>
      </trkpt>
      <trkpt lat="43.48712" lon="2.33977">
        <ele>567</ele>
        <time>2019-03-16T10:10:21Z</time>
      </trkpt>
      <trkpt lat="43.48709" lon="2.33993">
        <ele>568</ele>
        <time>2019-03-16T10:10:29Z</time>
      </trkpt>
      <trkpt lat="43.48707" lon="2.33997">
        <ele>568</ele>
        <time>2019-03-16T10:10:31Z</time>
      </trkpt>
      <trkpt lat="43.48706" lon="2.34001">
        <ele>568</ele>
        <time>2019-03-16T10:10:34Z</time>
      </trkpt>
      <trkpt lat="43.48703" lon="2.34012">
        <ele>569</ele>
        <time>2019-03-16T10:10:39Z</time>
      </trkpt>
      <trkpt lat="43.48702" lon="2.34015">
        <ele>570</ele>
        <time>2019-03-16T10:10:41Z</time>
      </trkpt>
      <trkpt lat="43.48702" lon="2.34022">
        <ele>570</ele>
        <time>2019-03-16T10:10:45Z</time>
      </trkpt>
      <trkpt lat="43.48702" lon="2.34026">
        <ele>571</ele>
        <time>2019-03-16T10:10:47Z</time>
      </trkpt>
      <trkpt lat="43.48702" lon="2.34027">
        <ele>571</ele>
        <time>2019-03-16T10:10:48Z</time>
      </trkpt>
      <trkpt lat="43.48705" lon="2.34031">
        <ele>571</ele>
        <time>2019-03-16T10:10:52Z</time>
      </trkpt>
      <trkpt lat="43.48709" lon="2.3404">
        <ele>571</ele>
        <time>2019-03-16T10:10:58Z</time>
      </trkpt>
      <trkpt lat="43.48711" lon="2.34043">
        <ele>571</ele>
        <time>2019-03-16T10:10:59Z</time>
      </trkpt>
      <trkpt lat="43.48714" lon="2.34051">
        <ele>572</ele>
        <time>2019-03-16T10:11:03Z</time>
      </trkpt>
      <trkpt lat="43.48723" lon="2.3407">
        <ele>572</ele>
        <time>2019-03-16T10:11:12Z</time>
      </trkpt>
      <trkpt lat="43.48723" lon="2.34072">
        <ele>573</ele>
        <time>2019-03-16T10:11:14Z</time>
      </trkpt>
      <trkpt lat="43.48725" lon="2.34079">
        <ele>573</ele>
        <time>2019-03-16T10:11:17Z</time>
      </trkpt>
      <trkpt lat="43.48727" lon="2.34083">
        <ele>573</ele>
        <time>2019-03-16T10:11:20Z</time>
      </trkpt>
      <trkpt lat="43.48725" lon="2.34092">
        <ele>574</ele>
        <time>2019-03-16T10:11:24Z</time>
      </trkpt>
      <trkpt lat="43.48724" lon="2.34094">
        <ele>574</ele>
        <time>2019-03-16T10:11:26Z</time>
      </trkpt>
      <trkpt lat="43.48722" lon="2.34102">
        <ele>575</ele>
        <time>2019-03-16T10:11:30Z</time>
      </trkpt>
      <trkpt lat="43.48721" lon="2.34108">
        <ele>575</ele>
        <time>2019-03-16T10:11:33Z</time>
      </trkpt>
      <trkpt lat="43.48721" lon="2.34112">
        <ele>576</ele>
        <time>2019-03-16T10:11:36Z</time>
      </trkpt>
      <trkpt lat="43.4872" lon="2.34116">
        <ele>577</ele>
        <time>2019-03-16T10:11:40Z</time>
      </trkpt>
      <trkpt lat="43.48718" lon="2.34123">
        <ele>577</ele>
        <time>2019-03-16T10:11:43Z</time>
      </trkpt>
      <trkpt lat="43.48718" lon="2.34126">
        <ele>577</ele>
        <time>2019-03-16T10:11:45Z</time>
      </trkpt>
      <trkpt lat="43.48718" lon="2.3413">
        <ele>577</ele>
        <time>2019-03-16T10:11:47Z</time>
      </trkpt>
      <trkpt lat="43.48717" lon="2.34138">
        <ele>578</ele>
        <time>2019-03-16T10:11:51Z</time>
      </trkpt>
      <trkpt lat="43.48717" lon="2.34141">
        <ele>578</ele>
        <time>2019-03-16T10:11:53Z</time>
      </trkpt>
      <trkpt lat="43.48715" lon="2.34154">
        <ele>579</ele>
        <time>2019-03-16T10:12:00Z</time>
      </trkpt>
      <trkpt lat="43.48715" lon="2.34155">
        <ele>579</ele>
        <time>2019-03-16T10:12:01Z</time>
      </trkpt>
      <trkpt lat="43.48714" lon="2.34164">
        <ele>580</ele>
        <time>2019-03-16T10:12:06Z</time>
      </trkpt>
      <trkpt lat="43.48714" lon="2.34166">
        <ele>580</ele>
        <time>2019-03-16T10:12:07Z</time>
      </trkpt>
      <trkpt lat="43.48714" lon="2.3417">
        <ele>580</ele>
        <time>2019-03-16T10:12:09Z</time>
      </trkpt>
      <trkpt lat="43.48714" lon="2.34183">
        <ele>581</ele>
        <time>2019-03-16T10:12:15Z</time>
      </trkpt>
      <trkpt lat="43.48714" lon="2.34194">
        <ele>582</ele>
        <time>2019-03-16T10:12:22Z</time>
      </trkpt>
      <trkpt lat="43.48714" lon="2.342">
        <ele>582</ele>
        <time>2019-03-16T10:12:24Z</time>
      </trkpt>
      <trkpt lat="43.48713" lon="2.34209">
        <ele>583</ele>
        <time>2019-03-16T10:12:31Z</time>
      </trkpt>
      <trkpt lat="43.48708" lon="2.34221">
        <ele>584</ele>
        <time>2019-03-16T10:12:39Z</time>
      </trkpt>
      <trkpt lat="43.48706" lon="2.34224">
        <ele>584</ele>
        <time>2019-03-16T10:12:41Z</time>
      </trkpt>
      <trkpt lat="43.48704" lon="2.3423">
        <ele>585</ele>
        <time>2019-03-16T10:12:46Z</time>
      </trkpt>
      <trkpt lat="43.48702" lon="2.34234">
        <ele>585</ele>
        <time>2019-03-16T10:12:47Z</time>
      </trkpt>
      <trkpt lat="43.48701" lon="2.34237">
        <ele>586</ele>
        <time>2019-03-16T10:12:49Z</time>
      </trkpt>
      <trkpt lat="43.48699" lon="2.34241">
        <ele>586</ele>
        <time>2019-03-16T10:12:52Z</time>
      </trkpt>
      <trkpt lat="43.48695" lon="2.34251">
        <ele>586</ele>
        <time>2019-03-16T10:12:58Z</time>
      </trkpt>
      <trkpt lat="43.48691" lon="2.3426">
        <ele>587</ele>
        <time>2019-03-16T10:13:04Z</time>
      </trkpt>
      <trkpt lat="43.48685" lon="2.34274">
        <ele>587</ele>
        <time>2019-03-16T10:13:12Z</time>
      </trkpt>
      <trkpt lat="43.48684" lon="2.34275">
        <ele>587</ele>
        <time>2019-03-16T10:13:14Z</time>
      </trkpt>
      <trkpt lat="43.48682" lon="2.34275">
        <ele>588</ele>
        <time>2019-03-16T10:13:15Z</time>
      </trkpt>
      <trkpt lat="43.4868" lon="2.34273">
        <ele>588</ele>
        <time>2019-03-16T10:13:18Z</time>
      </trkpt>
      <trkpt lat="43.48683" lon="2.34271">
        <ele>588</ele>
        <time>2019-03-16T10:13:24Z</time>
      </trkpt>
      <trkpt lat="43.48684" lon="2.34268">
        <ele>588</ele>
        <time>2019-03-16T10:13:27Z</time>
      </trkpt>
      <trkpt lat="43.48685" lon="2.34265">
        <ele>588</ele>
        <time>2019-03-16T10:13:29Z</time>
      </trkpt>
      <trkpt lat="43.48686" lon="2.34262">
        <ele>588</ele>
        <time>2019-03-16T10:13:31Z</time>
      </trkpt>
      <trkpt lat="43.48687" lon="2.34258">
        <ele>588</ele>
        <time>2019-03-16T10:13:33Z</time>
      </trkpt>
      <trkpt lat="43.48688" lon="2.34255">
        <ele>588</ele>
        <time>2019-03-16T10:13:35Z</time>
      </trkpt>
      <trkpt lat="43.48689" lon="2.34252">
        <ele>588</ele>
        <time>2019-03-16T10:13:37Z</time>
      </trkpt>
      <trkpt lat="43.48691" lon="2.34244">
        <ele>589</ele>
        <time>2019-03-16T10:13:41Z</time>
      </trkpt>
      <trkpt lat="43.48692" lon="2.34236">
        <ele>589</ele>
        <time>2019-03-16T10:13:45Z</time>
      </trkpt>
      <trkpt lat="43.48694" lon="2.3423">
        <ele>589</ele>
        <time>2019-03-16T10:13:48Z</time>
      </trkpt>
      <trkpt lat="43.48694" lon="2.34224">
        <ele>590</ele>
        <time>2019-03-16T10:13:51Z</time>
      </trkpt>
      <trkpt lat="43.48694" lon="2.34216">
        <ele>590</ele>
        <time>2019-03-16T10:13:55Z</time>
      </trkpt>
      <trkpt lat="43.48696" lon="2.34209">
        <ele>590</ele>
        <time>2019-03-16T10:13:59Z</time>
      </trkpt>
      <trkpt lat="43.48696" lon="2.34205">
        <ele>591</ele>
        <time>2019-03-16T10:14:01Z</time>
      </trkpt>
      <trkpt lat="43.48697" lon="2.34202">
        <ele>591</ele>
        <time>2019-03-16T10:14:03Z</time>
      </trkpt>
      <trkpt lat="43.48697" lon="2.34197">
        <ele>591</ele>
        <time>2019-03-16T10:14:05Z</time>
      </trkpt>
      <trkpt lat="43.48697" lon="2.34195">
        <ele>592</ele>
        <time>2019-03-16T10:14:06Z</time>
      </trkpt>
      <trkpt lat="43.48697" lon="2.34188">
        <ele>592</ele>
        <time>2019-03-16T10:14:10Z</time>
      </trkpt>
      <trkpt lat="43.48697" lon="2.3418">
        <ele>593</ele>
        <time>2019-03-16T10:14:14Z</time>
      </trkpt>
      <trkpt lat="43.48697" lon="2.34171">
        <ele>593</ele>
        <time>2019-03-16T10:14:17Z</time>
      </trkpt>
      <trkpt lat="43.48697" lon="2.34166">
        <ele>593</ele>
        <time>2019-03-16T10:14:19Z</time>
      </trkpt>
      <trkpt lat="43.48696" lon="2.34161">
        <ele>594</ele>
        <time>2019-03-16T10:14:22Z</time>
      </trkpt>
      <trkpt lat="43.48696" lon="2.34156">
        <ele>594</ele>
        <time>2019-03-16T10:14:23Z</time>
      </trkpt>
      <trkpt lat="43.48695" lon="2.3414">
        <ele>594</ele>
        <time>2019-03-16T10:14:30Z</time>
      </trkpt>
      <trkpt lat="43.48694" lon="2.34137">
        <ele>595</ele>
        <time>2019-03-16T10:14:32Z</time>
      </trkpt>
      <trkpt lat="43.48693" lon="2.34123">
        <ele>596</ele>
        <time>2019-03-16T10:14:38Z</time>
      </trkpt>
      <trkpt lat="43.48692" lon="2.34118">
        <ele>596</ele>
        <time>2019-03-16T10:14:39Z</time>
      </trkpt>
      <trkpt lat="43.4869" lon="2.3411">
        <ele>596</ele>
        <time>2019-03-16T10:14:42Z</time>
      </trkpt>
      <trkpt lat="43.48687" lon="2.34103">
        <ele>597</ele>
        <time>2019-03-16T10:14:45Z</time>
      </trkpt>
      <trkpt lat="43.48683" lon="2.34093">
        <ele>598</ele>
        <time>2019-03-16T10:14:50Z</time>
      </trkpt>
      <trkpt lat="43.48676" lon="2.34082">
        <ele>598</ele>
        <time>2019-03-16T10:14:54Z</time>
      </trkpt>
      <trkpt lat="43.48673" lon="2.34074">
        <ele>598</ele>
        <time>2019-03-16T10:14:58Z</time>
      </trkpt>
      <trkpt lat="43.4867" lon="2.34069">
        <ele>599</ele>
        <time>2019-03-16T10:14:59Z</time>
      </trkpt>
      <trkpt lat="43.48667" lon="2.34059">
        <ele>599</ele>
        <time>2019-03-16T10:15:03Z</time>
      </trkpt>
      <trkpt lat="43.48666" lon="2.34042">
        <ele>600</ele>
        <time>2019-03-16T10:15:09Z</time>
      </trkpt>
      <trkpt lat="43.48665" lon="2.34036">
        <ele>600</ele>
        <time>2019-03-16T10:15:11Z</time>
      </trkpt>
      <trkpt lat="43.48665" lon="2.34016">
        <ele>601</ele>
        <time>2019-03-16T10:15:17Z</time>
      </trkpt>
      <trkpt lat="43.48665" lon="2.34013">
        <ele>601</ele>
        <time>2019-03-16T10:15:18Z</time>
      </trkpt>
      <trkpt lat="43.48667" lon="2.33995">
        <ele>602</ele>
        <time>2019-03-16T10:15:23Z</time>
      </trkpt>
      <trkpt lat="43.48667" lon="2.33988">
        <ele>602</ele>
        <time>2019-03-16T10:15:26Z</time>
      </trkpt>
      <trkpt lat="43.48669" lon="2.33967">
        <ele>603</ele>
        <time>2019-03-16T10:15:31Z</time>
      </trkpt>
      <trkpt lat="43.48669" lon="2.3396">
        <ele>603</ele>
        <time>2019-03-16T10:15:33Z</time>
      </trkpt>
      <trkpt lat="43.48669" lon="2.33939">
        <ele>604</ele>
        <time>2019-03-16T10:15:40Z</time>
      </trkpt>
      <trkpt lat="43.48669" lon="2.33931">
        <ele>604</ele>
        <time>2019-03-16T10:15:41Z</time>
      </trkpt>
      <trkpt lat="43.48665" lon="2.33905">
        <ele>605</ele>
        <time>2019-03-16T10:15:48Z</time>
      </trkpt>
      <trkpt lat="43.48662" lon="2.33884">
        <ele>606</ele>
        <time>2019-03-16T10:15:54Z</time>
      </trkpt>
      <trkpt lat="43.48661" lon="2.33882">
        <ele>606</ele>
        <time>2019-03-16T10:15:56Z</time>
      </trkpt>
      <trkpt lat="43.48652" lon="2.33864">
        <ele>607</ele>
        <time>2019-03-16T10:16:02Z</time>
      </trkpt>
      <trkpt lat="43.48635" lon="2.33847">
        <ele>609</ele>
        <time>2019-03-16T10:16:09Z</time>
      </trkpt>
      <trkpt lat="43.48621" lon="2.33836">
        <ele>609</ele>
        <time>2019-03-16T10:16:16Z</time>
      </trkpt>
      <trkpt lat="43.48611" lon="2.33829">
        <ele>610</ele>
        <time>2019-03-16T10:16:20Z</time>
      </trkpt>
      <trkpt lat="43.48602" lon="2.33823">
        <ele>611</ele>
        <time>2019-03-16T10:16:23Z</time>
      </trkpt>
      <trkpt lat="43.48592" lon="2.33817">
        <ele>612</ele>
        <time>2019-03-16T10:16:28Z</time>
      </trkpt>
      <trkpt lat="43.48583" lon="2.33812">
        <ele>612</ele>
        <time>2019-03-16T10:16:31Z</time>
      </trkpt>
      <trkpt lat="43.48573" lon="2.33807">
        <ele>613</ele>
        <time>2019-03-16T10:16:35Z</time>
      </trkpt>
      <trkpt lat="43.48563" lon="2.33803">
        <ele>613</ele>
        <time>2019-03-16T10:16:40Z</time>
      </trkpt>
      <trkpt lat="43.48553" lon="2.33801">
        <ele>614</ele>
        <time>2019-03-16T10:16:43Z</time>
      </trkpt>
      <trkpt lat="43.4854" lon="2.33799">
        <ele>615</ele>
        <time>2019-03-16T10:16:48Z</time>
      </trkpt>
      <trkpt lat="43.48538" lon="2.33798">
        <ele>615</ele>
        <time>2019-03-16T10:16:50Z</time>
      </trkpt>
      <trkpt lat="43.48523" lon="2.3379">
        <ele>616</ele>
        <time>2019-03-16T10:16:56Z</time>
      </trkpt>
      <trkpt lat="43.48519" lon="2.33787">
        <ele>616</ele>
        <time>2019-03-16T10:16:58Z</time>
      </trkpt>
      <trkpt lat="43.48503" lon="2.33763">
        <ele>617</ele>
        <time>2019-03-16T10:17:05Z</time>
      </trkpt>
      <trkpt lat="43.48501" lon="2.3376">
        <ele>617</ele>
        <time>2019-03-16T10:17:06Z</time>
      </trkpt>
      <trkpt lat="43.48497" lon="2.3375">
        <ele>618</ele>
        <time>2019-03-16T10:17:10Z</time>
      </trkpt>
      <trkpt lat="43.48492" lon="2.33736">
        <ele>619</ele>
        <time>2019-03-16T10:17:13Z</time>
      </trkpt>
      <trkpt lat="43.4849" lon="2.33729">
        <ele>620</ele>
        <time>2019-03-16T10:17:15Z</time>
      </trkpt>
      <trkpt lat="43.48487" lon="2.33715">
        <ele>620</ele>
        <time>2019-03-16T10:17:19Z</time>
      </trkpt>
      <trkpt lat="43.48484" lon="2.33698">
        <ele>622</ele>
        <time>2019-03-16T10:17:24Z</time>
      </trkpt>
      <trkpt lat="43.48484" lon="2.33695">
        <ele>622</ele>
        <time>2019-03-16T10:17:26Z</time>
      </trkpt>
      <trkpt lat="43.48481" lon="2.33678">
        <ele>623</ele>
        <time>2019-03-16T10:17:30Z</time>
      </trkpt>
      <trkpt lat="43.4848" lon="2.33667">
        <ele>623</ele>
        <time>2019-03-16T10:17:34Z</time>
      </trkpt>
      <trkpt lat="43.48479" lon="2.33656">
        <ele>624</ele>
        <time>2019-03-16T10:17:36Z</time>
      </trkpt>
      <trkpt lat="43.48478" lon="2.33645">
        <ele>625</ele>
        <time>2019-03-16T10:17:40Z</time>
      </trkpt>
      <trkpt lat="43.48477" lon="2.3363">
        <ele>625</ele>
        <time>2019-03-16T10:17:43Z</time>
      </trkpt>
      <trkpt lat="43.48476" lon="2.33615">
        <ele>626</ele>
        <time>2019-03-16T10:17:47Z</time>
      </trkpt>
      <trkpt lat="43.48474" lon="2.33589">
        <ele>627</ele>
        <time>2019-03-16T10:17:54Z</time>
      </trkpt>
      <trkpt lat="43.48473" lon="2.33567">
        <ele>628</ele>
        <time>2019-03-16T10:18:00Z</time>
      </trkpt>
      <trkpt lat="43.48474" lon="2.33549">
        <ele>629</ele>
        <time>2019-03-16T10:18:05Z</time>
      </trkpt>
      <trkpt lat="43.48475" lon="2.33545">
        <ele>629</ele>
        <time>2019-03-16T10:18:06Z</time>
      </trkpt>
      <trkpt lat="43.48476" lon="2.33535">
        <ele>630</ele>
        <time>2019-03-16T10:18:10Z</time>
      </trkpt>
      <trkpt lat="43.48481" lon="2.33521">
        <ele>631</ele>
        <time>2019-03-16T10:18:13Z</time>
      </trkpt>
      <trkpt lat="43.48483" lon="2.33515">
        <ele>631</ele>
        <time>2019-03-16T10:18:16Z</time>
      </trkpt>
      <trkpt lat="43.48495" lon="2.3349">
        <ele>632</ele>
        <time>2019-03-16T10:18:23Z</time>
      </trkpt>
      <trkpt lat="43.48498" lon="2.33485">
        <ele>632</ele>
        <time>2019-03-16T10:18:25Z</time>
      </trkpt>
      <trkpt lat="43.48509" lon="2.33467">
        <ele>634</ele>
        <time>2019-03-16T10:18:32Z</time>
      </trkpt>
      <trkpt lat="43.48519" lon="2.3344">
        <ele>635</ele>
        <time>2019-03-16T10:18:39Z</time>
      </trkpt>
      <trkpt lat="43.48521" lon="2.33417">
        <ele>636</ele>
        <time>2019-03-16T10:18:46Z</time>
      </trkpt>
      <trkpt lat="43.48521" lon="2.3341">
        <ele>636</ele>
        <time>2019-03-16T10:18:47Z</time>
      </trkpt>
      <trkpt lat="43.48518" lon="2.33384">
        <ele>637</ele>
        <time>2019-03-16T10:18:54Z</time>
      </trkpt>
      <trkpt lat="43.48515" lon="2.33367">
        <ele>638</ele>
        <time>2019-03-16T10:18:59Z</time>
      </trkpt>
      <trkpt lat="43.48511" lon="2.33352">
        <ele>639</ele>
        <time>2019-03-16T10:19:04Z</time>
      </trkpt>
      <trkpt lat="43.48509" lon="2.33346">
        <ele>639</ele>
        <time>2019-03-16T10:19:05Z</time>
      </trkpt>
      <trkpt lat="43.48501" lon="2.33325">
        <ele>640</ele>
        <time>2019-03-16T10:19:11Z</time>
      </trkpt>
      <trkpt lat="43.48495" lon="2.3331">
        <ele>641</ele>
        <time>2019-03-16T10:19:16Z</time>
      </trkpt>
      <trkpt lat="43.48492" lon="2.33303">
        <ele>641</ele>
        <time>2019-03-16T10:19:17Z</time>
      </trkpt>
      <trkpt lat="43.48478" lon="2.33276">
        <ele>642</ele>
        <time>2019-03-16T10:19:25Z</time>
      </trkpt>
      <trkpt lat="43.48466" lon="2.33259">
        <ele>644</ele>
        <time>2019-03-16T10:19:32Z</time>
      </trkpt>
      <trkpt lat="43.48462" lon="2.33254">
        <ele>644</ele>
        <time>2019-03-16T10:19:34Z</time>
      </trkpt>
      <trkpt lat="43.48452" lon="2.33245">
        <ele>645</ele>
        <time>2019-03-16T10:19:37Z</time>
      </trkpt>
      <trkpt lat="43.48442" lon="2.33238">
        <ele>645</ele>
        <time>2019-03-16T10:19:41Z</time>
      </trkpt>
      <trkpt lat="43.48436" lon="2.33235">
        <ele>646</ele>
        <time>2019-03-16T10:19:43Z</time>
      </trkpt>
      <trkpt lat="43.48423" lon="2.33232">
        <ele>647</ele>
        <time>2019-03-16T10:19:48Z</time>
      </trkpt>
      <trkpt lat="43.4842" lon="2.33232">
        <ele>647</ele>
        <time>2019-03-16T10:19:49Z</time>
      </trkpt>
      <trkpt lat="43.48402" lon="2.33234">
        <ele>648</ele>
        <time>2019-03-16T10:19:55Z</time>
      </trkpt>
      <trkpt lat="43.48397" lon="2.33235">
        <ele>648</ele>
        <time>2019-03-16T10:19:57Z</time>
      </trkpt>
      <trkpt lat="43.48379" lon="2.33242">
        <ele>650</ele>
        <time>2019-03-16T10:20:04Z</time>
      </trkpt>
      <trkpt lat="43.48368" lon="2.33247">
        <ele>650</ele>
        <time>2019-03-16T10:20:07Z</time>
      </trkpt>
      <trkpt lat="43.48356" lon="2.33253">
        <ele>651</ele>
        <time>2019-03-16T10:20:11Z</time>
      </trkpt>
      <trkpt lat="43.48341" lon="2.3326">
        <ele>652</ele>
        <time>2019-03-16T10:20:17Z</time>
      </trkpt>
      <trkpt lat="43.4833" lon="2.33265">
        <ele>653</ele>
        <time>2019-03-16T10:20:21Z</time>
      </trkpt>
      <trkpt lat="43.48308" lon="2.33275">
        <ele>654</ele>
        <time>2019-03-16T10:20:29Z</time>
      </trkpt>
      <trkpt lat="43.48297" lon="2.3328">
        <ele>655</ele>
        <time>2019-03-16T10:20:33Z</time>
      </trkpt>
      <trkpt lat="43.48274" lon="2.33286">
        <ele>656</ele>
        <time>2019-03-16T10:20:41Z</time>
      </trkpt>
      <trkpt lat="43.48271" lon="2.33286">
        <ele>656</ele>
        <time>2019-03-16T10:20:42Z</time>
      </trkpt>
      <trkpt lat="43.48256" lon="2.33288">
        <ele>657</ele>
        <time>2019-03-16T10:20:47Z</time>
      </trkpt>
      <trkpt lat="43.48244" lon="2.3329">
        <ele>658</ele>
        <time>2019-03-16T10:20:51Z</time>
      </trkpt>
      <trkpt lat="43.48224" lon="2.33287">
        <ele>658</ele>
        <time>2019-03-16T10:20:57Z</time>
      </trkpt>
      <trkpt lat="43.48213" lon="2.33286">
        <ele>658</ele>
        <time>2019-03-16T10:21:00Z</time>
      </trkpt>
      <trkpt lat="43.48188" lon="2.3329">
        <ele>659</ele>
        <time>2019-03-16T10:21:08Z</time>
      </trkpt>
      <trkpt lat="43.48181" lon="2.33292">
        <ele>659</ele>
        <time>2019-03-16T10:21:09Z</time>
      </trkpt>
      <trkpt lat="43.48144" lon="2.33306">
        <ele>660</ele>
        <time>2019-03-16T10:21:19Z</time>
      </trkpt>
      <trkpt lat="43.48136" lon="2.33309">
        <ele>661</ele>
        <time>2019-03-16T10:21:22Z</time>
      </trkpt>
      <trkpt lat="43.48112" lon="2.33319">
        <ele>661</ele>
        <time>2019-03-16T10:21:27Z</time>
      </trkpt>
      <trkpt lat="43.48097" lon="2.33324">
        <ele>662</ele>
        <time>2019-03-16T10:21:32Z</time>
      </trkpt>
      <trkpt lat="43.48078" lon="2.3333">
        <ele>662</ele>
        <time>2019-03-16T10:21:36Z</time>
      </trkpt>
      <trkpt lat="43.48055" lon="2.33338">
        <ele>663</ele>
        <time>2019-03-16T10:21:42Z</time>
      </trkpt>
      <trkpt lat="43.48051" lon="2.33339">
        <ele>663</ele>
        <time>2019-03-16T10:21:44Z</time>
      </trkpt>
      <trkpt lat="43.48021" lon="2.33349">
        <ele>664</ele>
        <time>2019-03-16T10:21:52Z</time>
      </trkpt>
      <trkpt lat="43.48006" lon="2.33352">
        <ele>665</ele>
        <time>2019-03-16T10:21:56Z</time>
      </trkpt>
      <trkpt lat="43.47999" lon="2.33352">
        <ele>665</ele>
        <time>2019-03-16T10:21:58Z</time>
      </trkpt>
      <trkpt lat="43.47978" lon="2.33356">
        <ele>666</ele>
        <time>2019-03-16T10:22:03Z</time>
      </trkpt>
      <trkpt lat="43.4797" lon="2.33358">
        <ele>666</ele>
        <time>2019-03-16T10:22:06Z</time>
      </trkpt>
      <trkpt lat="43.47964" lon="2.33359">
        <ele>667</ele>
        <time>2019-03-16T10:22:09Z</time>
      </trkpt>
      <trkpt lat="43.47962" lon="2.33359">
        <ele>667</ele>
        <time>2019-03-16T10:22:11Z</time>
      </trkpt>
      <trkpt lat="43.47955" lon="2.33362">
        <ele>668</ele>
        <time>2019-03-16T10:22:17Z</time>
      </trkpt>
      <trkpt lat="43.4795" lon="2.33364">
        <ele>668</ele>
        <time>2019-03-16T10:22:22Z</time>
      </trkpt>
      <trkpt lat="43.47945" lon="2.33366">
        <ele>669</ele>
        <time>2019-03-16T10:22:25Z</time>
      </trkpt>
      <trkpt lat="43.47942" lon="2.33367">
        <ele>669</ele>
        <time>2019-03-16T10:22:27Z</time>
      </trkpt>
      <trkpt lat="43.47939" lon="2.33369">
        <ele>669</ele>
        <time>2019-03-16T10:22:31Z</time>
      </trkpt>
      <trkpt lat="43.47938" lon="2.3337">
        <ele>669</ele>
        <time>2019-03-16T10:22:33Z</time>
      </trkpt>
      <trkpt lat="43.47936" lon="2.3337">
        <ele>669</ele>
        <time>2019-03-16T10:22:35Z</time>
      </trkpt>
      <trkpt lat="43.47935" lon="2.3337">
        <ele>669</ele>
        <time>2019-03-16T10:22:37Z</time>
      </trkpt>
      <trkpt lat="43.47928" lon="2.33372">
        <ele>670</ele>
        <time>2019-03-16T10:22:46Z</time>
      </trkpt>
      <trkpt lat="43.47924" lon="2.33373">
        <ele>670</ele>
        <time>2019-03-16T10:22:51Z</time>
      </trkpt>
      <trkpt lat="43.47923" lon="2.33373">
        <ele>670</ele>
        <time>2019-03-16T10:22:54Z</time>
      </trkpt>
      <trkpt lat="43.47923" lon="2.33373">
        <ele>671</ele>
        <time>2019-03-16T10:22:56Z</time>
      </trkpt>
      <trkpt lat="43.4792" lon="2.33371">
        <ele>670</ele>
        <time>2019-03-16T10:28:19Z</time>
      </trkpt>
      <trkpt lat="43.4792" lon="2.33369">
        <ele>671</ele>
        <time>2019-03-16T10:28:20Z</time>
      </trkpt>
      <trkpt lat="43.4792" lon="2.33368">
        <ele>671</ele>
        <time>2019-03-16T10:28:21Z</time>
      </trkpt>
      <trkpt lat="43.47917" lon="2.33357">
        <ele>671</ele>
        <time>2019-03-16T10:28:26Z</time>
      </trkpt>
      <trkpt lat="43.47916" lon="2.33355">
        <ele>672</ele>
        <time>2019-03-16T10:28:27Z</time>
      </trkpt>
      <trkpt lat="43.47914" lon="2.33353">
        <ele>672</ele>
        <time>2019-03-16T10:28:28Z</time>
      </trkpt>
      <trkpt lat="43.4791" lon="2.33346">
        <ele>672</ele>
        <time>2019-03-16T10:28:31Z</time>
      </trkpt>
      <trkpt lat="43.47905" lon="2.33339">
        <ele>673</ele>
        <time>2019-03-16T10:28:34Z</time>
      </trkpt>
      <trkpt lat="43.47904" lon="2.33337">
        <ele>673</ele>
        <time>2019-03-16T10:28:35Z</time>
      </trkpt>
      <trkpt lat="43.47899" lon="2.33332">
        <ele>674</ele>
        <time>2019-03-16T10:28:38Z</time>
      </trkpt>
      <trkpt lat="43.47896" lon="2.33329">
        <ele>675</ele>
        <time>2019-03-16T10:28:40Z</time>
      </trkpt>
      <trkpt lat="43.47893" lon="2.33325">
        <ele>675</ele>
        <time>2019-03-16T10:28:42Z</time>
      </trkpt>
      <trkpt lat="43.47889" lon="2.33319">
        <ele>676</ele>
        <time>2019-03-16T10:28:45Z</time>
      </trkpt>
      <trkpt lat="43.47887" lon="2.33318">
        <ele>677</ele>
        <time>2019-03-16T10:28:46Z</time>
      </trkpt>
      <trkpt lat="43.47883" lon="2.33312">
        <ele>677</ele>
        <time>2019-03-16T10:28:49Z</time>
      </trkpt>
      <trkpt lat="43.4788" lon="2.33309">
        <ele>678</ele>
        <time>2019-03-16T10:28:51Z</time>
      </trkpt>
      <trkpt lat="43.47876" lon="2.33304">
        <ele>679</ele>
        <time>2019-03-16T10:28:54Z</time>
      </trkpt>
      <trkpt lat="43.47871" lon="2.33296">
        <ele>680</ele>
        <time>2019-03-16T10:28:58Z</time>
      </trkpt>
      <trkpt lat="43.4787" lon="2.33294">
        <ele>680</ele>
        <time>2019-03-16T10:28:59Z</time>
      </trkpt>
      <trkpt lat="43.47863" lon="2.33287">
        <ele>681</ele>
        <time>2019-03-16T10:29:03Z</time>
      </trkpt>
      <trkpt lat="43.47855" lon="2.33286">
        <ele>681</ele>
        <time>2019-03-16T10:29:07Z</time>
      </trkpt>
      <trkpt lat="43.47848" lon="2.3329">
        <ele>682</ele>
        <time>2019-03-16T10:29:11Z</time>
      </trkpt>
      <trkpt lat="43.47844" lon="2.33292">
        <ele>682</ele>
        <time>2019-03-16T10:29:13Z</time>
      </trkpt>
      <trkpt lat="43.47833" lon="2.33295">
        <ele>683</ele>
        <time>2019-03-16T10:29:18Z</time>
      </trkpt>
      <trkpt lat="43.47831" lon="2.33295">
        <ele>683</ele>
        <time>2019-03-16T10:29:19Z</time>
      </trkpt>
      <trkpt lat="43.47823" lon="2.33297">
        <ele>683</ele>
        <time>2019-03-16T10:29:23Z</time>
      </trkpt>
      <trkpt lat="43.47807" lon="2.33296">
        <ele>684</ele>
        <time>2019-03-16T10:29:29Z</time>
      </trkpt>
      <trkpt lat="43.47805" lon="2.33295">
        <ele>684</ele>
        <time>2019-03-16T10:29:30Z</time>
      </trkpt>
      <trkpt lat="43.47796" lon="2.33291">
        <ele>685</ele>
        <time>2019-03-16T10:29:34Z</time>
      </trkpt>
      <trkpt lat="43.47793" lon="2.33289">
        <ele>685</ele>
        <time>2019-03-16T10:29:36Z</time>
      </trkpt>
      <trkpt lat="43.47786" lon="2.33284">
        <ele>686</ele>
        <time>2019-03-16T10:29:40Z</time>
      </trkpt>
      <trkpt lat="43.47785" lon="2.33282">
        <ele>686</ele>
        <time>2019-03-16T10:29:41Z</time>
      </trkpt>
      <trkpt lat="43.47778" lon="2.33271">
        <ele>687</ele>
        <time>2019-03-16T10:29:46Z</time>
      </trkpt>
      <trkpt lat="43.47777" lon="2.33269">
        <ele>687</ele>
        <time>2019-03-16T10:29:47Z</time>
      </trkpt>
      <trkpt lat="43.47773" lon="2.33256">
        <ele>688</ele>
        <time>2019-03-16T10:29:52Z</time>
      </trkpt>
      <trkpt lat="43.4777" lon="2.33242">
        <ele>689</ele>
        <time>2019-03-16T10:29:57Z</time>
      </trkpt>
      <trkpt lat="43.47768" lon="2.33239">
        <ele>689</ele>
        <time>2019-03-16T10:29:58Z</time>
      </trkpt>
      <trkpt lat="43.47766" lon="2.33233">
        <ele>690</ele>
        <time>2019-03-16T10:30:00Z</time>
      </trkpt>
      <trkpt lat="43.47764" lon="2.33229">
        <ele>691</ele>
        <time>2019-03-16T10:30:02Z</time>
      </trkpt>
      <trkpt lat="43.47763" lon="2.33226">
        <ele>691</ele>
        <time>2019-03-16T10:30:03Z</time>
      </trkpt>
      <trkpt lat="43.4776" lon="2.33217">
        <ele>691</ele>
        <time>2019-03-16T10:30:06Z</time>
      </trkpt>
      <trkpt lat="43.47757" lon="2.33207">
        <ele>692</ele>
        <time>2019-03-16T10:30:10Z</time>
      </trkpt>
      <trkpt lat="43.47755" lon="2.33202">
        <ele>692</ele>
        <time>2019-03-16T10:30:12Z</time>
      </trkpt>
      <trkpt lat="43.47751" lon="2.33195">
        <ele>693</ele>
        <time>2019-03-16T10:30:15Z</time>
      </trkpt>
      <trkpt lat="43.4775" lon="2.33191">
        <ele>693</ele>
        <time>2019-03-16T10:30:16Z</time>
      </trkpt>
      <trkpt lat="43.47749" lon="2.33189">
        <ele>693</ele>
        <time>2019-03-16T10:30:17Z</time>
      </trkpt>
      <trkpt lat="43.47745" lon="2.33173">
        <ele>694</ele>
        <time>2019-03-16T10:30:23Z</time>
      </trkpt>
      <trkpt lat="43.47744" lon="2.3317">
        <ele>694</ele>
        <time>2019-03-16T10:30:25Z</time>
      </trkpt>
      <trkpt lat="43.47744" lon="2.33164">
        <ele>695</ele>
        <time>2019-03-16T10:30:28Z</time>
      </trkpt>
      <trkpt lat="43.47746" lon="2.33154">
        <ele>695</ele>
        <time>2019-03-16T10:30:32Z</time>
      </trkpt>
      <trkpt lat="43.47746" lon="2.33149">
        <ele>696</ele>
        <time>2019-03-16T10:30:34Z</time>
      </trkpt>
      <trkpt lat="43.47747" lon="2.33142">
        <ele>697</ele>
        <time>2019-03-16T10:30:37Z</time>
      </trkpt>
      <trkpt lat="43.47749" lon="2.33134">
        <ele>698</ele>
        <time>2019-03-16T10:30:40Z</time>
      </trkpt>
      <trkpt lat="43.4775" lon="2.33129">
        <ele>698</ele>
        <time>2019-03-16T10:30:42Z</time>
      </trkpt>
      <trkpt lat="43.47751" lon="2.33123">
        <ele>700</ele>
        <time>2019-03-16T10:30:45Z</time>
      </trkpt>
      <trkpt lat="43.47753" lon="2.33114">
        <ele>701</ele>
        <time>2019-03-16T10:30:48Z</time>
      </trkpt>
      <trkpt lat="43.47753" lon="2.33112">
        <ele>701</ele>
        <time>2019-03-16T10:30:49Z</time>
      </trkpt>
      <trkpt lat="43.47754" lon="2.33107">
        <ele>702</ele>
        <time>2019-03-16T10:30:51Z</time>
      </trkpt>
      <trkpt lat="43.47756" lon="2.33096">
        <ele>703</ele>
        <time>2019-03-16T10:30:55Z</time>
      </trkpt>
      <trkpt lat="43.47757" lon="2.33087">
        <ele>704</ele>
        <time>2019-03-16T10:30:58Z</time>
      </trkpt>
      <trkpt lat="43.47758" lon="2.33084">
        <ele>704</ele>
        <time>2019-03-16T10:30:59Z</time>
      </trkpt>
      <trkpt lat="43.47758" lon="2.33076">
        <ele>705</ele>
        <time>2019-03-16T10:31:03Z</time>
      </trkpt>
      <trkpt lat="43.47758" lon="2.33069">
        <ele>706</ele>
        <time>2019-03-16T10:31:06Z</time>
      </trkpt>
      <trkpt lat="43.47758" lon="2.33059">
        <ele>707</ele>
        <time>2019-03-16T10:31:09Z</time>
      </trkpt>
      <trkpt lat="43.47758" lon="2.3304">
        <ele>708</ele>
        <time>2019-03-16T10:31:14Z</time>
      </trkpt>
      <trkpt lat="43.47756" lon="2.33029">
        <ele>708</ele>
        <time>2019-03-16T10:31:17Z</time>
      </trkpt>
      <trkpt lat="43.47755" lon="2.33022">
        <ele>709</ele>
        <time>2019-03-16T10:31:19Z</time>
      </trkpt>
      <trkpt lat="43.47754" lon="2.33014">
        <ele>709</ele>
        <time>2019-03-16T10:31:22Z</time>
      </trkpt>
      <trkpt lat="43.47754" lon="2.33011">
        <ele>709</ele>
        <time>2019-03-16T10:31:23Z</time>
      </trkpt>
      <trkpt lat="43.47752" lon="2.33008">
        <ele>710</ele>
        <time>2019-03-16T10:31:24Z</time>
      </trkpt>
      <trkpt lat="43.47748" lon="2.32998">
        <ele>710</ele>
        <time>2019-03-16T10:31:28Z</time>
      </trkpt>
      <trkpt lat="43.47747" lon="2.32996">
        <ele>710</ele>
        <time>2019-03-16T10:31:29Z</time>
      </trkpt>
      <trkpt lat="43.47741" lon="2.32986">
        <ele>711</ele>
        <time>2019-03-16T10:31:33Z</time>
      </trkpt>
      <trkpt lat="43.4774" lon="2.32984">
        <ele>711</ele>
        <time>2019-03-16T10:31:34Z</time>
      </trkpt>
      <trkpt lat="43.47737" lon="2.32976">
        <ele>711</ele>
        <time>2019-03-16T10:31:37Z</time>
      </trkpt>
      <trkpt lat="43.47735" lon="2.32973">
        <ele>711</ele>
        <time>2019-03-16T10:31:38Z</time>
      </trkpt>
      <trkpt lat="43.4773" lon="2.32964">
        <ele>712</ele>
        <time>2019-03-16T10:31:42Z</time>
      </trkpt>
      <trkpt lat="43.4773" lon="2.32962">
        <ele>713</ele>
        <time>2019-03-16T10:31:43Z</time>
      </trkpt>
      <trkpt lat="43.47727" lon="2.32954">
        <ele>713</ele>
        <time>2019-03-16T10:31:47Z</time>
      </trkpt>
      <trkpt lat="43.47726" lon="2.32949">
        <ele>714</ele>
        <time>2019-03-16T10:31:50Z</time>
      </trkpt>
      <trkpt lat="43.47725" lon="2.32943">
        <ele>715</ele>
        <time>2019-03-16T10:31:53Z</time>
      </trkpt>
      <trkpt lat="43.47721" lon="2.32937">
        <ele>716</ele>
        <time>2019-03-16T10:31:56Z</time>
      </trkpt>
      <trkpt lat="43.4772" lon="2.32936">
        <ele>716</ele>
        <time>2019-03-16T10:31:57Z</time>
      </trkpt>
      <trkpt lat="43.47717" lon="2.32934">
        <ele>717</ele>
        <time>2019-03-16T10:31:59Z</time>
      </trkpt>
      <trkpt lat="43.47716" lon="2.32932">
        <ele>717</ele>
        <time>2019-03-16T10:32:00Z</time>
      </trkpt>
      <trkpt lat="43.47711" lon="2.32928">
        <ele>718</ele>
        <time>2019-03-16T10:32:04Z</time>
      </trkpt>
      <trkpt lat="43.47706" lon="2.32925">
        <ele>719</ele>
        <time>2019-03-16T10:32:07Z</time>
      </trkpt>
      <trkpt lat="43.47703" lon="2.32923">
        <ele>719</ele>
        <time>2019-03-16T10:32:09Z</time>
      </trkpt>
      <trkpt lat="43.47699" lon="2.3292">
        <ele>720</ele>
        <time>2019-03-16T10:32:12Z</time>
      </trkpt>
      <trkpt lat="43.47692" lon="2.32916">
        <ele>721</ele>
        <time>2019-03-16T10:32:15Z</time>
      </trkpt>
      <trkpt lat="43.47689" lon="2.32915">
        <ele>721</ele>
        <time>2019-03-16T10:32:17Z</time>
      </trkpt>
      <trkpt lat="43.47683" lon="2.32909">
        <ele>722</ele>
        <time>2019-03-16T10:32:21Z</time>
      </trkpt>
      <trkpt lat="43.47681" lon="2.32905">
        <ele>723</ele>
        <time>2019-03-16T10:32:23Z</time>
      </trkpt>
      <trkpt lat="43.47677" lon="2.32894">
        <ele>724</ele>
        <time>2019-03-16T10:32:28Z</time>
      </trkpt>
      <trkpt lat="43.47674" lon="2.3289">
        <ele>724</ele>
        <time>2019-03-16T10:32:30Z</time>
      </trkpt>
      <trkpt lat="43.47673" lon="2.32889">
        <ele>725</ele>
        <time>2019-03-16T10:32:31Z</time>
      </trkpt>
      <trkpt lat="43.4767" lon="2.32884">
        <ele>726</ele>
        <time>2019-03-16T10:32:33Z</time>
      </trkpt>
      <trkpt lat="43.47669" lon="2.32881">
        <ele>726</ele>
        <time>2019-03-16T10:32:34Z</time>
      </trkpt>
      <trkpt lat="43.47669" lon="2.32879">
        <ele>726</ele>
        <time>2019-03-16T10:32:35Z</time>
      </trkpt>
      <trkpt lat="43.47663" lon="2.32868">
        <ele>727</ele>
        <time>2019-03-16T10:32:39Z</time>
      </trkpt>
      <trkpt lat="43.47661" lon="2.32866">
        <ele>727</ele>
        <time>2019-03-16T10:32:40Z</time>
      </trkpt>
      <trkpt lat="43.4766" lon="2.32864">
        <ele>727</ele>
        <time>2019-03-16T10:32:41Z</time>
      </trkpt>
      <trkpt lat="43.47658" lon="2.32858">
        <ele>728</ele>
        <time>2019-03-16T10:32:44Z</time>
      </trkpt>
      <trkpt lat="43.47657" lon="2.32855">
        <ele>729</ele>
        <time>2019-03-16T10:32:45Z</time>
      </trkpt>
      <trkpt lat="43.47652" lon="2.32846">
        <ele>729</ele>
        <time>2019-03-16T10:32:49Z</time>
      </trkpt>
      <trkpt lat="43.47649" lon="2.32835">
        <ele>730</ele>
        <time>2019-03-16T10:32:53Z</time>
      </trkpt>
      <trkpt lat="43.47648" lon="2.32831">
        <ele>730</ele>
        <time>2019-03-16T10:32:55Z</time>
      </trkpt>
      <trkpt lat="43.47648" lon="2.32827">
        <ele>730</ele>
        <time>2019-03-16T10:32:57Z</time>
      </trkpt>
      <trkpt lat="43.47647" lon="2.32824">
        <ele>731</ele>
        <time>2019-03-16T10:32:58Z</time>
      </trkpt>
      <trkpt lat="43.47645" lon="2.32819">
        <ele>731</ele>
        <time>2019-03-16T10:33:00Z</time>
      </trkpt>
      <trkpt lat="43.47643" lon="2.32817">
        <ele>731</ele>
        <time>2019-03-16T10:33:01Z</time>
      </trkpt>
      <trkpt lat="43.47636" lon="2.32804">
        <ele>732</ele>
        <time>2019-03-16T10:33:06Z</time>
      </trkpt>
      <trkpt lat="43.47635" lon="2.32801">
        <ele>732</ele>
        <time>2019-03-16T10:33:07Z</time>
      </trkpt>
      <trkpt lat="43.47629" lon="2.32788">
        <ele>733</ele>
        <time>2019-03-16T10:33:12Z</time>
      </trkpt>
      <trkpt lat="43.4762" lon="2.32778">
        <ele>734</ele>
        <time>2019-03-16T10:33:17Z</time>
      </trkpt>
      <trkpt lat="43.47618" lon="2.32777">
        <ele>734</ele>
        <time>2019-03-16T10:33:18Z</time>
      </trkpt>
      <trkpt lat="43.47609" lon="2.3277">
        <ele>735</ele>
        <time>2019-03-16T10:33:23Z</time>
      </trkpt>
      <trkpt lat="43.47602" lon="2.32766">
        <ele>736</ele>
        <time>2019-03-16T10:33:26Z</time>
      </trkpt>
      <trkpt lat="43.47596" lon="2.32762">
        <ele>737</ele>
        <time>2019-03-16T10:33:29Z</time>
      </trkpt>
      <trkpt lat="43.47585" lon="2.3275">
        <ele>737</ele>
        <time>2019-03-16T10:33:34Z</time>
      </trkpt>
      <trkpt lat="43.47583" lon="2.32747">
        <ele>737</ele>
        <time>2019-03-16T10:33:35Z</time>
      </trkpt>
      <trkpt lat="43.47574" lon="2.32734">
        <ele>737</ele>
        <time>2019-03-16T10:33:40Z</time>
      </trkpt>
      <trkpt lat="43.47564" lon="2.32719">
        <ele>738</ele>
        <time>2019-03-16T10:33:45Z</time>
      </trkpt>
      <trkpt lat="43.47563" lon="2.32717">
        <ele>739</ele>
        <time>2019-03-16T10:33:46Z</time>
      </trkpt>
      <trkpt lat="43.47557" lon="2.32706">
        <ele>739</ele>
        <time>2019-03-16T10:33:50Z</time>
      </trkpt>
      <trkpt lat="43.47545" lon="2.32688">
        <ele>740</ele>
        <time>2019-03-16T10:33:57Z</time>
      </trkpt>
      <trkpt lat="43.47543" lon="2.32687">
        <ele>740</ele>
        <time>2019-03-16T10:33:58Z</time>
      </trkpt>
      <trkpt lat="43.47535" lon="2.32677">
        <ele>740</ele>
        <time>2019-03-16T10:34:03Z</time>
      </trkpt>
      <trkpt lat="43.47531" lon="2.32671">
        <ele>740</ele>
        <time>2019-03-16T10:34:05Z</time>
      </trkpt>
      <trkpt lat="43.47528" lon="2.32668">
        <ele>741</ele>
        <time>2019-03-16T10:34:07Z</time>
      </trkpt>
      <trkpt lat="43.47526" lon="2.32666">
        <ele>741</ele>
        <time>2019-03-16T10:34:08Z</time>
      </trkpt>
      <trkpt lat="43.47519" lon="2.32658">
        <ele>741</ele>
        <time>2019-03-16T10:34:12Z</time>
      </trkpt>
      <trkpt lat="43.47516" lon="2.32654">
        <ele>742</ele>
        <time>2019-03-16T10:34:17Z</time>
      </trkpt>
      <trkpt lat="43.47516" lon="2.32653">
        <ele>743</ele>
        <time>2019-03-16T10:36:18Z</time>
      </trkpt>
      <trkpt lat="43.47516" lon="2.32652">
        <ele>743</ele>
        <time>2019-03-16T10:36:19Z</time>
      </trkpt>
      <trkpt lat="43.47514" lon="2.32648">
        <ele>743</ele>
        <time>2019-03-16T10:36:22Z</time>
      </trkpt>
      <trkpt lat="43.4751" lon="2.32644">
        <ele>743</ele>
        <time>2019-03-16T10:36:25Z</time>
      </trkpt>
      <trkpt lat="43.47509" lon="2.32643">
        <ele>743</ele>
        <time>2019-03-16T10:36:27Z</time>
      </trkpt>
      <trkpt lat="43.47508" lon="2.32642">
        <ele>743</ele>
        <time>2019-03-16T10:36:28Z</time>
      </trkpt>
      <trkpt lat="43.47509" lon="2.32638">
        <ele>744</ele>
        <time>2019-03-16T10:38:51Z</time>
      </trkpt>
      <trkpt lat="43.4751" lon="2.32638">
        <ele>744</ele>
        <time>2019-03-16T10:38:52Z</time>
      </trkpt>
      <trkpt lat="43.4751" lon="2.32637">
        <ele>744</ele>
        <time>2019-03-16T10:38:54Z</time>
      </trkpt>
      <trkpt lat="43.47509" lon="2.32637">
        <ele>743</ele>
        <time>2019-03-16T10:38:56Z</time>
      </trkpt>
      <trkpt lat="43.47507" lon="2.32638">
        <ele>744</ele>
        <time>2019-03-16T10:39:05Z</time>
      </trkpt>
      <trkpt lat="43.47507" lon="2.32638">
        <ele>744</ele>
        <time>2019-03-16T10:39:06Z</time>
      </trkpt>
      <trkpt lat="43.47508" lon="2.32639">
        <ele>744</ele>
        <time>2019-03-16T10:39:07Z</time>
      </trkpt>
      <trkpt lat="43.47509" lon="2.3264">
        <ele>744</ele>
        <time>2019-03-16T10:39:09Z</time>
      </trkpt>
      <trkpt lat="43.47514" lon="2.32648">
        <ele>743</ele>
        <time>2019-03-16T10:39:13Z</time>
      </trkpt>
      <trkpt lat="43.47516" lon="2.32651">
        <ele>743</ele>
        <time>2019-03-16T10:39:14Z</time>
      </trkpt>
      <trkpt lat="43.47518" lon="2.32654">
        <ele>743</ele>
        <time>2019-03-16T10:39:15Z</time>
      </trkpt>
      <trkpt lat="43.47526" lon="2.3266">
        <ele>743</ele>
        <time>2019-03-16T10:39:17Z</time>
      </trkpt>
      <trkpt lat="43.47529" lon="2.32664">
        <ele>742</ele>
        <time>2019-03-16T10:39:18Z</time>
      </trkpt>
      <trkpt lat="43.47535" lon="2.32671">
        <ele>741</ele>
        <time>2019-03-16T10:39:20Z</time>
      </trkpt>
      <trkpt lat="43.47538" lon="2.32675">
        <ele>740</ele>
        <time>2019-03-16T10:39:21Z</time>
      </trkpt>
      <trkpt lat="43.47546" lon="2.32697">
        <ele>740</ele>
        <time>2019-03-16T10:39:26Z</time>
      </trkpt>
      <trkpt lat="43.47556" lon="2.3272">
        <ele>739</ele>
        <time>2019-03-16T10:39:31Z</time>
      </trkpt>
      <trkpt lat="43.4756" lon="2.3273">
        <ele>739</ele>
        <time>2019-03-16T10:39:33Z</time>
      </trkpt>
      <trkpt lat="43.47566" lon="2.3274">
        <ele>739</ele>
        <time>2019-03-16T10:39:35Z</time>
      </trkpt>
      <trkpt lat="43.4757" lon="2.32744">
        <ele>738</ele>
        <time>2019-03-16T10:39:36Z</time>
      </trkpt>
      <trkpt lat="43.47578" lon="2.32752">
        <ele>738</ele>
        <time>2019-03-16T10:39:38Z</time>
      </trkpt>
      <trkpt lat="43.47587" lon="2.32759">
        <ele>738</ele>
        <time>2019-03-16T10:39:40Z</time>
      </trkpt>
      <trkpt lat="43.47592" lon="2.32762">
        <ele>738</ele>
        <time>2019-03-16T10:39:41Z</time>
      </trkpt>
      <trkpt lat="43.47597" lon="2.32766">
        <ele>737</ele>
        <time>2019-03-16T10:39:42Z</time>
      </trkpt>
      <trkpt lat="43.47608" lon="2.32774">
        <ele>737</ele>
        <time>2019-03-16T10:39:44Z</time>
      </trkpt>
      <trkpt lat="43.47614" lon="2.3278">
        <ele>736</ele>
        <time>2019-03-16T10:39:45Z</time>
      </trkpt>
      <trkpt lat="43.47623" lon="2.32797">
        <ele>734</ele>
        <time>2019-03-16T10:39:47Z</time>
      </trkpt>
      <trkpt lat="43.47629" lon="2.32822">
        <ele>733</ele>
        <time>2019-03-16T10:39:50Z</time>
      </trkpt>
      <trkpt lat="43.47631" lon="2.3283">
        <ele>732</ele>
        <time>2019-03-16T10:39:51Z</time>
      </trkpt>
      <trkpt lat="43.47632" lon="2.32839">
        <ele>731</ele>
        <time>2019-03-16T10:39:52Z</time>
      </trkpt>
      <trkpt lat="43.47631" lon="2.32847">
        <ele>731</ele>
        <time>2019-03-16T10:39:53Z</time>
      </trkpt>
      <trkpt lat="43.47632" lon="2.32854">
        <ele>730</ele>
        <time>2019-03-16T10:39:54Z</time>
      </trkpt>
      <trkpt lat="43.47633" lon="2.32859">
        <ele>730</ele>
        <time>2019-03-16T10:39:55Z</time>
      </trkpt>
      <trkpt lat="43.47635" lon="2.32868">
        <ele>729</ele>
        <time>2019-03-16T10:39:57Z</time>
      </trkpt>
      <trkpt lat="43.47643" lon="2.32874">
        <ele>727</ele>
        <time>2019-03-16T10:40:00Z</time>
      </trkpt>
      <trkpt lat="43.47659" lon="2.3287">
        <ele>727</ele>
        <time>2019-03-16T10:40:04Z</time>
      </trkpt>
      <trkpt lat="43.47665" lon="2.32867">
        <ele>728</ele>
        <time>2019-03-16T10:40:06Z</time>
      </trkpt>
      <trkpt lat="43.47668" lon="2.32863">
        <ele>728</ele>
        <time>2019-03-16T10:40:08Z</time>
      </trkpt>
      <trkpt lat="43.47671" lon="2.32862">
        <ele>729</ele>
        <time>2019-03-16T10:40:09Z</time>
      </trkpt>
      <trkpt lat="43.47679" lon="2.32858">
        <ele>729</ele>
        <time>2019-03-16T10:40:12Z</time>
      </trkpt>
      <trkpt lat="43.47684" lon="2.32854">
        <ele>730</ele>
        <time>2019-03-16T10:40:14Z</time>
      </trkpt>
      <trkpt lat="43.4769" lon="2.32848">
        <ele>730</ele>
        <time>2019-03-16T10:40:17Z</time>
      </trkpt>
      <trkpt lat="43.47696" lon="2.32844">
        <ele>730</ele>
        <time>2019-03-16T10:40:19Z</time>
      </trkpt>
      <trkpt lat="43.47699" lon="2.32841">
        <ele>731</ele>
        <time>2019-03-16T10:40:20Z</time>
      </trkpt>
      <trkpt lat="43.47706" lon="2.32835">
        <ele>732</ele>
        <time>2019-03-16T10:40:22Z</time>
      </trkpt>
      <trkpt lat="43.47708" lon="2.32831">
        <ele>732</ele>
        <time>2019-03-16T10:40:23Z</time>
      </trkpt>
      <trkpt lat="43.47716" lon="2.3282">
        <ele>733</ele>
        <time>2019-03-16T10:40:26Z</time>
      </trkpt>
      <trkpt lat="43.4772" lon="2.32814">
        <ele>733</ele>
        <time>2019-03-16T10:40:28Z</time>
      </trkpt>
      <trkpt lat="43.47722" lon="2.3281">
        <ele>733</ele>
        <time>2019-03-16T10:40:29Z</time>
      </trkpt>
      <trkpt lat="43.47726" lon="2.32801">
        <ele>734</ele>
        <time>2019-03-16T10:40:32Z</time>
      </trkpt>
      <trkpt lat="43.47733" lon="2.32784">
        <ele>734</ele>
        <time>2019-03-16T10:40:37Z</time>
      </trkpt>
      <trkpt lat="43.47734" lon="2.32781">
        <ele>735</ele>
        <time>2019-03-16T10:40:38Z</time>
      </trkpt>
      <trkpt lat="43.47737" lon="2.32769">
        <ele>735</ele>
        <time>2019-03-16T10:40:41Z</time>
      </trkpt>
      <trkpt lat="43.47738" lon="2.32766">
        <ele>736</ele>
        <time>2019-03-16T10:40:42Z</time>
      </trkpt>
      <trkpt lat="43.4774" lon="2.32756">
        <ele>736</ele>
        <time>2019-03-16T10:40:46Z</time>
      </trkpt>
      <trkpt lat="43.4774" lon="2.32751">
        <ele>736</ele>
        <time>2019-03-16T10:40:48Z</time>
      </trkpt>
      <trkpt lat="43.4774" lon="2.32745">
        <ele>737</ele>
        <time>2019-03-16T10:40:50Z</time>
      </trkpt>
      <trkpt lat="43.47739" lon="2.32741">
        <ele>738</ele>
        <time>2019-03-16T10:40:53Z</time>
      </trkpt>
      <trkpt lat="43.47738" lon="2.32737">
        <ele>738</ele>
        <time>2019-03-16T10:40:55Z</time>
      </trkpt>
      <trkpt lat="43.47736" lon="2.32733">
        <ele>739</ele>
        <time>2019-03-16T10:40:57Z</time>
      </trkpt>
      <trkpt lat="43.47736" lon="2.32733">
        <ele>740</ele>
        <time>2019-03-16T10:40:58Z</time>
      </trkpt>
      <trkpt lat="43.47737" lon="2.32731">
        <ele>740</ele>
        <time>2019-03-16T10:40:59Z</time>
      </trkpt>
      <trkpt lat="43.47736" lon="2.3273">
        <ele>741</ele>
        <time>2019-03-16T10:41:00Z</time>
      </trkpt>
      <trkpt lat="43.47737" lon="2.32722">
        <ele>741</ele>
        <time>2019-03-16T10:41:05Z</time>
      </trkpt>
      <trkpt lat="43.47738" lon="2.32719">
        <ele>741</ele>
        <time>2019-03-16T10:41:07Z</time>
      </trkpt>
      <trkpt lat="43.4774" lon="2.32713">
        <ele>741</ele>
        <time>2019-03-16T10:41:09Z</time>
      </trkpt>
      <trkpt lat="43.47746" lon="2.32694">
        <ele>741</ele>
        <time>2019-03-16T10:41:15Z</time>
      </trkpt>
      <trkpt lat="43.47749" lon="2.3268">
        <ele>741</ele>
        <time>2019-03-16T10:41:20Z</time>
      </trkpt>
      <trkpt lat="43.47752" lon="2.32668">
        <ele>740</ele>
        <time>2019-03-16T10:41:24Z</time>
      </trkpt>
      <trkpt lat="43.47754" lon="2.32658">
        <ele>740</ele>
        <time>2019-03-16T10:41:26Z</time>
      </trkpt>
      <trkpt lat="43.47755" lon="2.32642">
        <ele>738</ele>
        <time>2019-03-16T10:41:29Z</time>
      </trkpt>
      <trkpt lat="43.47751" lon="2.32629">
        <ele>738</ele>
        <time>2019-03-16T10:41:33Z</time>
      </trkpt>
      <trkpt lat="43.47746" lon="2.32619">
        <ele>739</ele>
        <time>2019-03-16T10:41:38Z</time>
      </trkpt>
      <trkpt lat="43.4774" lon="2.32606">
        <ele>740</ele>
        <time>2019-03-16T10:41:43Z</time>
      </trkpt>
      <trkpt lat="43.47739" lon="2.32604">
        <ele>740</ele>
        <time>2019-03-16T10:41:44Z</time>
      </trkpt>
      <trkpt lat="43.47733" lon="2.32589">
        <ele>740</ele>
        <time>2019-03-16T10:41:48Z</time>
      </trkpt>
      <trkpt lat="43.47725" lon="2.3257">
        <ele>739</ele>
        <time>2019-03-16T10:41:52Z</time>
      </trkpt>
      <trkpt lat="43.47722" lon="2.32565">
        <ele>739</ele>
        <time>2019-03-16T10:41:53Z</time>
      </trkpt>
      <trkpt lat="43.47713" lon="2.32544">
        <ele>738</ele>
        <time>2019-03-16T10:41:57Z</time>
      </trkpt>
      <trkpt lat="43.47703" lon="2.32519">
        <ele>738</ele>
        <time>2019-03-16T10:42:02Z</time>
      </trkpt>
      <trkpt lat="43.47694" lon="2.32497">
        <ele>739</ele>
        <time>2019-03-16T10:42:07Z</time>
      </trkpt>
      <trkpt lat="43.47691" lon="2.3249">
        <ele>740</ele>
        <time>2019-03-16T10:42:09Z</time>
      </trkpt>
      <trkpt lat="43.47688" lon="2.32483">
        <ele>740</ele>
        <time>2019-03-16T10:42:11Z</time>
      </trkpt>
      <trkpt lat="43.4768" lon="2.32464">
        <ele>740</ele>
        <time>2019-03-16T10:42:15Z</time>
      </trkpt>
      <trkpt lat="43.47674" lon="2.32446">
        <ele>740</ele>
        <time>2019-03-16T10:42:19Z</time>
      </trkpt>
      <trkpt lat="43.47667" lon="2.32427">
        <ele>741</ele>
        <time>2019-03-16T10:42:24Z</time>
      </trkpt>
      <trkpt lat="43.47663" lon="2.32419">
        <ele>741</ele>
        <time>2019-03-16T10:42:26Z</time>
      </trkpt>
      <trkpt lat="43.47658" lon="2.32413">
        <ele>741</ele>
        <time>2019-03-16T10:42:28Z</time>
      </trkpt>
      <trkpt lat="43.47648" lon="2.32412">
        <ele>742</ele>
        <time>2019-03-16T10:42:31Z</time>
      </trkpt>
      <trkpt lat="43.4764" lon="2.32416">
        <ele>742</ele>
        <time>2019-03-16T10:42:34Z</time>
      </trkpt>
      <trkpt lat="43.47631" lon="2.32422">
        <ele>744</ele>
        <time>2019-03-16T10:42:38Z</time>
      </trkpt>
      <trkpt lat="43.47629" lon="2.32424">
        <ele>744</ele>
        <time>2019-03-16T10:42:39Z</time>
      </trkpt>
      <trkpt lat="43.47622" lon="2.32429">
        <ele>745</ele>
        <time>2019-03-16T10:42:42Z</time>
      </trkpt>
      <trkpt lat="43.4762" lon="2.32432">
        <ele>745</ele>
        <time>2019-03-16T10:42:43Z</time>
      </trkpt>
      <trkpt lat="43.47618" lon="2.32435">
        <ele>746</ele>
        <time>2019-03-16T10:42:44Z</time>
      </trkpt>
      <trkpt lat="43.47616" lon="2.32437">
        <ele>746</ele>
        <time>2019-03-16T10:42:45Z</time>
      </trkpt>
      <trkpt lat="43.47609" lon="2.32446">
        <ele>747</ele>
        <time>2019-03-16T10:42:49Z</time>
      </trkpt>
      <trkpt lat="43.47607" lon="2.32448">
        <ele>747</ele>
        <time>2019-03-16T10:42:50Z</time>
      </trkpt>
      <trkpt lat="43.47605" lon="2.32451">
        <ele>747</ele>
        <time>2019-03-16T10:42:51Z</time>
      </trkpt>
      <trkpt lat="43.47597" lon="2.3246">
        <ele>749</ele>
        <time>2019-03-16T10:42:54Z</time>
      </trkpt>
      <trkpt lat="43.47595" lon="2.32463">
        <ele>749</ele>
        <time>2019-03-16T10:42:55Z</time>
      </trkpt>
      <trkpt lat="43.47574" lon="2.32476">
        <ele>750</ele>
        <time>2019-03-16T10:43:01Z</time>
      </trkpt>
      <trkpt lat="43.47564" lon="2.32488">
        <ele>751</ele>
        <time>2019-03-16T10:43:05Z</time>
      </trkpt>
      <trkpt lat="43.47548" lon="2.32517">
        <ele>750</ele>
        <time>2019-03-16T10:43:12Z</time>
      </trkpt>
      <trkpt lat="43.47538" lon="2.3254">
        <ele>750</ele>
        <time>2019-03-16T10:43:18Z</time>
      </trkpt>
      <trkpt lat="43.47526" lon="2.32553">
        <ele>750</ele>
        <time>2019-03-16T10:43:23Z</time>
      </trkpt>
      <trkpt lat="43.47505" lon="2.32566">
        <ele>750</ele>
        <time>2019-03-16T10:43:29Z</time>
      </trkpt>
      <trkpt lat="43.47484" lon="2.32577">
        <ele>751</ele>
        <time>2019-03-16T10:43:36Z</time>
      </trkpt>
      <trkpt lat="43.47473" lon="2.32582">
        <ele>751</ele>
        <time>2019-03-16T10:43:40Z</time>
      </trkpt>
      <trkpt lat="43.47464" lon="2.32584">
        <ele>752</ele>
        <time>2019-03-16T10:43:43Z</time>
      </trkpt>
      <trkpt lat="43.47458" lon="2.32585">
        <ele>752</ele>
        <time>2019-03-16T10:43:45Z</time>
      </trkpt>
      <trkpt lat="43.47448" lon="2.32586">
        <ele>753</ele>
        <time>2019-03-16T10:43:49Z</time>
      </trkpt>
      <trkpt lat="43.47445" lon="2.32585">
        <ele>754</ele>
        <time>2019-03-16T10:43:50Z</time>
      </trkpt>
      <trkpt lat="43.47435" lon="2.32586">
        <ele>755</ele>
        <time>2019-03-16T10:43:54Z</time>
      </trkpt>
      <trkpt lat="43.47433" lon="2.32586">
        <ele>755</ele>
        <time>2019-03-16T10:43:55Z</time>
      </trkpt>
      <trkpt lat="43.4742" lon="2.32585">
        <ele>756</ele>
        <time>2019-03-16T10:44:01Z</time>
      </trkpt>
      <trkpt lat="43.47415" lon="2.32582">
        <ele>756</ele>
        <time>2019-03-16T10:44:04Z</time>
      </trkpt>
      <trkpt lat="43.47414" lon="2.32581">
        <ele>756</ele>
        <time>2019-03-16T10:44:05Z</time>
      </trkpt>
      <trkpt lat="43.47411" lon="2.32577">
        <ele>757</ele>
        <time>2019-03-16T10:44:07Z</time>
      </trkpt>
      <trkpt lat="43.4741" lon="2.32575">
        <ele>757</ele>
        <time>2019-03-16T10:44:08Z</time>
      </trkpt>
      <trkpt lat="43.47409" lon="2.32573">
        <ele>757</ele>
        <time>2019-03-16T10:44:09Z</time>
      </trkpt>
      <trkpt lat="43.47405" lon="2.32565">
        <ele>758</ele>
        <time>2019-03-16T10:44:13Z</time>
      </trkpt>
      <trkpt lat="43.47403" lon="2.32561">
        <ele>758</ele>
        <time>2019-03-16T10:44:15Z</time>
      </trkpt>
      <trkpt lat="43.47397" lon="2.32551">
        <ele>759</ele>
        <time>2019-03-16T10:44:20Z</time>
      </trkpt>
      <trkpt lat="43.47394" lon="2.32546">
        <ele>760</ele>
        <time>2019-03-16T10:44:22Z</time>
      </trkpt>
      <trkpt lat="43.4739" lon="2.32538">
        <ele>760</ele>
        <time>2019-03-16T10:44:25Z</time>
      </trkpt>
      <trkpt lat="43.47384" lon="2.32527">
        <ele>760</ele>
        <time>2019-03-16T10:44:29Z</time>
      </trkpt>
      <trkpt lat="43.47376" lon="2.32508">
        <ele>760</ele>
        <time>2019-03-16T10:44:35Z</time>
      </trkpt>
      <trkpt lat="43.47369" lon="2.32484">
        <ele>761</ele>
        <time>2019-03-16T10:44:42Z</time>
      </trkpt>
      <trkpt lat="43.47368" lon="2.3248">
        <ele>761</ele>
        <time>2019-03-16T10:44:43Z</time>
      </trkpt>
      <trkpt lat="43.47365" lon="2.32464">
        <ele>761</ele>
        <time>2019-03-16T10:44:47Z</time>
      </trkpt>
      <trkpt lat="43.47367" lon="2.32457">
        <ele>761</ele>
        <time>2019-03-16T10:44:49Z</time>
      </trkpt>
      <trkpt lat="43.47368" lon="2.32452">
        <ele>761</ele>
        <time>2019-03-16T10:44:51Z</time>
      </trkpt>
      <trkpt lat="43.47369" lon="2.32442">
        <ele>761</ele>
        <time>2019-03-16T10:44:54Z</time>
      </trkpt>
      <trkpt lat="43.47369" lon="2.32434">
        <ele>761</ele>
        <time>2019-03-16T10:44:56Z</time>
      </trkpt>
      <trkpt lat="43.4737" lon="2.32427">
        <ele>761</ele>
        <time>2019-03-16T10:44:58Z</time>
      </trkpt>
      <trkpt lat="43.47369" lon="2.32408">
        <ele>761</ele>
        <time>2019-03-16T10:45:02Z</time>
      </trkpt>
      <trkpt lat="43.47371" lon="2.32385">
        <ele>762</ele>
        <time>2019-03-16T10:45:07Z</time>
      </trkpt>
      <trkpt lat="43.47372" lon="2.32367">
        <ele>762</ele>
        <time>2019-03-16T10:45:11Z</time>
      </trkpt>
      <trkpt lat="43.47373" lon="2.32359">
        <ele>762</ele>
        <time>2019-03-16T10:45:13Z</time>
      </trkpt>
      <trkpt lat="43.47375" lon="2.32339">
        <ele>763</ele>
        <time>2019-03-16T10:45:18Z</time>
      </trkpt>
      <trkpt lat="43.47376" lon="2.32335">
        <ele>764</ele>
        <time>2019-03-16T10:45:19Z</time>
      </trkpt>
      <trkpt lat="43.47375" lon="2.32329">
        <ele>765</ele>
        <time>2019-03-16T10:45:22Z</time>
      </trkpt>
      <trkpt lat="43.47373" lon="2.32328">
        <ele>765</ele>
        <time>2019-03-16T10:45:23Z</time>
      </trkpt>
      <trkpt lat="43.47373" lon="2.32329">
        <ele>765</ele>
        <time>2019-03-16T10:45:24Z</time>
      </trkpt>
      <trkpt lat="43.47373" lon="2.32331">
        <ele>765</ele>
        <time>2019-03-16T10:45:26Z</time>
      </trkpt>
      <trkpt lat="43.47372" lon="2.32336">
        <ele>765</ele>
        <time>2019-03-16T10:45:28Z</time>
      </trkpt>
      <trkpt lat="43.47367" lon="2.32348">
        <ele>764</ele>
        <time>2019-03-16T10:45:34Z</time>
      </trkpt>
      <trkpt lat="43.4737" lon="2.32353">
        <ele>764</ele>
        <time>2019-03-16T10:45:37Z</time>
      </trkpt>
      <trkpt lat="43.47376" lon="2.3235">
        <ele>763</ele>
        <time>2019-03-16T10:45:39Z</time>
      </trkpt>
      <trkpt lat="43.47386" lon="2.32339">
        <ele>762</ele>
        <time>2019-03-16T10:45:43Z</time>
      </trkpt>
      <trkpt lat="43.47388" lon="2.32337">
        <ele>762</ele>
        <time>2019-03-16T10:45:44Z</time>
      </trkpt>
      <trkpt lat="43.47395" lon="2.32318">
        <ele>761</ele>
        <time>2019-03-16T10:45:49Z</time>
      </trkpt>
      <trkpt lat="43.47397" lon="2.32314">
        <ele>761</ele>
        <time>2019-03-16T10:45:50Z</time>
      </trkpt>
      <trkpt lat="43.47399" lon="2.3231">
        <ele>761</ele>
        <time>2019-03-16T10:45:51Z</time>
      </trkpt>
      <trkpt lat="43.474" lon="2.32305">
        <ele>761</ele>
        <time>2019-03-16T10:45:52Z</time>
      </trkpt>
      <trkpt lat="43.47403" lon="2.3229">
        <ele>761</ele>
        <time>2019-03-16T10:45:56Z</time>
      </trkpt>
      <trkpt lat="43.47404" lon="2.32278">
        <ele>761</ele>
        <time>2019-03-16T10:46:00Z</time>
      </trkpt>
      <trkpt lat="43.47402" lon="2.32272">
        <ele>762</ele>
        <time>2019-03-16T10:46:02Z</time>
      </trkpt>
      <trkpt lat="43.47399" lon="2.32267">
        <ele>762</ele>
        <time>2019-03-16T10:46:04Z</time>
      </trkpt>
      <trkpt lat="43.47389" lon="2.32252">
        <ele>761</ele>
        <time>2019-03-16T10:46:09Z</time>
      </trkpt>
      <trkpt lat="43.47386" lon="2.32239">
        <ele>762</ele>
        <time>2019-03-16T10:46:12Z</time>
      </trkpt>
      <trkpt lat="43.47385" lon="2.32224">
        <ele>761</ele>
        <time>2019-03-16T10:46:15Z</time>
      </trkpt>
      <trkpt lat="43.47385" lon="2.32214">
        <ele>761</ele>
        <time>2019-03-16T10:46:17Z</time>
      </trkpt>
      <trkpt lat="43.4738" lon="2.32184">
        <ele>762</ele>
        <time>2019-03-16T10:46:23Z</time>
      </trkpt>
      <trkpt lat="43.47382" lon="2.32169">
        <ele>762</ele>
        <time>2019-03-16T10:46:27Z</time>
      </trkpt>
      <trkpt lat="43.47382" lon="2.32165">
        <ele>762</ele>
        <time>2019-03-16T10:46:28Z</time>
      </trkpt>
      <trkpt lat="43.47382" lon="2.32156">
        <ele>762</ele>
        <time>2019-03-16T10:46:30Z</time>
      </trkpt>
      <trkpt lat="43.4738" lon="2.3215">
        <ele>762</ele>
        <time>2019-03-16T10:46:31Z</time>
      </trkpt>
      <trkpt lat="43.47376" lon="2.32141">
        <ele>761</ele>
        <time>2019-03-16T10:46:33Z</time>
      </trkpt>
      <trkpt lat="43.47374" lon="2.32138">
        <ele>760</ele>
        <time>2019-03-16T10:46:34Z</time>
      </trkpt>
      <trkpt lat="43.4737" lon="2.32135">
        <ele>760</ele>
        <time>2019-03-16T10:46:35Z</time>
      </trkpt>
      <trkpt lat="43.4736" lon="2.3213">
        <ele>759</ele>
        <time>2019-03-16T10:46:37Z</time>
      </trkpt>
      <trkpt lat="43.47356" lon="2.3213">
        <ele>758</ele>
        <time>2019-03-16T10:46:38Z</time>
      </trkpt>
      <trkpt lat="43.47347" lon="2.32126">
        <ele>757</ele>
        <time>2019-03-16T10:46:40Z</time>
      </trkpt>
      <trkpt lat="43.47342" lon="2.32122">
        <ele>756</ele>
        <time>2019-03-16T10:46:41Z</time>
      </trkpt>
      <trkpt lat="43.47337" lon="2.32115">
        <ele>755</ele>
        <time>2019-03-16T10:46:43Z</time>
      </trkpt>
      <trkpt lat="43.4733" lon="2.32108">
        <ele>753</ele>
        <time>2019-03-16T10:46:45Z</time>
      </trkpt>
      <trkpt lat="43.47326" lon="2.321">
        <ele>753</ele>
        <time>2019-03-16T10:46:47Z</time>
      </trkpt>
      <trkpt lat="43.47324" lon="2.32093">
        <ele>752</ele>
        <time>2019-03-16T10:46:49Z</time>
      </trkpt>
      <trkpt lat="43.47323" lon="2.32085">
        <ele>752</ele>
        <time>2019-03-16T10:46:51Z</time>
      </trkpt>
      <trkpt lat="43.47323" lon="2.32082">
        <ele>751</ele>
        <time>2019-03-16T10:46:52Z</time>
      </trkpt>
      <trkpt lat="43.47322" lon="2.32073">
        <ele>751</ele>
        <time>2019-03-16T10:46:55Z</time>
      </trkpt>
      <trkpt lat="43.47322" lon="2.32071">
        <ele>751</ele>
        <time>2019-03-16T10:46:58Z</time>
      </trkpt>
      <trkpt lat="43.47325" lon="2.32069">
        <ele>751</ele>
        <time>2019-03-16T10:47:04Z</time>
      </trkpt>
      <trkpt lat="43.47327" lon="2.32067">
        <ele>751</ele>
        <time>2019-03-16T10:47:06Z</time>
      </trkpt>
      <trkpt lat="43.47339" lon="2.3206">
        <ele>750</ele>
        <time>2019-03-16T10:47:11Z</time>
      </trkpt>
      <trkpt lat="43.4734" lon="2.32059">
        <ele>750</ele>
        <time>2019-03-16T10:47:12Z</time>
      </trkpt>
      <trkpt lat="43.47342" lon="2.32059">
        <ele>750</ele>
        <time>2019-03-16T10:47:13Z</time>
      </trkpt>
      <trkpt lat="43.47347" lon="2.32057">
        <ele>749</ele>
        <time>2019-03-16T10:47:15Z</time>
      </trkpt>
      <trkpt lat="43.47353" lon="2.32051">
        <ele>748</ele>
        <time>2019-03-16T10:47:18Z</time>
      </trkpt>
      <trkpt lat="43.47358" lon="2.32047">
        <ele>748</ele>
        <time>2019-03-16T10:47:20Z</time>
      </trkpt>
      <trkpt lat="43.47367" lon="2.32044">
        <ele>748</ele>
        <time>2019-03-16T10:47:24Z</time>
      </trkpt>
      <trkpt lat="43.4738" lon="2.32041">
        <ele>748</ele>
        <time>2019-03-16T10:47:28Z</time>
      </trkpt>
      <trkpt lat="43.47385" lon="2.32037">
        <ele>747</ele>
        <time>2019-03-16T10:47:29Z</time>
      </trkpt>
      <trkpt lat="43.47389" lon="2.32032">
        <ele>747</ele>
        <time>2019-03-16T10:47:30Z</time>
      </trkpt>
      <trkpt lat="43.47396" lon="2.32022">
        <ele>747</ele>
        <time>2019-03-16T10:47:32Z</time>
      </trkpt>
      <trkpt lat="43.47398" lon="2.32019">
        <ele>746</ele>
        <time>2019-03-16T10:47:33Z</time>
      </trkpt>
      <trkpt lat="43.47405" lon="2.32018">
        <ele>746</ele>
        <time>2019-03-16T10:47:35Z</time>
      </trkpt>
      <trkpt lat="43.47412" lon="2.32018">
        <ele>746</ele>
        <time>2019-03-16T10:47:37Z</time>
      </trkpt>
      <trkpt lat="43.47424" lon="2.3202">
        <ele>747</ele>
        <time>2019-03-16T10:47:39Z</time>
      </trkpt>
      <trkpt lat="43.47449" lon="2.32027">
        <ele>747</ele>
        <time>2019-03-16T10:47:42Z</time>
      </trkpt>
      <trkpt lat="43.47456" lon="2.32025">
        <ele>748</ele>
        <time>2019-03-16T10:47:43Z</time>
      </trkpt>
      <trkpt lat="43.47463" lon="2.32018">
        <ele>748</ele>
        <time>2019-03-16T10:47:45Z</time>
      </trkpt>
      <trkpt lat="43.47472" lon="2.32009">
        <ele>749</ele>
        <time>2019-03-16T10:47:48Z</time>
      </trkpt>
      <trkpt lat="43.47475" lon="2.32003">
        <ele>749</ele>
        <time>2019-03-16T10:47:50Z</time>
      </trkpt>
      <trkpt lat="43.47476" lon="2.31999">
        <ele>749</ele>
        <time>2019-03-16T10:47:51Z</time>
      </trkpt>
      <trkpt lat="43.47478" lon="2.31986">
        <ele>750</ele>
        <time>2019-03-16T10:47:54Z</time>
      </trkpt>
      <trkpt lat="43.47479" lon="2.31982">
        <ele>750</ele>
        <time>2019-03-16T10:47:55Z</time>
      </trkpt>
      <trkpt lat="43.47479" lon="2.31973">
        <ele>751</ele>
        <time>2019-03-16T10:47:57Z</time>
      </trkpt>
      <trkpt lat="43.47477" lon="2.31963">
        <ele>751</ele>
        <time>2019-03-16T10:47:59Z</time>
      </trkpt>
      <trkpt lat="43.47475" lon="2.31956">
        <ele>752</ele>
        <time>2019-03-16T10:48:01Z</time>
      </trkpt>
      <trkpt lat="43.47474" lon="2.3195">
        <ele>753</ele>
        <time>2019-03-16T10:48:03Z</time>
      </trkpt>
      <trkpt lat="43.47473" lon="2.31947">
        <ele>753</ele>
        <time>2019-03-16T10:48:04Z</time>
      </trkpt>
      <trkpt lat="43.47473" lon="2.31943">
        <ele>753</ele>
        <time>2019-03-16T10:48:05Z</time>
      </trkpt>
      <trkpt lat="43.4747" lon="2.31933">
        <ele>754</ele>
        <time>2019-03-16T10:48:09Z</time>
      </trkpt>
      <trkpt lat="43.47469" lon="2.31931">
        <ele>755</ele>
        <time>2019-03-16T10:48:10Z</time>
      </trkpt>
      <trkpt lat="43.47465" lon="2.31923">
        <ele>755</ele>
        <time>2019-03-16T10:48:13Z</time>
      </trkpt>
      <trkpt lat="43.47461" lon="2.31918">
        <ele>756</ele>
        <time>2019-03-16T10:48:15Z</time>
      </trkpt>
      <trkpt lat="43.47458" lon="2.31915">
        <ele>757</ele>
        <time>2019-03-16T10:48:17Z</time>
      </trkpt>
      <trkpt lat="43.47455" lon="2.3191">
        <ele>757</ele>
        <time>2019-03-16T10:48:20Z</time>
      </trkpt>
      <trkpt lat="43.47453" lon="2.31908">
        <ele>757</ele>
        <time>2019-03-16T10:48:21Z</time>
      </trkpt>
      <trkpt lat="43.4745" lon="2.31906">
        <ele>758</ele>
        <time>2019-03-16T10:48:23Z</time>
      </trkpt>
      <trkpt lat="43.47445" lon="2.31901">
        <ele>758</ele>
        <time>2019-03-16T10:48:27Z</time>
      </trkpt>
      <trkpt lat="43.47444" lon="2.31901">
        <ele>759</ele>
        <time>2019-03-16T10:48:28Z</time>
      </trkpt>
      <trkpt lat="43.47442" lon="2.31899">
        <ele>759</ele>
        <time>2019-03-16T10:48:30Z</time>
      </trkpt>
      <trkpt lat="43.47441" lon="2.31898">
        <ele>759</ele>
        <time>2019-03-16T10:48:31Z</time>
      </trkpt>
      <trkpt lat="43.47439" lon="2.31893">
        <ele>760</ele>
        <time>2019-03-16T10:48:34Z</time>
      </trkpt>
      <trkpt lat="43.47438" lon="2.31893">
        <ele>760</ele>
        <time>2019-03-16T10:48:35Z</time>
      </trkpt>
      <trkpt lat="43.47435" lon="2.3189">
        <ele>761</ele>
        <time>2019-03-16T10:48:38Z</time>
      </trkpt>
      <trkpt lat="43.4743" lon="2.31885">
        <ele>763</ele>
        <time>2019-03-16T10:48:42Z</time>
      </trkpt>
      <trkpt lat="43.47428" lon="2.31884">
        <ele>763</ele>
        <time>2019-03-16T10:48:44Z</time>
      </trkpt>
      <trkpt lat="43.47427" lon="2.31884">
        <ele>764</ele>
        <time>2019-03-16T10:48:45Z</time>
      </trkpt>
      <trkpt lat="43.47426" lon="2.31882">
        <ele>764</ele>
        <time>2019-03-16T10:48:46Z</time>
      </trkpt>
      <trkpt lat="43.47423" lon="2.31879">
        <ele>765</ele>
        <time>2019-03-16T10:48:49Z</time>
      </trkpt>
      <trkpt lat="43.47421" lon="2.31876">
        <ele>765</ele>
        <time>2019-03-16T10:48:51Z</time>
      </trkpt>
      <trkpt lat="43.47415" lon="2.3187">
        <ele>766</ele>
        <time>2019-03-16T10:48:57Z</time>
      </trkpt>
      <trkpt lat="43.47413" lon="2.31869">
        <ele>766</ele>
        <time>2019-03-16T10:48:58Z</time>
      </trkpt>
      <trkpt lat="43.47406" lon="2.31863">
        <ele>767</ele>
        <time>2019-03-16T10:49:03Z</time>
      </trkpt>
      <trkpt lat="43.47404" lon="2.31862">
        <ele>767</ele>
        <time>2019-03-16T10:49:04Z</time>
      </trkpt>
      <trkpt lat="43.47391" lon="2.31855">
        <ele>767</ele>
        <time>2019-03-16T10:49:10Z</time>
      </trkpt>
      <trkpt lat="43.47383" lon="2.31854">
        <ele>768</ele>
        <time>2019-03-16T10:49:14Z</time>
      </trkpt>
      <trkpt lat="43.4738" lon="2.31853">
        <ele>768</ele>
        <time>2019-03-16T10:49:16Z</time>
      </trkpt>
      <trkpt lat="43.47371" lon="2.31852">
        <ele>769</ele>
        <time>2019-03-16T10:49:21Z</time>
      </trkpt>
      <trkpt lat="43.47368" lon="2.31852">
        <ele>770</ele>
        <time>2019-03-16T10:49:23Z</time>
      </trkpt>
      <trkpt lat="43.47361" lon="2.31851">
        <ele>770</ele>
        <time>2019-03-16T10:49:27Z</time>
      </trkpt>
      <trkpt lat="43.47358" lon="2.3185">
        <ele>770</ele>
        <time>2019-03-16T10:49:29Z</time>
      </trkpt>
      <trkpt lat="43.4735" lon="2.31844">
        <ele>771</ele>
        <time>2019-03-16T10:49:34Z</time>
      </trkpt>
      <trkpt lat="43.47344" lon="2.3184">
        <ele>771</ele>
        <time>2019-03-16T10:49:38Z</time>
      </trkpt>
      <trkpt lat="43.4734" lon="2.31836">
        <ele>772</ele>
        <time>2019-03-16T10:49:41Z</time>
      </trkpt>
      <trkpt lat="43.47337" lon="2.31832">
        <ele>772</ele>
        <time>2019-03-16T10:49:44Z</time>
      </trkpt>
      <trkpt lat="43.47333" lon="2.31826">
        <ele>773</ele>
        <time>2019-03-16T10:49:48Z</time>
      </trkpt>
      <trkpt lat="43.47332" lon="2.31824">
        <ele>773</ele>
        <time>2019-03-16T10:49:49Z</time>
      </trkpt>
      <trkpt lat="43.47326" lon="2.31816">
        <ele>775</ele>
        <time>2019-03-16T10:49:54Z</time>
      </trkpt>
      <trkpt lat="43.47325" lon="2.31814">
        <ele>775</ele>
        <time>2019-03-16T10:49:55Z</time>
      </trkpt>
      <trkpt lat="43.47323" lon="2.31812">
        <ele>776</ele>
        <time>2019-03-16T10:49:57Z</time>
      </trkpt>
      <trkpt lat="43.47318" lon="2.31805">
        <ele>777</ele>
        <time>2019-03-16T10:50:01Z</time>
      </trkpt>
      <trkpt lat="43.47317" lon="2.31804">
        <ele>777</ele>
        <time>2019-03-16T10:50:02Z</time>
      </trkpt>
      <trkpt lat="43.47311" lon="2.31797">
        <ele>778</ele>
        <time>2019-03-16T10:50:06Z</time>
      </trkpt>
      <trkpt lat="43.47307" lon="2.31793">
        <ele>778</ele>
        <time>2019-03-16T10:50:09Z</time>
      </trkpt>
      <trkpt lat="43.47305" lon="2.31791">
        <ele>779</ele>
        <time>2019-03-16T10:50:11Z</time>
      </trkpt>
      <trkpt lat="43.473" lon="2.31785">
        <ele>780</ele>
        <time>2019-03-16T10:50:15Z</time>
      </trkpt>
      <trkpt lat="43.47299" lon="2.31784">
        <ele>780</ele>
        <time>2019-03-16T10:50:16Z</time>
      </trkpt>
      <trkpt lat="43.4729" lon="2.31771">
        <ele>781</ele>
        <time>2019-03-16T10:50:22Z</time>
      </trkpt>
      <trkpt lat="43.47289" lon="2.31767">
        <ele>781</ele>
        <time>2019-03-16T10:50:24Z</time>
      </trkpt>
      <trkpt lat="43.47287" lon="2.31759">
        <ele>782</ele>
        <time>2019-03-16T10:50:29Z</time>
      </trkpt>
      <trkpt lat="43.47284" lon="2.3175">
        <ele>782</ele>
        <time>2019-03-16T10:50:33Z</time>
      </trkpt>
      <trkpt lat="43.47283" lon="2.31746">
        <ele>782</ele>
        <time>2019-03-16T10:50:35Z</time>
      </trkpt>
      <trkpt lat="43.47282" lon="2.31741">
        <ele>783</ele>
        <time>2019-03-16T10:50:37Z</time>
      </trkpt>
      <trkpt lat="43.4728" lon="2.31731">
        <ele>783</ele>
        <time>2019-03-16T10:50:40Z</time>
      </trkpt>
      <trkpt lat="43.47279" lon="2.31726">
        <ele>783</ele>
        <time>2019-03-16T10:50:42Z</time>
      </trkpt>
      <trkpt lat="43.47277" lon="2.31717">
        <ele>784</ele>
        <time>2019-03-16T10:50:45Z</time>
      </trkpt>
      <trkpt lat="43.47277" lon="2.31715">
        <ele>784</ele>
        <time>2019-03-16T10:50:46Z</time>
      </trkpt>
      <trkpt lat="43.47275" lon="2.31706">
        <ele>784</ele>
        <time>2019-03-16T10:50:49Z</time>
      </trkpt>
      <trkpt lat="43.47274" lon="2.31698">
        <ele>785</ele>
        <time>2019-03-16T10:50:52Z</time>
      </trkpt>
      <trkpt lat="43.47274" lon="2.31691">
        <ele>786</ele>
        <time>2019-03-16T10:50:55Z</time>
      </trkpt>
      <trkpt lat="43.47273" lon="2.31683">
        <ele>787</ele>
        <time>2019-03-16T10:50:58Z</time>
      </trkpt>
      <trkpt lat="43.47272" lon="2.3168">
        <ele>787</ele>
        <time>2019-03-16T10:50:59Z</time>
      </trkpt>
      <trkpt lat="43.47272" lon="2.31671">
        <ele>787</ele>
        <time>2019-03-16T10:51:03Z</time>
      </trkpt>
      <trkpt lat="43.47272" lon="2.31668">
        <ele>788</ele>
        <time>2019-03-16T10:51:05Z</time>
      </trkpt>
      <trkpt lat="43.47272" lon="2.3166">
        <ele>788</ele>
        <time>2019-03-16T10:51:10Z</time>
      </trkpt>
      <trkpt lat="43.47272" lon="2.31656">
        <ele>789</ele>
        <time>2019-03-16T10:51:14Z</time>
      </trkpt>
      <trkpt lat="43.47272" lon="2.31653">
        <ele>789</ele>
        <time>2019-03-16T10:51:17Z</time>
      </trkpt>
      <trkpt lat="43.47272" lon="2.31652">
        <ele>789</ele>
        <time>2019-03-16T10:51:20Z</time>
      </trkpt>
      <trkpt lat="43.47275" lon="2.31643">
        <ele>789</ele>
        <time>2019-03-16T10:51:24Z</time>
      </trkpt>
      <trkpt lat="43.47286" lon="2.3163">
        <ele>787</ele>
        <time>2019-03-16T10:51:28Z</time>
      </trkpt>
      <trkpt lat="43.47289" lon="2.31627">
        <ele>787</ele>
        <time>2019-03-16T10:51:29Z</time>
      </trkpt>
      <trkpt lat="43.47297" lon="2.3162">
        <ele>786</ele>
        <time>2019-03-16T10:51:31Z</time>
      </trkpt>
      <trkpt lat="43.47312" lon="2.31609">
        <ele>785</ele>
        <time>2019-03-16T10:51:34Z</time>
      </trkpt>
      <trkpt lat="43.47317" lon="2.31606">
        <ele>785</ele>
        <time>2019-03-16T10:51:35Z</time>
      </trkpt>
      <trkpt lat="43.47327" lon="2.31608">
        <ele>783</ele>
        <time>2019-03-16T10:51:37Z</time>
      </trkpt>
      <trkpt lat="43.47337" lon="2.31612">
        <ele>783</ele>
        <time>2019-03-16T10:51:40Z</time>
      </trkpt>
      <trkpt lat="43.47344" lon="2.31613">
        <ele>784</ele>
        <time>2019-03-16T10:51:44Z</time>
      </trkpt>
      <trkpt lat="43.47356" lon="2.31614">
        <ele>784</ele>
        <time>2019-03-16T10:51:49Z</time>
      </trkpt>
      <trkpt lat="43.47371" lon="2.31614">
        <ele>783</ele>
        <time>2019-03-16T10:51:54Z</time>
      </trkpt>
      <trkpt lat="43.47379" lon="2.31614">
        <ele>783</ele>
        <time>2019-03-16T10:51:58Z</time>
      </trkpt>
      <trkpt lat="43.47384" lon="2.31614">
        <ele>783</ele>
        <time>2019-03-16T10:52:02Z</time>
      </trkpt>
      <trkpt lat="43.47385" lon="2.31615">
        <ele>783</ele>
        <time>2019-03-16T10:52:03Z</time>
      </trkpt>
      <trkpt lat="43.474" lon="2.31619">
        <ele>784</ele>
        <time>2019-03-16T10:52:08Z</time>
      </trkpt>
      <trkpt lat="43.47404" lon="2.31619">
        <ele>784</ele>
        <time>2019-03-16T10:52:09Z</time>
      </trkpt>
      <trkpt lat="43.47425" lon="2.31626">
        <ele>784</ele>
        <time>2019-03-16T10:52:14Z</time>
      </trkpt>
      <trkpt lat="43.47434" lon="2.31627">
        <ele>785</ele>
        <time>2019-03-16T10:52:16Z</time>
      </trkpt>
      <trkpt lat="43.47437" lon="2.31627">
        <ele>785</ele>
        <time>2019-03-16T10:52:17Z</time>
      </trkpt>
      <trkpt lat="43.47444" lon="2.31629">
        <ele>785</ele>
        <time>2019-03-16T10:52:19Z</time>
      </trkpt>
      <trkpt lat="43.47447" lon="2.31629">
        <ele>786</ele>
        <time>2019-03-16T10:52:20Z</time>
      </trkpt>
      <trkpt lat="43.47457" lon="2.31629">
        <ele>787</ele>
        <time>2019-03-16T10:52:24Z</time>
      </trkpt>
      <trkpt lat="43.4746" lon="2.31628">
        <ele>787</ele>
        <time>2019-03-16T10:52:25Z</time>
      </trkpt>
      <trkpt lat="43.47463" lon="2.31627">
        <ele>787</ele>
        <time>2019-03-16T10:52:26Z</time>
      </trkpt>
      <trkpt lat="43.47469" lon="2.31625">
        <ele>787</ele>
        <time>2019-03-16T10:52:29Z</time>
      </trkpt>
      <trkpt lat="43.47485" lon="2.31617">
        <ele>787</ele>
        <time>2019-03-16T10:52:34Z</time>
      </trkpt>
      <trkpt lat="43.47488" lon="2.31615">
        <ele>788</ele>
        <time>2019-03-16T10:52:35Z</time>
      </trkpt>
      <trkpt lat="43.47493" lon="2.31611">
        <ele>788</ele>
        <time>2019-03-16T10:52:39Z</time>
      </trkpt>
      <trkpt lat="43.47495" lon="2.3161">
        <ele>788</ele>
        <time>2019-03-16T10:52:42Z</time>
      </trkpt>
      <trkpt lat="43.47507" lon="2.31608">
        <ele>788</ele>
        <time>2019-03-16T10:56:17Z</time>
      </trkpt>
      <trkpt lat="43.4751" lon="2.31607">
        <ele>788</ele>
        <time>2019-03-16T10:56:18Z</time>
      </trkpt>
      <trkpt lat="43.47531" lon="2.31599">
        <ele>787</ele>
        <time>2019-03-16T10:56:23Z</time>
      </trkpt>
      <trkpt lat="43.47546" lon="2.31592">
        <ele>786</ele>
        <time>2019-03-16T10:56:26Z</time>
      </trkpt>
      <trkpt lat="43.47551" lon="2.3159">
        <ele>786</ele>
        <time>2019-03-16T10:56:27Z</time>
      </trkpt>
      <trkpt lat="43.47557" lon="2.31587">
        <ele>785</ele>
        <time>2019-03-16T10:56:28Z</time>
      </trkpt>
      <trkpt lat="43.4757" lon="2.31581">
        <ele>785</ele>
        <time>2019-03-16T10:56:30Z</time>
      </trkpt>
      <trkpt lat="43.47589" lon="2.31572">
        <ele>784</ele>
        <time>2019-03-16T10:56:33Z</time>
      </trkpt>
      <trkpt lat="43.47596" lon="2.31569">
        <ele>783</ele>
        <time>2019-03-16T10:56:34Z</time>
      </trkpt>
      <trkpt lat="43.47603" lon="2.31567">
        <ele>783</ele>
        <time>2019-03-16T10:56:35Z</time>
      </trkpt>
      <trkpt lat="43.47618" lon="2.31565">
        <ele>783</ele>
        <time>2019-03-16T10:56:37Z</time>
      </trkpt>
      <trkpt lat="43.47632" lon="2.31561">
        <ele>782</ele>
        <time>2019-03-16T10:56:39Z</time>
      </trkpt>
      <trkpt lat="43.47638" lon="2.31558">
        <ele>782</ele>
        <time>2019-03-16T10:56:40Z</time>
      </trkpt>
      <trkpt lat="43.47661" lon="2.31546">
        <ele>782</ele>
        <time>2019-03-16T10:56:44Z</time>
      </trkpt>
      <trkpt lat="43.47672" lon="2.31539">
        <ele>781</ele>
        <time>2019-03-16T10:56:46Z</time>
      </trkpt>
      <trkpt lat="43.47685" lon="2.31531">
        <ele>781</ele>
        <time>2019-03-16T10:56:49Z</time>
      </trkpt>
      <trkpt lat="43.4769" lon="2.31529">
        <ele>780</ele>
        <time>2019-03-16T10:56:50Z</time>
      </trkpt>
      <trkpt lat="43.47705" lon="2.31525">
        <ele>780</ele>
        <time>2019-03-16T10:56:53Z</time>
      </trkpt>
      <trkpt lat="43.47716" lon="2.31526">
        <ele>779</ele>
        <time>2019-03-16T10:56:55Z</time>
      </trkpt>
      <trkpt lat="43.47721" lon="2.31528">
        <ele>779</ele>
        <time>2019-03-16T10:56:56Z</time>
      </trkpt>
      <trkpt lat="43.47726" lon="2.31529">
        <ele>778</ele>
        <time>2019-03-16T10:56:57Z</time>
      </trkpt>
      <trkpt lat="43.47738" lon="2.31536">
        <ele>778</ele>
        <time>2019-03-16T10:57:00Z</time>
      </trkpt>
      <trkpt lat="43.47761" lon="2.31548">
        <ele>778</ele>
        <time>2019-03-16T10:57:06Z</time>
      </trkpt>
      <trkpt lat="43.47764" lon="2.3155">
        <ele>778</ele>
        <time>2019-03-16T10:57:07Z</time>
      </trkpt>
      <trkpt lat="43.47776" lon="2.31559">
        <ele>778</ele>
        <time>2019-03-16T10:57:10Z</time>
      </trkpt>
      <trkpt lat="43.4778" lon="2.31562">
        <ele>778</ele>
        <time>2019-03-16T10:57:11Z</time>
      </trkpt>
      <trkpt lat="43.4779" lon="2.31573">
        <ele>778</ele>
        <time>2019-03-16T10:57:14Z</time>
      </trkpt>
      <trkpt lat="43.47796" lon="2.31582">
        <ele>779</ele>
        <time>2019-03-16T10:57:16Z</time>
      </trkpt>
      <trkpt lat="43.47799" lon="2.31586">
        <ele>779</ele>
        <time>2019-03-16T10:57:17Z</time>
      </trkpt>
      <trkpt lat="43.47804" lon="2.31595">
        <ele>780</ele>
        <time>2019-03-16T10:57:19Z</time>
      </trkpt>
      <trkpt lat="43.47806" lon="2.31599">
        <ele>780</ele>
        <time>2019-03-16T10:57:20Z</time>
      </trkpt>
      <trkpt lat="43.47808" lon="2.31603">
        <ele>781</ele>
        <time>2019-03-16T10:57:21Z</time>
      </trkpt>
      <trkpt lat="43.4781" lon="2.31607">
        <ele>782</ele>
        <time>2019-03-16T10:57:22Z</time>
      </trkpt>
      <trkpt lat="43.47813" lon="2.31612">
        <ele>782</ele>
        <time>2019-03-16T10:57:23Z</time>
      </trkpt>
      <trkpt lat="43.47815" lon="2.31617">
        <ele>782</ele>
        <time>2019-03-16T10:57:24Z</time>
      </trkpt>
      <trkpt lat="43.47818" lon="2.31621">
        <ele>783</ele>
        <time>2019-03-16T10:57:25Z</time>
      </trkpt>
      <trkpt lat="43.4782" lon="2.31626">
        <ele>783</ele>
        <time>2019-03-16T10:57:26Z</time>
      </trkpt>
      <trkpt lat="43.47824" lon="2.31634">
        <ele>784</ele>
        <time>2019-03-16T10:57:28Z</time>
      </trkpt>
      <trkpt lat="43.47828" lon="2.31641">
        <ele>785</ele>
        <time>2019-03-16T10:57:30Z</time>
      </trkpt>
      <trkpt lat="43.47831" lon="2.31645">
        <ele>785</ele>
        <time>2019-03-16T10:57:31Z</time>
      </trkpt>
      <trkpt lat="43.47839" lon="2.31659">
        <ele>786</ele>
        <time>2019-03-16T10:57:34Z</time>
      </trkpt>
      <trkpt lat="43.47843" lon="2.31663">
        <ele>786</ele>
        <time>2019-03-16T10:57:35Z</time>
      </trkpt>
      <trkpt lat="43.47852" lon="2.31675">
        <ele>787</ele>
        <time>2019-03-16T10:57:38Z</time>
      </trkpt>
      <trkpt lat="43.47865" lon="2.31692">
        <ele>787</ele>
        <time>2019-03-16T10:57:42Z</time>
      </trkpt>
      <trkpt lat="43.47874" lon="2.317">
        <ele>787</ele>
        <time>2019-03-16T10:57:44Z</time>
      </trkpt>
      <trkpt lat="43.47888" lon="2.31711">
        <ele>786</ele>
        <time>2019-03-16T10:57:47Z</time>
      </trkpt>
      <trkpt lat="43.47906" lon="2.31725">
        <ele>785</ele>
        <time>2019-03-16T10:57:50Z</time>
      </trkpt>
      <trkpt lat="43.47913" lon="2.3173">
        <ele>784</ele>
        <time>2019-03-16T10:57:51Z</time>
      </trkpt>
      <trkpt lat="43.47919" lon="2.31736">
        <ele>783</ele>
        <time>2019-03-16T10:57:52Z</time>
      </trkpt>
      <trkpt lat="43.47926" lon="2.31743">
        <ele>782</ele>
        <time>2019-03-16T10:57:53Z</time>
      </trkpt>
      <trkpt lat="43.47934" lon="2.3175">
        <ele>781</ele>
        <time>2019-03-16T10:57:54Z</time>
      </trkpt>
      <trkpt lat="43.47941" lon="2.31757">
        <ele>780</ele>
        <time>2019-03-16T10:57:55Z</time>
      </trkpt>
      <trkpt lat="43.47948" lon="2.31766">
        <ele>779</ele>
        <time>2019-03-16T10:57:56Z</time>
      </trkpt>
      <trkpt lat="43.47954" lon="2.31773">
        <ele>778</ele>
        <time>2019-03-16T10:57:57Z</time>
      </trkpt>
      <trkpt lat="43.47961" lon="2.3178">
        <ele>778</ele>
        <time>2019-03-16T10:57:58Z</time>
      </trkpt>
      <trkpt lat="43.47967" lon="2.31785">
        <ele>778</ele>
        <time>2019-03-16T10:57:59Z</time>
      </trkpt>
      <trkpt lat="43.47977" lon="2.31793">
        <ele>779</ele>
        <time>2019-03-16T10:58:01Z</time>
      </trkpt>
      <trkpt lat="43.47984" lon="2.318">
        <ele>780</ele>
        <time>2019-03-16T10:58:03Z</time>
      </trkpt>
      <trkpt lat="43.47989" lon="2.31806">
        <ele>781</ele>
        <time>2019-03-16T10:58:05Z</time>
      </trkpt>
      <trkpt lat="43.47991" lon="2.31809">
        <ele>782</ele>
        <time>2019-03-16T10:58:06Z</time>
      </trkpt>
      <trkpt lat="43.47993" lon="2.31812">
        <ele>782</ele>
        <time>2019-03-16T10:58:07Z</time>
      </trkpt>
      <trkpt lat="43.47995" lon="2.31814">
        <ele>783</ele>
        <time>2019-03-16T10:58:08Z</time>
      </trkpt>
      <trkpt lat="43.47998" lon="2.31817">
        <ele>784</ele>
        <time>2019-03-16T10:58:10Z</time>
      </trkpt>
      <trkpt lat="43.47999" lon="2.31818">
        <ele>784</ele>
        <time>2019-03-16T10:58:11Z</time>
      </trkpt>
      <trkpt lat="43.48001" lon="2.31817">
        <ele>784</ele>
        <time>2019-03-16T10:58:12Z</time>
      </trkpt>
      <trkpt lat="43.48008" lon="2.31812">
        <ele>785</ele>
        <time>2019-03-16T10:58:17Z</time>
      </trkpt>
      <trkpt lat="43.4801" lon="2.31811">
        <ele>785</ele>
        <time>2019-03-16T10:58:18Z</time>
      </trkpt>
      <trkpt lat="43.48013" lon="2.31809">
        <ele>787</ele>
        <time>2019-03-16T10:58:21Z</time>
      </trkpt>
      <trkpt lat="43.48014" lon="2.31808">
        <ele>787</ele>
        <time>2019-03-16T10:58:22Z</time>
      </trkpt>
      <trkpt lat="43.48014" lon="2.31807">
        <ele>787</ele>
        <time>2019-03-16T10:58:23Z</time>
      </trkpt>
      <trkpt lat="43.48015" lon="2.31806">
        <ele>788</ele>
        <time>2019-03-16T10:58:24Z</time>
      </trkpt>
      <trkpt lat="43.48017" lon="2.31801">
        <ele>789</ele>
        <time>2019-03-16T10:58:27Z</time>
      </trkpt>
      <trkpt lat="43.48022" lon="2.31793">
        <ele>790</ele>
        <time>2019-03-16T10:58:33Z</time>
      </trkpt>
      <trkpt lat="43.48025" lon="2.31788">
        <ele>791</ele>
        <time>2019-03-16T10:58:40Z</time>
      </trkpt>
      <trkpt lat="43.48026" lon="2.31785">
        <ele>791</ele>
        <time>2019-03-16T10:58:42Z</time>
      </trkpt>
      <trkpt lat="43.48032" lon="2.31776">
        <ele>792</ele>
        <time>2019-03-16T10:58:48Z</time>
      </trkpt>
      <trkpt lat="43.48038" lon="2.31766">
        <ele>792</ele>
        <time>2019-03-16T10:58:55Z</time>
      </trkpt>
      <trkpt lat="43.48045" lon="2.31747">
        <ele>791</ele>
        <time>2019-03-16T10:59:03Z</time>
      </trkpt>
      <trkpt lat="43.48046" lon="2.31746">
        <ele>791</ele>
        <time>2019-03-16T10:59:04Z</time>
      </trkpt>
      <trkpt lat="43.48051" lon="2.31741">
        <ele>791</ele>
        <time>2019-03-16T10:59:06Z</time>
      </trkpt>
      <trkpt lat="43.48054" lon="2.31735">
        <ele>790</ele>
        <time>2019-03-16T10:59:08Z</time>
      </trkpt>
      <trkpt lat="43.48054" lon="2.31733">
        <ele>790</ele>
        <time>2019-03-16T10:59:09Z</time>
      </trkpt>
      <trkpt lat="43.48055" lon="2.31732">
        <ele>790</ele>
        <time>2019-03-16T10:59:10Z</time>
      </trkpt>
      <trkpt lat="43.48071" lon="2.31713">
        <ele>789</ele>
        <time>2019-03-16T11:00:56Z</time>
      </trkpt>
      <trkpt lat="43.48071" lon="2.31713">
        <ele>789</ele>
        <time>2019-03-16T11:00:57Z</time>
      </trkpt>
      <trkpt lat="43.48072" lon="2.31712">
        <ele>789</ele>
        <time>2019-03-16T11:00:58Z</time>
      </trkpt>
      <trkpt lat="43.48075" lon="2.31712">
        <ele>789</ele>
        <time>2019-03-16T11:01:00Z</time>
      </trkpt>
      <trkpt lat="43.48076" lon="2.31711">
        <ele>789</ele>
        <time>2019-03-16T11:01:02Z</time>
      </trkpt>
      <trkpt lat="43.48077" lon="2.31712">
        <ele>789</ele>
        <time>2019-03-16T11:02:25Z</time>
      </trkpt>
      <trkpt lat="43.48077" lon="2.31713">
        <ele>789</ele>
        <time>2019-03-16T11:02:27Z</time>
      </trkpt>
      <trkpt lat="43.48075" lon="2.31717">
        <ele>789</ele>
        <time>2019-03-16T11:02:42Z</time>
      </trkpt>
      <trkpt lat="43.48074" lon="2.31718">
        <ele>789</ele>
        <time>2019-03-16T11:02:43Z</time>
      </trkpt>
      <trkpt lat="43.48067" lon="2.31721">
        <ele>790</ele>
        <time>2019-03-16T11:02:51Z</time>
      </trkpt>
      <trkpt lat="43.48065" lon="2.31724">
        <ele>790</ele>
        <time>2019-03-16T11:02:53Z</time>
      </trkpt>
      <trkpt lat="43.48062" lon="2.3173">
        <ele>791</ele>
        <time>2019-03-16T11:02:57Z</time>
      </trkpt>
      <trkpt lat="43.48061" lon="2.31731">
        <ele>791</ele>
        <time>2019-03-16T11:02:58Z</time>
      </trkpt>
      <trkpt lat="43.48059" lon="2.31739">
        <ele>791</ele>
        <time>2019-03-16T11:03:02Z</time>
      </trkpt>
      <trkpt lat="43.48059" lon="2.31741">
        <ele>791</ele>
        <time>2019-03-16T11:03:03Z</time>
      </trkpt>
      <trkpt lat="43.48055" lon="2.31748">
        <ele>792</ele>
        <time>2019-03-16T11:03:07Z</time>
      </trkpt>
      <trkpt lat="43.4805" lon="2.31757">
        <ele>791</ele>
        <time>2019-03-16T11:03:13Z</time>
      </trkpt>
      <trkpt lat="43.48043" lon="2.3177">
        <ele>791</ele>
        <time>2019-03-16T11:03:18Z</time>
      </trkpt>
      <trkpt lat="43.48039" lon="2.31782">
        <ele>790</ele>
        <time>2019-03-16T11:03:22Z</time>
      </trkpt>
      <trkpt lat="43.48032" lon="2.31791">
        <ele>788</ele>
        <time>2019-03-16T11:03:25Z</time>
      </trkpt>
      <trkpt lat="43.48029" lon="2.31794">
        <ele>788</ele>
        <time>2019-03-16T11:03:26Z</time>
      </trkpt>
      <trkpt lat="43.48025" lon="2.31796">
        <ele>787</ele>
        <time>2019-03-16T11:03:27Z</time>
      </trkpt>
      <trkpt lat="43.48017" lon="2.31797">
        <ele>786</ele>
        <time>2019-03-16T11:03:29Z</time>
      </trkpt>
      <trkpt lat="43.48014" lon="2.31795">
        <ele>784</ele>
        <time>2019-03-16T11:03:30Z</time>
      </trkpt>
      <trkpt lat="43.48006" lon="2.3179">
        <ele>783</ele>
        <time>2019-03-16T11:03:32Z</time>
      </trkpt>
      <trkpt lat="43.47996" lon="2.31782">
        <ele>782</ele>
        <time>2019-03-16T11:03:34Z</time>
      </trkpt>
      <trkpt lat="43.4799" lon="2.31777">
        <ele>782</ele>
        <time>2019-03-16T11:03:35Z</time>
      </trkpt>
      <trkpt lat="43.47984" lon="2.31772">
        <ele>781</ele>
        <time>2019-03-16T11:03:36Z</time>
      </trkpt>
      <trkpt lat="43.47979" lon="2.31766">
        <ele>781</ele>
        <time>2019-03-16T11:03:37Z</time>
      </trkpt>
      <trkpt lat="43.47968" lon="2.31757">
        <ele>779</ele>
        <time>2019-03-16T11:03:39Z</time>
      </trkpt>
      <trkpt lat="43.4795" lon="2.31744">
        <ele>778</ele>
        <time>2019-03-16T11:03:43Z</time>
      </trkpt>
      <trkpt lat="43.47942" lon="2.3174">
        <ele>780</ele>
        <time>2019-03-16T11:03:46Z</time>
      </trkpt>
      <trkpt lat="43.47939" lon="2.31738">
        <ele>781</ele>
        <time>2019-03-16T11:03:48Z</time>
      </trkpt>
      <trkpt lat="43.47937" lon="2.31737">
        <ele>781</ele>
        <time>2019-03-16T11:03:49Z</time>
      </trkpt>
      <trkpt lat="43.47934" lon="2.31736">
        <ele>781</ele>
        <time>2019-03-16T11:03:50Z</time>
      </trkpt>
      <trkpt lat="43.47931" lon="2.31734">
        <ele>782</ele>
        <time>2019-03-16T11:03:51Z</time>
      </trkpt>
      <trkpt lat="43.47925" lon="2.31728">
        <ele>783</ele>
        <time>2019-03-16T11:03:54Z</time>
      </trkpt>
      <trkpt lat="43.47923" lon="2.31727">
        <ele>783</ele>
        <time>2019-03-16T11:03:55Z</time>
      </trkpt>
      <trkpt lat="43.47916" lon="2.31721">
        <ele>784</ele>
        <time>2019-03-16T11:03:58Z</time>
      </trkpt>
      <trkpt lat="43.47913" lon="2.3172">
        <ele>784</ele>
        <time>2019-03-16T11:03:59Z</time>
      </trkpt>
      <trkpt lat="43.47909" lon="2.31716">
        <ele>785</ele>
        <time>2019-03-16T11:04:01Z</time>
      </trkpt>
      <trkpt lat="43.47907" lon="2.31714">
        <ele>785</ele>
        <time>2019-03-16T11:04:02Z</time>
      </trkpt>
      <trkpt lat="43.47902" lon="2.31708">
        <ele>786</ele>
        <time>2019-03-16T11:04:04Z</time>
      </trkpt>
      <trkpt lat="43.47896" lon="2.31703">
        <ele>787</ele>
        <time>2019-03-16T11:04:06Z</time>
      </trkpt>
      <trkpt lat="43.4789" lon="2.31696">
        <ele>787</ele>
        <time>2019-03-16T11:04:09Z</time>
      </trkpt>
      <trkpt lat="43.47885" lon="2.31691">
        <ele>788</ele>
        <time>2019-03-16T11:04:11Z</time>
      </trkpt>
      <trkpt lat="43.47878" lon="2.31682">
        <ele>788</ele>
        <time>2019-03-16T11:04:14Z</time>
      </trkpt>
      <trkpt lat="43.47875" lon="2.31677">
        <ele>788</ele>
        <time>2019-03-16T11:04:16Z</time>
      </trkpt>
      <trkpt lat="43.47868" lon="2.31671">
        <ele>788</ele>
        <time>2019-03-16T11:04:19Z</time>
      </trkpt>
      <trkpt lat="43.47862" lon="2.31662">
        <ele>788</ele>
        <time>2019-03-16T11:04:22Z</time>
      </trkpt>
      <trkpt lat="43.47857" lon="2.31654">
        <ele>788</ele>
        <time>2019-03-16T11:04:24Z</time>
      </trkpt>
      <trkpt lat="43.47847" lon="2.31635">
        <ele>786</ele>
        <time>2019-03-16T11:04:28Z</time>
      </trkpt>
      <trkpt lat="43.47834" lon="2.31614">
        <ele>785</ele>
        <time>2019-03-16T11:04:31Z</time>
      </trkpt>
      <trkpt lat="43.4783" lon="2.31607">
        <ele>785</ele>
        <time>2019-03-16T11:04:32Z</time>
      </trkpt>
      <trkpt lat="43.47826" lon="2.31599">
        <ele>784</ele>
        <time>2019-03-16T11:04:33Z</time>
      </trkpt>
      <trkpt lat="43.47814" lon="2.31583">
        <ele>782</ele>
        <time>2019-03-16T11:04:35Z</time>
      </trkpt>
      <trkpt lat="43.47807" lon="2.31576">
        <ele>781</ele>
        <time>2019-03-16T11:04:36Z</time>
      </trkpt>
      <trkpt lat="43.47799" lon="2.3157">
        <ele>780</ele>
        <time>2019-03-16T11:04:37Z</time>
      </trkpt>
      <trkpt lat="43.47784" lon="2.3156">
        <ele>778</ele>
        <time>2019-03-16T11:04:39Z</time>
      </trkpt>
      <trkpt lat="43.47777" lon="2.31556">
        <ele>778</ele>
        <time>2019-03-16T11:04:40Z</time>
      </trkpt>
      <trkpt lat="43.4777" lon="2.31553">
        <ele>778</ele>
        <time>2019-03-16T11:04:41Z</time>
      </trkpt>
      <trkpt lat="43.47747" lon="2.31541">
        <ele>778</ele>
        <time>2019-03-16T11:04:44Z</time>
      </trkpt>
      <trkpt lat="43.47729" lon="2.31532">
        <ele>778</ele>
        <time>2019-03-16T11:04:47Z</time>
      </trkpt>
      <trkpt lat="43.47725" lon="2.31529">
        <ele>778</ele>
        <time>2019-03-16T11:04:48Z</time>
      </trkpt>
      <trkpt lat="43.47712" lon="2.31521">
        <ele>779</ele>
        <time>2019-03-16T11:04:53Z</time>
      </trkpt>
      <trkpt lat="43.47709" lon="2.31519">
        <ele>779</ele>
        <time>2019-03-16T11:04:55Z</time>
      </trkpt>
      <trkpt lat="43.47708" lon="2.31516">
        <ele>780</ele>
        <time>2019-03-16T11:04:58Z</time>
      </trkpt>
      <trkpt lat="43.47708" lon="2.31516">
        <ele>780</ele>
        <time>2019-03-16T11:04:59Z</time>
      </trkpt>
      <trkpt lat="43.47706" lon="2.31513">
        <ele>780</ele>
        <time>2019-03-16T11:05:09Z</time>
      </trkpt>
      <trkpt lat="43.47707" lon="2.31504">
        <ele>780</ele>
        <time>2019-03-16T11:05:13Z</time>
      </trkpt>
      <trkpt lat="43.47708" lon="2.31498">
        <ele>780</ele>
        <time>2019-03-16T11:05:15Z</time>
      </trkpt>
      <trkpt lat="43.47709" lon="2.31491">
        <ele>781</ele>
        <time>2019-03-16T11:05:17Z</time>
      </trkpt>
      <trkpt lat="43.47709" lon="2.31485">
        <ele>781</ele>
        <time>2019-03-16T11:05:19Z</time>
      </trkpt>
      <trkpt lat="43.47708" lon="2.31482">
        <ele>781</ele>
        <time>2019-03-16T11:05:20Z</time>
      </trkpt>
      <trkpt lat="43.4771" lon="2.31471">
        <ele>782</ele>
        <time>2019-03-16T11:05:23Z</time>
      </trkpt>
      <trkpt lat="43.47711" lon="2.31467">
        <ele>782</ele>
        <time>2019-03-16T11:05:24Z</time>
      </trkpt>
      <trkpt lat="43.47713" lon="2.31456">
        <ele>783</ele>
        <time>2019-03-16T11:05:27Z</time>
      </trkpt>
      <trkpt lat="43.47716" lon="2.31446">
        <ele>784</ele>
        <time>2019-03-16T11:05:30Z</time>
      </trkpt>
      <trkpt lat="43.47717" lon="2.31442">
        <ele>784</ele>
        <time>2019-03-16T11:05:31Z</time>
      </trkpt>
      <trkpt lat="43.47717" lon="2.31431">
        <ele>785</ele>
        <time>2019-03-16T11:05:34Z</time>
      </trkpt>
      <trkpt lat="43.47715" lon="2.31419">
        <ele>785</ele>
        <time>2019-03-16T11:05:37Z</time>
      </trkpt>
      <trkpt lat="43.47715" lon="2.3141">
        <ele>786</ele>
        <time>2019-03-16T11:05:40Z</time>
      </trkpt>
      <trkpt lat="43.47714" lon="2.31406">
        <ele>786</ele>
        <time>2019-03-16T11:05:41Z</time>
      </trkpt>
      <trkpt lat="43.47711" lon="2.31395">
        <ele>788</ele>
        <time>2019-03-16T11:05:44Z</time>
      </trkpt>
      <trkpt lat="43.4771" lon="2.31389">
        <ele>788</ele>
        <time>2019-03-16T11:05:46Z</time>
      </trkpt>
      <trkpt lat="43.47708" lon="2.31381">
        <ele>789</ele>
        <time>2019-03-16T11:05:48Z</time>
      </trkpt>
      <trkpt lat="43.47708" lon="2.31372">
        <ele>789</ele>
        <time>2019-03-16T11:05:51Z</time>
      </trkpt>
      <trkpt lat="43.47705" lon="2.31364">
        <ele>790</ele>
        <time>2019-03-16T11:05:54Z</time>
      </trkpt>
      <trkpt lat="43.47703" lon="2.31362">
        <ele>790</ele>
        <time>2019-03-16T11:05:55Z</time>
      </trkpt>
      <trkpt lat="43.47699" lon="2.31353">
        <ele>791</ele>
        <time>2019-03-16T11:05:59Z</time>
      </trkpt>
      <trkpt lat="43.47698" lon="2.3135">
        <ele>791</ele>
        <time>2019-03-16T11:06:00Z</time>
      </trkpt>
      <trkpt lat="43.47695" lon="2.31342">
        <ele>792</ele>
        <time>2019-03-16T11:06:03Z</time>
      </trkpt>
      <trkpt lat="43.47692" lon="2.31332">
        <ele>793</ele>
        <time>2019-03-16T11:06:07Z</time>
      </trkpt>
      <trkpt lat="43.47692" lon="2.3133">
        <ele>794</ele>
        <time>2019-03-16T11:06:08Z</time>
      </trkpt>
      <trkpt lat="43.47692" lon="2.31328">
        <ele>794</ele>
        <time>2019-03-16T11:06:09Z</time>
      </trkpt>
      <trkpt lat="43.47688" lon="2.31315">
        <ele>795</ele>
        <time>2019-03-16T11:06:14Z</time>
      </trkpt>
      <trkpt lat="43.47687" lon="2.31313">
        <ele>795</ele>
        <time>2019-03-16T11:06:15Z</time>
      </trkpt>
      <trkpt lat="43.47682" lon="2.31301">
        <ele>796</ele>
        <time>2019-03-16T11:06:21Z</time>
      </trkpt>
      <trkpt lat="43.47681" lon="2.31299">
        <ele>796</ele>
        <time>2019-03-16T11:06:22Z</time>
      </trkpt>
      <trkpt lat="43.47677" lon="2.3129">
        <ele>797</ele>
        <time>2019-03-16T11:06:26Z</time>
      </trkpt>
      <trkpt lat="43.47676" lon="2.31289">
        <ele>797</ele>
        <time>2019-03-16T11:06:27Z</time>
      </trkpt>
      <trkpt lat="43.47675" lon="2.31289">
        <ele>797</ele>
        <time>2019-03-16T11:06:28Z</time>
      </trkpt>
      <trkpt lat="43.47674" lon="2.31291">
        <ele>797</ele>
        <time>2019-03-16T11:06:29Z</time>
      </trkpt>
      <trkpt lat="43.47673" lon="2.31292">
        <ele>798</ele>
        <time>2019-03-16T11:06:31Z</time>
      </trkpt>
      <trkpt lat="43.47672" lon="2.31298">
        <ele>798</ele>
        <time>2019-03-16T11:06:35Z</time>
      </trkpt>
      <trkpt lat="43.47671" lon="2.313">
        <ele>798</ele>
        <time>2019-03-16T11:06:36Z</time>
      </trkpt>
      <trkpt lat="43.47669" lon="2.31305">
        <ele>799</ele>
        <time>2019-03-16T11:06:38Z</time>
      </trkpt>
      <trkpt lat="43.47666" lon="2.31309">
        <ele>799</ele>
        <time>2019-03-16T11:06:40Z</time>
      </trkpt>
      <trkpt lat="43.4766" lon="2.31309">
        <ele>800</ele>
        <time>2019-03-16T11:06:44Z</time>
      </trkpt>
      <trkpt lat="43.47659" lon="2.31308">
        <ele>800</ele>
        <time>2019-03-16T11:06:45Z</time>
      </trkpt>
      <trkpt lat="43.47657" lon="2.31306">
        <ele>800</ele>
        <time>2019-03-16T11:06:46Z</time>
      </trkpt>
      <trkpt lat="43.47651" lon="2.31299">
        <ele>801</ele>
        <time>2019-03-16T11:06:50Z</time>
      </trkpt>
      <trkpt lat="43.4765" lon="2.31298">
        <ele>801</ele>
        <time>2019-03-16T11:06:51Z</time>
      </trkpt>
      <trkpt lat="43.47646" lon="2.31294">
        <ele>802</ele>
        <time>2019-03-16T11:06:54Z</time>
      </trkpt>
      <trkpt lat="43.47645" lon="2.31293">
        <ele>802</ele>
        <time>2019-03-16T11:06:55Z</time>
      </trkpt>
      <trkpt lat="43.47642" lon="2.3129">
        <ele>802</ele>
        <time>2019-03-16T11:06:57Z</time>
      </trkpt>
      <trkpt lat="43.47637" lon="2.31282">
        <ele>803</ele>
        <time>2019-03-16T11:07:01Z</time>
      </trkpt>
      <trkpt lat="43.47634" lon="2.31278">
        <ele>803</ele>
        <time>2019-03-16T11:07:03Z</time>
      </trkpt>
      <trkpt lat="43.47625" lon="2.31269">
        <ele>804</ele>
        <time>2019-03-16T11:07:09Z</time>
      </trkpt>
      <trkpt lat="43.47617" lon="2.31262">
        <ele>804</ele>
        <time>2019-03-16T11:07:14Z</time>
      </trkpt>
      <trkpt lat="43.47616" lon="2.31261">
        <ele>804</ele>
        <time>2019-03-16T11:07:15Z</time>
      </trkpt>
      <trkpt lat="43.47605" lon="2.31254">
        <ele>804</ele>
        <time>2019-03-16T11:07:21Z</time>
      </trkpt>
      <trkpt lat="43.47593" lon="2.31249">
        <ele>805</ele>
        <time>2019-03-16T11:07:26Z</time>
      </trkpt>
      <trkpt lat="43.47591" lon="2.31249">
        <ele>805</ele>
        <time>2019-03-16T11:07:27Z</time>
      </trkpt>
      <trkpt lat="43.47589" lon="2.31249">
        <ele>805</ele>
        <time>2019-03-16T11:07:28Z</time>
      </trkpt>
      <trkpt lat="43.47575" lon="2.31247">
        <ele>805</ele>
        <time>2019-03-16T11:07:34Z</time>
      </trkpt>
      <trkpt lat="43.47573" lon="2.31246">
        <ele>805</ele>
        <time>2019-03-16T11:07:35Z</time>
      </trkpt>
      <trkpt lat="43.47563" lon="2.3124">
        <ele>806</ele>
        <time>2019-03-16T11:07:40Z</time>
      </trkpt>
      <trkpt lat="43.4756" lon="2.31238">
        <ele>807</ele>
        <time>2019-03-16T11:07:42Z</time>
      </trkpt>
      <trkpt lat="43.47555" lon="2.31236">
        <ele>807</ele>
        <time>2019-03-16T11:07:46Z</time>
      </trkpt>
      <trkpt lat="43.47553" lon="2.31236">
        <ele>807</ele>
        <time>2019-03-16T11:07:47Z</time>
      </trkpt>
      <trkpt lat="43.47548" lon="2.31233">
        <ele>808</ele>
        <time>2019-03-16T11:07:51Z</time>
      </trkpt>
      <trkpt lat="43.47546" lon="2.31234">
        <ele>808</ele>
        <time>2019-03-16T11:07:53Z</time>
      </trkpt>
      <trkpt lat="43.47542" lon="2.31234">
        <ele>809</ele>
        <time>2019-03-16T11:07:55Z</time>
      </trkpt>
      <trkpt lat="43.47535" lon="2.31234">
        <ele>810</ele>
        <time>2019-03-16T11:07:59Z</time>
      </trkpt>
      <trkpt lat="43.47531" lon="2.31235">
        <ele>810</ele>
        <time>2019-03-16T11:08:01Z</time>
      </trkpt>
      <trkpt lat="43.47528" lon="2.31236">
        <ele>811</ele>
        <time>2019-03-16T11:08:03Z</time>
      </trkpt>
      <trkpt lat="43.47524" lon="2.31236">
        <ele>811</ele>
        <time>2019-03-16T11:08:05Z</time>
      </trkpt>
      <trkpt lat="43.47523" lon="2.31236">
        <ele>811</ele>
        <time>2019-03-16T11:08:06Z</time>
      </trkpt>
      <trkpt lat="43.47518" lon="2.31237">
        <ele>812</ele>
        <time>2019-03-16T11:08:09Z</time>
      </trkpt>
      <trkpt lat="43.47515" lon="2.31236">
        <ele>812</ele>
        <time>2019-03-16T11:08:12Z</time>
      </trkpt>
      <trkpt lat="43.47513" lon="2.31235">
        <ele>812</ele>
        <time>2019-03-16T11:08:14Z</time>
      </trkpt>
      <trkpt lat="43.47512" lon="2.31233">
        <ele>813</ele>
        <time>2019-03-16T11:08:16Z</time>
      </trkpt>
      <trkpt lat="43.47512" lon="2.31232">
        <ele>813</ele>
        <time>2019-03-16T11:08:18Z</time>
      </trkpt>
      <trkpt lat="43.47511" lon="2.3123">
        <ele>813</ele>
        <time>2019-03-16T11:08:19Z</time>
      </trkpt>
      <trkpt lat="43.47511" lon="2.31221">
        <ele>814</ele>
        <time>2019-03-16T11:08:24Z</time>
      </trkpt>
      <trkpt lat="43.47512" lon="2.3122">
        <ele>814</ele>
        <time>2019-03-16T11:08:25Z</time>
      </trkpt>
      <trkpt lat="43.47515" lon="2.31215">
        <ele>814</ele>
        <time>2019-03-16T11:08:27Z</time>
      </trkpt>
      <trkpt lat="43.47515" lon="2.31212">
        <ele>814</ele>
        <time>2019-03-16T11:08:28Z</time>
      </trkpt>
      <trkpt lat="43.47517" lon="2.3121">
        <ele>814</ele>
        <time>2019-03-16T11:08:29Z</time>
      </trkpt>
      <trkpt lat="43.47523" lon="2.31199">
        <ele>814</ele>
        <time>2019-03-16T11:08:34Z</time>
      </trkpt>
      <trkpt lat="43.47532" lon="2.31187">
        <ele>815</ele>
        <time>2019-03-16T11:08:39Z</time>
      </trkpt>
      <trkpt lat="43.47538" lon="2.31177">
        <ele>815</ele>
        <time>2019-03-16T11:08:43Z</time>
      </trkpt>
      <trkpt lat="43.4754" lon="2.31174">
        <ele>816</ele>
        <time>2019-03-16T11:08:44Z</time>
      </trkpt>
      <trkpt lat="43.47546" lon="2.31166">
        <ele>816</ele>
        <time>2019-03-16T11:08:47Z</time>
      </trkpt>
      <trkpt lat="43.47548" lon="2.31163">
        <ele>816</ele>
        <time>2019-03-16T11:08:48Z</time>
      </trkpt>
      <trkpt lat="43.47551" lon="2.31153">
        <ele>816</ele>
        <time>2019-03-16T11:08:51Z</time>
      </trkpt>
      <trkpt lat="43.47553" lon="2.31148">
        <ele>816</ele>
        <time>2019-03-16T11:08:53Z</time>
      </trkpt>
      <trkpt lat="43.47558" lon="2.31133">
        <ele>817</ele>
        <time>2019-03-16T11:08:58Z</time>
      </trkpt>
      <trkpt lat="43.47563" lon="2.31124">
        <ele>817</ele>
        <time>2019-03-16T11:09:02Z</time>
      </trkpt>
      <trkpt lat="43.47571" lon="2.31113">
        <ele>817</ele>
        <time>2019-03-16T11:09:08Z</time>
      </trkpt>
      <trkpt lat="43.47573" lon="2.31109">
        <ele>818</ele>
        <time>2019-03-16T11:09:10Z</time>
      </trkpt>
      <trkpt lat="43.47578" lon="2.31101">
        <ele>819</ele>
        <time>2019-03-16T11:09:14Z</time>
      </trkpt>
      <trkpt lat="43.47579" lon="2.31098">
        <ele>819</ele>
        <time>2019-03-16T11:09:15Z</time>
      </trkpt>
      <trkpt lat="43.47587" lon="2.31085">
        <ele>819</ele>
        <time>2019-03-16T11:09:20Z</time>
      </trkpt>
      <trkpt lat="43.47591" lon="2.31076">
        <ele>819</ele>
        <time>2019-03-16T11:09:24Z</time>
      </trkpt>
      <trkpt lat="43.47592" lon="2.31072">
        <ele>819</ele>
        <time>2019-03-16T11:09:25Z</time>
      </trkpt>
      <trkpt lat="43.47598" lon="2.3105">
        <ele>820</ele>
        <time>2019-03-16T11:09:32Z</time>
      </trkpt>
      <trkpt lat="43.47602" lon="2.31035">
        <ele>820</ele>
        <time>2019-03-16T11:09:37Z</time>
      </trkpt>
      <trkpt lat="43.47602" lon="2.31023">
        <ele>820</ele>
        <time>2019-03-16T11:09:41Z</time>
      </trkpt>
      <trkpt lat="43.47601" lon="2.31017">
        <ele>820</ele>
        <time>2019-03-16T11:09:43Z</time>
      </trkpt>
      <trkpt lat="43.47602" lon="2.31015">
        <ele>820</ele>
        <time>2019-03-16T11:09:44Z</time>
      </trkpt>
      <trkpt lat="43.47604" lon="2.31003">
        <ele>821</ele>
        <time>2019-03-16T11:09:48Z</time>
      </trkpt>
      <trkpt lat="43.47604" lon="2.31001">
        <ele>821</ele>
        <time>2019-03-16T11:09:49Z</time>
      </trkpt>
      <trkpt lat="43.47595" lon="2.30987">
        <ele>822</ele>
        <time>2019-03-16T11:09:53Z</time>
      </trkpt>
      <trkpt lat="43.47593" lon="2.30984">
        <ele>822</ele>
        <time>2019-03-16T11:09:54Z</time>
      </trkpt>
      <trkpt lat="43.47584" lon="2.3097">
        <ele>822</ele>
        <time>2019-03-16T11:09:59Z</time>
      </trkpt>
      <trkpt lat="43.47581" lon="2.30968">
        <ele>822</ele>
        <time>2019-03-16T11:10:00Z</time>
      </trkpt>
      <trkpt lat="43.47574" lon="2.30961">
        <ele>822</ele>
        <time>2019-03-16T11:10:03Z</time>
      </trkpt>
      <trkpt lat="43.4757" lon="2.30959">
        <ele>823</ele>
        <time>2019-03-16T11:10:04Z</time>
      </trkpt>
      <trkpt lat="43.4756" lon="2.30951">
        <ele>823</ele>
        <time>2019-03-16T11:10:08Z</time>
      </trkpt>
      <trkpt lat="43.47539" lon="2.3094">
        <ele>823</ele>
        <time>2019-03-16T11:10:15Z</time>
      </trkpt>
      <trkpt lat="43.47522" lon="2.30933">
        <ele>823</ele>
        <time>2019-03-16T11:10:21Z</time>
      </trkpt>
      <trkpt lat="43.47508" lon="2.30924">
        <ele>823</ele>
        <time>2019-03-16T11:10:26Z</time>
      </trkpt>
      <trkpt lat="43.47494" lon="2.30916">
        <ele>824</ele>
        <time>2019-03-16T11:10:31Z</time>
      </trkpt>
      <trkpt lat="43.47492" lon="2.30914">
        <ele>824</ele>
        <time>2019-03-16T11:10:32Z</time>
      </trkpt>
      <trkpt lat="43.47484" lon="2.30909">
        <ele>824</ele>
        <time>2019-03-16T11:10:35Z</time>
      </trkpt>
      <trkpt lat="43.47468" lon="2.30896">
        <ele>825</ele>
        <time>2019-03-16T11:10:41Z</time>
      </trkpt>
      <trkpt lat="43.47457" lon="2.30885">
        <ele>825</ele>
        <time>2019-03-16T11:10:45Z</time>
      </trkpt>
      <trkpt lat="43.47455" lon="2.30882">
        <ele>825</ele>
        <time>2019-03-16T11:10:46Z</time>
      </trkpt>
      <trkpt lat="43.4744" lon="2.30865">
        <ele>824</ele>
        <time>2019-03-16T11:10:51Z</time>
      </trkpt>
      <trkpt lat="43.47423" lon="2.3085">
        <ele>824</ele>
        <time>2019-03-16T11:10:56Z</time>
      </trkpt>
      <trkpt lat="43.47402" lon="2.30831">
        <ele>825</ele>
        <time>2019-03-16T11:11:03Z</time>
      </trkpt>
      <trkpt lat="43.47381" lon="2.30809">
        <ele>824</ele>
        <time>2019-03-16T11:11:09Z</time>
      </trkpt>
      <trkpt lat="43.47365" lon="2.30801">
        <ele>823</ele>
        <time>2019-03-16T11:11:12Z</time>
      </trkpt>
      <trkpt lat="43.47358" lon="2.30799">
        <ele>822</ele>
        <time>2019-03-16T11:11:13Z</time>
      </trkpt>
      <trkpt lat="43.47351" lon="2.30796">
        <ele>822</ele>
        <time>2019-03-16T11:11:14Z</time>
      </trkpt>
      <trkpt lat="43.47332" lon="2.3079">
        <ele>821</ele>
        <time>2019-03-16T11:11:17Z</time>
      </trkpt>
      <trkpt lat="43.4732" lon="2.30783">
        <ele>820</ele>
        <time>2019-03-16T11:11:19Z</time>
      </trkpt>
      <trkpt lat="43.47305" lon="2.30771">
        <ele>820</ele>
        <time>2019-03-16T11:11:22Z</time>
      </trkpt>
      <trkpt lat="43.47294" lon="2.30757">
        <ele>819</ele>
        <time>2019-03-16T11:11:25Z</time>
      </trkpt>
      <trkpt lat="43.4729" lon="2.3074">
        <ele>819</ele>
        <time>2019-03-16T11:11:29Z</time>
      </trkpt>
      <trkpt lat="43.4729" lon="2.30734">
        <ele>819</ele>
        <time>2019-03-16T11:11:30Z</time>
      </trkpt>
      <trkpt lat="43.47292" lon="2.30717">
        <ele>819</ele>
        <time>2019-03-16T11:11:33Z</time>
      </trkpt>
      <trkpt lat="43.47295" lon="2.30713">
        <ele>819</ele>
        <time>2019-03-16T11:11:34Z</time>
      </trkpt>
      <trkpt lat="43.47298" lon="2.30703">
        <ele>819</ele>
        <time>2019-03-16T11:11:36Z</time>
      </trkpt>
      <trkpt lat="43.47292" lon="2.30689">
        <ele>819</ele>
        <time>2019-03-16T11:11:39Z</time>
      </trkpt>
      <trkpt lat="43.47278" lon="2.30685">
        <ele>820</ele>
        <time>2019-03-16T11:11:42Z</time>
      </trkpt>
      <trkpt lat="43.47275" lon="2.30685">
        <ele>820</ele>
        <time>2019-03-16T11:11:43Z</time>
      </trkpt>
      <trkpt lat="43.47268" lon="2.30684">
        <ele>821</ele>
        <time>2019-03-16T11:11:45Z</time>
      </trkpt>
      <trkpt lat="43.47261" lon="2.30686">
        <ele>822</ele>
        <time>2019-03-16T11:11:47Z</time>
      </trkpt>
      <trkpt lat="43.47258" lon="2.30688">
        <ele>822</ele>
        <time>2019-03-16T11:11:48Z</time>
      </trkpt>
      <trkpt lat="43.47255" lon="2.30688">
        <ele>822</ele>
        <time>2019-03-16T11:11:49Z</time>
      </trkpt>
      <trkpt lat="43.47248" lon="2.3069">
        <ele>823</ele>
        <time>2019-03-16T11:11:52Z</time>
      </trkpt>
      <trkpt lat="43.47239" lon="2.30693">
        <ele>823</ele>
        <time>2019-03-16T11:11:56Z</time>
      </trkpt>
      <trkpt lat="43.47237" lon="2.30693">
        <ele>823</ele>
        <time>2019-03-16T11:11:57Z</time>
      </trkpt>
      <trkpt lat="43.47226" lon="2.30698">
        <ele>824</ele>
        <time>2019-03-16T11:12:02Z</time>
      </trkpt>
      <trkpt lat="43.47221" lon="2.307">
        <ele>824</ele>
        <time>2019-03-16T11:12:04Z</time>
      </trkpt>
      <trkpt lat="43.47212" lon="2.30696">
        <ele>825</ele>
        <time>2019-03-16T11:12:08Z</time>
      </trkpt>
      <trkpt lat="43.47209" lon="2.30683">
        <ele>826</ele>
        <time>2019-03-16T11:12:13Z</time>
      </trkpt>
      <trkpt lat="43.47209" lon="2.30676">
        <ele>827</ele>
        <time>2019-03-16T11:12:16Z</time>
      </trkpt>
      <trkpt lat="43.47208" lon="2.30671">
        <ele>827</ele>
        <time>2019-03-16T11:12:18Z</time>
      </trkpt>
      <trkpt lat="43.47207" lon="2.30666">
        <ele>828</ele>
        <time>2019-03-16T11:12:20Z</time>
      </trkpt>
      <trkpt lat="43.47207" lon="2.30654">
        <ele>828</ele>
        <time>2019-03-16T11:12:25Z</time>
      </trkpt>
      <trkpt lat="43.47207" lon="2.30651">
        <ele>829</ele>
        <time>2019-03-16T11:12:27Z</time>
      </trkpt>
      <trkpt lat="43.47207" lon="2.30642">
        <ele>829</ele>
        <time>2019-03-16T11:12:32Z</time>
      </trkpt>
      <trkpt lat="43.47203" lon="2.30633">
        <ele>829</ele>
        <time>2019-03-16T11:12:40Z</time>
      </trkpt>
      <trkpt lat="43.47198" lon="2.30626">
        <ele>829</ele>
        <time>2019-03-16T11:15:34Z</time>
      </trkpt>
      <trkpt lat="43.47197" lon="2.30625">
        <ele>829</ele>
        <time>2019-03-16T11:15:35Z</time>
      </trkpt>
      <trkpt lat="43.47197" lon="2.30623">
        <ele>829</ele>
        <time>2019-03-16T11:15:36Z</time>
      </trkpt>
      <trkpt lat="43.47195" lon="2.30614">
        <ele>829</ele>
        <time>2019-03-16T11:15:41Z</time>
      </trkpt>
      <trkpt lat="43.47195" lon="2.30604">
        <ele>829</ele>
        <time>2019-03-16T11:15:45Z</time>
      </trkpt>
      <trkpt lat="43.47195" lon="2.30599">
        <ele>829</ele>
        <time>2019-03-16T11:15:47Z</time>
      </trkpt>
      <trkpt lat="43.47195" lon="2.30591">
        <ele>829</ele>
        <time>2019-03-16T11:15:50Z</time>
      </trkpt>
      <trkpt lat="43.47194" lon="2.30588">
        <ele>829</ele>
        <time>2019-03-16T11:15:51Z</time>
      </trkpt>
      <trkpt lat="43.47193" lon="2.30581">
        <ele>830</ele>
        <time>2019-03-16T11:15:54Z</time>
      </trkpt>
      <trkpt lat="43.47187" lon="2.30572">
        <ele>830</ele>
        <time>2019-03-16T11:15:57Z</time>
      </trkpt>
      <trkpt lat="43.47184" lon="2.30561">
        <ele>831</ele>
        <time>2019-03-16T11:16:01Z</time>
      </trkpt>
      <trkpt lat="43.47182" lon="2.30558">
        <ele>831</ele>
        <time>2019-03-16T11:16:02Z</time>
      </trkpt>
      <trkpt lat="43.4718" lon="2.30552">
        <ele>831</ele>
        <time>2019-03-16T11:16:04Z</time>
      </trkpt>
      <trkpt lat="43.47178" lon="2.30546">
        <ele>831</ele>
        <time>2019-03-16T11:16:06Z</time>
      </trkpt>
      <trkpt lat="43.47176" lon="2.3054">
        <ele>832</ele>
        <time>2019-03-16T11:16:08Z</time>
      </trkpt>
      <trkpt lat="43.47173" lon="2.30528">
        <ele>833</ele>
        <time>2019-03-16T11:16:12Z</time>
      </trkpt>
      <trkpt lat="43.47171" lon="2.30517">
        <ele>834</ele>
        <time>2019-03-16T11:16:16Z</time>
      </trkpt>
      <trkpt lat="43.4717" lon="2.30514">
        <ele>834</ele>
        <time>2019-03-16T11:16:17Z</time>
      </trkpt>
      <trkpt lat="43.47164" lon="2.30507">
        <ele>835</ele>
        <time>2019-03-16T11:16:20Z</time>
      </trkpt>
      <trkpt lat="43.47157" lon="2.30496">
        <ele>836</ele>
        <time>2019-03-16T11:16:24Z</time>
      </trkpt>
      <trkpt lat="43.47152" lon="2.30482">
        <ele>838</ele>
        <time>2019-03-16T11:16:29Z</time>
      </trkpt>
      <trkpt lat="43.47148" lon="2.30467">
        <ele>838</ele>
        <time>2019-03-16T11:16:34Z</time>
      </trkpt>
      <trkpt lat="43.47147" lon="2.30464">
        <ele>838</ele>
        <time>2019-03-16T11:16:35Z</time>
      </trkpt>
      <trkpt lat="43.47146" lon="2.30461">
        <ele>839</ele>
        <time>2019-03-16T11:16:36Z</time>
      </trkpt>
      <trkpt lat="43.47141" lon="2.30448">
        <ele>840</ele>
        <time>2019-03-16T11:16:40Z</time>
      </trkpt>
      <trkpt lat="43.47139" lon="2.30442">
        <ele>840</ele>
        <time>2019-03-16T11:16:42Z</time>
      </trkpt>
      <trkpt lat="43.47133" lon="2.3043">
        <ele>840</ele>
        <time>2019-03-16T11:16:46Z</time>
      </trkpt>
      <trkpt lat="43.47127" lon="2.30422">
        <ele>841</ele>
        <time>2019-03-16T11:16:51Z</time>
      </trkpt>
      <trkpt lat="43.47119" lon="2.30416">
        <ele>842</ele>
        <time>2019-03-16T11:16:56Z</time>
      </trkpt>
      <trkpt lat="43.47117" lon="2.30415">
        <ele>842</ele>
        <time>2019-03-16T11:16:57Z</time>
      </trkpt>
      <trkpt lat="43.47109" lon="2.30411">
        <ele>843</ele>
        <time>2019-03-16T11:17:01Z</time>
      </trkpt>
      <trkpt lat="43.47107" lon="2.3041">
        <ele>843</ele>
        <time>2019-03-16T11:17:02Z</time>
      </trkpt>
      <trkpt lat="43.47097" lon="2.30405">
        <ele>844</ele>
        <time>2019-03-16T11:17:06Z</time>
      </trkpt>
      <trkpt lat="43.47095" lon="2.30404">
        <ele>845</ele>
        <time>2019-03-16T11:17:07Z</time>
      </trkpt>
      <trkpt lat="43.47086" lon="2.30399">
        <ele>845</ele>
        <time>2019-03-16T11:17:10Z</time>
      </trkpt>
      <trkpt lat="43.47077" lon="2.30396">
        <ele>846</ele>
        <time>2019-03-16T11:17:13Z</time>
      </trkpt>
      <trkpt lat="43.4707" lon="2.30393">
        <ele>847</ele>
        <time>2019-03-16T11:17:16Z</time>
      </trkpt>
      <trkpt lat="43.47057" lon="2.30391">
        <ele>847</ele>
        <time>2019-03-16T11:17:21Z</time>
      </trkpt>
      <trkpt lat="43.4705" lon="2.3039">
        <ele>848</ele>
        <time>2019-03-16T11:17:24Z</time>
      </trkpt>
      <trkpt lat="43.47036" lon="2.30389">
        <ele>849</ele>
        <time>2019-03-16T11:17:29Z</time>
      </trkpt>
      <trkpt lat="43.47033" lon="2.30388">
        <ele>849</ele>
        <time>2019-03-16T11:17:30Z</time>
      </trkpt>
      <trkpt lat="43.4702" lon="2.30386">
        <ele>850</ele>
        <time>2019-03-16T11:17:35Z</time>
      </trkpt>
      <trkpt lat="43.47015" lon="2.30385">
        <ele>850</ele>
        <time>2019-03-16T11:17:37Z</time>
      </trkpt>
      <trkpt lat="43.47007" lon="2.30384">
        <ele>851</ele>
        <time>2019-03-16T11:17:40Z</time>
      </trkpt>
      <trkpt lat="43.46999" lon="2.30383">
        <ele>851</ele>
        <time>2019-03-16T11:17:43Z</time>
      </trkpt>
      <trkpt lat="43.46992" lon="2.30383">
        <ele>852</ele>
        <time>2019-03-16T11:17:46Z</time>
      </trkpt>
      <trkpt lat="43.46982" lon="2.30382">
        <ele>853</ele>
        <time>2019-03-16T11:17:50Z</time>
      </trkpt>
      <trkpt lat="43.46978" lon="2.30381">
        <ele>853</ele>
        <time>2019-03-16T11:17:52Z</time>
      </trkpt>
      <trkpt lat="43.46971" lon="2.3038">
        <ele>854</ele>
        <time>2019-03-16T11:17:55Z</time>
      </trkpt>
      <trkpt lat="43.46966" lon="2.3038">
        <ele>854</ele>
        <time>2019-03-16T11:17:57Z</time>
      </trkpt>
      <trkpt lat="43.46962" lon="2.3038">
        <ele>855</ele>
        <time>2019-03-16T11:17:59Z</time>
      </trkpt>
      <trkpt lat="43.46954" lon="2.3038">
        <ele>855</ele>
        <time>2019-03-16T11:18:02Z</time>
      </trkpt>
      <trkpt lat="43.46946" lon="2.3038">
        <ele>856</ele>
        <time>2019-03-16T11:18:05Z</time>
      </trkpt>
      <trkpt lat="43.46942" lon="2.3038">
        <ele>857</ele>
        <time>2019-03-16T11:18:07Z</time>
      </trkpt>
      <trkpt lat="43.46936" lon="2.30381">
        <ele>857</ele>
        <time>2019-03-16T11:18:10Z</time>
      </trkpt>
      <trkpt lat="43.46932" lon="2.30381">
        <ele>858</ele>
        <time>2019-03-16T11:18:12Z</time>
      </trkpt>
      <trkpt lat="43.46925" lon="2.3038">
        <ele>859</ele>
        <time>2019-03-16T11:18:15Z</time>
      </trkpt>
      <trkpt lat="43.46922" lon="2.3038">
        <ele>859</ele>
        <time>2019-03-16T11:18:16Z</time>
      </trkpt>
      <trkpt lat="43.46913" lon="2.3038">
        <ele>860</ele>
        <time>2019-03-16T11:18:20Z</time>
      </trkpt>
      <trkpt lat="43.46908" lon="2.3038">
        <ele>860</ele>
        <time>2019-03-16T11:18:22Z</time>
      </trkpt>
      <trkpt lat="43.46901" lon="2.3038">
        <ele>861</ele>
        <time>2019-03-16T11:18:25Z</time>
      </trkpt>
      <trkpt lat="43.4689" lon="2.30378">
        <ele>862</ele>
        <time>2019-03-16T11:18:29Z</time>
      </trkpt>
      <trkpt lat="43.46877" lon="2.30378">
        <ele>863</ele>
        <time>2019-03-16T11:18:34Z</time>
      </trkpt>
      <trkpt lat="43.46871" lon="2.30377">
        <ele>863</ele>
        <time>2019-03-16T11:18:36Z</time>
      </trkpt>
      <trkpt lat="43.4686" lon="2.30377">
        <ele>864</ele>
        <time>2019-03-16T11:18:40Z</time>
      </trkpt>
      <trkpt lat="43.46844" lon="2.30378">
        <ele>864</ele>
        <time>2019-03-16T11:18:45Z</time>
      </trkpt>
      <trkpt lat="43.46837" lon="2.30378">
        <ele>864</ele>
        <time>2019-03-16T11:18:47Z</time>
      </trkpt>
      <trkpt lat="43.46821" lon="2.30377">
        <ele>865</ele>
        <time>2019-03-16T11:18:52Z</time>
      </trkpt>
      <trkpt lat="43.46799" lon="2.30375">
        <ele>864</ele>
        <time>2019-03-16T11:18:58Z</time>
      </trkpt>
      <trkpt lat="43.46776" lon="2.30374">
        <ele>864</ele>
        <time>2019-03-16T11:19:04Z</time>
      </trkpt>
      <trkpt lat="43.46756" lon="2.30373">
        <ele>863</ele>
        <time>2019-03-16T11:19:09Z</time>
      </trkpt>
      <trkpt lat="43.46751" lon="2.30373">
        <ele>863</ele>
        <time>2019-03-16T11:19:10Z</time>
      </trkpt>
      <trkpt lat="43.46723" lon="2.3037">
        <ele>862</ele>
        <time>2019-03-16T11:19:16Z</time>
      </trkpt>
      <trkpt lat="43.46701" lon="2.30366">
        <ele>861</ele>
        <time>2019-03-16T11:19:20Z</time>
      </trkpt>
      <trkpt lat="43.46695" lon="2.30364">
        <ele>861</ele>
        <time>2019-03-16T11:19:21Z</time>
      </trkpt>
      <trkpt lat="43.4669" lon="2.30362">
        <ele>860</ele>
        <time>2019-03-16T11:19:22Z</time>
      </trkpt>
      <trkpt lat="43.46679" lon="2.30355">
        <ele>860</ele>
        <time>2019-03-16T11:19:24Z</time>
      </trkpt>
      <trkpt lat="43.46669" lon="2.30347">
        <ele>859</ele>
        <time>2019-03-16T11:19:26Z</time>
      </trkpt>
      <trkpt lat="43.46654" lon="2.30328">
        <ele>859</ele>
        <time>2019-03-16T11:19:30Z</time>
      </trkpt>
      <trkpt lat="43.46651" lon="2.30322">
        <ele>859</ele>
        <time>2019-03-16T11:19:31Z</time>
      </trkpt>
      <trkpt lat="43.46646" lon="2.30311">
        <ele>858</ele>
        <time>2019-03-16T11:19:33Z</time>
      </trkpt>
      <trkpt lat="43.46642" lon="2.30297">
        <ele>857</ele>
        <time>2019-03-16T11:19:35Z</time>
      </trkpt>
      <trkpt lat="43.46638" lon="2.30286">
        <ele>857</ele>
        <time>2019-03-16T11:19:37Z</time>
      </trkpt>
      <trkpt lat="43.46635" lon="2.3028">
        <ele>856</ele>
        <time>2019-03-16T11:19:38Z</time>
      </trkpt>
      <trkpt lat="43.46628" lon="2.30268">
        <ele>855</ele>
        <time>2019-03-16T11:19:40Z</time>
      </trkpt>
      <trkpt lat="43.46623" lon="2.30263">
        <ele>855</ele>
        <time>2019-03-16T11:19:41Z</time>
      </trkpt>
      <trkpt lat="43.46619" lon="2.30258">
        <ele>854</ele>
        <time>2019-03-16T11:19:42Z</time>
      </trkpt>
      <trkpt lat="43.46611" lon="2.30247">
        <ele>853</ele>
        <time>2019-03-16T11:19:44Z</time>
      </trkpt>
      <trkpt lat="43.46608" lon="2.3024">
        <ele>853</ele>
        <time>2019-03-16T11:19:45Z</time>
      </trkpt>
      <trkpt lat="43.46615" lon="2.3023">
        <ele>853</ele>
        <time>2019-03-16T11:19:47Z</time>
      </trkpt>
      <trkpt lat="43.46621" lon="2.30217">
        <ele>853</ele>
        <time>2019-03-16T11:19:50Z</time>
      </trkpt>
      <trkpt lat="43.46621" lon="2.30206">
        <ele>854</ele>
        <time>2019-03-16T11:19:53Z</time>
      </trkpt>
      <trkpt lat="43.4662" lon="2.30202">
        <ele>855</ele>
        <time>2019-03-16T11:19:54Z</time>
      </trkpt>
      <trkpt lat="43.4662" lon="2.30199">
        <ele>856</ele>
        <time>2019-03-16T11:19:55Z</time>
      </trkpt>
      <trkpt lat="43.46615" lon="2.30191">
        <ele>857</ele>
        <time>2019-03-16T11:19:57Z</time>
      </trkpt>
      <trkpt lat="43.46612" lon="2.30184">
        <ele>857</ele>
        <time>2019-03-16T11:19:59Z</time>
      </trkpt>
      <trkpt lat="43.46608" lon="2.30177">
        <ele>858</ele>
        <time>2019-03-16T11:20:01Z</time>
      </trkpt>
      <trkpt lat="43.46601" lon="2.30164">
        <ele>859</ele>
        <time>2019-03-16T11:20:05Z</time>
      </trkpt>
      <trkpt lat="43.466" lon="2.30162">
        <ele>859</ele>
        <time>2019-03-16T11:20:06Z</time>
      </trkpt>
      <trkpt lat="43.46598" lon="2.30153">
        <ele>860</ele>
        <time>2019-03-16T11:20:09Z</time>
      </trkpt>
      <trkpt lat="43.46598" lon="2.30146">
        <ele>860</ele>
        <time>2019-03-16T11:20:11Z</time>
      </trkpt>
      <trkpt lat="43.46601" lon="2.30137">
        <ele>861</ele>
        <time>2019-03-16T11:20:14Z</time>
      </trkpt>
      <trkpt lat="43.46603" lon="2.30132">
        <ele>861</ele>
        <time>2019-03-16T11:20:16Z</time>
      </trkpt>
      <trkpt lat="43.46608" lon="2.30121">
        <ele>862</ele>
        <time>2019-03-16T11:20:20Z</time>
      </trkpt>
      <trkpt lat="43.4661" lon="2.30119">
        <ele>862</ele>
        <time>2019-03-16T11:20:21Z</time>
      </trkpt>
      <trkpt lat="43.4661" lon="2.30107">
        <ele>863</ele>
        <time>2019-03-16T11:20:26Z</time>
      </trkpt>
      <trkpt lat="43.46608" lon="2.30105">
        <ele>864</ele>
        <time>2019-03-16T11:20:27Z</time>
      </trkpt>
      <trkpt lat="43.46611" lon="2.30097">
        <ele>865</ele>
        <time>2019-03-16T11:20:31Z</time>
      </trkpt>
      <trkpt lat="43.46611" lon="2.30095">
        <ele>865</ele>
        <time>2019-03-16T11:20:32Z</time>
      </trkpt>
      <trkpt lat="43.4661" lon="2.30094">
        <ele>865</ele>
        <time>2019-03-16T11:20:33Z</time>
      </trkpt>
      <trkpt lat="43.46609" lon="2.30088">
        <ele>866</ele>
        <time>2019-03-16T11:20:36Z</time>
      </trkpt>
      <trkpt lat="43.46609" lon="2.30086">
        <ele>866</ele>
        <time>2019-03-16T11:20:37Z</time>
      </trkpt>
      <trkpt lat="43.46609" lon="2.30081">
        <ele>867</ele>
        <time>2019-03-16T11:20:39Z</time>
      </trkpt>
      <trkpt lat="43.46609" lon="2.3007">
        <ele>867</ele>
        <time>2019-03-16T11:20:43Z</time>
      </trkpt>
      <trkpt lat="43.46608" lon="2.30067">
        <ele>867</ele>
        <time>2019-03-16T11:20:44Z</time>
      </trkpt>
      <trkpt lat="43.46604" lon="2.30057">
        <ele>868</ele>
        <time>2019-03-16T11:20:47Z</time>
      </trkpt>
      <trkpt lat="43.46601" lon="2.30052">
        <ele>869</ele>
        <time>2019-03-16T11:20:49Z</time>
      </trkpt>
      <trkpt lat="43.466" lon="2.30042">
        <ele>870</ele>
        <time>2019-03-16T11:20:54Z</time>
      </trkpt>
      <trkpt lat="43.46601" lon="2.30039">
        <ele>870</ele>
        <time>2019-03-16T11:20:55Z</time>
      </trkpt>
      <trkpt lat="43.46604" lon="2.3003">
        <ele>870</ele>
        <time>2019-03-16T11:20:59Z</time>
      </trkpt>
      <trkpt lat="43.46606" lon="2.30027">
        <ele>871</ele>
        <time>2019-03-16T11:21:01Z</time>
      </trkpt>
      <trkpt lat="43.46604" lon="2.30023">
        <ele>871</ele>
        <time>2019-03-16T11:21:03Z</time>
      </trkpt>
      <trkpt lat="43.46602" lon="2.3002">
        <ele>871</ele>
        <time>2019-03-16T11:21:04Z</time>
      </trkpt>
      <trkpt lat="43.46597" lon="2.30017">
        <ele>872</ele>
        <time>2019-03-16T11:21:07Z</time>
      </trkpt>
      <trkpt lat="43.46595" lon="2.30015">
        <ele>872</ele>
        <time>2019-03-16T11:21:08Z</time>
      </trkpt>
      <trkpt lat="43.46594" lon="2.30014">
        <ele>873</ele>
        <time>2019-03-16T11:21:09Z</time>
      </trkpt>
      <trkpt lat="43.46589" lon="2.30012">
        <ele>873</ele>
        <time>2019-03-16T11:21:11Z</time>
      </trkpt>
      <trkpt lat="43.46582" lon="2.30011">
        <ele>874</ele>
        <time>2019-03-16T11:21:14Z</time>
      </trkpt>
      <trkpt lat="43.46575" lon="2.30012">
        <ele>874</ele>
        <time>2019-03-16T11:21:18Z</time>
      </trkpt>
      <trkpt lat="43.46567" lon="2.30014">
        <ele>875</ele>
        <time>2019-03-16T11:21:23Z</time>
      </trkpt>
      <trkpt lat="43.46565" lon="2.30015">
        <ele>876</ele>
        <time>2019-03-16T11:21:25Z</time>
      </trkpt>
      <trkpt lat="43.46557" lon="2.30018">
        <ele>876</ele>
        <time>2019-03-16T11:21:30Z</time>
      </trkpt>
      <trkpt lat="43.46556" lon="2.30019">
        <ele>877</ele>
        <time>2019-03-16T11:21:31Z</time>
      </trkpt>
      <trkpt lat="43.46548" lon="2.30021">
        <ele>877</ele>
        <time>2019-03-16T11:21:34Z</time>
      </trkpt>
      <trkpt lat="43.46546" lon="2.30021">
        <ele>877</ele>
        <time>2019-03-16T11:21:35Z</time>
      </trkpt>
      <trkpt lat="43.4654" lon="2.30021">
        <ele>878</ele>
        <time>2019-03-16T11:21:38Z</time>
      </trkpt>
      <trkpt lat="43.46538" lon="2.30021">
        <ele>878</ele>
        <time>2019-03-16T11:21:39Z</time>
      </trkpt>
      <trkpt lat="43.4653" lon="2.30025">
        <ele>879</ele>
        <time>2019-03-16T11:21:44Z</time>
      </trkpt>
      <trkpt lat="43.46529" lon="2.30024">
        <ele>879</ele>
        <time>2019-03-16T11:21:45Z</time>
      </trkpt>
      <trkpt lat="43.46527" lon="2.30023">
        <ele>880</ele>
        <time>2019-03-16T11:21:47Z</time>
      </trkpt>
      <trkpt lat="43.46524" lon="2.30021">
        <ele>880</ele>
        <time>2019-03-16T11:21:49Z</time>
      </trkpt>
      <trkpt lat="43.46519" lon="2.30016">
        <ele>881</ele>
        <time>2019-03-16T11:21:52Z</time>
      </trkpt>
      <trkpt lat="43.46511" lon="2.30005">
        <ele>882</ele>
        <time>2019-03-16T11:21:59Z</time>
      </trkpt>
      <trkpt lat="43.46511" lon="2.30002">
        <ele>882</ele>
        <time>2019-03-16T11:22:01Z</time>
      </trkpt>
      <trkpt lat="43.46509" lon="2.29996">
        <ele>883</ele>
        <time>2019-03-16T11:22:05Z</time>
      </trkpt>
      <trkpt lat="43.46502" lon="2.29987">
        <ele>883</ele>
        <time>2019-03-16T11:22:10Z</time>
      </trkpt>
      <trkpt lat="43.46499" lon="2.29984">
        <ele>884</ele>
        <time>2019-03-16T11:22:12Z</time>
      </trkpt>
      <trkpt lat="43.46497" lon="2.29978">
        <ele>885</ele>
        <time>2019-03-16T11:22:16Z</time>
      </trkpt>
      <trkpt lat="43.46496" lon="2.29975">
        <ele>885</ele>
        <time>2019-03-16T11:22:17Z</time>
      </trkpt>
      <trkpt lat="43.46494" lon="2.29966">
        <ele>886</ele>
        <time>2019-03-16T11:22:22Z</time>
      </trkpt>
      <trkpt lat="43.4649" lon="2.29962">
        <ele>887</ele>
        <time>2019-03-16T11:22:26Z</time>
      </trkpt>
      <trkpt lat="43.46489" lon="2.29958">
        <ele>888</ele>
        <time>2019-03-16T11:22:29Z</time>
      </trkpt>
      <trkpt lat="43.46487" lon="2.29956">
        <ele>888</ele>
        <time>2019-03-16T11:22:30Z</time>
      </trkpt>
      <trkpt lat="43.46485" lon="2.29948">
        <ele>888</ele>
        <time>2019-03-16T11:22:34Z</time>
      </trkpt>
      <trkpt lat="43.46482" lon="2.29944">
        <ele>889</ele>
        <time>2019-03-16T11:22:37Z</time>
      </trkpt>
      <trkpt lat="43.46478" lon="2.29944">
        <ele>890</ele>
        <time>2019-03-16T11:22:40Z</time>
      </trkpt>
      <trkpt lat="43.46477" lon="2.29944">
        <ele>890</ele>
        <time>2019-03-16T11:22:41Z</time>
      </trkpt>
      <trkpt lat="43.4647" lon="2.29949">
        <ele>891</ele>
        <time>2019-03-16T11:22:46Z</time>
      </trkpt>
      <trkpt lat="43.46465" lon="2.29953">
        <ele>891</ele>
        <time>2019-03-16T11:22:49Z</time>
      </trkpt>
      <trkpt lat="43.4646" lon="2.29959">
        <ele>892</ele>
        <time>2019-03-16T11:22:53Z</time>
      </trkpt>
      <trkpt lat="43.46457" lon="2.29962">
        <ele>893</ele>
        <time>2019-03-16T11:22:55Z</time>
      </trkpt>
      <trkpt lat="43.46451" lon="2.29975">
        <ele>893</ele>
        <time>2019-03-16T11:23:01Z</time>
      </trkpt>
      <trkpt lat="43.46448" lon="2.2998">
        <ele>893</ele>
        <time>2019-03-16T11:23:04Z</time>
      </trkpt>
      <trkpt lat="43.46444" lon="2.29984">
        <ele>894</ele>
        <time>2019-03-16T11:23:07Z</time>
      </trkpt>
      <trkpt lat="43.46438" lon="2.29988">
        <ele>894</ele>
        <time>2019-03-16T11:23:10Z</time>
      </trkpt>
      <trkpt lat="43.46437" lon="2.29989">
        <ele>895</ele>
        <time>2019-03-16T11:23:11Z</time>
      </trkpt>
      <trkpt lat="43.46435" lon="2.29989">
        <ele>895</ele>
        <time>2019-03-16T11:23:12Z</time>
      </trkpt>
      <trkpt lat="43.46434" lon="2.2999">
        <ele>895</ele>
        <time>2019-03-16T11:23:13Z</time>
      </trkpt>
      <trkpt lat="43.46432" lon="2.29992">
        <ele>895</ele>
        <time>2019-03-16T11:23:15Z</time>
      </trkpt>
      <trkpt lat="43.4643" lon="2.29993">
        <ele>895</ele>
        <time>2019-03-16T11:23:16Z</time>
      </trkpt>
      <trkpt lat="43.46428" lon="2.29994">
        <ele>896</ele>
        <time>2019-03-16T11:23:18Z</time>
      </trkpt>
      <trkpt lat="43.46425" lon="2.29997">
        <ele>896</ele>
        <time>2019-03-16T11:23:21Z</time>
      </trkpt>
      <trkpt lat="43.46422" lon="2.3">
        <ele>897</ele>
        <time>2019-03-16T11:23:23Z</time>
      </trkpt>
      <trkpt lat="43.46421" lon="2.30001">
        <ele>897</ele>
        <time>2019-03-16T11:23:24Z</time>
      </trkpt>
      <trkpt lat="43.46417" lon="2.30002">
        <ele>897</ele>
        <time>2019-03-16T11:23:26Z</time>
      </trkpt>
      <trkpt lat="43.46411" lon="2.30004">
        <ele>898</ele>
        <time>2019-03-16T11:23:30Z</time>
      </trkpt>
      <trkpt lat="43.46408" lon="2.30005">
        <ele>898</ele>
        <time>2019-03-16T11:23:32Z</time>
      </trkpt>
      <trkpt lat="43.46403" lon="2.30007">
        <ele>899</ele>
        <time>2019-03-16T11:23:37Z</time>
      </trkpt>
      <trkpt lat="43.46394" lon="2.30014">
        <ele>900</ele>
        <time>2019-03-16T11:23:43Z</time>
      </trkpt>
      <trkpt lat="43.46392" lon="2.30015">
        <ele>900</ele>
        <time>2019-03-16T11:23:44Z</time>
      </trkpt>
      <trkpt lat="43.46383" lon="2.30021">
        <ele>901</ele>
        <time>2019-03-16T11:23:49Z</time>
      </trkpt>
      <trkpt lat="43.46382" lon="2.30022">
        <ele>902</ele>
        <time>2019-03-16T11:23:50Z</time>
      </trkpt>
      <trkpt lat="43.46376" lon="2.30026">
        <ele>902</ele>
        <time>2019-03-16T11:23:53Z</time>
      </trkpt>
      <trkpt lat="43.46375" lon="2.30026">
        <ele>902</ele>
        <time>2019-03-16T11:23:54Z</time>
      </trkpt>
      <trkpt lat="43.46369" lon="2.30032">
        <ele>903</ele>
        <time>2019-03-16T11:23:59Z</time>
      </trkpt>
      <trkpt lat="43.46368" lon="2.30034">
        <ele>903</ele>
        <time>2019-03-16T11:24:00Z</time>
      </trkpt>
      <trkpt lat="43.46363" lon="2.3004">
        <ele>904</ele>
        <time>2019-03-16T11:24:04Z</time>
      </trkpt>
      <trkpt lat="43.46363" lon="2.30041">
        <ele>905</ele>
        <time>2019-03-16T11:24:05Z</time>
      </trkpt>
      <trkpt lat="43.46362" lon="2.30046">
        <ele>905</ele>
        <time>2019-03-16T11:24:08Z</time>
      </trkpt>
      <trkpt lat="43.46361" lon="2.30049">
        <ele>906</ele>
        <time>2019-03-16T11:24:10Z</time>
      </trkpt>
      <trkpt lat="43.46358" lon="2.30051">
        <ele>906</ele>
        <time>2019-03-16T11:24:12Z</time>
      </trkpt>
      <trkpt lat="43.46357" lon="2.30053">
        <ele>906</ele>
        <time>2019-03-16T11:24:13Z</time>
      </trkpt>
      <trkpt lat="43.46356" lon="2.30056">
        <ele>906</ele>
        <time>2019-03-16T11:24:15Z</time>
      </trkpt>
      <trkpt lat="43.46352" lon="2.3006">
        <ele>907</ele>
        <time>2019-03-16T11:24:18Z</time>
      </trkpt>
      <trkpt lat="43.46351" lon="2.30061">
        <ele>907</ele>
        <time>2019-03-16T11:24:19Z</time>
      </trkpt>
      <trkpt lat="43.46345" lon="2.30068">
        <ele>908</ele>
        <time>2019-03-16T11:24:24Z</time>
      </trkpt>
      <trkpt lat="43.46343" lon="2.30071">
        <ele>909</ele>
        <time>2019-03-16T11:24:26Z</time>
      </trkpt>
      <trkpt lat="43.46336" lon="2.30079">
        <ele>909</ele>
        <time>2019-03-16T11:24:31Z</time>
      </trkpt>
      <trkpt lat="43.46328" lon="2.30085">
        <ele>910</ele>
        <time>2019-03-16T11:24:36Z</time>
      </trkpt>
      <trkpt lat="43.46326" lon="2.30086">
        <ele>910</ele>
        <time>2019-03-16T11:24:37Z</time>
      </trkpt>
      <trkpt lat="43.46325" lon="2.30087">
        <ele>911</ele>
        <time>2019-03-16T11:24:38Z</time>
      </trkpt>
      <trkpt lat="43.46319" lon="2.30091">
        <ele>911</ele>
        <time>2019-03-16T11:24:42Z</time>
      </trkpt>
      <trkpt lat="43.46317" lon="2.30093">
        <ele>911</ele>
        <time>2019-03-16T11:24:44Z</time>
      </trkpt>
      <trkpt lat="43.46312" lon="2.30096">
        <ele>912</ele>
        <time>2019-03-16T11:24:49Z</time>
      </trkpt>
      <trkpt lat="43.46303" lon="2.30098">
        <ele>913</ele>
        <time>2019-03-16T11:24:54Z</time>
      </trkpt>
      <trkpt lat="43.46303" lon="2.30099">
        <ele>914</ele>
        <time>2019-03-16T11:24:55Z</time>
      </trkpt>
      <trkpt lat="43.46297" lon="2.30101">
        <ele>914</ele>
        <time>2019-03-16T11:24:59Z</time>
      </trkpt>
      <trkpt lat="43.46294" lon="2.30102">
        <ele>915</ele>
        <time>2019-03-16T11:25:01Z</time>
      </trkpt>
      <trkpt lat="43.46289" lon="2.30105">
        <ele>915</ele>
        <time>2019-03-16T11:25:05Z</time>
      </trkpt>
      <trkpt lat="43.46284" lon="2.30106">
        <ele>916</ele>
        <time>2019-03-16T11:25:09Z</time>
      </trkpt>
      <trkpt lat="43.46277" lon="2.30108">
        <ele>917</ele>
        <time>2019-03-16T11:25:15Z</time>
      </trkpt>
      <trkpt lat="43.4627" lon="2.30109">
        <ele>918</ele>
        <time>2019-03-16T11:25:21Z</time>
      </trkpt>
      <trkpt lat="43.46265" lon="2.30108">
        <ele>918</ele>
        <time>2019-03-16T11:25:24Z</time>
      </trkpt>
      <trkpt lat="43.46261" lon="2.30108">
        <ele>919</ele>
        <time>2019-03-16T11:25:26Z</time>
      </trkpt>
      <trkpt lat="43.46255" lon="2.30107">
        <ele>920</ele>
        <time>2019-03-16T11:25:31Z</time>
      </trkpt>
      <trkpt lat="43.46254" lon="2.30107">
        <ele>920</ele>
        <time>2019-03-16T11:25:32Z</time>
      </trkpt>
      <trkpt lat="43.46248" lon="2.30109">
        <ele>921</ele>
        <time>2019-03-16T11:25:36Z</time>
      </trkpt>
      <trkpt lat="43.46247" lon="2.30109">
        <ele>921</ele>
        <time>2019-03-16T11:25:37Z</time>
      </trkpt>
      <trkpt lat="43.46238" lon="2.3011">
        <ele>922</ele>
        <time>2019-03-16T11:25:43Z</time>
      </trkpt>
      <trkpt lat="43.46236" lon="2.30111">
        <ele>922</ele>
        <time>2019-03-16T11:25:45Z</time>
      </trkpt>
      <trkpt lat="43.46232" lon="2.30111">
        <ele>923</ele>
        <time>2019-03-16T11:25:49Z</time>
      </trkpt>
      <trkpt lat="43.46227" lon="2.30112">
        <ele>923</ele>
        <time>2019-03-16T11:25:53Z</time>
      </trkpt>
      <trkpt lat="43.46222" lon="2.30114">
        <ele>924</ele>
        <time>2019-03-16T11:25:58Z</time>
      </trkpt>
      <trkpt lat="43.46217" lon="2.30115">
        <ele>924</ele>
        <time>2019-03-16T11:26:01Z</time>
      </trkpt>
      <trkpt lat="43.46211" lon="2.30117">
        <ele>925</ele>
        <time>2019-03-16T11:26:06Z</time>
      </trkpt>
      <trkpt lat="43.4621" lon="2.30117">
        <ele>925</ele>
        <time>2019-03-16T11:26:07Z</time>
      </trkpt>
      <trkpt lat="43.46201" lon="2.30116">
        <ele>926</ele>
        <time>2019-03-16T11:26:13Z</time>
      </trkpt>
      <trkpt lat="43.46199" lon="2.30116">
        <ele>927</ele>
        <time>2019-03-16T11:26:16Z</time>
      </trkpt>
      <trkpt lat="43.46201" lon="2.30111">
        <ele>927</ele>
        <time>2019-03-16T11:26:22Z</time>
      </trkpt>
      <trkpt lat="43.46202" lon="2.3011">
        <ele>927</ele>
        <time>2019-03-16T11:26:23Z</time>
      </trkpt>
      <trkpt lat="43.46209" lon="2.30108">
        <ele>927</ele>
        <time>2019-03-16T11:26:28Z</time>
      </trkpt>
      <trkpt lat="43.4621" lon="2.30108">
        <ele>927</ele>
        <time>2019-03-16T11:26:30Z</time>
      </trkpt>
      <trkpt lat="43.46207" lon="2.30107">
        <ele>927</ele>
        <time>2019-03-16T11:26:58Z</time>
      </trkpt>
      <trkpt lat="43.46206" lon="2.30108">
        <ele>927</ele>
        <time>2019-03-16T11:26:59Z</time>
      </trkpt>
      <trkpt lat="43.46196" lon="2.30111">
        <ele>927</ele>
        <time>2019-03-16T11:27:08Z</time>
      </trkpt>
      <trkpt lat="43.46194" lon="2.30112">
        <ele>927</ele>
        <time>2019-03-16T11:27:10Z</time>
      </trkpt>
      <trkpt lat="43.46193" lon="2.30117">
        <ele>927</ele>
        <time>2019-03-16T11:27:14Z</time>
      </trkpt>
      <trkpt lat="43.46194" lon="2.30117">
        <ele>927</ele>
        <time>2019-03-16T11:27:16Z</time>
      </trkpt>
      <trkpt lat="43.46199" lon="2.3012">
        <ele>927</ele>
        <time>2019-03-16T11:30:20Z</time>
      </trkpt>
      <trkpt lat="43.46199" lon="2.30119">
        <ele>927</ele>
        <time>2019-03-16T11:30:21Z</time>
      </trkpt>
      <trkpt lat="43.46198" lon="2.30119">
        <ele>927</ele>
        <time>2019-03-16T11:30:22Z</time>
      </trkpt>
      <trkpt lat="43.46197" lon="2.30113">
        <ele>927</ele>
        <time>2019-03-16T11:32:26Z</time>
      </trkpt>
      <trkpt lat="43.462" lon="2.30108">
        <ele>927</ele>
        <time>2019-03-16T11:32:30Z</time>
      </trkpt>
      <trkpt lat="43.46209" lon="2.30104">
        <ele>927</ele>
        <time>2019-03-16T11:32:37Z</time>
      </trkpt>
      <trkpt lat="43.46221" lon="2.30098">
        <ele>927</ele>
        <time>2019-03-16T11:32:44Z</time>
      </trkpt>
      <trkpt lat="43.46232" lon="2.30092">
        <ele>926</ele>
        <time>2019-03-16T11:32:49Z</time>
      </trkpt>
      <trkpt lat="43.46239" lon="2.30086">
        <ele>926</ele>
        <time>2019-03-16T11:32:53Z</time>
      </trkpt>
      <trkpt lat="43.46249" lon="2.30077">
        <ele>926</ele>
        <time>2019-03-16T11:32:56Z</time>
      </trkpt>
      <trkpt lat="43.46254" lon="2.30073">
        <ele>925</ele>
        <time>2019-03-16T11:32:57Z</time>
      </trkpt>
      <trkpt lat="43.4627" lon="2.30061">
        <ele>924</ele>
        <time>2019-03-16T11:33:00Z</time>
      </trkpt>
      <trkpt lat="43.46281" lon="2.30052">
        <ele>923</ele>
        <time>2019-03-16T11:33:02Z</time>
      </trkpt>
      <trkpt lat="43.46287" lon="2.30046">
        <ele>923</ele>
        <time>2019-03-16T11:33:03Z</time>
      </trkpt>
      <trkpt lat="43.463" lon="2.30027">
        <ele>922</ele>
        <time>2019-03-16T11:33:06Z</time>
      </trkpt>
      <trkpt lat="43.46308" lon="2.30015">
        <ele>921</ele>
        <time>2019-03-16T11:33:08Z</time>
      </trkpt>
      <trkpt lat="43.46316" lon="2.30001">
        <ele>920</ele>
        <time>2019-03-16T11:33:10Z</time>
      </trkpt>
      <trkpt lat="43.46322" lon="2.29995">
        <ele>919</ele>
        <time>2019-03-16T11:33:11Z</time>
      </trkpt>
      <trkpt lat="43.46328" lon="2.29988">
        <ele>919</ele>
        <time>2019-03-16T11:33:12Z</time>
      </trkpt>
      <trkpt lat="43.46338" lon="2.29974">
        <ele>918</ele>
        <time>2019-03-16T11:33:14Z</time>
      </trkpt>
      <trkpt lat="43.4635" lon="2.29959">
        <ele>917</ele>
        <time>2019-03-16T11:33:16Z</time>
      </trkpt>
      <trkpt lat="43.46357" lon="2.29952">
        <ele>916</ele>
        <time>2019-03-16T11:33:17Z</time>
      </trkpt>
      <trkpt lat="43.46363" lon="2.29944">
        <ele>915</ele>
        <time>2019-03-16T11:33:18Z</time>
      </trkpt>
      <trkpt lat="43.46377" lon="2.29929">
        <ele>913</ele>
        <time>2019-03-16T11:33:20Z</time>
      </trkpt>
      <trkpt lat="43.46383" lon="2.29921">
        <ele>913</ele>
        <time>2019-03-16T11:33:21Z</time>
      </trkpt>
      <trkpt lat="43.46399" lon="2.29893">
        <ele>913</ele>
        <time>2019-03-16T11:33:24Z</time>
      </trkpt>
      <trkpt lat="43.46406" lon="2.29872">
        <ele>912</ele>
        <time>2019-03-16T11:33:26Z</time>
      </trkpt>
      <trkpt lat="43.46409" lon="2.29862">
        <ele>911</ele>
        <time>2019-03-16T11:33:27Z</time>
      </trkpt>
      <trkpt lat="43.46417" lon="2.29843">
        <ele>911</ele>
        <time>2019-03-16T11:33:29Z</time>
      </trkpt>
      <trkpt lat="43.46419" lon="2.29824">
        <ele>910</ele>
        <time>2019-03-16T11:33:31Z</time>
      </trkpt>
      <trkpt lat="43.46424" lon="2.29807">
        <ele>910</ele>
        <time>2019-03-16T11:33:33Z</time>
      </trkpt>
      <trkpt lat="43.46427" lon="2.298">
        <ele>911</ele>
        <time>2019-03-16T11:33:34Z</time>
      </trkpt>
      <trkpt lat="43.46433" lon="2.29786">
        <ele>911</ele>
        <time>2019-03-16T11:33:36Z</time>
      </trkpt>
      <trkpt lat="43.46436" lon="2.29779">
        <ele>911</ele>
        <time>2019-03-16T11:33:37Z</time>
      </trkpt>
      <trkpt lat="43.46437" lon="2.29771">
        <ele>911</ele>
        <time>2019-03-16T11:33:38Z</time>
      </trkpt>
      <trkpt lat="43.46444" lon="2.29753">
        <ele>911</ele>
        <time>2019-03-16T11:33:41Z</time>
      </trkpt>
      <trkpt lat="43.46449" lon="2.29742">
        <ele>912</ele>
        <time>2019-03-16T11:33:43Z</time>
      </trkpt>
      <trkpt lat="43.46453" lon="2.29731">
        <ele>912</ele>
        <time>2019-03-16T11:33:45Z</time>
      </trkpt>
      <trkpt lat="43.46455" lon="2.29719">
        <ele>912</ele>
        <time>2019-03-16T11:33:47Z</time>
      </trkpt>
      <trkpt lat="43.46459" lon="2.29714">
        <ele>911</ele>
        <time>2019-03-16T11:33:48Z</time>
      </trkpt>
      <trkpt lat="43.4646" lon="2.29694">
        <ele>912</ele>
        <time>2019-03-16T11:33:51Z</time>
      </trkpt>
      <trkpt lat="43.4646" lon="2.29687">
        <ele>912</ele>
        <time>2019-03-16T11:33:52Z</time>
      </trkpt>
      <trkpt lat="43.46463" lon="2.29669">
        <ele>912</ele>
        <time>2019-03-16T11:33:55Z</time>
      </trkpt>
      <trkpt lat="43.46468" lon="2.29656">
        <ele>912</ele>
        <time>2019-03-16T11:33:57Z</time>
      </trkpt>
      <trkpt lat="43.46486" lon="2.29621">
        <ele>911</ele>
        <time>2019-03-16T11:34:03Z</time>
      </trkpt>
      <trkpt lat="43.46502" lon="2.296">
        <ele>911</ele>
        <time>2019-03-16T11:34:08Z</time>
      </trkpt>
      <trkpt lat="43.46501" lon="2.2957">
        <ele>911</ele>
        <time>2019-03-16T11:34:13Z</time>
      </trkpt>
      <trkpt lat="43.4651" lon="2.29546">
        <ele>911</ele>
        <time>2019-03-16T11:34:18Z</time>
      </trkpt>
      <trkpt lat="43.46513" lon="2.29531">
        <ele>911</ele>
        <time>2019-03-16T11:34:22Z</time>
      </trkpt>
      <trkpt lat="43.46519" lon="2.29521">
        <ele>912</ele>
        <time>2019-03-16T11:34:26Z</time>
      </trkpt>
      <trkpt lat="43.46532" lon="2.29516">
        <ele>912</ele>
        <time>2019-03-16T11:34:29Z</time>
      </trkpt>
      <trkpt lat="43.46541" lon="2.29511">
        <ele>912</ele>
        <time>2019-03-16T11:34:31Z</time>
      </trkpt>
      <trkpt lat="43.46551" lon="2.29504">
        <ele>913</ele>
        <time>2019-03-16T11:34:34Z</time>
      </trkpt>
      <trkpt lat="43.46557" lon="2.29501">
        <ele>914</ele>
        <time>2019-03-16T11:34:36Z</time>
      </trkpt>
      <trkpt lat="43.46559" lon="2.29498">
        <ele>914</ele>
        <time>2019-03-16T11:34:37Z</time>
      </trkpt>
      <trkpt lat="43.46563" lon="2.29493">
        <ele>915</ele>
        <time>2019-03-16T11:34:39Z</time>
      </trkpt>
      <trkpt lat="43.4657" lon="2.29485">
        <ele>916</ele>
        <time>2019-03-16T11:34:42Z</time>
      </trkpt>
      <trkpt lat="43.46571" lon="2.29482">
        <ele>916</ele>
        <time>2019-03-16T11:34:43Z</time>
      </trkpt>
      <trkpt lat="43.4658" lon="2.2947">
        <ele>917</ele>
        <time>2019-03-16T11:34:47Z</time>
      </trkpt>
      <trkpt lat="43.46582" lon="2.29466">
        <ele>917</ele>
        <time>2019-03-16T11:34:48Z</time>
      </trkpt>
      <trkpt lat="43.46589" lon="2.2945">
        <ele>918</ele>
        <time>2019-03-16T11:34:53Z</time>
      </trkpt>
      <trkpt lat="43.46591" lon="2.29434">
        <ele>920</ele>
        <time>2019-03-16T11:34:57Z</time>
      </trkpt>
      <trkpt lat="43.46593" lon="2.29431">
        <ele>920</ele>
        <time>2019-03-16T11:34:58Z</time>
      </trkpt>
      <trkpt lat="43.46593" lon="2.29427">
        <ele>920</ele>
        <time>2019-03-16T11:34:59Z</time>
      </trkpt>
      <trkpt lat="43.46596" lon="2.29412">
        <ele>921</ele>
        <time>2019-03-16T11:35:03Z</time>
      </trkpt>
      <trkpt lat="43.46597" lon="2.29398">
        <ele>922</ele>
        <time>2019-03-16T11:35:07Z</time>
      </trkpt>
      <trkpt lat="43.46598" lon="2.29391">
        <ele>923</ele>
        <time>2019-03-16T11:35:09Z</time>
      </trkpt>
      <trkpt lat="43.46599" lon="2.29387">
        <ele>923</ele>
        <time>2019-03-16T11:35:10Z</time>
      </trkpt>
      <trkpt lat="43.466" lon="2.29377">
        <ele>924</ele>
        <time>2019-03-16T11:35:13Z</time>
      </trkpt>
      <trkpt lat="43.46601" lon="2.29373">
        <ele>924</ele>
        <time>2019-03-16T11:35:14Z</time>
      </trkpt>
      <trkpt lat="43.46602" lon="2.29369">
        <ele>924</ele>
        <time>2019-03-16T11:35:15Z</time>
      </trkpt>
      <trkpt lat="43.46606" lon="2.29359">
        <ele>925</ele>
        <time>2019-03-16T11:35:18Z</time>
      </trkpt>
      <trkpt lat="43.46607" lon="2.29352">
        <ele>926</ele>
        <time>2019-03-16T11:35:20Z</time>
      </trkpt>
      <trkpt lat="43.46607" lon="2.29344">
        <ele>926</ele>
        <time>2019-03-16T11:35:22Z</time>
      </trkpt>
      <trkpt lat="43.46609" lon="2.29334">
        <ele>927</ele>
        <time>2019-03-16T11:35:25Z</time>
      </trkpt>
      <trkpt lat="43.4661" lon="2.29326">
        <ele>927</ele>
        <time>2019-03-16T11:35:27Z</time>
      </trkpt>
      <trkpt lat="43.46611" lon="2.29318">
        <ele>928</ele>
        <time>2019-03-16T11:35:29Z</time>
      </trkpt>
      <trkpt lat="43.46612" lon="2.29308">
        <ele>929</ele>
        <time>2019-03-16T11:35:32Z</time>
      </trkpt>
      <trkpt lat="43.46612" lon="2.29301">
        <ele>929</ele>
        <time>2019-03-16T11:35:34Z</time>
      </trkpt>
      <trkpt lat="43.46612" lon="2.2929">
        <ele>930</ele>
        <time>2019-03-16T11:35:37Z</time>
      </trkpt>
      <trkpt lat="43.46614" lon="2.2928">
        <ele>930</ele>
        <time>2019-03-16T11:35:40Z</time>
      </trkpt>
      <trkpt lat="43.46614" lon="2.29273">
        <ele>931</ele>
        <time>2019-03-16T11:35:42Z</time>
      </trkpt>
      <trkpt lat="43.46617" lon="2.29268">
        <ele>931</ele>
        <time>2019-03-16T11:35:44Z</time>
      </trkpt>
      <trkpt lat="43.46616" lon="2.29255">
        <ele>932</ele>
        <time>2019-03-16T11:35:48Z</time>
      </trkpt>
      <trkpt lat="43.46614" lon="2.29253">
        <ele>933</ele>
        <time>2019-03-16T11:35:49Z</time>
      </trkpt>
      <trkpt lat="43.46613" lon="2.29245">
        <ele>933</ele>
        <time>2019-03-16T11:35:52Z</time>
      </trkpt>
      <trkpt lat="43.46613" lon="2.29242">
        <ele>933</ele>
        <time>2019-03-16T11:35:53Z</time>
      </trkpt>
      <trkpt lat="43.46609" lon="2.29232">
        <ele>934</ele>
        <time>2019-03-16T11:35:56Z</time>
      </trkpt>
      <trkpt lat="43.46603" lon="2.29225">
        <ele>934</ele>
        <time>2019-03-16T11:35:58Z</time>
      </trkpt>
      <trkpt lat="43.46589" lon="2.29208">
        <ele>935</ele>
        <time>2019-03-16T11:36:03Z</time>
      </trkpt>
      <trkpt lat="43.46588" lon="2.29205">
        <ele>935</ele>
        <time>2019-03-16T11:36:04Z</time>
      </trkpt>
      <trkpt lat="43.46581" lon="2.29191">
        <ele>935</ele>
        <time>2019-03-16T11:36:08Z</time>
      </trkpt>
      <trkpt lat="43.4657" lon="2.29178">
        <ele>936</ele>
        <time>2019-03-16T11:36:12Z</time>
      </trkpt>
      <trkpt lat="43.46568" lon="2.29176">
        <ele>936</ele>
        <time>2019-03-16T11:36:13Z</time>
      </trkpt>
      <trkpt lat="43.4656" lon="2.29162">
        <ele>937</ele>
        <time>2019-03-16T11:36:17Z</time>
      </trkpt>
      <trkpt lat="43.46556" lon="2.29157">
        <ele>937</ele>
        <time>2019-03-16T11:36:19Z</time>
      </trkpt>
      <trkpt lat="43.46555" lon="2.29154">
        <ele>937</ele>
        <time>2019-03-16T11:36:20Z</time>
      </trkpt>
      <trkpt lat="43.46552" lon="2.29151">
        <ele>937</ele>
        <time>2019-03-16T11:36:21Z</time>
      </trkpt>
      <trkpt lat="43.46546" lon="2.29142">
        <ele>938</ele>
        <time>2019-03-16T11:36:24Z</time>
      </trkpt>
      <trkpt lat="43.46542" lon="2.29135">
        <ele>938</ele>
        <time>2019-03-16T11:36:27Z</time>
      </trkpt>
      <trkpt lat="43.46539" lon="2.29129">
        <ele>939</ele>
        <time>2019-03-16T11:36:29Z</time>
      </trkpt>
      <trkpt lat="43.46534" lon="2.29123">
        <ele>939</ele>
        <time>2019-03-16T11:36:31Z</time>
      </trkpt>
      <trkpt lat="43.46527" lon="2.29109">
        <ele>940</ele>
        <time>2019-03-16T11:36:35Z</time>
      </trkpt>
      <trkpt lat="43.46524" lon="2.29102">
        <ele>940</ele>
        <time>2019-03-16T11:36:37Z</time>
      </trkpt>
      <trkpt lat="43.46521" lon="2.29095">
        <ele>941</ele>
        <time>2019-03-16T11:36:39Z</time>
      </trkpt>
      <trkpt lat="43.46519" lon="2.29091">
        <ele>941</ele>
        <time>2019-03-16T11:36:40Z</time>
      </trkpt>
      <trkpt lat="43.46516" lon="2.29084">
        <ele>942</ele>
        <time>2019-03-16T11:36:42Z</time>
      </trkpt>
      <trkpt lat="43.46515" lon="2.29081">
        <ele>942</ele>
        <time>2019-03-16T11:36:43Z</time>
      </trkpt>
      <trkpt lat="43.4651" lon="2.29073">
        <ele>943</ele>
        <time>2019-03-16T11:36:46Z</time>
      </trkpt>
      <trkpt lat="43.46505" lon="2.29069">
        <ele>943</ele>
        <time>2019-03-16T11:36:48Z</time>
      </trkpt>
      <trkpt lat="43.46505" lon="2.29067">
        <ele>943</ele>
        <time>2019-03-16T11:36:49Z</time>
      </trkpt>
      <trkpt lat="43.46503" lon="2.29064">
        <ele>944</ele>
        <time>2019-03-16T11:36:52Z</time>
      </trkpt>
      <trkpt lat="43.46502" lon="2.29061">
        <ele>944</ele>
        <time>2019-03-16T11:36:54Z</time>
      </trkpt>
      <trkpt lat="43.46494" lon="2.29048">
        <ele>944</ele>
        <time>2019-03-16T11:37:24Z</time>
      </trkpt>
      <trkpt lat="43.46493" lon="2.29045">
        <ele>944</ele>
        <time>2019-03-16T11:37:27Z</time>
      </trkpt>
      <trkpt lat="43.46497" lon="2.29048">
        <ele>944</ele>
        <time>2019-03-16T11:37:31Z</time>
      </trkpt>
      <trkpt lat="43.465" lon="2.2905">
        <ele>944</ele>
        <time>2019-03-16T11:37:34Z</time>
      </trkpt>
      <trkpt lat="43.46501" lon="2.29051">
        <ele>943</ele>
        <time>2019-03-16T11:37:35Z</time>
      </trkpt>
      <trkpt lat="43.46506" lon="2.29055">
        <ele>942</ele>
        <time>2019-03-16T11:37:38Z</time>
      </trkpt>
      <trkpt lat="43.46508" lon="2.29056">
        <ele>941</ele>
        <time>2019-03-16T11:37:39Z</time>
      </trkpt>
      <trkpt lat="43.4651" lon="2.29057">
        <ele>940</ele>
        <time>2019-03-16T11:37:40Z</time>
      </trkpt>
      <trkpt lat="43.46517" lon="2.2906">
        <ele>939</ele>
        <time>2019-03-16T11:37:42Z</time>
      </trkpt>
      <trkpt lat="43.46521" lon="2.29064">
        <ele>938</ele>
        <time>2019-03-16T11:37:43Z</time>
      </trkpt>
      <trkpt lat="43.46525" lon="2.29068">
        <ele>938</ele>
        <time>2019-03-16T11:37:44Z</time>
      </trkpt>
      <trkpt lat="43.46529" lon="2.29073">
        <ele>937</ele>
        <time>2019-03-16T11:37:45Z</time>
      </trkpt>
      <trkpt lat="43.46533" lon="2.29078">
        <ele>937</ele>
        <time>2019-03-16T11:37:46Z</time>
      </trkpt>
      <trkpt lat="43.46536" lon="2.29082">
        <ele>936</ele>
        <time>2019-03-16T11:37:47Z</time>
      </trkpt>
      <trkpt lat="43.4654" lon="2.29087">
        <ele>935</ele>
        <time>2019-03-16T11:37:48Z</time>
      </trkpt>
      <trkpt lat="43.46546" lon="2.29095">
        <ele>934</ele>
        <time>2019-03-16T11:37:50Z</time>
      </trkpt>
      <trkpt lat="43.46549" lon="2.29099">
        <ele>934</ele>
        <time>2019-03-16T11:37:51Z</time>
      </trkpt>
      <trkpt lat="43.46553" lon="2.29102">
        <ele>933</ele>
        <time>2019-03-16T11:37:52Z</time>
      </trkpt>
      <trkpt lat="43.46561" lon="2.29112">
        <ele>932</ele>
        <time>2019-03-16T11:37:55Z</time>
      </trkpt>
      <trkpt lat="43.46564" lon="2.29116">
        <ele>931</ele>
        <time>2019-03-16T11:37:56Z</time>
      </trkpt>
      <trkpt lat="43.4657" lon="2.29123">
        <ele>931</ele>
        <time>2019-03-16T11:37:58Z</time>
      </trkpt>
      <trkpt lat="43.46574" lon="2.29126">
        <ele>930</ele>
        <time>2019-03-16T11:37:59Z</time>
      </trkpt>
      <trkpt lat="43.46581" lon="2.29135">
        <ele>930</ele>
        <time>2019-03-16T11:38:01Z</time>
      </trkpt>
      <trkpt lat="43.46587" lon="2.29143">
        <ele>930</ele>
        <time>2019-03-16T11:38:03Z</time>
      </trkpt>
      <trkpt lat="43.46599" lon="2.2916">
        <ele>929</ele>
        <time>2019-03-16T11:38:06Z</time>
      </trkpt>
      <trkpt lat="43.46602" lon="2.29163">
        <ele>929</ele>
        <time>2019-03-16T11:38:07Z</time>
      </trkpt>
      <trkpt lat="43.46607" lon="2.29166">
        <ele>928</ele>
        <time>2019-03-16T11:38:09Z</time>
      </trkpt>
      <trkpt lat="43.46616" lon="2.2917">
        <ele>928</ele>
        <time>2019-03-16T11:38:12Z</time>
      </trkpt>
      <trkpt lat="43.46621" lon="2.29171">
        <ele>926</ele>
        <time>2019-03-16T11:38:14Z</time>
      </trkpt>
      <trkpt lat="43.46624" lon="2.29172">
        <ele>925</ele>
        <time>2019-03-16T11:38:15Z</time>
      </trkpt>
      <trkpt lat="43.46627" lon="2.29174">
        <ele>924</ele>
        <time>2019-03-16T11:38:16Z</time>
      </trkpt>
      <trkpt lat="43.46629" lon="2.29176">
        <ele>924</ele>
        <time>2019-03-16T11:38:17Z</time>
      </trkpt>
      <trkpt lat="43.46636" lon="2.29183">
        <ele>922</ele>
        <time>2019-03-16T11:38:20Z</time>
      </trkpt>
      <trkpt lat="43.46639" lon="2.29185">
        <ele>922</ele>
        <time>2019-03-16T11:38:21Z</time>
      </trkpt>
      <trkpt lat="43.46647" lon="2.29189">
        <ele>920</ele>
        <time>2019-03-16T11:38:23Z</time>
      </trkpt>
      <trkpt lat="43.46651" lon="2.29191">
        <ele>919</ele>
        <time>2019-03-16T11:38:24Z</time>
      </trkpt>
      <trkpt lat="43.46654" lon="2.29193">
        <ele>919</ele>
        <time>2019-03-16T11:38:25Z</time>
      </trkpt>
      <trkpt lat="43.46661" lon="2.29196">
        <ele>917</ele>
        <time>2019-03-16T11:38:27Z</time>
      </trkpt>
      <trkpt lat="43.46665" lon="2.292">
        <ele>917</ele>
        <time>2019-03-16T11:38:28Z</time>
      </trkpt>
      <trkpt lat="43.46669" lon="2.29203">
        <ele>916</ele>
        <time>2019-03-16T11:38:29Z</time>
      </trkpt>
      <trkpt lat="43.46675" lon="2.29211">
        <ele>914</ele>
        <time>2019-03-16T11:38:31Z</time>
      </trkpt>
      <trkpt lat="43.46678" lon="2.29215">
        <ele>913</ele>
        <time>2019-03-16T11:38:32Z</time>
      </trkpt>
      <trkpt lat="43.46682" lon="2.29217">
        <ele>913</ele>
        <time>2019-03-16T11:38:33Z</time>
      </trkpt>
      <trkpt lat="43.46687" lon="2.2922">
        <ele>912</ele>
        <time>2019-03-16T11:38:34Z</time>
      </trkpt>
      <trkpt lat="43.46694" lon="2.29228">
        <ele>911</ele>
        <time>2019-03-16T11:38:36Z</time>
      </trkpt>
      <trkpt lat="43.46698" lon="2.29232">
        <ele>910</ele>
        <time>2019-03-16T11:38:37Z</time>
      </trkpt>
      <trkpt lat="43.46701" lon="2.29238">
        <ele>909</ele>
        <time>2019-03-16T11:38:38Z</time>
      </trkpt>
      <trkpt lat="43.46703" lon="2.29243">
        <ele>908</ele>
        <time>2019-03-16T11:38:39Z</time>
      </trkpt>
      <trkpt lat="43.46705" lon="2.29247">
        <ele>908</ele>
        <time>2019-03-16T11:38:40Z</time>
      </trkpt>
      <trkpt lat="43.46709" lon="2.29263">
        <ele>907</ele>
        <time>2019-03-16T11:38:43Z</time>
      </trkpt>
      <trkpt lat="43.46711" lon="2.29271">
        <ele>906</ele>
        <time>2019-03-16T11:38:44Z</time>
      </trkpt>
      <trkpt lat="43.46712" lon="2.29279">
        <ele>906</ele>
        <time>2019-03-16T11:38:45Z</time>
      </trkpt>
      <trkpt lat="43.46711" lon="2.29292">
        <ele>904</ele>
        <time>2019-03-16T11:38:47Z</time>
      </trkpt>
      <trkpt lat="43.46708" lon="2.29295">
        <ele>904</ele>
        <time>2019-03-16T11:38:48Z</time>
      </trkpt>
      <trkpt lat="43.46705" lon="2.29301">
        <ele>904</ele>
        <time>2019-03-16T11:38:50Z</time>
      </trkpt>
      <trkpt lat="43.46706" lon="2.29306">
        <ele>904</ele>
        <time>2019-03-16T11:38:51Z</time>
      </trkpt>
      <trkpt lat="43.46713" lon="2.29324">
        <ele>905</ele>
        <time>2019-03-16T11:38:55Z</time>
      </trkpt>
      <trkpt lat="43.46715" lon="2.29327">
        <ele>905</ele>
        <time>2019-03-16T11:38:56Z</time>
      </trkpt>
      <trkpt lat="43.46721" lon="2.29345">
        <ele>903</ele>
        <time>2019-03-16T11:39:00Z</time>
      </trkpt>
      <trkpt lat="43.46724" lon="2.2935">
        <ele>903</ele>
        <time>2019-03-16T11:39:01Z</time>
      </trkpt>
      <trkpt lat="43.46726" lon="2.29355">
        <ele>902</ele>
        <time>2019-03-16T11:39:02Z</time>
      </trkpt>
      <trkpt lat="43.46728" lon="2.29362">
        <ele>900</ele>
        <time>2019-03-16T11:39:03Z</time>
      </trkpt>
      <trkpt lat="43.46732" lon="2.29374">
        <ele>899</ele>
        <time>2019-03-16T11:39:05Z</time>
      </trkpt>
      <trkpt lat="43.46733" lon="2.29387">
        <ele>898</ele>
        <time>2019-03-16T11:39:07Z</time>
      </trkpt>
      <trkpt lat="43.46735" lon="2.29399">
        <ele>896</ele>
        <time>2019-03-16T11:39:09Z</time>
      </trkpt>
      <trkpt lat="43.46742" lon="2.29408">
        <ele>896</ele>
        <time>2019-03-16T11:39:13Z</time>
      </trkpt>
      <trkpt lat="43.46747" lon="2.29421">
        <ele>896</ele>
        <time>2019-03-16T11:39:16Z</time>
      </trkpt>
      <trkpt lat="43.46749" lon="2.29427">
        <ele>895</ele>
        <time>2019-03-16T11:39:17Z</time>
      </trkpt>
      <trkpt lat="43.4675" lon="2.29432">
        <ele>895</ele>
        <time>2019-03-16T11:39:18Z</time>
      </trkpt>
      <trkpt lat="43.46751" lon="2.29435">
        <ele>894</ele>
        <time>2019-03-16T11:39:19Z</time>
      </trkpt>
      <trkpt lat="43.46752" lon="2.29437">
        <ele>894</ele>
        <time>2019-03-16T11:39:20Z</time>
      </trkpt>
      <trkpt lat="43.46754" lon="2.29439">
        <ele>894</ele>
        <time>2019-03-16T11:39:23Z</time>
      </trkpt>
      <trkpt lat="43.46753" lon="2.29439">
        <ele>894</ele>
        <time>2019-03-16T11:39:37Z</time>
      </trkpt>
      <trkpt lat="43.46756" lon="2.29442">
        <ele>894</ele>
        <time>2019-03-16T11:39:42Z</time>
      </trkpt>
      <trkpt lat="43.46758" lon="2.29442">
        <ele>894</ele>
        <time>2019-03-16T11:39:44Z</time>
      </trkpt>
      <trkpt lat="43.46767" lon="2.29444">
        <ele>894</ele>
        <time>2019-03-16T11:39:49Z</time>
      </trkpt>
      <trkpt lat="43.46768" lon="2.29445">
        <ele>894</ele>
        <time>2019-03-16T11:39:50Z</time>
      </trkpt>
      <trkpt lat="43.46771" lon="2.29446">
        <ele>894</ele>
        <time>2019-03-16T11:39:54Z</time>
      </trkpt>
      <trkpt lat="43.46778" lon="2.29445">
        <ele>893</ele>
        <time>2019-03-16T11:41:30Z</time>
      </trkpt>
      <trkpt lat="43.46782" lon="2.29443">
        <ele>893</ele>
        <time>2019-03-16T11:41:35Z</time>
      </trkpt>
      <trkpt lat="43.46784" lon="2.29441">
        <ele>893</ele>
        <time>2019-03-16T11:41:38Z</time>
      </trkpt>
      <trkpt lat="43.46793" lon="2.29435">
        <ele>894</ele>
        <time>2019-03-16T11:41:44Z</time>
      </trkpt>
      <trkpt lat="43.46794" lon="2.29436">
        <ele>894</ele>
        <time>2019-03-16T11:41:45Z</time>
      </trkpt>
      <trkpt lat="43.46802" lon="2.29434">
        <ele>893</ele>
        <time>2019-03-16T11:41:48Z</time>
      </trkpt>
      <trkpt lat="43.46804" lon="2.29433">
        <ele>893</ele>
        <time>2019-03-16T11:41:49Z</time>
      </trkpt>
      <trkpt lat="43.46806" lon="2.29431">
        <ele>893</ele>
        <time>2019-03-16T11:41:50Z</time>
      </trkpt>
      <trkpt lat="43.46812" lon="2.29428">
        <ele>893</ele>
        <time>2019-03-16T11:41:53Z</time>
      </trkpt>
      <trkpt lat="43.46819" lon="2.29426">
        <ele>893</ele>
        <time>2019-03-16T11:41:55Z</time>
      </trkpt>
      <trkpt lat="43.46831" lon="2.29421">
        <ele>893</ele>
        <time>2019-03-16T11:41:58Z</time>
      </trkpt>
      <trkpt lat="43.46842" lon="2.29411">
        <ele>893</ele>
        <time>2019-03-16T11:42:02Z</time>
      </trkpt>
      <trkpt lat="43.46845" lon="2.2941">
        <ele>893</ele>
        <time>2019-03-16T11:42:03Z</time>
      </trkpt>
      <trkpt lat="43.46854" lon="2.29406">
        <ele>892</ele>
        <time>2019-03-16T11:42:06Z</time>
      </trkpt>
      <trkpt lat="43.46856" lon="2.29403">
        <ele>892</ele>
        <time>2019-03-16T11:42:07Z</time>
      </trkpt>
      <trkpt lat="43.46862" lon="2.29399">
        <ele>892</ele>
        <time>2019-03-16T11:42:09Z</time>
      </trkpt>
      <trkpt lat="43.46865" lon="2.29397">
        <ele>892</ele>
        <time>2019-03-16T11:42:10Z</time>
      </trkpt>
      <trkpt lat="43.46875" lon="2.29386">
        <ele>891</ele>
        <time>2019-03-16T11:42:14Z</time>
      </trkpt>
      <trkpt lat="43.46881" lon="2.29381">
        <ele>890</ele>
        <time>2019-03-16T11:42:15Z</time>
      </trkpt>
      <trkpt lat="43.4689" lon="2.29371">
        <ele>890</ele>
        <time>2019-03-16T11:42:17Z</time>
      </trkpt>
      <trkpt lat="43.46893" lon="2.29365">
        <ele>890</ele>
        <time>2019-03-16T11:42:18Z</time>
      </trkpt>
      <trkpt lat="43.46904" lon="2.29357">
        <ele>889</ele>
        <time>2019-03-16T11:42:20Z</time>
      </trkpt>
      <trkpt lat="43.46911" lon="2.29352">
        <ele>889</ele>
        <time>2019-03-16T11:42:21Z</time>
      </trkpt>
      <trkpt lat="43.4693" lon="2.29336">
        <ele>889</ele>
        <time>2019-03-16T11:42:25Z</time>
      </trkpt>
      <trkpt lat="43.46935" lon="2.29333">
        <ele>889</ele>
        <time>2019-03-16T11:42:26Z</time>
      </trkpt>
      <trkpt lat="43.46941" lon="2.29327">
        <ele>888</ele>
        <time>2019-03-16T11:42:28Z</time>
      </trkpt>
      <trkpt lat="43.46952" lon="2.2932">
        <ele>889</ele>
        <time>2019-03-16T11:42:33Z</time>
      </trkpt>
      <trkpt lat="43.46955" lon="2.29317">
        <ele>889</ele>
        <time>2019-03-16T11:42:35Z</time>
      </trkpt>
      <trkpt lat="43.46975" lon="2.29314">
        <ele>889</ele>
        <time>2019-03-16T11:42:46Z</time>
      </trkpt>
      <trkpt lat="43.46977" lon="2.29314">
        <ele>889</ele>
        <time>2019-03-16T11:42:47Z</time>
      </trkpt>
      <trkpt lat="43.46987" lon="2.29314">
        <ele>889</ele>
        <time>2019-03-16T11:42:51Z</time>
      </trkpt>
      <trkpt lat="43.46988" lon="2.29314">
        <ele>889</ele>
        <time>2019-03-16T11:42:52Z</time>
      </trkpt>
      <trkpt lat="43.46992" lon="2.29315">
        <ele>889</ele>
        <time>2019-03-16T11:42:54Z</time>
      </trkpt>
      <trkpt lat="43.46997" lon="2.29316">
        <ele>889</ele>
        <time>2019-03-16T11:42:56Z</time>
      </trkpt>
      <trkpt lat="43.47004" lon="2.29319">
        <ele>889</ele>
        <time>2019-03-16T11:42:58Z</time>
      </trkpt>
      <trkpt lat="43.47005" lon="2.2932">
        <ele>889</ele>
        <time>2019-03-16T11:42:59Z</time>
      </trkpt>
      <trkpt lat="43.47007" lon="2.2932">
        <ele>888</ele>
        <time>2019-03-16T11:43:00Z</time>
      </trkpt>
      <trkpt lat="43.47008" lon="2.2932">
        <ele>888</ele>
        <time>2019-03-16T11:43:01Z</time>
      </trkpt>
      <trkpt lat="43.47027" lon="2.29316">
        <ele>887</ele>
        <time>2019-03-16T11:43:12Z</time>
      </trkpt>
      <trkpt lat="43.47032" lon="2.29311">
        <ele>886</ele>
        <time>2019-03-16T11:43:16Z</time>
      </trkpt>
      <trkpt lat="43.47036" lon="2.29309">
        <ele>885</ele>
        <time>2019-03-16T11:43:18Z</time>
      </trkpt>
      <trkpt lat="43.47039" lon="2.2931">
        <ele>885</ele>
        <time>2019-03-16T11:43:19Z</time>
      </trkpt>
      <trkpt lat="43.47042" lon="2.29311">
        <ele>885</ele>
        <time>2019-03-16T11:43:20Z</time>
      </trkpt>
      <trkpt lat="43.47048" lon="2.29312">
        <ele>884</ele>
        <time>2019-03-16T11:43:22Z</time>
      </trkpt>
      <trkpt lat="43.47053" lon="2.29315">
        <ele>884</ele>
        <time>2019-03-16T11:43:24Z</time>
      </trkpt>
      <trkpt lat="43.47058" lon="2.2932">
        <ele>883</ele>
        <time>2019-03-16T11:43:27Z</time>
      </trkpt>
      <trkpt lat="43.4706" lon="2.29321">
        <ele>882</ele>
        <time>2019-03-16T11:43:28Z</time>
      </trkpt>
      <trkpt lat="43.47063" lon="2.2932">
        <ele>882</ele>
        <time>2019-03-16T11:43:30Z</time>
      </trkpt>
      <trkpt lat="43.47064" lon="2.29319">
        <ele>881</ele>
        <time>2019-03-16T11:43:31Z</time>
      </trkpt>
      <trkpt lat="43.47066" lon="2.29319">
        <ele>881</ele>
        <time>2019-03-16T11:43:32Z</time>
      </trkpt>
      <trkpt lat="43.47074" lon="2.2932">
        <ele>880</ele>
        <time>2019-03-16T11:43:35Z</time>
      </trkpt>
      <trkpt lat="43.47077" lon="2.29321">
        <ele>880</ele>
        <time>2019-03-16T11:43:36Z</time>
      </trkpt>
      <trkpt lat="43.47083" lon="2.2932">
        <ele>879</ele>
        <time>2019-03-16T11:43:39Z</time>
      </trkpt>
      <trkpt lat="43.47084" lon="2.29317">
        <ele>878</ele>
        <time>2019-03-16T11:43:40Z</time>
      </trkpt>
      <trkpt lat="43.47093" lon="2.29311">
        <ele>878</ele>
        <time>2019-03-16T11:43:42Z</time>
      </trkpt>
      <trkpt lat="43.47096" lon="2.2931">
        <ele>877</ele>
        <time>2019-03-16T11:43:43Z</time>
      </trkpt>
      <trkpt lat="43.47101" lon="2.29311">
        <ele>877</ele>
        <time>2019-03-16T11:43:45Z</time>
      </trkpt>
      <trkpt lat="43.47107" lon="2.29309">
        <ele>876</ele>
        <time>2019-03-16T11:43:47Z</time>
      </trkpt>
      <trkpt lat="43.47112" lon="2.29309">
        <ele>875</ele>
        <time>2019-03-16T11:43:49Z</time>
      </trkpt>
      <trkpt lat="43.4712" lon="2.29305">
        <ele>874</ele>
        <time>2019-03-16T11:43:52Z</time>
      </trkpt>
      <trkpt lat="43.47132" lon="2.293">
        <ele>873</ele>
        <time>2019-03-16T11:43:56Z</time>
      </trkpt>
      <trkpt lat="43.47135" lon="2.293">
        <ele>872</ele>
        <time>2019-03-16T11:43:57Z</time>
      </trkpt>
      <trkpt lat="43.47143" lon="2.29297">
        <ele>872</ele>
        <time>2019-03-16T11:43:59Z</time>
      </trkpt>
      <trkpt lat="43.47148" lon="2.2929">
        <ele>871</ele>
        <time>2019-03-16T11:44:01Z</time>
      </trkpt>
      <trkpt lat="43.47162" lon="2.29279">
        <ele>871</ele>
        <time>2019-03-16T11:44:05Z</time>
      </trkpt>
      <trkpt lat="43.47164" lon="2.29277">
        <ele>870</ele>
        <time>2019-03-16T11:44:06Z</time>
      </trkpt>
      <trkpt lat="43.47179" lon="2.29266">
        <ele>870</ele>
        <time>2019-03-16T11:44:11Z</time>
      </trkpt>
      <trkpt lat="43.47181" lon="2.29264">
        <ele>870</ele>
        <time>2019-03-16T11:44:12Z</time>
      </trkpt>
      <trkpt lat="43.47182" lon="2.29263">
        <ele>870</ele>
        <time>2019-03-16T11:44:13Z</time>
      </trkpt>
      <trkpt lat="43.47189" lon="2.29258">
        <ele>869</ele>
        <time>2019-03-16T11:44:15Z</time>
      </trkpt>
      <trkpt lat="43.47192" lon="2.29257">
        <ele>869</ele>
        <time>2019-03-16T11:44:16Z</time>
      </trkpt>
      <trkpt lat="43.47196" lon="2.29255">
        <ele>869</ele>
        <time>2019-03-16T11:44:17Z</time>
      </trkpt>
      <trkpt lat="43.47199" lon="2.29251">
        <ele>868</ele>
        <time>2019-03-16T11:44:18Z</time>
      </trkpt>
      <trkpt lat="43.47203" lon="2.29247">
        <ele>867</ele>
        <time>2019-03-16T11:44:19Z</time>
      </trkpt>
      <trkpt lat="43.47212" lon="2.29238">
        <ele>866</ele>
        <time>2019-03-16T11:44:22Z</time>
      </trkpt>
      <trkpt lat="43.47216" lon="2.29235">
        <ele>865</ele>
        <time>2019-03-16T11:44:23Z</time>
      </trkpt>
      <trkpt lat="43.4722" lon="2.29231">
        <ele>864</ele>
        <time>2019-03-16T11:44:24Z</time>
      </trkpt>
      <trkpt lat="43.47226" lon="2.29221">
        <ele>863</ele>
        <time>2019-03-16T11:44:26Z</time>
      </trkpt>
      <trkpt lat="43.47228" lon="2.29218">
        <ele>862</ele>
        <time>2019-03-16T11:44:27Z</time>
      </trkpt>
      <trkpt lat="43.47233" lon="2.29215">
        <ele>862</ele>
        <time>2019-03-16T11:44:29Z</time>
      </trkpt>
      <trkpt lat="43.47237" lon="2.29212">
        <ele>862</ele>
        <time>2019-03-16T11:44:31Z</time>
      </trkpt>
      <trkpt lat="43.47244" lon="2.29207">
        <ele>861</ele>
        <time>2019-03-16T11:44:34Z</time>
      </trkpt>
      <trkpt lat="43.47248" lon="2.29205">
        <ele>861</ele>
        <time>2019-03-16T11:44:36Z</time>
      </trkpt>
      <trkpt lat="43.47255" lon="2.29202">
        <ele>859</ele>
        <time>2019-03-16T11:44:39Z</time>
      </trkpt>
      <trkpt lat="43.47259" lon="2.29202">
        <ele>859</ele>
        <time>2019-03-16T11:44:40Z</time>
      </trkpt>
      <trkpt lat="43.47263" lon="2.29205">
        <ele>859</ele>
        <time>2019-03-16T11:44:42Z</time>
      </trkpt>
      <trkpt lat="43.47267" lon="2.29207">
        <ele>859</ele>
        <time>2019-03-16T11:44:44Z</time>
      </trkpt>
      <trkpt lat="43.47269" lon="2.29207">
        <ele>859</ele>
        <time>2019-03-16T11:44:45Z</time>
      </trkpt>
      <trkpt lat="43.47272" lon="2.29206">
        <ele>859</ele>
        <time>2019-03-16T11:44:46Z</time>
      </trkpt>
      <trkpt lat="43.47282" lon="2.29205">
        <ele>858</ele>
        <time>2019-03-16T11:44:50Z</time>
      </trkpt>
      <trkpt lat="43.47287" lon="2.29204">
        <ele>857</ele>
        <time>2019-03-16T11:44:52Z</time>
      </trkpt>
      <trkpt lat="43.47293" lon="2.29202">
        <ele>855</ele>
        <time>2019-03-16T11:44:54Z</time>
      </trkpt>
      <trkpt lat="43.47296" lon="2.29201">
        <ele>854</ele>
        <time>2019-03-16T11:44:55Z</time>
      </trkpt>
      <trkpt lat="43.473" lon="2.29199">
        <ele>853</ele>
        <time>2019-03-16T11:44:57Z</time>
      </trkpt>
      <trkpt lat="43.47303" lon="2.29199">
        <ele>852</ele>
        <time>2019-03-16T11:44:58Z</time>
      </trkpt>
      <trkpt lat="43.47305" lon="2.29199">
        <ele>852</ele>
        <time>2019-03-16T11:44:59Z</time>
      </trkpt>
      <trkpt lat="43.47311" lon="2.29198">
        <ele>851</ele>
        <time>2019-03-16T11:45:01Z</time>
      </trkpt>
      <trkpt lat="43.47315" lon="2.29199">
        <ele>850</ele>
        <time>2019-03-16T11:45:02Z</time>
      </trkpt>
      <trkpt lat="43.47319" lon="2.29202">
        <ele>849</ele>
        <time>2019-03-16T11:45:03Z</time>
      </trkpt>
      <trkpt lat="43.47326" lon="2.2921">
        <ele>848</ele>
        <time>2019-03-16T11:45:06Z</time>
      </trkpt>
      <trkpt lat="43.47339" lon="2.29212">
        <ele>847</ele>
        <time>2019-03-16T11:45:10Z</time>
      </trkpt>
      <trkpt lat="43.47346" lon="2.29215">
        <ele>845</ele>
        <time>2019-03-16T11:45:13Z</time>
      </trkpt>
      <trkpt lat="43.47349" lon="2.29216">
        <ele>844</ele>
        <time>2019-03-16T11:45:14Z</time>
      </trkpt>
      <trkpt lat="43.47351" lon="2.29216">
        <ele>844</ele>
        <time>2019-03-16T11:45:15Z</time>
      </trkpt>
      <trkpt lat="43.47357" lon="2.29215">
        <ele>843</ele>
        <time>2019-03-16T11:45:19Z</time>
      </trkpt>
      <trkpt lat="43.47367" lon="2.29214">
        <ele>843</ele>
        <time>2019-03-16T11:46:09Z</time>
      </trkpt>
      <trkpt lat="43.47368" lon="2.29213">
        <ele>843</ele>
        <time>2019-03-16T11:46:10Z</time>
      </trkpt>
      <trkpt lat="43.47369" lon="2.29211">
        <ele>842</ele>
        <time>2019-03-16T11:46:11Z</time>
      </trkpt>
      <trkpt lat="43.47372" lon="2.29209">
        <ele>842</ele>
        <time>2019-03-16T11:46:13Z</time>
      </trkpt>
      <trkpt lat="43.47376" lon="2.29204">
        <ele>841</ele>
        <time>2019-03-16T11:46:16Z</time>
      </trkpt>
      <trkpt lat="43.47377" lon="2.29202">
        <ele>840</ele>
        <time>2019-03-16T11:46:17Z</time>
      </trkpt>
      <trkpt lat="43.4738" lon="2.29201">
        <ele>839</ele>
        <time>2019-03-16T11:46:18Z</time>
      </trkpt>
      <trkpt lat="43.47385" lon="2.29196">
        <ele>838</ele>
        <time>2019-03-16T11:46:21Z</time>
      </trkpt>
      <trkpt lat="43.47389" lon="2.29195">
        <ele>836</ele>
        <time>2019-03-16T11:46:23Z</time>
      </trkpt>
      <trkpt lat="43.47399" lon="2.29192">
        <ele>835</ele>
        <time>2019-03-16T11:46:26Z</time>
      </trkpt>
      <trkpt lat="43.47407" lon="2.29183">
        <ele>834</ele>
        <time>2019-03-16T11:46:29Z</time>
      </trkpt>
      <trkpt lat="43.47409" lon="2.2918">
        <ele>834</ele>
        <time>2019-03-16T11:46:30Z</time>
      </trkpt>
      <trkpt lat="43.47413" lon="2.29174">
        <ele>833</ele>
        <time>2019-03-16T11:46:32Z</time>
      </trkpt>
      <trkpt lat="43.47418" lon="2.29168">
        <ele>832</ele>
        <time>2019-03-16T11:46:34Z</time>
      </trkpt>
      <trkpt lat="43.47423" lon="2.29162">
        <ele>830</ele>
        <time>2019-03-16T11:46:36Z</time>
      </trkpt>
      <trkpt lat="43.4743" lon="2.29157">
        <ele>829</ele>
        <time>2019-03-16T11:46:38Z</time>
      </trkpt>
      <trkpt lat="43.47434" lon="2.29154">
        <ele>828</ele>
        <time>2019-03-16T11:46:39Z</time>
      </trkpt>
      <trkpt lat="43.47438" lon="2.29152">
        <ele>827</ele>
        <time>2019-03-16T11:46:40Z</time>
      </trkpt>
      <trkpt lat="43.47443" lon="2.29151">
        <ele>827</ele>
        <time>2019-03-16T11:46:41Z</time>
      </trkpt>
      <trkpt lat="43.47451" lon="2.29149">
        <ele>826</ele>
        <time>2019-03-16T11:46:43Z</time>
      </trkpt>
      <trkpt lat="43.47462" lon="2.29148">
        <ele>825</ele>
        <time>2019-03-16T11:46:46Z</time>
      </trkpt>
      <trkpt lat="43.47469" lon="2.29134">
        <ele>824</ele>
        <time>2019-03-16T11:46:49Z</time>
      </trkpt>
      <trkpt lat="43.47472" lon="2.2913">
        <ele>823</ele>
        <time>2019-03-16T11:46:51Z</time>
      </trkpt>
      <trkpt lat="43.47477" lon="2.29122">
        <ele>823</ele>
        <time>2019-03-16T11:47:08Z</time>
      </trkpt>
      <trkpt lat="43.47478" lon="2.29122">
        <ele>823</ele>
        <time>2019-03-16T11:47:09Z</time>
      </trkpt>
      <trkpt lat="43.47484" lon="2.29119">
        <ele>823</ele>
        <time>2019-03-16T11:47:14Z</time>
      </trkpt>
      <trkpt lat="43.47487" lon="2.29118">
        <ele>823</ele>
        <time>2019-03-16T11:47:15Z</time>
      </trkpt>
      <trkpt lat="43.47495" lon="2.29118">
        <ele>822</ele>
        <time>2019-03-16T11:47:17Z</time>
      </trkpt>
      <trkpt lat="43.47499" lon="2.29118">
        <ele>820</ele>
        <time>2019-03-16T11:47:19Z</time>
      </trkpt>
      <trkpt lat="43.47507" lon="2.29123">
        <ele>819</ele>
        <time>2019-03-16T11:47:22Z</time>
      </trkpt>
      <trkpt lat="43.4751" lon="2.29122">
        <ele>819</ele>
        <time>2019-03-16T11:47:23Z</time>
      </trkpt>
      <trkpt lat="43.47515" lon="2.29126">
        <ele>818</ele>
        <time>2019-03-16T11:47:25Z</time>
      </trkpt>
      <trkpt lat="43.47516" lon="2.29127">
        <ele>818</ele>
        <time>2019-03-16T11:47:26Z</time>
      </trkpt>
      <trkpt lat="43.47519" lon="2.29127">
        <ele>817</ele>
        <time>2019-03-16T11:47:28Z</time>
      </trkpt>
      <trkpt lat="43.47524" lon="2.29127">
        <ele>816</ele>
        <time>2019-03-16T11:47:30Z</time>
      </trkpt>
      <trkpt lat="43.4753" lon="2.29127">
        <ele>815</ele>
        <time>2019-03-16T11:47:32Z</time>
      </trkpt>
      <trkpt lat="43.47532" lon="2.29127">
        <ele>815</ele>
        <time>2019-03-16T11:47:33Z</time>
      </trkpt>
      <trkpt lat="43.47542" lon="2.29127">
        <ele>814</ele>
        <time>2019-03-16T11:47:36Z</time>
      </trkpt>
      <trkpt lat="43.47547" lon="2.29121">
        <ele>812</ele>
        <time>2019-03-16T11:47:38Z</time>
      </trkpt>
      <trkpt lat="43.4755" lon="2.29118">
        <ele>812</ele>
        <time>2019-03-16T11:47:39Z</time>
      </trkpt>
      <trkpt lat="43.47553" lon="2.29109">
        <ele>811</ele>
        <time>2019-03-16T11:47:41Z</time>
      </trkpt>
      <trkpt lat="43.47554" lon="2.29103">
        <ele>811</ele>
        <time>2019-03-16T11:47:42Z</time>
      </trkpt>
      <trkpt lat="43.47553" lon="2.29094">
        <ele>810</ele>
        <time>2019-03-16T11:47:44Z</time>
      </trkpt>
      <trkpt lat="43.47555" lon="2.2909">
        <ele>810</ele>
        <time>2019-03-16T11:47:45Z</time>
      </trkpt>
      <trkpt lat="43.47566" lon="2.2908">
        <ele>809</ele>
        <time>2019-03-16T11:47:48Z</time>
      </trkpt>
      <trkpt lat="43.47566" lon="2.29078">
        <ele>808</ele>
        <time>2019-03-16T11:47:49Z</time>
      </trkpt>
      <trkpt lat="43.47569" lon="2.29069">
        <ele>806</ele>
        <time>2019-03-16T11:47:51Z</time>
      </trkpt>
      <trkpt lat="43.4757" lon="2.29066">
        <ele>805</ele>
        <time>2019-03-16T11:47:52Z</time>
      </trkpt>
      <trkpt lat="43.47573" lon="2.29063">
        <ele>805</ele>
        <time>2019-03-16T11:47:53Z</time>
      </trkpt>
      <trkpt lat="43.47578" lon="2.29053">
        <ele>803</ele>
        <time>2019-03-16T11:47:55Z</time>
      </trkpt>
      <trkpt lat="43.4758" lon="2.29049">
        <ele>802</ele>
        <time>2019-03-16T11:47:56Z</time>
      </trkpt>
      <trkpt lat="43.47585" lon="2.2904">
        <ele>801</ele>
        <time>2019-03-16T11:47:58Z</time>
      </trkpt>
      <trkpt lat="43.47588" lon="2.29035">
        <ele>800</ele>
        <time>2019-03-16T11:47:59Z</time>
      </trkpt>
      <trkpt lat="43.47589" lon="2.29031">
        <ele>799</ele>
        <time>2019-03-16T11:48:00Z</time>
      </trkpt>
      <trkpt lat="43.47589" lon="2.29023">
        <ele>797</ele>
        <time>2019-03-16T11:48:02Z</time>
      </trkpt>
      <trkpt lat="43.47589" lon="2.2902">
        <ele>796</ele>
        <time>2019-03-16T11:48:03Z</time>
      </trkpt>
      <trkpt lat="43.47587" lon="2.29018">
        <ele>795</ele>
        <time>2019-03-16T11:48:04Z</time>
      </trkpt>
      <trkpt lat="43.47588" lon="2.29015">
        <ele>795</ele>
        <time>2019-03-16T11:48:05Z</time>
      </trkpt>
      <trkpt lat="43.47589" lon="2.29007">
        <ele>794</ele>
        <time>2019-03-16T11:48:08Z</time>
      </trkpt>
      <trkpt lat="43.4759" lon="2.28999">
        <ele>794</ele>
        <time>2019-03-16T11:48:10Z</time>
      </trkpt>
      <trkpt lat="43.4759" lon="2.28991">
        <ele>793</ele>
        <time>2019-03-16T11:48:12Z</time>
      </trkpt>
      <trkpt lat="43.47591" lon="2.28983">
        <ele>792</ele>
        <time>2019-03-16T11:48:14Z</time>
      </trkpt>
      <trkpt lat="43.47592" lon="2.2898">
        <ele>792</ele>
        <time>2019-03-16T11:48:15Z</time>
      </trkpt>
      <trkpt lat="43.47592" lon="2.28976">
        <ele>791</ele>
        <time>2019-03-16T11:48:16Z</time>
      </trkpt>
      <trkpt lat="43.47588" lon="2.28965">
        <ele>789</ele>
        <time>2019-03-16T11:48:18Z</time>
      </trkpt>
      <trkpt lat="43.47586" lon="2.28951">
        <ele>788</ele>
        <time>2019-03-16T11:48:20Z</time>
      </trkpt>
      <trkpt lat="43.47586" lon="2.28939">
        <ele>787</ele>
        <time>2019-03-16T11:48:22Z</time>
      </trkpt>
      <trkpt lat="43.47586" lon="2.28929">
        <ele>784</ele>
        <time>2019-03-16T11:48:24Z</time>
      </trkpt>
      <trkpt lat="43.47586" lon="2.28924">
        <ele>784</ele>
        <time>2019-03-16T11:48:25Z</time>
      </trkpt>
      <trkpt lat="43.47588" lon="2.28919">
        <ele>783</ele>
        <time>2019-03-16T11:48:26Z</time>
      </trkpt>
      <trkpt lat="43.47589" lon="2.28909">
        <ele>782</ele>
        <time>2019-03-16T11:48:28Z</time>
      </trkpt>
      <trkpt lat="43.4759" lon="2.28903">
        <ele>781</ele>
        <time>2019-03-16T11:48:29Z</time>
      </trkpt>
      <trkpt lat="43.47589" lon="2.28897">
        <ele>780</ele>
        <time>2019-03-16T11:48:30Z</time>
      </trkpt>
      <trkpt lat="43.47589" lon="2.28887">
        <ele>778</ele>
        <time>2019-03-16T11:48:32Z</time>
      </trkpt>
      <trkpt lat="43.4759" lon="2.28884">
        <ele>777</ele>
        <time>2019-03-16T11:48:33Z</time>
      </trkpt>
      <trkpt lat="43.4759" lon="2.2888">
        <ele>776</ele>
        <time>2019-03-16T11:48:34Z</time>
      </trkpt>
      <trkpt lat="43.47591" lon="2.28872">
        <ele>775</ele>
        <time>2019-03-16T11:48:36Z</time>
      </trkpt>
      <trkpt lat="43.47592" lon="2.28863">
        <ele>774</ele>
        <time>2019-03-16T11:48:38Z</time>
      </trkpt>
      <trkpt lat="43.47593" lon="2.28856">
        <ele>772</ele>
        <time>2019-03-16T11:48:40Z</time>
      </trkpt>
      <trkpt lat="43.47595" lon="2.28851">
        <ele>772</ele>
        <time>2019-03-16T11:48:41Z</time>
      </trkpt>
      <trkpt lat="43.47597" lon="2.28848">
        <ele>771</ele>
        <time>2019-03-16T11:48:42Z</time>
      </trkpt>
      <trkpt lat="43.47597" lon="2.28844">
        <ele>770</ele>
        <time>2019-03-16T11:48:43Z</time>
      </trkpt>
      <trkpt lat="43.47599" lon="2.2884">
        <ele>770</ele>
        <time>2019-03-16T11:48:44Z</time>
      </trkpt>
      <trkpt lat="43.47601" lon="2.28838">
        <ele>770</ele>
        <time>2019-03-16T11:48:45Z</time>
      </trkpt>
      <trkpt lat="43.47603" lon="2.28835">
        <ele>770</ele>
        <time>2019-03-16T11:48:46Z</time>
      </trkpt>
      <trkpt lat="43.47606" lon="2.28825">
        <ele>771</ele>
        <time>2019-03-16T11:48:49Z</time>
      </trkpt>
      <trkpt lat="43.4761" lon="2.28805">
        <ele>771</ele>
        <time>2019-03-16T11:48:52Z</time>
      </trkpt>
      <trkpt lat="43.47612" lon="2.2879">
        <ele>769</ele>
        <time>2019-03-16T11:48:55Z</time>
      </trkpt>
      <trkpt lat="43.47612" lon="2.28785">
        <ele>768</ele>
        <time>2019-03-16T11:48:56Z</time>
      </trkpt>
      <trkpt lat="43.47615" lon="2.28775">
        <ele>767</ele>
        <time>2019-03-16T11:48:58Z</time>
      </trkpt>
      <trkpt lat="43.47615" lon="2.28769">
        <ele>766</ele>
        <time>2019-03-16T11:48:59Z</time>
      </trkpt>
      <trkpt lat="43.47617" lon="2.28762">
        <ele>765</ele>
        <time>2019-03-16T11:49:00Z</time>
      </trkpt>
      <trkpt lat="43.47616" lon="2.28755">
        <ele>764</ele>
        <time>2019-03-16T11:49:01Z</time>
      </trkpt>
      <trkpt lat="43.47619" lon="2.28746">
        <ele>762</ele>
        <time>2019-03-16T11:49:03Z</time>
      </trkpt>
      <trkpt lat="43.47622" lon="2.28742">
        <ele>761</ele>
        <time>2019-03-16T11:49:04Z</time>
      </trkpt>
      <trkpt lat="43.47629" lon="2.28735">
        <ele>759</ele>
        <time>2019-03-16T11:49:06Z</time>
      </trkpt>
      <trkpt lat="43.47633" lon="2.28731">
        <ele>758</ele>
        <time>2019-03-16T11:49:08Z</time>
      </trkpt>
      <trkpt lat="43.47636" lon="2.2873">
        <ele>757</ele>
        <time>2019-03-16T11:49:09Z</time>
      </trkpt>
      <trkpt lat="43.47643" lon="2.2873">
        <ele>757</ele>
        <time>2019-03-16T11:49:11Z</time>
      </trkpt>
      <trkpt lat="43.47645" lon="2.28729">
        <ele>757</ele>
        <time>2019-03-16T11:49:12Z</time>
      </trkpt>
      <trkpt lat="43.47654" lon="2.28724">
        <ele>756</ele>
        <time>2019-03-16T11:49:16Z</time>
      </trkpt>
      <trkpt lat="43.47656" lon="2.28722">
        <ele>755</ele>
        <time>2019-03-16T11:49:17Z</time>
      </trkpt>
      <trkpt lat="43.47665" lon="2.28719">
        <ele>755</ele>
        <time>2019-03-16T11:49:19Z</time>
      </trkpt>
      <trkpt lat="43.47667" lon="2.28719">
        <ele>754</ele>
        <time>2019-03-16T11:49:20Z</time>
      </trkpt>
      <trkpt lat="43.47674" lon="2.28716">
        <ele>753</ele>
        <time>2019-03-16T11:49:23Z</time>
      </trkpt>
      <trkpt lat="43.47679" lon="2.28714">
        <ele>753</ele>
        <time>2019-03-16T11:49:24Z</time>
      </trkpt>
      <trkpt lat="43.47694" lon="2.2871">
        <ele>751</ele>
        <time>2019-03-16T11:49:27Z</time>
      </trkpt>
      <trkpt lat="43.47699" lon="2.28708">
        <ele>751</ele>
        <time>2019-03-16T11:49:28Z</time>
      </trkpt>
      <trkpt lat="43.47709" lon="2.28709">
        <ele>750</ele>
        <time>2019-03-16T11:49:30Z</time>
      </trkpt>
      <trkpt lat="43.47717" lon="2.28714">
        <ele>749</ele>
        <time>2019-03-16T11:49:32Z</time>
      </trkpt>
      <trkpt lat="43.47734" lon="2.28721">
        <ele>750</ele>
        <time>2019-03-16T11:49:36Z</time>
      </trkpt>
      <trkpt lat="43.47751" lon="2.2873">
        <ele>749</ele>
        <time>2019-03-16T11:49:40Z</time>
      </trkpt>
      <trkpt lat="43.47755" lon="2.28732">
        <ele>749</ele>
        <time>2019-03-16T11:49:41Z</time>
      </trkpt>
      <trkpt lat="43.4776" lon="2.28731">
        <ele>749</ele>
        <time>2019-03-16T11:49:43Z</time>
      </trkpt>
      <trkpt lat="43.47763" lon="2.2873">
        <ele>749</ele>
        <time>2019-03-16T11:49:44Z</time>
      </trkpt>
      <trkpt lat="43.47766" lon="2.28729">
        <ele>748</ele>
        <time>2019-03-16T11:49:45Z</time>
      </trkpt>
      <trkpt lat="43.47769" lon="2.2873">
        <ele>748</ele>
        <time>2019-03-16T11:49:46Z</time>
      </trkpt>
      <trkpt lat="43.47772" lon="2.2873">
        <ele>747</ele>
        <time>2019-03-16T11:49:47Z</time>
      </trkpt>
      <trkpt lat="43.47775" lon="2.2873">
        <ele>747</ele>
        <time>2019-03-16T11:49:48Z</time>
      </trkpt>
      <trkpt lat="43.47782" lon="2.28727">
        <ele>746</ele>
        <time>2019-03-16T11:49:50Z</time>
      </trkpt>
      <trkpt lat="43.47785" lon="2.28727">
        <ele>745</ele>
        <time>2019-03-16T11:49:51Z</time>
      </trkpt>
      <trkpt lat="43.47788" lon="2.28726">
        <ele>745</ele>
        <time>2019-03-16T11:49:52Z</time>
      </trkpt>
      <trkpt lat="43.47792" lon="2.28726">
        <ele>744</ele>
        <time>2019-03-16T11:49:53Z</time>
      </trkpt>
      <trkpt lat="43.47803" lon="2.28723">
        <ele>743</ele>
        <time>2019-03-16T11:49:55Z</time>
      </trkpt>
      <trkpt lat="43.47811" lon="2.28724">
        <ele>742</ele>
        <time>2019-03-16T11:49:57Z</time>
      </trkpt>
      <trkpt lat="43.47817" lon="2.28724">
        <ele>741</ele>
        <time>2019-03-16T11:49:59Z</time>
      </trkpt>
      <trkpt lat="43.4782" lon="2.28721">
        <ele>741</ele>
        <time>2019-03-16T11:50:00Z</time>
      </trkpt>
      <trkpt lat="43.47824" lon="2.28715">
        <ele>741</ele>
        <time>2019-03-16T11:50:02Z</time>
      </trkpt>
      <trkpt lat="43.47826" lon="2.28711">
        <ele>740</ele>
        <time>2019-03-16T11:50:03Z</time>
      </trkpt>
      <trkpt lat="43.47831" lon="2.2871">
        <ele>740</ele>
        <time>2019-03-16T11:50:04Z</time>
      </trkpt>
      <trkpt lat="43.47841" lon="2.28707">
        <ele>739</ele>
        <time>2019-03-16T11:50:06Z</time>
      </trkpt>
      <trkpt lat="43.47846" lon="2.28706">
        <ele>738</ele>
        <time>2019-03-16T11:50:07Z</time>
      </trkpt>
      <trkpt lat="43.47852" lon="2.28706">
        <ele>737</ele>
        <time>2019-03-16T11:50:09Z</time>
      </trkpt>
      <trkpt lat="43.47857" lon="2.28708">
        <ele>737</ele>
        <time>2019-03-16T11:50:36Z</time>
      </trkpt>
      <trkpt lat="43.47858" lon="2.28708">
        <ele>737</ele>
        <time>2019-03-16T11:50:37Z</time>
      </trkpt>
      <trkpt lat="43.47859" lon="2.28711">
        <ele>737</ele>
        <time>2019-03-16T11:50:39Z</time>
      </trkpt>
      <trkpt lat="43.47858" lon="2.2872">
        <ele>737</ele>
        <time>2019-03-16T11:50:43Z</time>
      </trkpt>
      <trkpt lat="43.47857" lon="2.28723">
        <ele>738</ele>
        <time>2019-03-16T11:50:44Z</time>
      </trkpt>
      <trkpt lat="43.47846" lon="2.28735">
        <ele>738</ele>
        <time>2019-03-16T11:50:50Z</time>
      </trkpt>
      <trkpt lat="43.4784" lon="2.28744">
        <ele>739</ele>
        <time>2019-03-16T11:50:54Z</time>
      </trkpt>
      <trkpt lat="43.47837" lon="2.28748">
        <ele>739</ele>
        <time>2019-03-16T11:50:56Z</time>
      </trkpt>
      <trkpt lat="43.47832" lon="2.28754">
        <ele>740</ele>
        <time>2019-03-16T11:50:59Z</time>
      </trkpt>
      <trkpt lat="43.4783" lon="2.28759">
        <ele>740</ele>
        <time>2019-03-16T11:51:01Z</time>
      </trkpt>
      <trkpt lat="43.47823" lon="2.28778">
        <ele>741</ele>
        <time>2019-03-16T11:51:07Z</time>
      </trkpt>
      <trkpt lat="43.47822" lon="2.28789">
        <ele>742</ele>
        <time>2019-03-16T11:51:10Z</time>
      </trkpt>
      <trkpt lat="43.47822" lon="2.28797">
        <ele>743</ele>
        <time>2019-03-16T11:51:12Z</time>
      </trkpt>
      <trkpt lat="43.47821" lon="2.288">
        <ele>743</ele>
        <time>2019-03-16T11:51:13Z</time>
      </trkpt>
      <trkpt lat="43.47815" lon="2.28824">
        <ele>743</ele>
        <time>2019-03-16T11:51:19Z</time>
      </trkpt>
      <trkpt lat="43.47809" lon="2.28836">
        <ele>744</ele>
        <time>2019-03-16T11:51:23Z</time>
      </trkpt>
      <trkpt lat="43.47802" lon="2.28842">
        <ele>745</ele>
        <time>2019-03-16T11:51:26Z</time>
      </trkpt>
      <trkpt lat="43.4779" lon="2.28851">
        <ele>745</ele>
        <time>2019-03-16T11:51:31Z</time>
      </trkpt>
      <trkpt lat="43.47788" lon="2.28854">
        <ele>745</ele>
        <time>2019-03-16T11:51:32Z</time>
      </trkpt>
      <trkpt lat="43.47786" lon="2.28873">
        <ele>746</ele>
        <time>2019-03-16T11:51:37Z</time>
      </trkpt>
      <trkpt lat="43.47791" lon="2.28909">
        <ele>746</ele>
        <time>2019-03-16T11:51:44Z</time>
      </trkpt>
      <trkpt lat="43.47796" lon="2.28958">
        <ele>746</ele>
        <time>2019-03-16T11:51:53Z</time>
      </trkpt>
      <trkpt lat="43.47805" lon="2.28995">
        <ele>746</ele>
        <time>2019-03-16T11:52:00Z</time>
      </trkpt>
      <trkpt lat="43.47812" lon="2.29045">
        <ele>745</ele>
        <time>2019-03-16T11:52:08Z</time>
      </trkpt>
      <trkpt lat="43.47813" lon="2.29065">
        <ele>744</ele>
        <time>2019-03-16T11:52:11Z</time>
      </trkpt>
      <trkpt lat="43.47816" lon="2.29079">
        <ele>744</ele>
        <time>2019-03-16T11:52:13Z</time>
      </trkpt>
      <trkpt lat="43.47818" lon="2.29085">
        <ele>744</ele>
        <time>2019-03-16T11:52:14Z</time>
      </trkpt>
      <trkpt lat="43.47826" lon="2.29092">
        <ele>744</ele>
        <time>2019-03-16T11:52:16Z</time>
      </trkpt>
      <trkpt lat="43.4783" lon="2.29092">
        <ele>744</ele>
        <time>2019-03-16T11:52:17Z</time>
      </trkpt>
      <trkpt lat="43.47842" lon="2.29084">
        <ele>743</ele>
        <time>2019-03-16T11:52:20Z</time>
      </trkpt>
      <trkpt lat="43.47852" lon="2.29069">
        <ele>743</ele>
        <time>2019-03-16T11:52:23Z</time>
      </trkpt>
      <trkpt lat="43.47855" lon="2.29064">
        <ele>743</ele>
        <time>2019-03-16T11:52:24Z</time>
      </trkpt>
      <trkpt lat="43.47864" lon="2.29049">
        <ele>744</ele>
        <time>2019-03-16T11:52:27Z</time>
      </trkpt>
      <trkpt lat="43.47871" lon="2.2904">
        <ele>744</ele>
        <time>2019-03-16T11:52:29Z</time>
      </trkpt>
      <trkpt lat="43.47885" lon="2.29028">
        <ele>744</ele>
        <time>2019-03-16T11:52:33Z</time>
      </trkpt>
      <trkpt lat="43.47904" lon="2.2902">
        <ele>745</ele>
        <time>2019-03-16T11:52:38Z</time>
      </trkpt>
      <trkpt lat="43.47912" lon="2.29018">
        <ele>745</ele>
        <time>2019-03-16T11:52:40Z</time>
      </trkpt>
      <trkpt lat="43.4792" lon="2.29017">
        <ele>745</ele>
        <time>2019-03-16T11:52:42Z</time>
      </trkpt>
      <trkpt lat="43.47924" lon="2.29018">
        <ele>745</ele>
        <time>2019-03-16T11:52:43Z</time>
      </trkpt>
      <trkpt lat="43.47936" lon="2.29025">
        <ele>746</ele>
        <time>2019-03-16T11:52:46Z</time>
      </trkpt>
      <trkpt lat="43.47951" lon="2.2904">
        <ele>746</ele>
        <time>2019-03-16T11:52:50Z</time>
      </trkpt>
      <trkpt lat="43.47954" lon="2.29044">
        <ele>746</ele>
        <time>2019-03-16T11:52:51Z</time>
      </trkpt>
      <trkpt lat="43.4796" lon="2.29052">
        <ele>746</ele>
        <time>2019-03-16T11:52:53Z</time>
      </trkpt>
      <trkpt lat="43.47964" lon="2.29056">
        <ele>746</ele>
        <time>2019-03-16T11:52:54Z</time>
      </trkpt>
      <trkpt lat="43.47976" lon="2.29074">
        <ele>747</ele>
        <time>2019-03-16T11:52:58Z</time>
      </trkpt>
      <trkpt lat="43.47989" lon="2.29095">
        <ele>747</ele>
        <time>2019-03-16T11:53:03Z</time>
      </trkpt>
      <trkpt lat="43.47992" lon="2.29099">
        <ele>748</ele>
        <time>2019-03-16T11:53:04Z</time>
      </trkpt>
      <trkpt lat="43.47995" lon="2.29103">
        <ele>748</ele>
        <time>2019-03-16T11:53:05Z</time>
      </trkpt>
      <trkpt lat="43.48003" lon="2.29115">
        <ele>748</ele>
        <time>2019-03-16T11:53:08Z</time>
      </trkpt>
      <trkpt lat="43.48012" lon="2.29125">
        <ele>748</ele>
        <time>2019-03-16T11:53:11Z</time>
      </trkpt>
      <trkpt lat="43.48017" lon="2.29133">
        <ele>749</ele>
        <time>2019-03-16T11:53:13Z</time>
      </trkpt>
      <trkpt lat="43.48026" lon="2.29144">
        <ele>750</ele>
        <time>2019-03-16T11:53:16Z</time>
      </trkpt>
      <trkpt lat="43.48029" lon="2.29147">
        <ele>750</ele>
        <time>2019-03-16T11:53:17Z</time>
      </trkpt>
      <trkpt lat="43.48043" lon="2.29166">
        <ele>751</ele>
        <time>2019-03-16T11:53:23Z</time>
      </trkpt>
      <trkpt lat="43.48046" lon="2.2917">
        <ele>751</ele>
        <time>2019-03-16T11:53:26Z</time>
      </trkpt>
      <trkpt lat="43.48046" lon="2.29169">
        <ele>751</ele>
        <time>2019-03-16T11:53:27Z</time>
      </trkpt>
      <trkpt lat="43.48047" lon="2.29173">
        <ele>752</ele>
        <time>2019-03-16T11:53:32Z</time>
      </trkpt>
      <trkpt lat="43.4804" lon="2.29172">
        <ele>751</ele>
        <time>2019-03-16T11:53:37Z</time>
      </trkpt>
      <trkpt lat="43.48037" lon="2.29171">
        <ele>752</ele>
        <time>2019-03-16T11:53:41Z</time>
      </trkpt>
      <trkpt lat="43.48032" lon="2.29166">
        <ele>753</ele>
        <time>2019-03-16T11:53:46Z</time>
      </trkpt>
      <trkpt lat="43.48028" lon="2.29165">
        <ele>754</ele>
        <time>2019-03-16T11:53:48Z</time>
      </trkpt>
      <trkpt lat="43.48024" lon="2.29163">
        <ele>754</ele>
        <time>2019-03-16T11:53:50Z</time>
      </trkpt>
      <trkpt lat="43.48015" lon="2.29158">
        <ele>755</ele>
        <time>2019-03-16T11:53:54Z</time>
      </trkpt>
      <trkpt lat="43.48013" lon="2.29157">
        <ele>755</ele>
        <time>2019-03-16T11:53:55Z</time>
      </trkpt>
      <trkpt lat="43.48001" lon="2.29151">
        <ele>756</ele>
        <time>2019-03-16T11:54:01Z</time>
      </trkpt>
      <trkpt lat="43.47994" lon="2.29147">
        <ele>757</ele>
        <time>2019-03-16T11:54:05Z</time>
      </trkpt>
      <trkpt lat="43.4799" lon="2.29146">
        <ele>757</ele>
        <time>2019-03-16T11:54:07Z</time>
      </trkpt>
      <trkpt lat="43.47987" lon="2.29147">
        <ele>758</ele>
        <time>2019-03-16T11:54:09Z</time>
      </trkpt>
      <trkpt lat="43.47985" lon="2.29146">
        <ele>758</ele>
        <time>2019-03-16T11:54:10Z</time>
      </trkpt>
      <trkpt lat="43.47982" lon="2.29145">
        <ele>759</ele>
        <time>2019-03-16T11:54:12Z</time>
      </trkpt>
      <trkpt lat="43.47975" lon="2.29146">
        <ele>760</ele>
        <time>2019-03-16T11:54:17Z</time>
      </trkpt>
      <trkpt lat="43.47973" lon="2.29145">
        <ele>760</ele>
        <time>2019-03-16T11:54:18Z</time>
      </trkpt>
      <trkpt lat="43.47969" lon="2.29145">
        <ele>760</ele>
        <time>2019-03-16T11:54:20Z</time>
      </trkpt>
      <trkpt lat="43.47966" lon="2.29143">
        <ele>761</ele>
        <time>2019-03-16T11:54:22Z</time>
      </trkpt>
      <trkpt lat="43.47963" lon="2.29143">
        <ele>762</ele>
        <time>2019-03-16T11:54:24Z</time>
      </trkpt>
      <trkpt lat="43.47957" lon="2.29142">
        <ele>762</ele>
        <time>2019-03-16T11:54:28Z</time>
      </trkpt>
      <trkpt lat="43.47944" lon="2.2914">
        <ele>764</ele>
        <time>2019-03-16T11:54:34Z</time>
      </trkpt>
      <trkpt lat="43.47942" lon="2.2914">
        <ele>764</ele>
        <time>2019-03-16T11:54:35Z</time>
      </trkpt>
      <trkpt lat="43.47936" lon="2.29142">
        <ele>764</ele>
        <time>2019-03-16T11:54:38Z</time>
      </trkpt>
      <trkpt lat="43.47931" lon="2.29144">
        <ele>764</ele>
        <time>2019-03-16T11:54:41Z</time>
      </trkpt>
      <trkpt lat="43.47929" lon="2.29144">
        <ele>764</ele>
        <time>2019-03-16T11:54:42Z</time>
      </trkpt>
      <trkpt lat="43.47927" lon="2.29147">
        <ele>765</ele>
        <time>2019-03-16T11:54:44Z</time>
      </trkpt>
      <trkpt lat="43.47926" lon="2.29149">
        <ele>765</ele>
        <time>2019-03-16T11:54:45Z</time>
      </trkpt>
      <trkpt lat="43.47921" lon="2.29156">
        <ele>766</ele>
        <time>2019-03-16T11:54:49Z</time>
      </trkpt>
      <trkpt lat="43.4792" lon="2.29158">
        <ele>766</ele>
        <time>2019-03-16T11:54:50Z</time>
      </trkpt>
      <trkpt lat="43.47919" lon="2.2916">
        <ele>766</ele>
        <time>2019-03-16T11:54:51Z</time>
      </trkpt>
      <trkpt lat="43.47914" lon="2.29167">
        <ele>767</ele>
        <time>2019-03-16T11:54:56Z</time>
      </trkpt>
      <trkpt lat="43.47913" lon="2.29169">
        <ele>767</ele>
        <time>2019-03-16T11:54:57Z</time>
      </trkpt>
      <trkpt lat="43.47911" lon="2.29171">
        <ele>768</ele>
        <time>2019-03-16T11:54:59Z</time>
      </trkpt>
      <trkpt lat="43.4791" lon="2.29172">
        <ele>768</ele>
        <time>2019-03-16T11:55:00Z</time>
      </trkpt>
      <trkpt lat="43.47908" lon="2.29176">
        <ele>768</ele>
        <time>2019-03-16T11:55:02Z</time>
      </trkpt>
      <trkpt lat="43.47904" lon="2.29182">
        <ele>769</ele>
        <time>2019-03-16T11:55:06Z</time>
      </trkpt>
      <trkpt lat="43.47903" lon="2.29186">
        <ele>770</ele>
        <time>2019-03-16T11:55:08Z</time>
      </trkpt>
      <trkpt lat="43.47901" lon="2.29196">
        <ele>771</ele>
        <time>2019-03-16T11:55:12Z</time>
      </trkpt>
      <trkpt lat="43.479" lon="2.29205">
        <ele>772</ele>
        <time>2019-03-16T11:55:16Z</time>
      </trkpt>
      <trkpt lat="43.479" lon="2.29207">
        <ele>772</ele>
        <time>2019-03-16T11:55:17Z</time>
      </trkpt>
      <trkpt lat="43.47897" lon="2.29214">
        <ele>773</ele>
        <time>2019-03-16T11:55:20Z</time>
      </trkpt>
      <trkpt lat="43.47896" lon="2.29216">
        <ele>773</ele>
        <time>2019-03-16T11:55:21Z</time>
      </trkpt>
      <trkpt lat="43.47893" lon="2.29219">
        <ele>774</ele>
        <time>2019-03-16T11:55:23Z</time>
      </trkpt>
      <trkpt lat="43.4789" lon="2.29224">
        <ele>774</ele>
        <time>2019-03-16T11:55:26Z</time>
      </trkpt>
      <trkpt lat="43.47888" lon="2.29229">
        <ele>775</ele>
        <time>2019-03-16T11:55:29Z</time>
      </trkpt>
      <trkpt lat="43.47884" lon="2.29235">
        <ele>775</ele>
        <time>2019-03-16T11:55:33Z</time>
      </trkpt>
      <trkpt lat="43.47879" lon="2.29242">
        <ele>776</ele>
        <time>2019-03-16T11:55:38Z</time>
      </trkpt>
      <trkpt lat="43.47878" lon="2.29244">
        <ele>776</ele>
        <time>2019-03-16T11:55:39Z</time>
      </trkpt>
      <trkpt lat="43.47872" lon="2.29255">
        <ele>777</ele>
        <time>2019-03-16T11:55:46Z</time>
      </trkpt>
      <trkpt lat="43.4787" lon="2.29259">
        <ele>777</ele>
        <time>2019-03-16T11:55:49Z</time>
      </trkpt>
      <trkpt lat="43.47866" lon="2.29269">
        <ele>778</ele>
        <time>2019-03-16T11:55:54Z</time>
      </trkpt>
      <trkpt lat="43.47864" lon="2.29275">
        <ele>779</ele>
        <time>2019-03-16T11:55:57Z</time>
      </trkpt>
      <trkpt lat="43.47861" lon="2.29287">
        <ele>779</ele>
        <time>2019-03-16T11:56:03Z</time>
      </trkpt>
      <trkpt lat="43.47856" lon="2.29299">
        <ele>780</ele>
        <time>2019-03-16T11:56:08Z</time>
      </trkpt>
      <trkpt lat="43.47851" lon="2.29305">
        <ele>781</ele>
        <time>2019-03-16T11:56:12Z</time>
      </trkpt>
      <trkpt lat="43.47845" lon="2.29309">
        <ele>781</ele>
        <time>2019-03-16T11:56:15Z</time>
      </trkpt>
      <trkpt lat="43.47838" lon="2.29313">
        <ele>782</ele>
        <time>2019-03-16T11:56:20Z</time>
      </trkpt>
      <trkpt lat="43.47837" lon="2.29314">
        <ele>782</ele>
        <time>2019-03-16T11:56:21Z</time>
      </trkpt>
      <trkpt lat="43.47829" lon="2.2932">
        <ele>783</ele>
        <time>2019-03-16T11:56:26Z</time>
      </trkpt>
      <trkpt lat="43.47825" lon="2.29323">
        <ele>784</ele>
        <time>2019-03-16T11:56:29Z</time>
      </trkpt>
      <trkpt lat="43.47819" lon="2.29328">
        <ele>784</ele>
        <time>2019-03-16T11:56:33Z</time>
      </trkpt>
      <trkpt lat="43.47809" lon="2.29335">
        <ele>785</ele>
        <time>2019-03-16T11:56:39Z</time>
      </trkpt>
      <trkpt lat="43.478" lon="2.29347">
        <ele>785</ele>
        <time>2019-03-16T11:56:45Z</time>
      </trkpt>
      <trkpt lat="43.47796" lon="2.29352">
        <ele>785</ele>
        <time>2019-03-16T11:56:47Z</time>
      </trkpt>
      <trkpt lat="43.47791" lon="2.2936">
        <ele>786</ele>
        <time>2019-03-16T11:56:51Z</time>
      </trkpt>
      <trkpt lat="43.47782" lon="2.29377">
        <ele>787</ele>
        <time>2019-03-16T11:56:57Z</time>
      </trkpt>
      <trkpt lat="43.47779" lon="2.29381">
        <ele>787</ele>
        <time>2019-03-16T11:56:59Z</time>
      </trkpt>
      <trkpt lat="43.47772" lon="2.29395">
        <ele>787</ele>
        <time>2019-03-16T11:57:03Z</time>
      </trkpt>
      <trkpt lat="43.47764" lon="2.29409">
        <ele>787</ele>
        <time>2019-03-16T11:57:07Z</time>
      </trkpt>
      <trkpt lat="43.47756" lon="2.29423">
        <ele>787</ele>
        <time>2019-03-16T11:57:12Z</time>
      </trkpt>
      <trkpt lat="43.4775" lon="2.29434">
        <ele>787</ele>
        <time>2019-03-16T11:57:16Z</time>
      </trkpt>
      <trkpt lat="43.47738" lon="2.29443">
        <ele>787</ele>
        <time>2019-03-16T11:57:21Z</time>
      </trkpt>
      <trkpt lat="43.47732" lon="2.29446">
        <ele>787</ele>
        <time>2019-03-16T11:57:24Z</time>
      </trkpt>
      <trkpt lat="43.47724" lon="2.29452">
        <ele>786</ele>
        <time>2019-03-16T12:04:59Z</time>
      </trkpt>
      <trkpt lat="43.47722" lon="2.29459">
        <ele>786</ele>
        <time>2019-03-16T12:05:02Z</time>
      </trkpt>
      <trkpt lat="43.47723" lon="2.29467">
        <ele>787</ele>
        <time>2019-03-16T12:05:05Z</time>
      </trkpt>
      <trkpt lat="43.47722" lon="2.29474">
        <ele>787</ele>
        <time>2019-03-16T12:05:08Z</time>
      </trkpt>
      <trkpt lat="43.47721" lon="2.29479">
        <ele>788</ele>
        <time>2019-03-16T12:05:10Z</time>
      </trkpt>
      <trkpt lat="43.47721" lon="2.29485">
        <ele>788</ele>
        <time>2019-03-16T12:05:13Z</time>
      </trkpt>
      <trkpt lat="43.47723" lon="2.29489">
        <ele>789</ele>
        <time>2019-03-16T12:05:15Z</time>
      </trkpt>
      <trkpt lat="43.47726" lon="2.29495">
        <ele>789</ele>
        <time>2019-03-16T12:05:18Z</time>
      </trkpt>
      <trkpt lat="43.47728" lon="2.29496">
        <ele>789</ele>
        <time>2019-03-16T12:05:20Z</time>
      </trkpt>
      <trkpt lat="43.47732" lon="2.29498">
        <ele>790</ele>
        <time>2019-03-16T12:05:22Z</time>
      </trkpt>
      <trkpt lat="43.47738" lon="2.29503">
        <ele>790</ele>
        <time>2019-03-16T12:05:26Z</time>
      </trkpt>
      <trkpt lat="43.4775" lon="2.29507">
        <ele>790</ele>
        <time>2019-03-16T12:05:31Z</time>
      </trkpt>
      <trkpt lat="43.47761" lon="2.29508">
        <ele>789</ele>
        <time>2019-03-16T12:05:34Z</time>
      </trkpt>
      <trkpt lat="43.47766" lon="2.29509">
        <ele>788</ele>
        <time>2019-03-16T12:05:35Z</time>
      </trkpt>
      <trkpt lat="43.47771" lon="2.2951">
        <ele>788</ele>
        <time>2019-03-16T12:05:36Z</time>
      </trkpt>
      <trkpt lat="43.47778" lon="2.29515">
        <ele>786</ele>
        <time>2019-03-16T12:05:38Z</time>
      </trkpt>
      <trkpt lat="43.47783" lon="2.2952">
        <ele>786</ele>
        <time>2019-03-16T12:05:39Z</time>
      </trkpt>
      <trkpt lat="43.47792" lon="2.29525">
        <ele>785</ele>
        <time>2019-03-16T12:05:41Z</time>
      </trkpt>
      <trkpt lat="43.47796" lon="2.29529">
        <ele>784</ele>
        <time>2019-03-16T12:05:42Z</time>
      </trkpt>
      <trkpt lat="43.47799" lon="2.29533">
        <ele>783</ele>
        <time>2019-03-16T12:05:43Z</time>
      </trkpt>
      <trkpt lat="43.47801" lon="2.29538">
        <ele>782</ele>
        <time>2019-03-16T12:05:44Z</time>
      </trkpt>
      <trkpt lat="43.47803" lon="2.29542">
        <ele>781</ele>
        <time>2019-03-16T12:05:45Z</time>
      </trkpt>
      <trkpt lat="43.47804" lon="2.29544">
        <ele>780</ele>
        <time>2019-03-16T12:05:46Z</time>
      </trkpt>
      <trkpt lat="43.47807" lon="2.29548">
        <ele>779</ele>
        <time>2019-03-16T12:05:48Z</time>
      </trkpt>
      <trkpt lat="43.47809" lon="2.29553">
        <ele>778</ele>
        <time>2019-03-16T12:05:49Z</time>
      </trkpt>
      <trkpt lat="43.47817" lon="2.29567">
        <ele>778</ele>
        <time>2019-03-16T12:05:52Z</time>
      </trkpt>
      <trkpt lat="43.4782" lon="2.29572">
        <ele>777</ele>
        <time>2019-03-16T12:05:53Z</time>
      </trkpt>
      <trkpt lat="43.47827" lon="2.29584">
        <ele>776</ele>
        <time>2019-03-16T12:05:55Z</time>
      </trkpt>
      <trkpt lat="43.47831" lon="2.29589">
        <ele>776</ele>
        <time>2019-03-16T12:05:56Z</time>
      </trkpt>
      <trkpt lat="43.47835" lon="2.29594">
        <ele>775</ele>
        <time>2019-03-16T12:05:57Z</time>
      </trkpt>
      <trkpt lat="43.47838" lon="2.29598">
        <ele>775</ele>
        <time>2019-03-16T12:05:58Z</time>
      </trkpt>
      <trkpt lat="43.47841" lon="2.29604">
        <ele>774</ele>
        <time>2019-03-16T12:05:59Z</time>
      </trkpt>
      <trkpt lat="43.47845" lon="2.29617">
        <ele>774</ele>
        <time>2019-03-16T12:06:01Z</time>
      </trkpt>
      <trkpt lat="43.47845" lon="2.29623">
        <ele>773</ele>
        <time>2019-03-16T12:06:02Z</time>
      </trkpt>
      <trkpt lat="43.47848" lon="2.29638">
        <ele>773</ele>
        <time>2019-03-16T12:06:04Z</time>
      </trkpt>
      <trkpt lat="43.47852" lon="2.29645">
        <ele>773</ele>
        <time>2019-03-16T12:06:05Z</time>
      </trkpt>
      <trkpt lat="43.47857" lon="2.29658">
        <ele>771</ele>
        <time>2019-03-16T12:06:07Z</time>
      </trkpt>
      <trkpt lat="43.47859" lon="2.29663">
        <ele>770</ele>
        <time>2019-03-16T12:06:08Z</time>
      </trkpt>
      <trkpt lat="43.4786" lon="2.29668">
        <ele>770</ele>
        <time>2019-03-16T12:06:09Z</time>
      </trkpt>
      <trkpt lat="43.47861" lon="2.29677">
        <ele>769</ele>
        <time>2019-03-16T12:06:11Z</time>
      </trkpt>
      <trkpt lat="43.47862" lon="2.29681">
        <ele>769</ele>
        <time>2019-03-16T12:06:12Z</time>
      </trkpt>
      <trkpt lat="43.47862" lon="2.29684">
        <ele>770</ele>
        <time>2019-03-16T12:06:14Z</time>
      </trkpt>
      <trkpt lat="43.47864" lon="2.29689">
        <ele>769</ele>
        <time>2019-03-16T12:06:43Z</time>
      </trkpt>
      <trkpt lat="43.4787" lon="2.29694">
        <ele>769</ele>
        <time>2019-03-16T12:06:45Z</time>
      </trkpt>
      <trkpt lat="43.47875" lon="2.29698">
        <ele>768</ele>
        <time>2019-03-16T12:06:46Z</time>
      </trkpt>
      <trkpt lat="43.4788" lon="2.29701">
        <ele>768</ele>
        <time>2019-03-16T12:06:47Z</time>
      </trkpt>
      <trkpt lat="43.47886" lon="2.29702">
        <ele>767</ele>
        <time>2019-03-16T12:06:48Z</time>
      </trkpt>
      <trkpt lat="43.47891" lon="2.29702">
        <ele>766</ele>
        <time>2019-03-16T12:06:49Z</time>
      </trkpt>
      <trkpt lat="43.47897" lon="2.29702">
        <ele>765</ele>
        <time>2019-03-16T12:06:50Z</time>
      </trkpt>
      <trkpt lat="43.47912" lon="2.29696">
        <ele>763</ele>
        <time>2019-03-16T12:06:52Z</time>
      </trkpt>
      <trkpt lat="43.47924" lon="2.29685">
        <ele>761</ele>
        <time>2019-03-16T12:06:54Z</time>
      </trkpt>
      <trkpt lat="43.47929" lon="2.2968">
        <ele>760</ele>
        <time>2019-03-16T12:06:55Z</time>
      </trkpt>
      <trkpt lat="43.47932" lon="2.29677">
        <ele>760</ele>
        <time>2019-03-16T12:06:56Z</time>
      </trkpt>
      <trkpt lat="43.47941" lon="2.29676">
        <ele>759</ele>
        <time>2019-03-16T12:06:59Z</time>
      </trkpt>
      <trkpt lat="43.47945" lon="2.29676">
        <ele>759</ele>
        <time>2019-03-16T12:07:00Z</time>
      </trkpt>
      <trkpt lat="43.47954" lon="2.2968">
        <ele>759</ele>
        <time>2019-03-16T12:07:02Z</time>
      </trkpt>
      <trkpt lat="43.47959" lon="2.29683">
        <ele>759</ele>
        <time>2019-03-16T12:07:03Z</time>
      </trkpt>
      <trkpt lat="43.47965" lon="2.29687">
        <ele>758</ele>
        <time>2019-03-16T12:07:04Z</time>
      </trkpt>
      <trkpt lat="43.47972" lon="2.29697">
        <ele>757</ele>
        <time>2019-03-16T12:07:06Z</time>
      </trkpt>
      <trkpt lat="43.47976" lon="2.29701">
        <ele>756</ele>
        <time>2019-03-16T12:07:07Z</time>
      </trkpt>
      <trkpt lat="43.47983" lon="2.29705">
        <ele>755</ele>
        <time>2019-03-16T12:07:09Z</time>
      </trkpt>
      <trkpt lat="43.47985" lon="2.29713">
        <ele>754</ele>
        <time>2019-03-16T12:07:11Z</time>
      </trkpt>
      <trkpt lat="43.47987" lon="2.29716">
        <ele>754</ele>
        <time>2019-03-16T12:07:12Z</time>
      </trkpt>
      <trkpt lat="43.47989" lon="2.29719">
        <ele>753</ele>
        <time>2019-03-16T12:07:13Z</time>
      </trkpt>
      <trkpt lat="43.47995" lon="2.29722">
        <ele>751</ele>
        <time>2019-03-16T12:07:15Z</time>
      </trkpt>
      <trkpt lat="43.47997" lon="2.29724">
        <ele>751</ele>
        <time>2019-03-16T12:07:16Z</time>
      </trkpt>
      <trkpt lat="43.48001" lon="2.29726">
        <ele>750</ele>
        <time>2019-03-16T12:07:18Z</time>
      </trkpt>
      <trkpt lat="43.48001" lon="2.2973">
        <ele>750</ele>
        <time>2019-03-16T12:07:19Z</time>
      </trkpt>
      <trkpt lat="43.48004" lon="2.29741">
        <ele>749</ele>
        <time>2019-03-16T12:07:21Z</time>
      </trkpt>
      <trkpt lat="43.48006" lon="2.29747">
        <ele>748</ele>
        <time>2019-03-16T12:07:22Z</time>
      </trkpt>
      <trkpt lat="43.48007" lon="2.29754">
        <ele>747</ele>
        <time>2019-03-16T12:07:23Z</time>
      </trkpt>
      <trkpt lat="43.4801" lon="2.29761">
        <ele>746</ele>
        <time>2019-03-16T12:07:24Z</time>
      </trkpt>
      <trkpt lat="43.48012" lon="2.29767">
        <ele>745</ele>
        <time>2019-03-16T12:07:25Z</time>
      </trkpt>
      <trkpt lat="43.48015" lon="2.29771">
        <ele>744</ele>
        <time>2019-03-16T12:07:26Z</time>
      </trkpt>
      <trkpt lat="43.48018" lon="2.29773">
        <ele>743</ele>
        <time>2019-03-16T12:07:27Z</time>
      </trkpt>
      <trkpt lat="43.48026" lon="2.2978">
        <ele>742</ele>
        <time>2019-03-16T12:07:29Z</time>
      </trkpt>
      <trkpt lat="43.4803" lon="2.29781">
        <ele>742</ele>
        <time>2019-03-16T12:07:30Z</time>
      </trkpt>
      <trkpt lat="43.48046" lon="2.29781">
        <ele>742</ele>
        <time>2019-03-16T12:07:34Z</time>
      </trkpt>
      <trkpt lat="43.48057" lon="2.29777">
        <ele>741</ele>
        <time>2019-03-16T12:07:37Z</time>
      </trkpt>
      <trkpt lat="43.48061" lon="2.29779">
        <ele>741</ele>
        <time>2019-03-16T12:07:38Z</time>
      </trkpt>
      <trkpt lat="43.48075" lon="2.29784">
        <ele>741</ele>
        <time>2019-03-16T12:07:41Z</time>
      </trkpt>
      <trkpt lat="43.4808" lon="2.29784">
        <ele>740</ele>
        <time>2019-03-16T12:07:42Z</time>
      </trkpt>
      <trkpt lat="43.48084" lon="2.29784">
        <ele>740</ele>
        <time>2019-03-16T12:07:43Z</time>
      </trkpt>
      <trkpt lat="43.481" lon="2.29787">
        <ele>740</ele>
        <time>2019-03-16T12:07:45Z</time>
      </trkpt>
      <trkpt lat="43.48114" lon="2.29787">
        <ele>740</ele>
        <time>2019-03-16T12:07:47Z</time>
      </trkpt>
      <trkpt lat="43.48126" lon="2.29785">
        <ele>739</ele>
        <time>2019-03-16T12:07:49Z</time>
      </trkpt>
      <trkpt lat="43.4813" lon="2.29785">
        <ele>739</ele>
        <time>2019-03-16T12:07:50Z</time>
      </trkpt>
      <trkpt lat="43.48147" lon="2.29786">
        <ele>739</ele>
        <time>2019-03-16T12:07:54Z</time>
      </trkpt>
      <trkpt lat="43.48159" lon="2.29785">
        <ele>739</ele>
        <time>2019-03-16T12:07:57Z</time>
      </trkpt>
      <trkpt lat="43.48164" lon="2.29785">
        <ele>739</ele>
        <time>2019-03-16T12:07:58Z</time>
      </trkpt>
      <trkpt lat="43.48179" lon="2.29783">
        <ele>738</ele>
        <time>2019-03-16T12:08:01Z</time>
      </trkpt>
      <trkpt lat="43.48185" lon="2.29784">
        <ele>737</ele>
        <time>2019-03-16T12:08:02Z</time>
      </trkpt>
      <trkpt lat="43.48189" lon="2.29785">
        <ele>737</ele>
        <time>2019-03-16T12:08:03Z</time>
      </trkpt>
      <trkpt lat="43.48193" lon="2.29785">
        <ele>736</ele>
        <time>2019-03-16T12:08:04Z</time>
      </trkpt>
      <trkpt lat="43.48205" lon="2.29792">
        <ele>735</ele>
        <time>2019-03-16T12:08:07Z</time>
      </trkpt>
      <trkpt lat="43.48208" lon="2.29794">
        <ele>735</ele>
        <time>2019-03-16T12:08:08Z</time>
      </trkpt>
      <trkpt lat="43.48218" lon="2.29799">
        <ele>734</ele>
        <time>2019-03-16T12:08:11Z</time>
      </trkpt>
      <trkpt lat="43.48221" lon="2.29801">
        <ele>733</ele>
        <time>2019-03-16T12:08:12Z</time>
      </trkpt>
      <trkpt lat="43.48225" lon="2.29804">
        <ele>733</ele>
        <time>2019-03-16T12:08:13Z</time>
      </trkpt>
      <trkpt lat="43.4823" lon="2.29807">
        <ele>731</ele>
        <time>2019-03-16T12:08:15Z</time>
      </trkpt>
      <trkpt lat="43.48236" lon="2.29805">
        <ele>730</ele>
        <time>2019-03-16T12:08:17Z</time>
      </trkpt>
      <trkpt lat="43.48247" lon="2.29802">
        <ele>729</ele>
        <time>2019-03-16T12:08:19Z</time>
      </trkpt>
      <trkpt lat="43.48259" lon="2.29794">
        <ele>727</ele>
        <time>2019-03-16T12:08:21Z</time>
      </trkpt>
      <trkpt lat="43.48263" lon="2.29791">
        <ele>727</ele>
        <time>2019-03-16T12:08:22Z</time>
      </trkpt>
      <trkpt lat="43.48266" lon="2.29789">
        <ele>727</ele>
        <time>2019-03-16T12:08:23Z</time>
      </trkpt>
      <trkpt lat="43.48272" lon="2.29784">
        <ele>726</ele>
        <time>2019-03-16T12:08:25Z</time>
      </trkpt>
      <trkpt lat="43.48275" lon="2.29781">
        <ele>724</ele>
        <time>2019-03-16T12:08:26Z</time>
      </trkpt>
      <trkpt lat="43.48276" lon="2.29778">
        <ele>723</ele>
        <time>2019-03-16T12:08:27Z</time>
      </trkpt>
      <trkpt lat="43.48277" lon="2.29773">
        <ele>722</ele>
        <time>2019-03-16T12:08:29Z</time>
      </trkpt>
      <trkpt lat="43.48278" lon="2.2977">
        <ele>722</ele>
        <time>2019-03-16T12:08:30Z</time>
      </trkpt>
      <trkpt lat="43.48286" lon="2.29762">
        <ele>721</ele>
        <time>2019-03-16T12:08:33Z</time>
      </trkpt>
      <trkpt lat="43.48287" lon="2.29758">
        <ele>721</ele>
        <time>2019-03-16T12:08:34Z</time>
      </trkpt>
      <trkpt lat="43.48289" lon="2.29753">
        <ele>719</ele>
        <time>2019-03-16T12:08:36Z</time>
      </trkpt>
      <trkpt lat="43.48292" lon="2.29749">
        <ele>718</ele>
        <time>2019-03-16T12:08:38Z</time>
      </trkpt>
      <trkpt lat="43.48294" lon="2.29747">
        <ele>718</ele>
        <time>2019-03-16T12:08:39Z</time>
      </trkpt>
      <trkpt lat="43.48296" lon="2.29745">
        <ele>716</ele>
        <time>2019-03-16T12:08:42Z</time>
      </trkpt>
      <trkpt lat="43.483" lon="2.29745">
        <ele>715</ele>
        <time>2019-03-16T12:08:44Z</time>
      </trkpt>
      <trkpt lat="43.48302" lon="2.29744">
        <ele>714</ele>
        <time>2019-03-16T12:08:46Z</time>
      </trkpt>
      <trkpt lat="43.48305" lon="2.29745">
        <ele>713</ele>
        <time>2019-03-16T12:08:47Z</time>
      </trkpt>
      <trkpt lat="43.48307" lon="2.29747">
        <ele>713</ele>
        <time>2019-03-16T12:08:48Z</time>
      </trkpt>
      <trkpt lat="43.4831" lon="2.29753">
        <ele>711</ele>
        <time>2019-03-16T12:08:50Z</time>
      </trkpt>
      <trkpt lat="43.4831" lon="2.29757">
        <ele>710</ele>
        <time>2019-03-16T12:08:51Z</time>
      </trkpt>
      <trkpt lat="43.48311" lon="2.29765">
        <ele>708</ele>
        <time>2019-03-16T12:08:53Z</time>
      </trkpt>
      <trkpt lat="43.48312" lon="2.29768">
        <ele>708</ele>
        <time>2019-03-16T12:08:54Z</time>
      </trkpt>
      <trkpt lat="43.48314" lon="2.29773">
        <ele>707</ele>
        <time>2019-03-16T12:08:55Z</time>
      </trkpt>
      <trkpt lat="43.48314" lon="2.29777">
        <ele>707</ele>
        <time>2019-03-16T12:08:56Z</time>
      </trkpt>
      <trkpt lat="43.48316" lon="2.29788">
        <ele>706</ele>
        <time>2019-03-16T12:08:58Z</time>
      </trkpt>
      <trkpt lat="43.48317" lon="2.29802">
        <ele>704</ele>
        <time>2019-03-16T12:09:00Z</time>
      </trkpt>
      <trkpt lat="43.48318" lon="2.2981">
        <ele>704</ele>
        <time>2019-03-16T12:09:01Z</time>
      </trkpt>
      <trkpt lat="43.48318" lon="2.29817">
        <ele>703</ele>
        <time>2019-03-16T12:09:02Z</time>
      </trkpt>
      <trkpt lat="43.48317" lon="2.29824">
        <ele>703</ele>
        <time>2019-03-16T12:09:03Z</time>
      </trkpt>
      <trkpt lat="43.48314" lon="2.29835">
        <ele>702</ele>
        <time>2019-03-16T12:09:05Z</time>
      </trkpt>
      <trkpt lat="43.48312" lon="2.2984">
        <ele>701</ele>
        <time>2019-03-16T12:09:06Z</time>
      </trkpt>
      <trkpt lat="43.48309" lon="2.2985">
        <ele>700</ele>
        <time>2019-03-16T12:09:08Z</time>
      </trkpt>
      <trkpt lat="43.4831" lon="2.29854">
        <ele>699</ele>
        <time>2019-03-16T12:09:09Z</time>
      </trkpt>
      <trkpt lat="43.48311" lon="2.29858">
        <ele>699</ele>
        <time>2019-03-16T12:09:10Z</time>
      </trkpt>
      <trkpt lat="43.48317" lon="2.29866">
        <ele>696</ele>
        <time>2019-03-16T12:09:12Z</time>
      </trkpt>
      <trkpt lat="43.48326" lon="2.2987">
        <ele>695</ele>
        <time>2019-03-16T12:09:14Z</time>
      </trkpt>
      <trkpt lat="43.48332" lon="2.29868">
        <ele>694</ele>
        <time>2019-03-16T12:09:15Z</time>
      </trkpt>
      <trkpt lat="43.48338" lon="2.29864">
        <ele>693</ele>
        <time>2019-03-16T12:09:16Z</time>
      </trkpt>
      <trkpt lat="43.48343" lon="2.2986">
        <ele>692</ele>
        <time>2019-03-16T12:09:17Z</time>
      </trkpt>
      <trkpt lat="43.48347" lon="2.29857">
        <ele>690</ele>
        <time>2019-03-16T12:09:18Z</time>
      </trkpt>
      <trkpt lat="43.48352" lon="2.29853">
        <ele>689</ele>
        <time>2019-03-16T12:09:19Z</time>
      </trkpt>
      <trkpt lat="43.48359" lon="2.29845">
        <ele>688</ele>
        <time>2019-03-16T12:09:21Z</time>
      </trkpt>
      <trkpt lat="43.48365" lon="2.29835">
        <ele>686</ele>
        <time>2019-03-16T12:09:23Z</time>
      </trkpt>
      <trkpt lat="43.4837" lon="2.29825">
        <ele>684</ele>
        <time>2019-03-16T12:09:25Z</time>
      </trkpt>
      <trkpt lat="43.48373" lon="2.29822">
        <ele>683</ele>
        <time>2019-03-16T12:09:26Z</time>
      </trkpt>
      <trkpt lat="43.48376" lon="2.2982">
        <ele>682</ele>
        <time>2019-03-16T12:09:27Z</time>
      </trkpt>
      <trkpt lat="43.48383" lon="2.29817">
        <ele>681</ele>
        <time>2019-03-16T12:09:29Z</time>
      </trkpt>
      <trkpt lat="43.48387" lon="2.29814">
        <ele>679</ele>
        <time>2019-03-16T12:09:30Z</time>
      </trkpt>
      <trkpt lat="43.48389" lon="2.2981">
        <ele>679</ele>
        <time>2019-03-16T12:09:31Z</time>
      </trkpt>
      <trkpt lat="43.48393" lon="2.29806">
        <ele>678</ele>
        <time>2019-03-16T12:09:32Z</time>
      </trkpt>
      <trkpt lat="43.48396" lon="2.29801">
        <ele>677</ele>
        <time>2019-03-16T12:09:33Z</time>
      </trkpt>
      <trkpt lat="43.48405" lon="2.29793">
        <ele>676</ele>
        <time>2019-03-16T12:09:35Z</time>
      </trkpt>
      <trkpt lat="43.48415" lon="2.29785">
        <ele>674</ele>
        <time>2019-03-16T12:09:37Z</time>
      </trkpt>
      <trkpt lat="43.48418" lon="2.2978">
        <ele>672</ele>
        <time>2019-03-16T12:09:38Z</time>
      </trkpt>
      <trkpt lat="43.48428" lon="2.29774">
        <ele>670</ele>
        <time>2019-03-16T12:09:40Z</time>
      </trkpt>
      <trkpt lat="43.48437" lon="2.29767">
        <ele>669</ele>
        <time>2019-03-16T12:09:42Z</time>
      </trkpt>
      <trkpt lat="43.48448" lon="2.29756">
        <ele>667</ele>
        <time>2019-03-16T12:09:44Z</time>
      </trkpt>
      <trkpt lat="43.48452" lon="2.29752">
        <ele>666</ele>
        <time>2019-03-16T12:09:45Z</time>
      </trkpt>
      <trkpt lat="43.48457" lon="2.29748">
        <ele>665</ele>
        <time>2019-03-16T12:09:46Z</time>
      </trkpt>
      <trkpt lat="43.48462" lon="2.29743">
        <ele>664</ele>
        <time>2019-03-16T12:09:47Z</time>
      </trkpt>
      <trkpt lat="43.48467" lon="2.2974">
        <ele>664</ele>
        <time>2019-03-16T12:09:48Z</time>
      </trkpt>
      <trkpt lat="43.48471" lon="2.29738">
        <ele>663</ele>
        <time>2019-03-16T12:09:49Z</time>
      </trkpt>
      <trkpt lat="43.48476" lon="2.29736">
        <ele>661</ele>
        <time>2019-03-16T12:09:51Z</time>
      </trkpt>
      <trkpt lat="43.48482" lon="2.29733">
        <ele>660</ele>
        <time>2019-03-16T12:09:53Z</time>
      </trkpt>
      <trkpt lat="43.48487" lon="2.29731">
        <ele>659</ele>
        <time>2019-03-16T12:09:55Z</time>
      </trkpt>
      <trkpt lat="43.48491" lon="2.29725">
        <ele>657</ele>
        <time>2019-03-16T12:09:57Z</time>
      </trkpt>
      <trkpt lat="43.48494" lon="2.29723">
        <ele>656</ele>
        <time>2019-03-16T12:09:59Z</time>
      </trkpt>
      <trkpt lat="43.48496" lon="2.29722">
        <ele>655</ele>
        <time>2019-03-16T12:10:00Z</time>
      </trkpt>
      <trkpt lat="43.485" lon="2.29721">
        <ele>655</ele>
        <time>2019-03-16T12:10:01Z</time>
      </trkpt>
      <trkpt lat="43.48506" lon="2.2972">
        <ele>653</ele>
        <time>2019-03-16T12:10:03Z</time>
      </trkpt>
      <trkpt lat="43.48507" lon="2.2972">
        <ele>653</ele>
        <time>2019-03-16T12:10:05Z</time>
      </trkpt>
      <trkpt lat="43.48513" lon="2.2972">
        <ele>652</ele>
        <time>2019-03-16T12:10:33Z</time>
      </trkpt>
      <trkpt lat="43.48514" lon="2.2972">
        <ele>651</ele>
        <time>2019-03-16T12:10:35Z</time>
      </trkpt>
      <trkpt lat="43.48516" lon="2.2972">
        <ele>650</ele>
        <time>2019-03-16T12:10:37Z</time>
      </trkpt>
      <trkpt lat="43.48516" lon="2.29721">
        <ele>650</ele>
        <time>2019-03-16T12:10:39Z</time>
      </trkpt>
      <trkpt lat="43.48518" lon="2.29719">
        <ele>650</ele>
        <time>2019-03-16T12:10:42Z</time>
      </trkpt>
      <trkpt lat="43.48518" lon="2.29718">
        <ele>650</ele>
        <time>2019-03-16T12:10:44Z</time>
      </trkpt>
      <trkpt lat="43.48521" lon="2.29715">
        <ele>650</ele>
        <time>2019-03-16T12:11:13Z</time>
      </trkpt>
      <trkpt lat="43.48521" lon="2.29713">
        <ele>650</ele>
        <time>2019-03-16T12:11:14Z</time>
      </trkpt>
      <trkpt lat="43.48521" lon="2.29712">
        <ele>650</ele>
        <time>2019-03-16T12:11:15Z</time>
      </trkpt>
      <trkpt lat="43.48522" lon="2.29712">
        <ele>650</ele>
        <time>2019-03-16T12:11:17Z</time>
      </trkpt>
      <trkpt lat="43.48525" lon="2.29708">
        <ele>651</ele>
        <time>2019-03-16T12:11:32Z</time>
      </trkpt>
      <trkpt lat="43.48525" lon="2.29708">
        <ele>651</ele>
        <time>2019-03-16T12:11:33Z</time>
      </trkpt>
      <trkpt lat="43.48525" lon="2.29708">
        <ele>651</ele>
        <time>2019-03-16T12:11:34Z</time>
      </trkpt>
      <trkpt lat="43.48527" lon="2.29706">
        <ele>651</ele>
        <time>2019-03-16T12:12:16Z</time>
      </trkpt>
      <trkpt lat="43.48528" lon="2.29706">
        <ele>651</ele>
        <time>2019-03-16T12:12:17Z</time>
      </trkpt>
      <trkpt lat="43.4853" lon="2.29705">
        <ele>651</ele>
        <time>2019-03-16T12:12:18Z</time>
      </trkpt>
      <trkpt lat="43.48536" lon="2.29705">
        <ele>651</ele>
        <time>2019-03-16T12:12:21Z</time>
      </trkpt>
      <trkpt lat="43.48537" lon="2.29706">
        <ele>650</ele>
        <time>2019-03-16T12:12:22Z</time>
      </trkpt>
      <trkpt lat="43.48539" lon="2.29706">
        <ele>650</ele>
        <time>2019-03-16T12:12:23Z</time>
      </trkpt>
      <trkpt lat="43.48549" lon="2.29705">
        <ele>650</ele>
        <time>2019-03-16T12:12:27Z</time>
      </trkpt>
      <trkpt lat="43.48558" lon="2.29704">
        <ele>650</ele>
        <time>2019-03-16T12:12:30Z</time>
      </trkpt>
      <trkpt lat="43.4858" lon="2.29702">
        <ele>651</ele>
        <time>2019-03-16T12:12:35Z</time>
      </trkpt>
      <trkpt lat="43.48584" lon="2.29702">
        <ele>651</ele>
        <time>2019-03-16T12:12:36Z</time>
      </trkpt>
      <trkpt lat="43.48596" lon="2.29701">
        <ele>652</ele>
        <time>2019-03-16T12:12:39Z</time>
      </trkpt>
      <trkpt lat="43.48604" lon="2.29699">
        <ele>653</ele>
        <time>2019-03-16T12:12:41Z</time>
      </trkpt>
      <trkpt lat="43.48619" lon="2.29695">
        <ele>653</ele>
        <time>2019-03-16T12:12:45Z</time>
      </trkpt>
      <trkpt lat="43.48632" lon="2.29692">
        <ele>653</ele>
        <time>2019-03-16T12:12:49Z</time>
      </trkpt>
      <trkpt lat="43.48653" lon="2.29686">
        <ele>653</ele>
        <time>2019-03-16T12:12:55Z</time>
      </trkpt>
      <trkpt lat="43.48671" lon="2.29679">
        <ele>653</ele>
        <time>2019-03-16T12:13:00Z</time>
      </trkpt>
      <trkpt lat="43.4869" lon="2.29667">
        <ele>652</ele>
        <time>2019-03-16T12:13:05Z</time>
      </trkpt>
      <trkpt lat="43.48705" lon="2.29659">
        <ele>652</ele>
        <time>2019-03-16T12:13:08Z</time>
      </trkpt>
      <trkpt lat="43.48725" lon="2.29648">
        <ele>652</ele>
        <time>2019-03-16T12:13:12Z</time>
      </trkpt>
      <trkpt lat="43.48729" lon="2.29644">
        <ele>652</ele>
        <time>2019-03-16T12:13:13Z</time>
      </trkpt>
      <trkpt lat="43.48745" lon="2.29637">
        <ele>652</ele>
        <time>2019-03-16T12:13:16Z</time>
      </trkpt>
      <trkpt lat="43.48755" lon="2.29633">
        <ele>652</ele>
        <time>2019-03-16T12:13:18Z</time>
      </trkpt>
      <trkpt lat="43.48765" lon="2.29628">
        <ele>651</ele>
        <time>2019-03-16T12:13:20Z</time>
      </trkpt>
      <trkpt lat="43.48772" lon="2.29626">
        <ele>651</ele>
        <time>2019-03-16T12:13:21Z</time>
      </trkpt>
      <trkpt lat="43.48788" lon="2.29615">
        <ele>649</ele>
        <time>2019-03-16T12:13:24Z</time>
      </trkpt>
      <trkpt lat="43.48807" lon="2.29611">
        <ele>649</ele>
        <time>2019-03-16T12:13:27Z</time>
      </trkpt>
      <trkpt lat="43.48817" lon="2.29609">
        <ele>648</ele>
        <time>2019-03-16T12:13:30Z</time>
      </trkpt>
      <trkpt lat="43.48823" lon="2.29611">
        <ele>648</ele>
        <time>2019-03-16T12:13:34Z</time>
      </trkpt>
      <trkpt lat="43.48824" lon="2.29611">
        <ele>648</ele>
        <time>2019-03-16T12:13:35Z</time>
      </trkpt>
      <trkpt lat="43.48827" lon="2.29611">
        <ele>648</ele>
        <time>2019-03-16T12:13:37Z</time>
      </trkpt>
      <trkpt lat="43.48832" lon="2.29612">
        <ele>647</ele>
        <time>2019-03-16T12:13:41Z</time>
      </trkpt>
      <trkpt lat="43.48837" lon="2.29617">
        <ele>647</ele>
        <time>2019-03-16T12:13:45Z</time>
      </trkpt>
      <trkpt lat="43.48839" lon="2.29618">
        <ele>646</ele>
        <time>2019-03-16T12:13:46Z</time>
      </trkpt>
      <trkpt lat="43.48842" lon="2.2962">
        <ele>646</ele>
        <time>2019-03-16T12:13:48Z</time>
      </trkpt>
      <trkpt lat="43.48846" lon="2.29622">
        <ele>645</ele>
        <time>2019-03-16T12:13:50Z</time>
      </trkpt>
      <trkpt lat="43.48849" lon="2.29624">
        <ele>644</ele>
        <time>2019-03-16T12:13:52Z</time>
      </trkpt>
      <trkpt lat="43.48855" lon="2.29626">
        <ele>644</ele>
        <time>2019-03-16T12:13:54Z</time>
      </trkpt>
      <trkpt lat="43.48861" lon="2.29629">
        <ele>643</ele>
        <time>2019-03-16T12:13:56Z</time>
      </trkpt>
      <trkpt lat="43.48869" lon="2.29632">
        <ele>642</ele>
        <time>2019-03-16T12:13:58Z</time>
      </trkpt>
      <trkpt lat="43.48876" lon="2.29634">
        <ele>641</ele>
        <time>2019-03-16T12:14:00Z</time>
      </trkpt>
      <trkpt lat="43.4888" lon="2.29635">
        <ele>641</ele>
        <time>2019-03-16T12:14:01Z</time>
      </trkpt>
      <trkpt lat="43.48887" lon="2.29636">
        <ele>640</ele>
        <time>2019-03-16T12:14:03Z</time>
      </trkpt>
      <trkpt lat="43.4889" lon="2.29634">
        <ele>639</ele>
        <time>2019-03-16T12:14:05Z</time>
      </trkpt>
      <trkpt lat="43.48891" lon="2.29633">
        <ele>639</ele>
        <time>2019-03-16T12:14:07Z</time>
      </trkpt>
      <trkpt lat="43.48901" lon="2.2964">
        <ele>636</ele>
        <time>2019-03-16T12:14:43Z</time>
      </trkpt>
      <trkpt lat="43.48904" lon="2.29642">
        <ele>636</ele>
        <time>2019-03-16T12:14:44Z</time>
      </trkpt>
      <trkpt lat="43.4891" lon="2.29646">
        <ele>635</ele>
        <time>2019-03-16T12:14:46Z</time>
      </trkpt>
      <trkpt lat="43.48915" lon="2.29648">
        <ele>634</ele>
        <time>2019-03-16T12:14:47Z</time>
      </trkpt>
      <trkpt lat="43.48919" lon="2.2965">
        <ele>633</ele>
        <time>2019-03-16T12:14:48Z</time>
      </trkpt>
      <trkpt lat="43.48929" lon="2.29655">
        <ele>632</ele>
        <time>2019-03-16T12:14:50Z</time>
      </trkpt>
      <trkpt lat="43.48934" lon="2.29657">
        <ele>631</ele>
        <time>2019-03-16T12:14:51Z</time>
      </trkpt>
      <trkpt lat="43.48939" lon="2.29658">
        <ele>630</ele>
        <time>2019-03-16T12:14:52Z</time>
      </trkpt>
      <trkpt lat="43.48944" lon="2.29659">
        <ele>629</ele>
        <time>2019-03-16T12:14:53Z</time>
      </trkpt>
      <trkpt lat="43.48948" lon="2.29659">
        <ele>628</ele>
        <time>2019-03-16T12:14:54Z</time>
      </trkpt>
      <trkpt lat="43.48952" lon="2.2966">
        <ele>627</ele>
        <time>2019-03-16T12:14:55Z</time>
      </trkpt>
      <trkpt lat="43.48958" lon="2.2966">
        <ele>627</ele>
        <time>2019-03-16T12:14:57Z</time>
      </trkpt>
      <trkpt lat="43.48963" lon="2.2966">
        <ele>626</ele>
        <time>2019-03-16T12:14:59Z</time>
      </trkpt>
      <trkpt lat="43.48965" lon="2.2966">
        <ele>626</ele>
        <time>2019-03-16T12:15:00Z</time>
      </trkpt>
      <trkpt lat="43.48967" lon="2.29659">
        <ele>625</ele>
        <time>2019-03-16T12:15:01Z</time>
      </trkpt>
      <trkpt lat="43.48971" lon="2.29659">
        <ele>624</ele>
        <time>2019-03-16T12:15:03Z</time>
      </trkpt>
      <trkpt lat="43.48974" lon="2.29659">
        <ele>624</ele>
        <time>2019-03-16T12:15:04Z</time>
      </trkpt>
      <trkpt lat="43.48979" lon="2.29657">
        <ele>623</ele>
        <time>2019-03-16T12:15:06Z</time>
      </trkpt>
      <trkpt lat="43.48982" lon="2.29657">
        <ele>622</ele>
        <time>2019-03-16T12:15:07Z</time>
      </trkpt>
      <trkpt lat="43.48986" lon="2.29656">
        <ele>621</ele>
        <time>2019-03-16T12:15:08Z</time>
      </trkpt>
      <trkpt lat="43.48993" lon="2.29656">
        <ele>621</ele>
        <time>2019-03-16T12:15:10Z</time>
      </trkpt>
      <trkpt lat="43.48996" lon="2.29656">
        <ele>620</ele>
        <time>2019-03-16T12:15:11Z</time>
      </trkpt>
      <trkpt lat="43.48999" lon="2.29656">
        <ele>620</ele>
        <time>2019-03-16T12:15:12Z</time>
      </trkpt>
      <trkpt lat="43.49001" lon="2.29655">
        <ele>620</ele>
        <time>2019-03-16T12:15:13Z</time>
      </trkpt>
      <trkpt lat="43.49004" lon="2.29654">
        <ele>619</ele>
        <time>2019-03-16T12:15:15Z</time>
      </trkpt>
      <trkpt lat="43.49006" lon="2.29655">
        <ele>619</ele>
        <time>2019-03-16T12:15:16Z</time>
      </trkpt>
      <trkpt lat="43.49023" lon="2.29654">
        <ele>617</ele>
        <time>2019-03-16T12:15:31Z</time>
      </trkpt>
      <trkpt lat="43.49024" lon="2.29654">
        <ele>617</ele>
        <time>2019-03-16T12:15:32Z</time>
      </trkpt>
      <trkpt lat="43.49031" lon="2.29654">
        <ele>616</ele>
        <time>2019-03-16T12:15:35Z</time>
      </trkpt>
      <trkpt lat="43.49034" lon="2.29655">
        <ele>616</ele>
        <time>2019-03-16T12:15:36Z</time>
      </trkpt>
      <trkpt lat="43.49044" lon="2.29657">
        <ele>615</ele>
        <time>2019-03-16T12:15:39Z</time>
      </trkpt>
      <trkpt lat="43.49051" lon="2.29656">
        <ele>614</ele>
        <time>2019-03-16T12:15:41Z</time>
      </trkpt>
      <trkpt lat="43.49059" lon="2.29657">
        <ele>612</ele>
        <time>2019-03-16T12:15:43Z</time>
      </trkpt>
      <trkpt lat="43.49068" lon="2.29658">
        <ele>611</ele>
        <time>2019-03-16T12:15:45Z</time>
      </trkpt>
      <trkpt lat="43.49072" lon="2.29658">
        <ele>610</ele>
        <time>2019-03-16T12:15:46Z</time>
      </trkpt>
      <trkpt lat="43.49075" lon="2.2966">
        <ele>609</ele>
        <time>2019-03-16T12:15:47Z</time>
      </trkpt>
      <trkpt lat="43.49081" lon="2.29669">
        <ele>608</ele>
        <time>2019-03-16T12:15:49Z</time>
      </trkpt>
      <trkpt lat="43.49086" lon="2.29677">
        <ele>607</ele>
        <time>2019-03-16T12:15:51Z</time>
      </trkpt>
      <trkpt lat="43.49088" lon="2.2968">
        <ele>606</ele>
        <time>2019-03-16T12:15:52Z</time>
      </trkpt>
      <trkpt lat="43.49091" lon="2.29682">
        <ele>605</ele>
        <time>2019-03-16T12:15:53Z</time>
      </trkpt>
      <trkpt lat="43.49092" lon="2.29689">
        <ele>604</ele>
        <time>2019-03-16T12:15:55Z</time>
      </trkpt>
      <trkpt lat="43.49092" lon="2.29696">
        <ele>604</ele>
        <time>2019-03-16T12:15:57Z</time>
      </trkpt>
      <trkpt lat="43.49095" lon="2.297">
        <ele>602</ele>
        <time>2019-03-16T12:15:59Z</time>
      </trkpt>
      <trkpt lat="43.49104" lon="2.29704">
        <ele>601</ele>
        <time>2019-03-16T12:16:01Z</time>
      </trkpt>
      <trkpt lat="43.49109" lon="2.29705">
        <ele>600</ele>
        <time>2019-03-16T12:16:02Z</time>
      </trkpt>
      <trkpt lat="43.49113" lon="2.29706">
        <ele>599</ele>
        <time>2019-03-16T12:16:03Z</time>
      </trkpt>
      <trkpt lat="43.49118" lon="2.29707">
        <ele>598</ele>
        <time>2019-03-16T12:16:04Z</time>
      </trkpt>
      <trkpt lat="43.49124" lon="2.29707">
        <ele>597</ele>
        <time>2019-03-16T12:16:05Z</time>
      </trkpt>
      <trkpt lat="43.49129" lon="2.29707">
        <ele>596</ele>
        <time>2019-03-16T12:16:06Z</time>
      </trkpt>
      <trkpt lat="43.49133" lon="2.29707">
        <ele>594</ele>
        <time>2019-03-16T12:16:07Z</time>
      </trkpt>
      <trkpt lat="43.49141" lon="2.29708">
        <ele>593</ele>
        <time>2019-03-16T12:16:09Z</time>
      </trkpt>
      <trkpt lat="43.49145" lon="2.29708">
        <ele>592</ele>
        <time>2019-03-16T12:16:10Z</time>
      </trkpt>
      <trkpt lat="43.4915" lon="2.29707">
        <ele>591</ele>
        <time>2019-03-16T12:16:12Z</time>
      </trkpt>
      <trkpt lat="43.49155" lon="2.29706">
        <ele>591</ele>
        <time>2019-03-16T12:16:14Z</time>
      </trkpt>
      <trkpt lat="43.49158" lon="2.29706">
        <ele>590</ele>
        <time>2019-03-16T12:16:15Z</time>
      </trkpt>
      <trkpt lat="43.4917" lon="2.29706">
        <ele>589</ele>
        <time>2019-03-16T12:16:18Z</time>
      </trkpt>
      <trkpt lat="43.49174" lon="2.29704">
        <ele>588</ele>
        <time>2019-03-16T12:16:19Z</time>
      </trkpt>
      <trkpt lat="43.49177" lon="2.29703">
        <ele>588</ele>
        <time>2019-03-16T12:16:20Z</time>
      </trkpt>
      <trkpt lat="43.49182" lon="2.297">
        <ele>586</ele>
        <time>2019-03-16T12:16:22Z</time>
      </trkpt>
      <trkpt lat="43.49184" lon="2.29699">
        <ele>586</ele>
        <time>2019-03-16T12:16:23Z</time>
      </trkpt>
      <trkpt lat="43.49188" lon="2.29696">
        <ele>585</ele>
        <time>2019-03-16T12:16:25Z</time>
      </trkpt>
      <trkpt lat="43.4919" lon="2.29696">
        <ele>584</ele>
        <time>2019-03-16T12:16:26Z</time>
      </trkpt>
      <trkpt lat="43.49192" lon="2.29694">
        <ele>583</ele>
        <time>2019-03-16T12:16:27Z</time>
      </trkpt>
      <trkpt lat="43.49196" lon="2.29696">
        <ele>582</ele>
        <time>2019-03-16T12:16:28Z</time>
      </trkpt>
      <trkpt lat="43.49201" lon="2.29695">
        <ele>581</ele>
        <time>2019-03-16T12:16:29Z</time>
      </trkpt>
      <trkpt lat="43.49208" lon="2.29693">
        <ele>580</ele>
        <time>2019-03-16T12:16:31Z</time>
      </trkpt>
      <trkpt lat="43.49213" lon="2.2969">
        <ele>580</ele>
        <time>2019-03-16T12:16:32Z</time>
      </trkpt>
      <trkpt lat="43.4922" lon="2.29683">
        <ele>579</ele>
        <time>2019-03-16T12:16:35Z</time>
      </trkpt>
      <trkpt lat="43.49227" lon="2.29679">
        <ele>579</ele>
        <time>2019-03-16T12:16:37Z</time>
      </trkpt>
      <trkpt lat="43.49232" lon="2.29675">
        <ele>577</ele>
        <time>2019-03-16T12:16:39Z</time>
      </trkpt>
      <trkpt lat="43.49235" lon="2.29674">
        <ele>576</ele>
        <time>2019-03-16T12:16:40Z</time>
      </trkpt>
      <trkpt lat="43.49239" lon="2.29673">
        <ele>575</ele>
        <time>2019-03-16T12:16:41Z</time>
      </trkpt>
      <trkpt lat="43.49243" lon="2.29672">
        <ele>574</ele>
        <time>2019-03-16T12:16:42Z</time>
      </trkpt>
      <trkpt lat="43.49248" lon="2.29672">
        <ele>573</ele>
        <time>2019-03-16T12:16:43Z</time>
      </trkpt>
      <trkpt lat="43.49257" lon="2.29672">
        <ele>571</ele>
        <time>2019-03-16T12:16:45Z</time>
      </trkpt>
      <trkpt lat="43.49262" lon="2.29672">
        <ele>570</ele>
        <time>2019-03-16T12:16:46Z</time>
      </trkpt>
      <trkpt lat="43.49266" lon="2.29671">
        <ele>569</ele>
        <time>2019-03-16T12:16:47Z</time>
      </trkpt>
      <trkpt lat="43.49269" lon="2.29669">
        <ele>569</ele>
        <time>2019-03-16T12:16:48Z</time>
      </trkpt>
      <trkpt lat="43.49274" lon="2.29666">
        <ele>568</ele>
        <time>2019-03-16T12:16:49Z</time>
      </trkpt>
      <trkpt lat="43.49278" lon="2.29664">
        <ele>568</ele>
        <time>2019-03-16T12:16:50Z</time>
      </trkpt>
      <trkpt lat="43.49284" lon="2.29664">
        <ele>567</ele>
        <time>2019-03-16T12:16:51Z</time>
      </trkpt>
      <trkpt lat="43.4929" lon="2.2966">
        <ele>565</ele>
        <time>2019-03-16T12:16:53Z</time>
      </trkpt>
      <trkpt lat="43.49292" lon="2.29658">
        <ele>565</ele>
        <time>2019-03-16T12:16:54Z</time>
      </trkpt>
      <trkpt lat="43.49295" lon="2.29655">
        <ele>565</ele>
        <time>2019-03-16T12:16:56Z</time>
      </trkpt>
      <trkpt lat="43.49295" lon="2.29655">
        <ele>564</ele>
        <time>2019-03-16T12:16:58Z</time>
      </trkpt>
      <trkpt lat="43.49302" lon="2.29652">
        <ele>564</ele>
        <time>2019-03-16T12:17:13Z</time>
      </trkpt>
      <trkpt lat="43.49304" lon="2.29651">
        <ele>564</ele>
        <time>2019-03-16T12:17:14Z</time>
      </trkpt>
      <trkpt lat="43.49312" lon="2.29647">
        <ele>562</ele>
        <time>2019-03-16T12:17:17Z</time>
      </trkpt>
      <trkpt lat="43.49313" lon="2.29646">
        <ele>561</ele>
        <time>2019-03-16T12:17:18Z</time>
      </trkpt>
      <trkpt lat="43.49316" lon="2.29643">
        <ele>560</ele>
        <time>2019-03-16T12:17:19Z</time>
      </trkpt>
      <trkpt lat="43.49317" lon="2.2964">
        <ele>559</ele>
        <time>2019-03-16T12:17:20Z</time>
      </trkpt>
      <trkpt lat="43.49318" lon="2.29638">
        <ele>558</ele>
        <time>2019-03-16T12:17:21Z</time>
      </trkpt>
      <trkpt lat="43.49319" lon="2.29635">
        <ele>558</ele>
        <time>2019-03-16T12:17:22Z</time>
      </trkpt>
      <trkpt lat="43.49322" lon="2.29631">
        <ele>557</ele>
        <time>2019-03-16T12:17:24Z</time>
      </trkpt>
      <trkpt lat="43.49324" lon="2.29631">
        <ele>556</ele>
        <time>2019-03-16T12:17:25Z</time>
      </trkpt>
      <trkpt lat="43.49327" lon="2.29629">
        <ele>555</ele>
        <time>2019-03-16T12:17:27Z</time>
      </trkpt>
      <trkpt lat="43.4933" lon="2.29627">
        <ele>554</ele>
        <time>2019-03-16T12:17:28Z</time>
      </trkpt>
      <trkpt lat="43.49332" lon="2.29626">
        <ele>554</ele>
        <time>2019-03-16T12:17:29Z</time>
      </trkpt>
      <trkpt lat="43.49335" lon="2.29625">
        <ele>553</ele>
        <time>2019-03-16T12:17:30Z</time>
      </trkpt>
      <trkpt lat="43.49337" lon="2.29625">
        <ele>552</ele>
        <time>2019-03-16T12:17:31Z</time>
      </trkpt>
      <trkpt lat="43.49343" lon="2.29625">
        <ele>550</ele>
        <time>2019-03-16T12:17:33Z</time>
      </trkpt>
      <trkpt lat="43.49346" lon="2.29625">
        <ele>549</ele>
        <time>2019-03-16T12:17:34Z</time>
      </trkpt>
      <trkpt lat="43.49353" lon="2.29627">
        <ele>548</ele>
        <time>2019-03-16T12:17:36Z</time>
      </trkpt>
      <trkpt lat="43.49361" lon="2.29631">
        <ele>546</ele>
        <time>2019-03-16T12:17:38Z</time>
      </trkpt>
      <trkpt lat="43.49363" lon="2.29633">
        <ele>545</ele>
        <time>2019-03-16T12:17:39Z</time>
      </trkpt>
      <trkpt lat="43.49375" lon="2.29641">
        <ele>544</ele>
        <time>2019-03-16T12:17:42Z</time>
      </trkpt>
      <trkpt lat="43.49381" lon="2.29645">
        <ele>543</ele>
        <time>2019-03-16T12:17:43Z</time>
      </trkpt>
      <trkpt lat="43.49386" lon="2.29649">
        <ele>542</ele>
        <time>2019-03-16T12:17:44Z</time>
      </trkpt>
      <trkpt lat="43.4939" lon="2.29655">
        <ele>541</ele>
        <time>2019-03-16T12:17:45Z</time>
      </trkpt>
      <trkpt lat="43.49396" lon="2.2966">
        <ele>540</ele>
        <time>2019-03-16T12:17:46Z</time>
      </trkpt>
      <trkpt lat="43.49399" lon="2.29663">
        <ele>538</ele>
        <time>2019-03-16T12:17:47Z</time>
      </trkpt>
      <trkpt lat="43.49403" lon="2.29667">
        <ele>536</ele>
        <time>2019-03-16T12:17:48Z</time>
      </trkpt>
      <trkpt lat="43.49407" lon="2.29669">
        <ele>535</ele>
        <time>2019-03-16T12:17:49Z</time>
      </trkpt>
      <trkpt lat="43.49413" lon="2.29676">
        <ele>533</ele>
        <time>2019-03-16T12:17:51Z</time>
      </trkpt>
      <trkpt lat="43.49417" lon="2.29679">
        <ele>532</ele>
        <time>2019-03-16T12:17:52Z</time>
      </trkpt>
      <trkpt lat="43.49423" lon="2.29682">
        <ele>532</ele>
        <time>2019-03-16T12:17:53Z</time>
      </trkpt>
      <trkpt lat="43.49434" lon="2.2969">
        <ele>530</ele>
        <time>2019-03-16T12:17:55Z</time>
      </trkpt>
      <trkpt lat="43.49439" lon="2.29694">
        <ele>529</ele>
        <time>2019-03-16T12:17:56Z</time>
      </trkpt>
      <trkpt lat="43.49445" lon="2.29699">
        <ele>528</ele>
        <time>2019-03-16T12:17:57Z</time>
      </trkpt>
      <trkpt lat="43.4945" lon="2.29703">
        <ele>526</ele>
        <time>2019-03-16T12:17:58Z</time>
      </trkpt>
      <trkpt lat="43.49455" lon="2.29705">
        <ele>525</ele>
        <time>2019-03-16T12:17:59Z</time>
      </trkpt>
      <trkpt lat="43.49458" lon="2.29707">
        <ele>524</ele>
        <time>2019-03-16T12:18:00Z</time>
      </trkpt>
      <trkpt lat="43.49462" lon="2.29711">
        <ele>523</ele>
        <time>2019-03-16T12:18:02Z</time>
      </trkpt>
      <trkpt lat="43.49467" lon="2.29715">
        <ele>522</ele>
        <time>2019-03-16T12:18:04Z</time>
      </trkpt>
      <trkpt lat="43.49468" lon="2.29716">
        <ele>522</ele>
        <time>2019-03-16T12:18:05Z</time>
      </trkpt>
      <trkpt lat="43.4947" lon="2.29718">
        <ele>521</ele>
        <time>2019-03-16T12:18:06Z</time>
      </trkpt>
      <trkpt lat="43.49478" lon="2.29722">
        <ele>521</ele>
        <time>2019-03-16T12:18:40Z</time>
      </trkpt>
      <trkpt lat="43.4948" lon="2.29724">
        <ele>521</ele>
        <time>2019-03-16T12:18:41Z</time>
      </trkpt>
      <trkpt lat="43.49485" lon="2.29729">
        <ele>520</ele>
        <time>2019-03-16T12:18:43Z</time>
      </trkpt>
      <trkpt lat="43.49489" lon="2.29731">
        <ele>520</ele>
        <time>2019-03-16T12:18:44Z</time>
      </trkpt>
      <trkpt lat="43.49493" lon="2.29733">
        <ele>520</ele>
        <time>2019-03-16T12:18:45Z</time>
      </trkpt>
      <trkpt lat="43.49503" lon="2.29737">
        <ele>519</ele>
        <time>2019-03-16T12:18:47Z</time>
      </trkpt>
      <trkpt lat="43.49509" lon="2.29739">
        <ele>519</ele>
        <time>2019-03-16T12:18:48Z</time>
      </trkpt>
      <trkpt lat="43.49517" lon="2.29743">
        <ele>517</ele>
        <time>2019-03-16T12:18:50Z</time>
      </trkpt>
      <trkpt lat="43.49522" lon="2.29744">
        <ele>517</ele>
        <time>2019-03-16T12:18:51Z</time>
      </trkpt>
      <trkpt lat="43.49532" lon="2.29748">
        <ele>516</ele>
        <time>2019-03-16T12:18:53Z</time>
      </trkpt>
      <trkpt lat="43.49536" lon="2.29751">
        <ele>516</ele>
        <time>2019-03-16T12:18:54Z</time>
      </trkpt>
      <trkpt lat="43.4954" lon="2.29754">
        <ele>515</ele>
        <time>2019-03-16T12:18:55Z</time>
      </trkpt>
      <trkpt lat="43.49544" lon="2.29756">
        <ele>515</ele>
        <time>2019-03-16T12:18:56Z</time>
      </trkpt>
      <trkpt lat="43.49547" lon="2.29758">
        <ele>514</ele>
        <time>2019-03-16T12:18:57Z</time>
      </trkpt>
      <trkpt lat="43.49551" lon="2.29761">
        <ele>514</ele>
        <time>2019-03-16T12:18:58Z</time>
      </trkpt>
      <trkpt lat="43.49554" lon="2.29765">
        <ele>514</ele>
        <time>2019-03-16T12:18:59Z</time>
      </trkpt>
      <trkpt lat="43.4956" lon="2.29774">
        <ele>512</ele>
        <time>2019-03-16T12:19:01Z</time>
      </trkpt>
      <trkpt lat="43.49562" lon="2.29779">
        <ele>512</ele>
        <time>2019-03-16T12:19:02Z</time>
      </trkpt>
      <trkpt lat="43.49566" lon="2.29788">
        <ele>511</ele>
        <time>2019-03-16T12:19:04Z</time>
      </trkpt>
      <trkpt lat="43.49567" lon="2.2979">
        <ele>511</ele>
        <time>2019-03-16T12:19:05Z</time>
      </trkpt>
      <trkpt lat="43.49568" lon="2.29792">
        <ele>510</ele>
        <time>2019-03-16T12:19:06Z</time>
      </trkpt>
      <trkpt lat="43.49574" lon="2.29798">
        <ele>509</ele>
        <time>2019-03-16T12:19:08Z</time>
      </trkpt>
      <trkpt lat="43.49577" lon="2.29803">
        <ele>509</ele>
        <time>2019-03-16T12:19:09Z</time>
      </trkpt>
      <trkpt lat="43.49583" lon="2.29814">
        <ele>507</ele>
        <time>2019-03-16T12:19:11Z</time>
      </trkpt>
      <trkpt lat="43.49586" lon="2.2982">
        <ele>506</ele>
        <time>2019-03-16T12:19:12Z</time>
      </trkpt>
      <trkpt lat="43.49589" lon="2.29827">
        <ele>505</ele>
        <time>2019-03-16T12:19:13Z</time>
      </trkpt>
      <trkpt lat="43.49595" lon="2.2984">
        <ele>503</ele>
        <time>2019-03-16T12:19:15Z</time>
      </trkpt>
      <trkpt lat="43.49598" lon="2.29845">
        <ele>503</ele>
        <time>2019-03-16T12:19:16Z</time>
      </trkpt>
      <trkpt lat="43.496" lon="2.29851">
        <ele>502</ele>
        <time>2019-03-16T12:19:17Z</time>
      </trkpt>
      <trkpt lat="43.49604" lon="2.29857">
        <ele>501</ele>
        <time>2019-03-16T12:19:19Z</time>
      </trkpt>
      <trkpt lat="43.4961" lon="2.29865">
        <ele>499</ele>
        <time>2019-03-16T12:19:21Z</time>
      </trkpt>
      <trkpt lat="43.49612" lon="2.29869">
        <ele>499</ele>
        <time>2019-03-16T12:19:22Z</time>
      </trkpt>
      <trkpt lat="43.49614" lon="2.29872">
        <ele>498</ele>
        <time>2019-03-16T12:19:23Z</time>
      </trkpt>
      <trkpt lat="43.49617" lon="2.29879">
        <ele>497</ele>
        <time>2019-03-16T12:19:25Z</time>
      </trkpt>
      <trkpt lat="43.49622" lon="2.29889">
        <ele>496</ele>
        <time>2019-03-16T12:19:27Z</time>
      </trkpt>
      <trkpt lat="43.4963" lon="2.29902">
        <ele>494</ele>
        <time>2019-03-16T12:19:29Z</time>
      </trkpt>
      <trkpt lat="43.49639" lon="2.29915">
        <ele>492</ele>
        <time>2019-03-16T12:19:31Z</time>
      </trkpt>
      <trkpt lat="43.49643" lon="2.29921">
        <ele>491</ele>
        <time>2019-03-16T12:19:32Z</time>
      </trkpt>
      <trkpt lat="43.49647" lon="2.29927">
        <ele>490</ele>
        <time>2019-03-16T12:19:33Z</time>
      </trkpt>
      <trkpt lat="43.49652" lon="2.29933">
        <ele>489</ele>
        <time>2019-03-16T12:19:34Z</time>
      </trkpt>
      <trkpt lat="43.49656" lon="2.29938">
        <ele>488</ele>
        <time>2019-03-16T12:19:35Z</time>
      </trkpt>
      <trkpt lat="43.4966" lon="2.29942">
        <ele>487</ele>
        <time>2019-03-16T12:19:36Z</time>
      </trkpt>
      <trkpt lat="43.49671" lon="2.29951">
        <ele>485</ele>
        <time>2019-03-16T12:19:38Z</time>
      </trkpt>
      <trkpt lat="43.49675" lon="2.29956">
        <ele>484</ele>
        <time>2019-03-16T12:19:39Z</time>
      </trkpt>
      <trkpt lat="43.49679" lon="2.29963">
        <ele>482</ele>
        <time>2019-03-16T12:19:40Z</time>
      </trkpt>
      <trkpt lat="43.49683" lon="2.2997">
        <ele>480</ele>
        <time>2019-03-16T12:19:41Z</time>
      </trkpt>
      <trkpt lat="43.49686" lon="2.29977">
        <ele>479</ele>
        <time>2019-03-16T12:19:42Z</time>
      </trkpt>
      <trkpt lat="43.49689" lon="2.29983">
        <ele>477</ele>
        <time>2019-03-16T12:19:43Z</time>
      </trkpt>
      <trkpt lat="43.49692" lon="2.29989">
        <ele>476</ele>
        <time>2019-03-16T12:19:44Z</time>
      </trkpt>
      <trkpt lat="43.49695" lon="2.29995">
        <ele>475</ele>
        <time>2019-03-16T12:19:45Z</time>
      </trkpt>
      <trkpt lat="43.49696" lon="2.3">
        <ele>474</ele>
        <time>2019-03-16T12:19:46Z</time>
      </trkpt>
      <trkpt lat="43.49697" lon="2.30004">
        <ele>473</ele>
        <time>2019-03-16T12:19:47Z</time>
      </trkpt>
      <trkpt lat="43.49699" lon="2.30006">
        <ele>472</ele>
        <time>2019-03-16T12:19:48Z</time>
      </trkpt>
      <trkpt lat="43.49699" lon="2.30009">
        <ele>471</ele>
        <time>2019-03-16T12:19:49Z</time>
      </trkpt>
      <trkpt lat="43.49699" lon="2.30012">
        <ele>470</ele>
        <time>2019-03-16T12:19:50Z</time>
      </trkpt>
      <trkpt lat="43.49698" lon="2.30017">
        <ele>469</ele>
        <time>2019-03-16T12:19:52Z</time>
      </trkpt>
      <trkpt lat="43.49699" lon="2.3002">
        <ele>469</ele>
        <time>2019-03-16T12:19:53Z</time>
      </trkpt>
      <trkpt lat="43.49701" lon="2.30021">
        <ele>469</ele>
        <time>2019-03-16T12:19:54Z</time>
      </trkpt>
      <trkpt lat="43.49708" lon="2.30023">
        <ele>468</ele>
        <time>2019-03-16T12:19:57Z</time>
      </trkpt>
      <trkpt lat="43.49711" lon="2.30024">
        <ele>468</ele>
        <time>2019-03-16T12:19:58Z</time>
      </trkpt>
      <trkpt lat="43.49714" lon="2.30026">
        <ele>468</ele>
        <time>2019-03-16T12:19:59Z</time>
      </trkpt>
      <trkpt lat="43.49716" lon="2.30035">
        <ele>467</ele>
        <time>2019-03-16T12:20:01Z</time>
      </trkpt>
      <trkpt lat="43.49716" lon="2.30039">
        <ele>466</ele>
        <time>2019-03-16T12:20:02Z</time>
      </trkpt>
      <trkpt lat="43.49716" lon="2.3004">
        <ele>465</ele>
        <time>2019-03-16T12:20:03Z</time>
      </trkpt>
      <trkpt lat="43.49716" lon="2.30042">
        <ele>464</ele>
        <time>2019-03-16T12:20:05Z</time>
      </trkpt>
      <trkpt lat="43.49714" lon="2.30045">
        <ele>464</ele>
        <time>2019-03-16T12:21:15Z</time>
      </trkpt>
      <trkpt lat="43.4971" lon="2.30046">
        <ele>464</ele>
        <time>2019-03-16T12:21:17Z</time>
      </trkpt>
      <trkpt lat="43.49704" lon="2.30047">
        <ele>463</ele>
        <time>2019-03-16T12:21:20Z</time>
      </trkpt>
      <trkpt lat="43.49703" lon="2.30047">
        <ele>463</ele>
        <time>2019-03-16T12:21:21Z</time>
      </trkpt>
      <trkpt lat="43.49698" lon="2.30047">
        <ele>462</ele>
        <time>2019-03-16T12:21:25Z</time>
      </trkpt>
      <trkpt lat="43.49698" lon="2.30047">
        <ele>462</ele>
        <time>2019-03-16T12:21:26Z</time>
      </trkpt>
      <trkpt lat="43.49696" lon="2.30046">
        <ele>461</ele>
        <time>2019-03-16T12:21:30Z</time>
      </trkpt>
      <trkpt lat="43.49695" lon="2.30046">
        <ele>461</ele>
        <time>2019-03-16T12:21:49Z</time>
      </trkpt>
      <trkpt lat="43.49695" lon="2.30047">
        <ele>461</ele>
        <time>2019-03-16T12:21:51Z</time>
      </trkpt>
      <trkpt lat="43.49693" lon="2.30049">
        <ele>460</ele>
        <time>2019-03-16T12:21:56Z</time>
      </trkpt>
      <trkpt lat="43.49694" lon="2.30053">
        <ele>460</ele>
        <time>2019-03-16T12:22:00Z</time>
      </trkpt>
      <trkpt lat="43.49694" lon="2.30055">
        <ele>459</ele>
        <time>2019-03-16T12:22:02Z</time>
      </trkpt>
      <trkpt lat="43.49695" lon="2.30056">
        <ele>459</ele>
        <time>2019-03-16T12:22:03Z</time>
      </trkpt>
      <trkpt lat="43.49696" lon="2.30059">
        <ele>457</ele>
        <time>2019-03-16T12:22:06Z</time>
      </trkpt>
      <trkpt lat="43.49697" lon="2.30063">
        <ele>456</ele>
        <time>2019-03-16T12:22:09Z</time>
      </trkpt>
      <trkpt lat="43.49699" lon="2.30064">
        <ele>455</ele>
        <time>2019-03-16T12:22:12Z</time>
      </trkpt>
      <trkpt lat="43.49704" lon="2.30066">
        <ele>454</ele>
        <time>2019-03-16T12:22:17Z</time>
      </trkpt>
      <trkpt lat="43.49707" lon="2.30068">
        <ele>453</ele>
        <time>2019-03-16T12:22:20Z</time>
      </trkpt>
      <trkpt lat="43.49708" lon="2.30068">
        <ele>452</ele>
        <time>2019-03-16T12:22:21Z</time>
      </trkpt>
      <trkpt lat="43.49708" lon="2.30068">
        <ele>452</ele>
        <time>2019-03-16T12:22:22Z</time>
      </trkpt>
      <trkpt lat="43.49707" lon="2.30071">
        <ele>451</ele>
        <time>2019-03-16T12:22:29Z</time>
      </trkpt>
      <trkpt lat="43.49705" lon="2.30073">
        <ele>450</ele>
        <time>2019-03-16T12:22:32Z</time>
      </trkpt>
      <trkpt lat="43.49705" lon="2.30075">
        <ele>450</ele>
        <time>2019-03-16T12:22:33Z</time>
      </trkpt>
      <trkpt lat="43.49704" lon="2.30078">
        <ele>449</ele>
        <time>2019-03-16T12:22:35Z</time>
      </trkpt>
      <trkpt lat="43.49703" lon="2.30081">
        <ele>449</ele>
        <time>2019-03-16T12:22:37Z</time>
      </trkpt>
      <trkpt lat="43.49703" lon="2.30082">
        <ele>448</ele>
        <time>2019-03-16T12:22:38Z</time>
      </trkpt>
      <trkpt lat="43.49704" lon="2.30086">
        <ele>447</ele>
        <time>2019-03-16T12:22:42Z</time>
      </trkpt>
      <trkpt lat="43.49704" lon="2.30089">
        <ele>447</ele>
        <time>2019-03-16T12:22:45Z</time>
      </trkpt>
      <trkpt lat="43.49705" lon="2.3009">
        <ele>447</ele>
        <time>2019-03-16T12:22:46Z</time>
      </trkpt>
      <trkpt lat="43.49706" lon="2.3009">
        <ele>447</ele>
        <time>2019-03-16T12:22:48Z</time>
      </trkpt>
      <trkpt lat="43.49708" lon="2.3009">
        <ele>447</ele>
        <time>2019-03-16T12:23:58Z</time>
      </trkpt>
      <trkpt lat="43.49709" lon="2.30091">
        <ele>447</ele>
        <time>2019-03-16T12:23:59Z</time>
      </trkpt>
      <trkpt lat="43.49712" lon="2.30098">
        <ele>447</ele>
        <time>2019-03-16T12:24:03Z</time>
      </trkpt>
      <trkpt lat="43.49714" lon="2.30101">
        <ele>447</ele>
        <time>2019-03-16T12:24:04Z</time>
      </trkpt>
      <trkpt lat="43.49723" lon="2.30107">
        <ele>446</ele>
        <time>2019-03-16T12:24:07Z</time>
      </trkpt>
      <trkpt lat="43.49726" lon="2.30108">
        <ele>445</ele>
        <time>2019-03-16T12:24:08Z</time>
      </trkpt>
      <trkpt lat="43.49729" lon="2.3011">
        <ele>445</ele>
        <time>2019-03-16T12:24:09Z</time>
      </trkpt>
      <trkpt lat="43.49737" lon="2.30117">
        <ele>445</ele>
        <time>2019-03-16T12:24:12Z</time>
      </trkpt>
      <trkpt lat="43.4974" lon="2.3012">
        <ele>444</ele>
        <time>2019-03-16T12:24:13Z</time>
      </trkpt>
      <trkpt lat="43.49749" lon="2.30126">
        <ele>443</ele>
        <time>2019-03-16T12:24:15Z</time>
      </trkpt>
      <trkpt lat="43.49754" lon="2.30129">
        <ele>443</ele>
        <time>2019-03-16T12:24:16Z</time>
      </trkpt>
      <trkpt lat="43.49763" lon="2.30132">
        <ele>441</ele>
        <time>2019-03-16T12:24:18Z</time>
      </trkpt>
      <trkpt lat="43.49767" lon="2.30133">
        <ele>440</ele>
        <time>2019-03-16T12:24:19Z</time>
      </trkpt>
      <trkpt lat="43.49772" lon="2.30134">
        <ele>440</ele>
        <time>2019-03-16T12:24:20Z</time>
      </trkpt>
      <trkpt lat="43.49782" lon="2.30136">
        <ele>439</ele>
        <time>2019-03-16T12:24:23Z</time>
      </trkpt>
      <trkpt lat="43.49784" lon="2.30138">
        <ele>438</ele>
        <time>2019-03-16T12:24:24Z</time>
      </trkpt>
      <trkpt lat="43.49785" lon="2.3014">
        <ele>438</ele>
        <time>2019-03-16T12:24:25Z</time>
      </trkpt>
      <trkpt lat="43.49784" lon="2.30143">
        <ele>437</ele>
        <time>2019-03-16T12:24:26Z</time>
      </trkpt>
      <trkpt lat="43.49782" lon="2.30147">
        <ele>437</ele>
        <time>2019-03-16T12:24:27Z</time>
      </trkpt>
      <trkpt lat="43.4978" lon="2.3015">
        <ele>436</ele>
        <time>2019-03-16T12:24:28Z</time>
      </trkpt>
      <trkpt lat="43.49778" lon="2.30153">
        <ele>435</ele>
        <time>2019-03-16T12:24:29Z</time>
      </trkpt>
      <trkpt lat="43.49776" lon="2.30156">
        <ele>434</ele>
        <time>2019-03-16T12:24:30Z</time>
      </trkpt>
      <trkpt lat="43.49774" lon="2.30158">
        <ele>433</ele>
        <time>2019-03-16T12:24:31Z</time>
      </trkpt>
      <trkpt lat="43.4977" lon="2.30161">
        <ele>432</ele>
        <time>2019-03-16T12:24:32Z</time>
      </trkpt>
      <trkpt lat="43.49767" lon="2.30164">
        <ele>430</ele>
        <time>2019-03-16T12:24:33Z</time>
      </trkpt>
      <trkpt lat="43.49765" lon="2.30166">
        <ele>429</ele>
        <time>2019-03-16T12:24:34Z</time>
      </trkpt>
      <trkpt lat="43.49763" lon="2.30175">
        <ele>427</ele>
        <time>2019-03-16T12:24:36Z</time>
      </trkpt>
      <trkpt lat="43.49763" lon="2.30179">
        <ele>427</ele>
        <time>2019-03-16T12:24:37Z</time>
      </trkpt>
      <trkpt lat="43.49763" lon="2.30186">
        <ele>426</ele>
        <time>2019-03-16T12:24:39Z</time>
      </trkpt>
      <trkpt lat="43.49763" lon="2.30189">
        <ele>425</ele>
        <time>2019-03-16T12:24:40Z</time>
      </trkpt>
      <trkpt lat="43.49764" lon="2.30193">
        <ele>424</ele>
        <time>2019-03-16T12:24:41Z</time>
      </trkpt>
      <trkpt lat="43.49765" lon="2.30197">
        <ele>424</ele>
        <time>2019-03-16T12:24:42Z</time>
      </trkpt>
      <trkpt lat="43.49764" lon="2.30201">
        <ele>423</ele>
        <time>2019-03-16T12:24:43Z</time>
      </trkpt>
      <trkpt lat="43.49764" lon="2.30206">
        <ele>422</ele>
        <time>2019-03-16T12:24:44Z</time>
      </trkpt>
      <trkpt lat="43.49764" lon="2.3021">
        <ele>421</ele>
        <time>2019-03-16T12:24:45Z</time>
      </trkpt>
      <trkpt lat="43.49765" lon="2.30212">
        <ele>421</ele>
        <time>2019-03-16T12:24:46Z</time>
      </trkpt>
      <trkpt lat="43.49766" lon="2.30215">
        <ele>420</ele>
        <time>2019-03-16T12:24:47Z</time>
      </trkpt>
      <trkpt lat="43.49769" lon="2.30222">
        <ele>418</ele>
        <time>2019-03-16T12:24:49Z</time>
      </trkpt>
      <trkpt lat="43.49773" lon="2.30228">
        <ele>417</ele>
        <time>2019-03-16T12:24:50Z</time>
      </trkpt>
      <trkpt lat="43.49776" lon="2.30231">
        <ele>416</ele>
        <time>2019-03-16T12:24:51Z</time>
      </trkpt>
      <trkpt lat="43.49779" lon="2.30233">
        <ele>414</ele>
        <time>2019-03-16T12:24:52Z</time>
      </trkpt>
      <trkpt lat="43.4978" lon="2.30236">
        <ele>413</ele>
        <time>2019-03-16T12:24:53Z</time>
      </trkpt>
      <trkpt lat="43.4978" lon="2.3024">
        <ele>413</ele>
        <time>2019-03-16T12:24:54Z</time>
      </trkpt>
      <trkpt lat="43.49779" lon="2.30253">
        <ele>411</ele>
        <time>2019-03-16T12:24:57Z</time>
      </trkpt>
      <trkpt lat="43.49779" lon="2.30257">
        <ele>411</ele>
        <time>2019-03-16T12:24:58Z</time>
      </trkpt>
      <trkpt lat="43.49779" lon="2.30262">
        <ele>410</ele>
        <time>2019-03-16T12:24:59Z</time>
      </trkpt>
      <trkpt lat="43.49781" lon="2.3027">
        <ele>408</ele>
        <time>2019-03-16T12:25:01Z</time>
      </trkpt>
      <trkpt lat="43.49781" lon="2.30274">
        <ele>407</ele>
        <time>2019-03-16T12:25:02Z</time>
      </trkpt>
      <trkpt lat="43.4978" lon="2.30279">
        <ele>406</ele>
        <time>2019-03-16T12:25:03Z</time>
      </trkpt>
      <trkpt lat="43.49778" lon="2.30283">
        <ele>405</ele>
        <time>2019-03-16T12:25:04Z</time>
      </trkpt>
      <trkpt lat="43.49777" lon="2.30285">
        <ele>404</ele>
        <time>2019-03-16T12:25:05Z</time>
      </trkpt>
      <trkpt lat="43.49775" lon="2.30291">
        <ele>403</ele>
        <time>2019-03-16T12:25:07Z</time>
      </trkpt>
      <trkpt lat="43.49772" lon="2.30298">
        <ele>402</ele>
        <time>2019-03-16T12:25:09Z</time>
      </trkpt>
      <trkpt lat="43.4977" lon="2.30303">
        <ele>400</ele>
        <time>2019-03-16T12:25:11Z</time>
      </trkpt>
      <trkpt lat="43.49769" lon="2.30305">
        <ele>399</ele>
        <time>2019-03-16T12:25:12Z</time>
      </trkpt>
      <trkpt lat="43.49767" lon="2.30309">
        <ele>397</ele>
        <time>2019-03-16T12:25:14Z</time>
      </trkpt>
      <trkpt lat="43.49767" lon="2.30311">
        <ele>396</ele>
        <time>2019-03-16T12:25:15Z</time>
      </trkpt>
      <trkpt lat="43.49771" lon="2.30317">
        <ele>395</ele>
        <time>2019-03-16T12:25:43Z</time>
      </trkpt>
      <trkpt lat="43.49773" lon="2.30319">
        <ele>395</ele>
        <time>2019-03-16T12:25:45Z</time>
      </trkpt>
      <trkpt lat="43.49775" lon="2.30322">
        <ele>395</ele>
        <time>2019-03-16T12:25:48Z</time>
      </trkpt>
      <trkpt lat="43.49778" lon="2.30325">
        <ele>395</ele>
        <time>2019-03-16T12:25:50Z</time>
      </trkpt>
      <trkpt lat="43.49784" lon="2.30334">
        <ele>394</ele>
        <time>2019-03-16T12:25:54Z</time>
      </trkpt>
      <trkpt lat="43.49786" lon="2.30337">
        <ele>394</ele>
        <time>2019-03-16T12:25:55Z</time>
      </trkpt>
      <trkpt lat="43.4979" lon="2.30343">
        <ele>393</ele>
        <time>2019-03-16T12:25:58Z</time>
      </trkpt>
      <trkpt lat="43.49793" lon="2.30346">
        <ele>393</ele>
        <time>2019-03-16T12:25:59Z</time>
      </trkpt>
      <trkpt lat="43.49804" lon="2.30361">
        <ele>393</ele>
        <time>2019-03-16T12:26:03Z</time>
      </trkpt>
      <trkpt lat="43.4981" lon="2.30376">
        <ele>393</ele>
        <time>2019-03-16T12:26:06Z</time>
      </trkpt>
      <trkpt lat="43.49812" lon="2.30382">
        <ele>392</ele>
        <time>2019-03-16T12:26:07Z</time>
      </trkpt>
      <trkpt lat="43.49815" lon="2.30389">
        <ele>392</ele>
        <time>2019-03-16T12:26:08Z</time>
      </trkpt>
      <trkpt lat="43.49819" lon="2.30402">
        <ele>391</ele>
        <time>2019-03-16T12:26:10Z</time>
      </trkpt>
      <trkpt lat="43.49824" lon="2.30415">
        <ele>389</ele>
        <time>2019-03-16T12:26:12Z</time>
      </trkpt>
      <trkpt lat="43.49833" lon="2.30431">
        <ele>388</ele>
        <time>2019-03-16T12:26:15Z</time>
      </trkpt>
      <trkpt lat="43.49844" lon="2.30436">
        <ele>386</ele>
        <time>2019-03-16T12:26:18Z</time>
      </trkpt>
      <trkpt lat="43.49847" lon="2.30436">
        <ele>386</ele>
        <time>2019-03-16T12:26:19Z</time>
      </trkpt>
      <trkpt lat="43.49849" lon="2.30436">
        <ele>385</ele>
        <time>2019-03-16T12:26:20Z</time>
      </trkpt>
      <trkpt lat="43.49858" lon="2.30438">
        <ele>385</ele>
        <time>2019-03-16T12:26:22Z</time>
      </trkpt>
      <trkpt lat="43.49872" lon="2.30445">
        <ele>384</ele>
        <time>2019-03-16T12:26:24Z</time>
      </trkpt>
      <trkpt lat="43.49881" lon="2.30449">
        <ele>384</ele>
        <time>2019-03-16T12:26:25Z</time>
      </trkpt>
      <trkpt lat="43.4989" lon="2.30452">
        <ele>383</ele>
        <time>2019-03-16T12:26:26Z</time>
      </trkpt>
      <trkpt lat="43.49909" lon="2.30454">
        <ele>382</ele>
        <time>2019-03-16T12:26:28Z</time>
      </trkpt>
      <trkpt lat="43.49918" lon="2.30452">
        <ele>381</ele>
        <time>2019-03-16T12:26:29Z</time>
      </trkpt>
      <trkpt lat="43.49926" lon="2.3045">
        <ele>380</ele>
        <time>2019-03-16T12:26:30Z</time>
      </trkpt>
      <trkpt lat="43.49939" lon="2.30443">
        <ele>380</ele>
        <time>2019-03-16T12:26:32Z</time>
      </trkpt>
      <trkpt lat="43.49947" lon="2.30439">
        <ele>379</ele>
        <time>2019-03-16T12:26:33Z</time>
      </trkpt>
      <trkpt lat="43.4996" lon="2.30435">
        <ele>379</ele>
        <time>2019-03-16T12:26:35Z</time>
      </trkpt>
      <trkpt lat="43.49974" lon="2.30436">
        <ele>379</ele>
        <time>2019-03-16T12:26:37Z</time>
      </trkpt>
      <trkpt lat="43.50012" lon="2.30441">
        <ele>378</ele>
        <time>2019-03-16T12:26:43Z</time>
      </trkpt>
      <trkpt lat="43.50032" lon="2.30445">
        <ele>377</ele>
        <time>2019-03-16T12:26:46Z</time>
      </trkpt>
      <trkpt lat="43.50038" lon="2.30448">
        <ele>377</ele>
        <time>2019-03-16T12:26:47Z</time>
      </trkpt>
      <trkpt lat="43.50044" lon="2.3045">
        <ele>376</ele>
        <time>2019-03-16T12:26:48Z</time>
      </trkpt>
      <trkpt lat="43.50051" lon="2.30455">
        <ele>376</ele>
        <time>2019-03-16T12:26:50Z</time>
      </trkpt>
      <trkpt lat="43.50053" lon="2.30458">
        <ele>376</ele>
        <time>2019-03-16T12:26:51Z</time>
      </trkpt>
      <trkpt lat="43.50056" lon="2.3046">
        <ele>375</ele>
        <time>2019-03-16T12:26:52Z</time>
      </trkpt>
      <trkpt lat="43.50062" lon="2.30463">
        <ele>375</ele>
        <time>2019-03-16T12:26:54Z</time>
      </trkpt>
      <trkpt lat="43.50065" lon="2.30465">
        <ele>374</ele>
        <time>2019-03-16T12:26:55Z</time>
      </trkpt>
      <trkpt lat="43.50072" lon="2.30475">
        <ele>373</ele>
        <time>2019-03-16T12:26:59Z</time>
      </trkpt>
      <trkpt lat="43.50076" lon="2.30477">
        <ele>372</ele>
        <time>2019-03-16T12:27:01Z</time>
      </trkpt>
      <trkpt lat="43.50078" lon="2.30478">
        <ele>372</ele>
        <time>2019-03-16T12:27:03Z</time>
      </trkpt>
      <trkpt lat="43.50079" lon="2.30478">
        <ele>372</ele>
        <time>2019-03-16T12:27:04Z</time>
      </trkpt>
      <trkpt lat="43.5008" lon="2.30479">
        <ele>372</ele>
        <time>2019-03-16T12:27:05Z</time>
      </trkpt>
      <trkpt lat="43.50081" lon="2.30482">
        <ele>371</ele>
        <time>2019-03-16T12:27:19Z</time>
      </trkpt>
      <trkpt lat="43.50081" lon="2.3049">
        <ele>371</ele>
        <time>2019-03-16T12:27:21Z</time>
      </trkpt>
      <trkpt lat="43.50081" lon="2.30501">
        <ele>371</ele>
        <time>2019-03-16T12:27:23Z</time>
      </trkpt>
      <trkpt lat="43.50078" lon="2.30513">
        <ele>371</ele>
        <time>2019-03-16T12:27:25Z</time>
      </trkpt>
      <trkpt lat="43.50068" lon="2.30531">
        <ele>370</ele>
        <time>2019-03-16T12:27:28Z</time>
      </trkpt>
      <trkpt lat="43.50065" lon="2.30536">
        <ele>370</ele>
        <time>2019-03-16T12:27:29Z</time>
      </trkpt>
      <trkpt lat="43.50061" lon="2.30541">
        <ele>370</ele>
        <time>2019-03-16T12:27:30Z</time>
      </trkpt>
      <trkpt lat="43.50032" lon="2.30563">
        <ele>369</ele>
        <time>2019-03-16T12:27:35Z</time>
      </trkpt>
      <trkpt lat="43.49985" lon="2.30579">
        <ele>368</ele>
        <time>2019-03-16T12:27:42Z</time>
      </trkpt>
      <trkpt lat="43.49978" lon="2.3058">
        <ele>367</ele>
        <time>2019-03-16T12:27:43Z</time>
      </trkpt>
      <trkpt lat="43.49952" lon="2.30581">
        <ele>367</ele>
        <time>2019-03-16T12:27:47Z</time>
      </trkpt>
      <trkpt lat="43.49945" lon="2.30583">
        <ele>367</ele>
        <time>2019-03-16T12:27:48Z</time>
      </trkpt>
      <trkpt lat="43.49939" lon="2.30586">
        <ele>366</ele>
        <time>2019-03-16T12:27:49Z</time>
      </trkpt>
      <trkpt lat="43.49928" lon="2.30598">
        <ele>365</ele>
        <time>2019-03-16T12:27:51Z</time>
      </trkpt>
      <trkpt lat="43.4992" lon="2.30612">
        <ele>365</ele>
        <time>2019-03-16T12:27:53Z</time>
      </trkpt>
      <trkpt lat="43.49917" lon="2.3062">
        <ele>365</ele>
        <time>2019-03-16T12:27:54Z</time>
      </trkpt>
      <trkpt lat="43.49911" lon="2.30635">
        <ele>365</ele>
        <time>2019-03-16T12:27:56Z</time>
      </trkpt>
      <trkpt lat="43.49908" lon="2.30666">
        <ele>366</ele>
        <time>2019-03-16T12:28:00Z</time>
      </trkpt>
      <trkpt lat="43.4991" lon="2.30679">
        <ele>366</ele>
        <time>2019-03-16T12:28:02Z</time>
      </trkpt>
      <trkpt lat="43.49912" lon="2.30685">
        <ele>367</ele>
        <time>2019-03-16T12:28:03Z</time>
      </trkpt>
      <trkpt lat="43.49914" lon="2.30691">
        <ele>367</ele>
        <time>2019-03-16T12:28:04Z</time>
      </trkpt>
      <trkpt lat="43.49917" lon="2.30697">
        <ele>367</ele>
        <time>2019-03-16T12:28:05Z</time>
      </trkpt>
      <trkpt lat="43.4993" lon="2.30719">
        <ele>368</ele>
        <time>2019-03-16T12:28:09Z</time>
      </trkpt>
      <trkpt lat="43.49934" lon="2.30723">
        <ele>368</ele>
        <time>2019-03-16T12:28:10Z</time>
      </trkpt>
      <trkpt lat="43.49945" lon="2.30735">
        <ele>369</ele>
        <time>2019-03-16T12:28:13Z</time>
      </trkpt>
      <trkpt lat="43.49951" lon="2.30742">
        <ele>369</ele>
        <time>2019-03-16T12:28:15Z</time>
      </trkpt>
      <trkpt lat="43.49964" lon="2.30755">
        <ele>370</ele>
        <time>2019-03-16T12:28:19Z</time>
      </trkpt>
      <trkpt lat="43.49971" lon="2.3076">
        <ele>371</ele>
        <time>2019-03-16T12:28:21Z</time>
      </trkpt>
      <trkpt lat="43.49975" lon="2.30763">
        <ele>371</ele>
        <time>2019-03-16T12:28:22Z</time>
      </trkpt>
      <trkpt lat="43.49986" lon="2.30776">
        <ele>371</ele>
        <time>2019-03-16T12:28:25Z</time>
      </trkpt>
      <trkpt lat="43.50001" lon="2.30809">
        <ele>369</ele>
        <time>2019-03-16T12:28:30Z</time>
      </trkpt>
      <trkpt lat="43.50004" lon="2.30815">
        <ele>369</ele>
        <time>2019-03-16T12:28:31Z</time>
      </trkpt>
      <trkpt lat="43.50013" lon="2.30827">
        <ele>368</ele>
        <time>2019-03-16T12:28:33Z</time>
      </trkpt>
      <trkpt lat="43.50018" lon="2.30833">
        <ele>368</ele>
        <time>2019-03-16T12:28:34Z</time>
      </trkpt>
      <trkpt lat="43.50033" lon="2.30852">
        <ele>366</ele>
        <time>2019-03-16T12:28:37Z</time>
      </trkpt>
      <trkpt lat="43.50037" lon="2.3086">
        <ele>366</ele>
        <time>2019-03-16T12:28:38Z</time>
      </trkpt>
      <trkpt lat="43.50036" lon="2.30888">
        <ele>365</ele>
        <time>2019-03-16T12:28:41Z</time>
      </trkpt>
      <trkpt lat="43.50024" lon="2.30908">
        <ele>364</ele>
        <time>2019-03-16T12:28:44Z</time>
      </trkpt>
      <trkpt lat="43.50009" lon="2.30927">
        <ele>362</ele>
        <time>2019-03-16T12:28:47Z</time>
      </trkpt>
      <trkpt lat="43.50005" lon="2.30934">
        <ele>362</ele>
        <time>2019-03-16T12:28:48Z</time>
      </trkpt>
      <trkpt lat="43.50001" lon="2.30941">
        <ele>362</ele>
        <time>2019-03-16T12:28:49Z</time>
      </trkpt>
      <trkpt lat="43.49996" lon="2.30949">
        <ele>361</ele>
        <time>2019-03-16T12:28:50Z</time>
      </trkpt>
      <trkpt lat="43.49992" lon="2.30957">
        <ele>361</ele>
        <time>2019-03-16T12:28:51Z</time>
      </trkpt>
      <trkpt lat="43.49989" lon="2.30964">
        <ele>361</ele>
        <time>2019-03-16T12:28:52Z</time>
      </trkpt>
      <trkpt lat="43.49986" lon="2.30982">
        <ele>360</ele>
        <time>2019-03-16T12:28:54Z</time>
      </trkpt>
      <trkpt lat="43.49986" lon="2.30992">
        <ele>360</ele>
        <time>2019-03-16T12:28:55Z</time>
      </trkpt>
      <trkpt lat="43.49986" lon="2.31001">
        <ele>359</ele>
        <time>2019-03-16T12:28:56Z</time>
      </trkpt>
      <trkpt lat="43.49991" lon="2.31016">
        <ele>358</ele>
        <time>2019-03-16T12:28:58Z</time>
      </trkpt>
      <trkpt lat="43.49995" lon="2.31021">
        <ele>358</ele>
        <time>2019-03-16T12:28:59Z</time>
      </trkpt>
      <trkpt lat="43.50006" lon="2.31027">
        <ele>358</ele>
        <time>2019-03-16T12:29:01Z</time>
      </trkpt>
      <trkpt lat="43.50018" lon="2.31031">
        <ele>358</ele>
        <time>2019-03-16T12:29:03Z</time>
      </trkpt>
      <trkpt lat="43.50024" lon="2.31032">
        <ele>358</ele>
        <time>2019-03-16T12:29:04Z</time>
      </trkpt>
      <trkpt lat="43.5003" lon="2.31032">
        <ele>358</ele>
        <time>2019-03-16T12:29:05Z</time>
      </trkpt>
      <trkpt lat="43.5004" lon="2.31033">
        <ele>359</ele>
        <time>2019-03-16T12:29:07Z</time>
      </trkpt>
      <trkpt lat="43.50045" lon="2.31034">
        <ele>359</ele>
        <time>2019-03-16T12:29:08Z</time>
      </trkpt>
      <trkpt lat="43.50055" lon="2.31036">
        <ele>360</ele>
        <time>2019-03-16T12:29:10Z</time>
      </trkpt>
      <trkpt lat="43.50064" lon="2.31037">
        <ele>361</ele>
        <time>2019-03-16T12:29:12Z</time>
      </trkpt>
      <trkpt lat="43.50073" lon="2.31038">
        <ele>361</ele>
        <time>2019-03-16T12:29:14Z</time>
      </trkpt>
      <trkpt lat="43.50078" lon="2.31038">
        <ele>362</ele>
        <time>2019-03-16T12:29:15Z</time>
      </trkpt>
      <trkpt lat="43.50094" lon="2.31038">
        <ele>362</ele>
        <time>2019-03-16T12:29:18Z</time>
      </trkpt>
      <trkpt lat="43.50099" lon="2.3104">
        <ele>362</ele>
        <time>2019-03-16T12:29:19Z</time>
      </trkpt>
      <trkpt lat="43.50113" lon="2.31049">
        <ele>362</ele>
        <time>2019-03-16T12:29:23Z</time>
      </trkpt>
      <trkpt lat="43.50123" lon="2.31068">
        <ele>362</ele>
        <time>2019-03-16T12:29:27Z</time>
      </trkpt>
      <trkpt lat="43.50128" lon="2.31081">
        <ele>361</ele>
        <time>2019-03-16T12:29:29Z</time>
      </trkpt>
      <trkpt lat="43.50136" lon="2.31105">
        <ele>360</ele>
        <time>2019-03-16T12:29:32Z</time>
      </trkpt>
      <trkpt lat="43.50146" lon="2.3113">
        <ele>359</ele>
        <time>2019-03-16T12:29:35Z</time>
      </trkpt>
      <trkpt lat="43.50151" lon="2.31139">
        <ele>358</ele>
        <time>2019-03-16T12:29:36Z</time>
      </trkpt>
      <trkpt lat="43.50156" lon="2.31147">
        <ele>358</ele>
        <time>2019-03-16T12:29:37Z</time>
      </trkpt>
      <trkpt lat="43.50172" lon="2.31171">
        <ele>356</ele>
        <time>2019-03-16T12:29:40Z</time>
      </trkpt>
      <trkpt lat="43.50179" lon="2.31179">
        <ele>355</ele>
        <time>2019-03-16T12:29:41Z</time>
      </trkpt>
      <trkpt lat="43.50186" lon="2.31186">
        <ele>355</ele>
        <time>2019-03-16T12:29:42Z</time>
      </trkpt>
      <trkpt lat="43.5021" lon="2.31202">
        <ele>353</ele>
        <time>2019-03-16T12:29:45Z</time>
      </trkpt>
      <trkpt lat="43.50219" lon="2.31206">
        <ele>352</ele>
        <time>2019-03-16T12:29:46Z</time>
      </trkpt>
      <trkpt lat="43.50227" lon="2.3121">
        <ele>351</ele>
        <time>2019-03-16T12:29:47Z</time>
      </trkpt>
      <trkpt lat="43.50233" lon="2.31215">
        <ele>350</ele>
        <time>2019-03-16T12:29:48Z</time>
      </trkpt>
      <trkpt lat="43.50238" lon="2.31222">
        <ele>349</ele>
        <time>2019-03-16T12:29:49Z</time>
      </trkpt>
      <trkpt lat="43.50247" lon="2.31248">
        <ele>348</ele>
        <time>2019-03-16T12:29:52Z</time>
      </trkpt>
      <trkpt lat="43.50249" lon="2.31259">
        <ele>348</ele>
        <time>2019-03-16T12:29:53Z</time>
      </trkpt>
      <trkpt lat="43.50251" lon="2.3127">
        <ele>348</ele>
        <time>2019-03-16T12:29:54Z</time>
      </trkpt>
      <trkpt lat="43.50253" lon="2.31279">
        <ele>347</ele>
        <time>2019-03-16T12:29:55Z</time>
      </trkpt>
      <trkpt lat="43.50257" lon="2.31287">
        <ele>346</ele>
        <time>2019-03-16T12:29:56Z</time>
      </trkpt>
      <trkpt lat="43.50268" lon="2.31294">
        <ele>345</ele>
        <time>2019-03-16T12:29:58Z</time>
      </trkpt>
      <trkpt lat="43.50276" lon="2.31295">
        <ele>344</ele>
        <time>2019-03-16T12:29:59Z</time>
      </trkpt>
      <trkpt lat="43.50284" lon="2.31296">
        <ele>343</ele>
        <time>2019-03-16T12:30:00Z</time>
      </trkpt>
      <trkpt lat="43.50301" lon="2.31294">
        <ele>342</ele>
        <time>2019-03-16T12:30:02Z</time>
      </trkpt>
      <trkpt lat="43.5031" lon="2.31294">
        <ele>341</ele>
        <time>2019-03-16T12:30:03Z</time>
      </trkpt>
      <trkpt lat="43.50327" lon="2.31292">
        <ele>338</ele>
        <time>2019-03-16T12:30:05Z</time>
      </trkpt>
      <trkpt lat="43.5034" lon="2.31293">
        <ele>336</ele>
        <time>2019-03-16T12:30:07Z</time>
      </trkpt>
      <trkpt lat="43.50349" lon="2.31315">
        <ele>335</ele>
        <time>2019-03-16T12:30:10Z</time>
      </trkpt>
      <trkpt lat="43.5035" lon="2.31335">
        <ele>333</ele>
        <time>2019-03-16T12:30:12Z</time>
      </trkpt>
      <trkpt lat="43.50347" lon="2.31344">
        <ele>333</ele>
        <time>2019-03-16T12:30:13Z</time>
      </trkpt>
      <trkpt lat="43.5034" lon="2.31362">
        <ele>332</ele>
        <time>2019-03-16T12:30:15Z</time>
      </trkpt>
      <trkpt lat="43.50332" lon="2.31381">
        <ele>330</ele>
        <time>2019-03-16T12:30:17Z</time>
      </trkpt>
      <trkpt lat="43.50324" lon="2.31403">
        <ele>329</ele>
        <time>2019-03-16T12:30:19Z</time>
      </trkpt>
      <trkpt lat="43.50319" lon="2.31427">
        <ele>327</ele>
        <time>2019-03-16T12:30:21Z</time>
      </trkpt>
      <trkpt lat="43.5032" lon="2.31452">
        <ele>326</ele>
        <time>2019-03-16T12:30:23Z</time>
      </trkpt>
      <trkpt lat="43.50321" lon="2.31464">
        <ele>326</ele>
        <time>2019-03-16T12:30:24Z</time>
      </trkpt>
      <trkpt lat="43.50322" lon="2.31476">
        <ele>326</ele>
        <time>2019-03-16T12:30:25Z</time>
      </trkpt>
      <trkpt lat="43.50325" lon="2.31496">
        <ele>325</ele>
        <time>2019-03-16T12:30:27Z</time>
      </trkpt>
      <trkpt lat="43.50328" lon="2.31504">
        <ele>325</ele>
        <time>2019-03-16T12:30:28Z</time>
      </trkpt>
      <trkpt lat="43.50347" lon="2.31554">
        <ele>324</ele>
        <time>2019-03-16T12:30:34Z</time>
      </trkpt>
      <trkpt lat="43.50357" lon="2.31589">
        <ele>324</ele>
        <time>2019-03-16T12:30:38Z</time>
      </trkpt>
      <trkpt lat="43.50362" lon="2.31605">
        <ele>324</ele>
        <time>2019-03-16T12:30:40Z</time>
      </trkpt>
      <trkpt lat="43.50376" lon="2.31643">
        <ele>324</ele>
        <time>2019-03-16T12:30:45Z</time>
      </trkpt>
      <trkpt lat="43.50379" lon="2.31649">
        <ele>323</ele>
        <time>2019-03-16T12:30:46Z</time>
      </trkpt>
      <trkpt lat="43.50386" lon="2.31662">
        <ele>324</ele>
        <time>2019-03-16T12:30:48Z</time>
      </trkpt>
      <trkpt lat="43.50394" lon="2.31673">
        <ele>323</ele>
        <time>2019-03-16T12:30:50Z</time>
      </trkpt>
      <trkpt lat="43.50408" lon="2.31688">
        <ele>323</ele>
        <time>2019-03-16T12:30:53Z</time>
      </trkpt>
      <trkpt lat="43.50421" lon="2.31701">
        <ele>323</ele>
        <time>2019-03-16T12:30:56Z</time>
      </trkpt>
      <trkpt lat="43.50448" lon="2.31727">
        <ele>323</ele>
        <time>2019-03-16T12:31:02Z</time>
      </trkpt>
      <trkpt lat="43.50456" lon="2.31735">
        <ele>323</ele>
        <time>2019-03-16T12:31:04Z</time>
      </trkpt>
      <trkpt lat="43.50465" lon="2.31745">
        <ele>323</ele>
        <time>2019-03-16T12:31:07Z</time>
      </trkpt>
      <trkpt lat="43.50469" lon="2.31749">
        <ele>323</ele>
        <time>2019-03-16T12:31:10Z</time>
      </trkpt>
      <trkpt lat="43.5047" lon="2.31749">
        <ele>323</ele>
        <time>2019-03-16T12:31:11Z</time>
      </trkpt>
      <trkpt lat="43.50471" lon="2.3175">
        <ele>323</ele>
        <time>2019-03-16T12:31:12Z</time>
      </trkpt>
      <trkpt lat="43.50472" lon="2.31751">
        <ele>323</ele>
        <time>2019-03-16T12:31:15Z</time>
      </trkpt>
      <trkpt lat="43.50471" lon="2.31752">
        <ele>323</ele>
        <time>2019-03-16T12:31:41Z</time>
      </trkpt>
      <trkpt lat="43.50465" lon="2.31768">
        <ele>322</ele>
        <time>2019-03-16T12:31:46Z</time>
      </trkpt>
      <trkpt lat="43.50453" lon="2.31785">
        <ele>322</ele>
        <time>2019-03-16T12:31:50Z</time>
      </trkpt>
      <trkpt lat="43.50437" lon="2.31791">
        <ele>321</ele>
        <time>2019-03-16T12:31:53Z</time>
      </trkpt>
      <trkpt lat="43.50431" lon="2.31791">
        <ele>321</ele>
        <time>2019-03-16T12:31:54Z</time>
      </trkpt>
      <trkpt lat="43.50422" lon="2.31788">
        <ele>320</ele>
        <time>2019-03-16T12:31:56Z</time>
      </trkpt>
      <trkpt lat="43.50409" lon="2.31783">
        <ele>320</ele>
        <time>2019-03-16T12:31:59Z</time>
      </trkpt>
      <trkpt lat="43.50404" lon="2.31781">
        <ele>320</ele>
        <time>2019-03-16T12:32:00Z</time>
      </trkpt>
      <trkpt lat="43.50391" lon="2.31778">
        <ele>321</ele>
        <time>2019-03-16T12:32:03Z</time>
      </trkpt>
      <trkpt lat="43.50386" lon="2.31777">
        <ele>322</ele>
        <time>2019-03-16T12:32:04Z</time>
      </trkpt>
      <trkpt lat="43.50381" lon="2.31777">
        <ele>322</ele>
        <time>2019-03-16T12:32:05Z</time>
      </trkpt>
      <trkpt lat="43.50347" lon="2.31783">
        <ele>322</ele>
        <time>2019-03-16T12:32:12Z</time>
      </trkpt>
      <trkpt lat="43.50313" lon="2.31793">
        <ele>322</ele>
        <time>2019-03-16T12:32:20Z</time>
      </trkpt>
      <trkpt lat="43.50284" lon="2.31803">
        <ele>323</ele>
        <time>2019-03-16T12:32:27Z</time>
      </trkpt>
      <trkpt lat="43.50276" lon="2.31804">
        <ele>323</ele>
        <time>2019-03-16T12:32:29Z</time>
      </trkpt>
      <trkpt lat="43.50258" lon="2.31809">
        <ele>324</ele>
        <time>2019-03-16T12:32:34Z</time>
      </trkpt>
      <trkpt lat="43.50254" lon="2.3181">
        <ele>324</ele>
        <time>2019-03-16T12:32:35Z</time>
      </trkpt>
      <trkpt lat="43.50237" lon="2.31816">
        <ele>325</ele>
        <time>2019-03-16T12:32:40Z</time>
      </trkpt>
      <trkpt lat="43.50217" lon="2.31821">
        <ele>326</ele>
        <time>2019-03-16T12:32:46Z</time>
      </trkpt>
      <trkpt lat="43.50211" lon="2.31823">
        <ele>327</ele>
        <time>2019-03-16T12:32:48Z</time>
      </trkpt>
      <trkpt lat="43.50199" lon="2.31827">
        <ele>328</ele>
        <time>2019-03-16T12:32:52Z</time>
      </trkpt>
      <trkpt lat="43.5019" lon="2.31829">
        <ele>328</ele>
        <time>2019-03-16T12:32:55Z</time>
      </trkpt>
      <trkpt lat="43.50184" lon="2.31831">
        <ele>329</ele>
        <time>2019-03-16T12:32:57Z</time>
      </trkpt>
      <trkpt lat="43.50172" lon="2.31835">
        <ele>330</ele>
        <time>2019-03-16T12:33:01Z</time>
      </trkpt>
      <trkpt lat="43.50169" lon="2.31836">
        <ele>330</ele>
        <time>2019-03-16T12:33:02Z</time>
      </trkpt>
      <trkpt lat="43.50157" lon="2.31844">
        <ele>331</ele>
        <time>2019-03-16T12:33:07Z</time>
      </trkpt>
      <trkpt lat="43.50155" lon="2.31847">
        <ele>331</ele>
        <time>2019-03-16T12:33:08Z</time>
      </trkpt>
      <trkpt lat="43.50153" lon="2.31858">
        <ele>331</ele>
        <time>2019-03-16T12:33:13Z</time>
      </trkpt>
      <trkpt lat="43.50155" lon="2.31877">
        <ele>331</ele>
        <time>2019-03-16T12:33:19Z</time>
      </trkpt>
      <trkpt lat="43.50155" lon="2.31899">
        <ele>331</ele>
        <time>2019-03-16T12:33:25Z</time>
      </trkpt>
      <trkpt lat="43.50147" lon="2.31916">
        <ele>330</ele>
        <time>2019-03-16T12:33:30Z</time>
      </trkpt>
      <trkpt lat="43.50136" lon="2.31937">
        <ele>330</ele>
        <time>2019-03-16T12:33:36Z</time>
      </trkpt>
      <trkpt lat="43.50134" lon="2.31942">
        <ele>330</ele>
        <time>2019-03-16T12:33:37Z</time>
      </trkpt>
      <trkpt lat="43.50125" lon="2.31965">
        <ele>330</ele>
        <time>2019-03-16T12:33:41Z</time>
      </trkpt>
      <trkpt lat="43.50124" lon="2.31971">
        <ele>330</ele>
        <time>2019-03-16T12:33:42Z</time>
      </trkpt>
      <trkpt lat="43.50123" lon="2.31978">
        <ele>329</ele>
        <time>2019-03-16T12:33:44Z</time>
      </trkpt>
      <trkpt lat="43.50124" lon="2.3198">
        <ele>329</ele>
        <time>2019-03-16T12:33:45Z</time>
      </trkpt>
      <trkpt lat="43.50129" lon="2.31986">
        <ele>329</ele>
        <time>2019-03-16T12:33:47Z</time>
      </trkpt>
      <trkpt lat="43.50131" lon="2.3199">
        <ele>329</ele>
        <time>2019-03-16T12:33:48Z</time>
      </trkpt>
      <trkpt lat="43.50137" lon="2.32">
        <ele>328</ele>
        <time>2019-03-16T12:33:50Z</time>
      </trkpt>
      <trkpt lat="43.5014" lon="2.32005">
        <ele>327</ele>
        <time>2019-03-16T12:33:51Z</time>
      </trkpt>
      <trkpt lat="43.50154" lon="2.32029">
        <ele>326</ele>
        <time>2019-03-16T12:33:55Z</time>
      </trkpt>
      <trkpt lat="43.50168" lon="2.32049">
        <ele>325</ele>
        <time>2019-03-16T12:33:58Z</time>
      </trkpt>
      <trkpt lat="43.50177" lon="2.32064">
        <ele>324</ele>
        <time>2019-03-16T12:34:00Z</time>
      </trkpt>
      <trkpt lat="43.50182" lon="2.32071">
        <ele>324</ele>
        <time>2019-03-16T12:34:01Z</time>
      </trkpt>
      <trkpt lat="43.50192" lon="2.32086">
        <ele>322</ele>
        <time>2019-03-16T12:34:03Z</time>
      </trkpt>
      <trkpt lat="43.50206" lon="2.32109">
        <ele>321</ele>
        <time>2019-03-16T12:34:06Z</time>
      </trkpt>
      <trkpt lat="43.50217" lon="2.32125">
        <ele>319</ele>
        <time>2019-03-16T12:34:08Z</time>
      </trkpt>
      <trkpt lat="43.50222" lon="2.32132">
        <ele>319</ele>
        <time>2019-03-16T12:34:09Z</time>
      </trkpt>
      <trkpt lat="43.50227" lon="2.32146">
        <ele>319</ele>
        <time>2019-03-16T12:34:11Z</time>
      </trkpt>
      <trkpt lat="43.50223" lon="2.32163">
        <ele>319</ele>
        <time>2019-03-16T12:34:14Z</time>
      </trkpt>
      <trkpt lat="43.50214" lon="2.32187">
        <ele>319</ele>
        <time>2019-03-16T12:34:18Z</time>
      </trkpt>
      <trkpt lat="43.50208" lon="2.32207">
        <ele>318</ele>
        <time>2019-03-16T12:34:21Z</time>
      </trkpt>
      <trkpt lat="43.50204" lon="2.32219">
        <ele>319</ele>
        <time>2019-03-16T12:34:23Z</time>
      </trkpt>
      <trkpt lat="43.502" lon="2.32229">
        <ele>320</ele>
        <time>2019-03-16T12:34:25Z</time>
      </trkpt>
      <trkpt lat="43.50198" lon="2.32233">
        <ele>320</ele>
        <time>2019-03-16T12:34:26Z</time>
      </trkpt>
      <trkpt lat="43.50194" lon="2.32244">
        <ele>321</ele>
        <time>2019-03-16T12:34:28Z</time>
      </trkpt>
      <trkpt lat="43.50188" lon="2.32262">
        <ele>322</ele>
        <time>2019-03-16T12:34:31Z</time>
      </trkpt>
      <trkpt lat="43.50183" lon="2.32275">
        <ele>323</ele>
        <time>2019-03-16T12:34:33Z</time>
      </trkpt>
      <trkpt lat="43.50177" lon="2.32292">
        <ele>323</ele>
        <time>2019-03-16T12:34:36Z</time>
      </trkpt>
      <trkpt lat="43.50175" lon="2.32297">
        <ele>323</ele>
        <time>2019-03-16T12:34:37Z</time>
      </trkpt>
      <trkpt lat="43.50174" lon="2.32302">
        <ele>324</ele>
        <time>2019-03-16T12:34:38Z</time>
      </trkpt>
      <trkpt lat="43.5016" lon="2.3234">
        <ele>325</ele>
        <time>2019-03-16T12:34:45Z</time>
      </trkpt>
      <trkpt lat="43.50158" lon="2.32346">
        <ele>325</ele>
        <time>2019-03-16T12:34:46Z</time>
      </trkpt>
      <trkpt lat="43.50146" lon="2.32372">
        <ele>325</ele>
        <time>2019-03-16T12:34:51Z</time>
      </trkpt>
      <trkpt lat="43.5014" lon="2.3238">
        <ele>325</ele>
        <time>2019-03-16T12:34:53Z</time>
      </trkpt>
      <trkpt lat="43.50136" lon="2.32384">
        <ele>326</ele>
        <time>2019-03-16T12:34:54Z</time>
      </trkpt>
      <trkpt lat="43.50105" lon="2.32421">
        <ele>326</ele>
        <time>2019-03-16T12:35:03Z</time>
      </trkpt>
      <trkpt lat="43.50091" lon="2.32438">
        <ele>327</ele>
        <time>2019-03-16T12:35:07Z</time>
      </trkpt>
      <trkpt lat="43.50082" lon="2.3245">
        <ele>328</ele>
        <time>2019-03-16T12:35:10Z</time>
      </trkpt>
      <trkpt lat="43.50077" lon="2.32458">
        <ele>328</ele>
        <time>2019-03-16T12:35:12Z</time>
      </trkpt>
      <trkpt lat="43.50069" lon="2.32472">
        <ele>329</ele>
        <time>2019-03-16T12:35:16Z</time>
      </trkpt>
      <trkpt lat="43.50064" lon="2.32479">
        <ele>329</ele>
        <time>2019-03-16T12:35:18Z</time>
      </trkpt>
      <trkpt lat="43.50053" lon="2.32499">
        <ele>330</ele>
        <time>2019-03-16T12:35:23Z</time>
      </trkpt>
      <trkpt lat="43.50037" lon="2.3253">
        <ele>331</ele>
        <time>2019-03-16T12:35:31Z</time>
      </trkpt>
      <trkpt lat="43.5003" lon="2.32546">
        <ele>332</ele>
        <time>2019-03-16T12:35:35Z</time>
      </trkpt>
      <trkpt lat="43.50024" lon="2.32562">
        <ele>334</ele>
        <time>2019-03-16T12:35:39Z</time>
      </trkpt>
      <trkpt lat="43.50013" lon="2.32586">
        <ele>334</ele>
        <time>2019-03-16T12:35:45Z</time>
      </trkpt>
      <trkpt lat="43.50004" lon="2.32605">
        <ele>335</ele>
        <time>2019-03-16T12:35:50Z</time>
      </trkpt>
      <trkpt lat="43.50002" lon="2.3261">
        <ele>335</ele>
        <time>2019-03-16T12:35:51Z</time>
      </trkpt>
      <trkpt lat="43.49996" lon="2.32622">
        <ele>336</ele>
        <time>2019-03-16T12:35:54Z</time>
      </trkpt>
      <trkpt lat="43.49989" lon="2.32634">
        <ele>336</ele>
        <time>2019-03-16T12:35:57Z</time>
      </trkpt>
      <trkpt lat="43.49968" lon="2.32677">
        <ele>337</ele>
        <time>2019-03-16T12:36:07Z</time>
      </trkpt>
      <trkpt lat="43.49966" lon="2.3268">
        <ele>337</ele>
        <time>2019-03-16T12:36:08Z</time>
      </trkpt>
      <trkpt lat="43.49957" lon="2.32695">
        <ele>337</ele>
        <time>2019-03-16T12:36:12Z</time>
      </trkpt>
      <trkpt lat="43.49946" lon="2.32717">
        <ele>338</ele>
        <time>2019-03-16T12:36:18Z</time>
      </trkpt>
      <trkpt lat="43.4994" lon="2.32728">
        <ele>338</ele>
        <time>2019-03-16T12:36:24Z</time>
      </trkpt>
      <trkpt lat="43.49937" lon="2.32733">
        <ele>338</ele>
        <time>2019-03-16T12:36:29Z</time>
      </trkpt>
      <trkpt lat="43.49938" lon="2.32734">
        <ele>338</ele>
        <time>2019-03-16T12:38:30Z</time>
      </trkpt>
      <trkpt lat="43.4994" lon="2.32736">
        <ele>338</ele>
        <time>2019-03-16T12:38:31Z</time>
      </trkpt>
      <trkpt lat="43.49942" lon="2.32741">
        <ele>337</ele>
        <time>2019-03-16T12:38:33Z</time>
      </trkpt>
      <trkpt lat="43.49945" lon="2.32748">
        <ele>337</ele>
        <time>2019-03-16T12:38:35Z</time>
      </trkpt>
      <trkpt lat="43.49948" lon="2.32756">
        <ele>337</ele>
        <time>2019-03-16T12:38:37Z</time>
      </trkpt>
      <trkpt lat="43.4995" lon="2.3276">
        <ele>336</ele>
        <time>2019-03-16T12:38:38Z</time>
      </trkpt>
      <trkpt lat="43.49954" lon="2.32771">
        <ele>336</ele>
        <time>2019-03-16T12:38:41Z</time>
      </trkpt>
      <trkpt lat="43.49958" lon="2.32781">
        <ele>336</ele>
        <time>2019-03-16T12:38:44Z</time>
      </trkpt>
      <trkpt lat="43.49959" lon="2.32785">
        <ele>335</ele>
        <time>2019-03-16T12:38:45Z</time>
      </trkpt>
      <trkpt lat="43.4996" lon="2.32789">
        <ele>335</ele>
        <time>2019-03-16T12:38:46Z</time>
      </trkpt>
      <trkpt lat="43.49962" lon="2.32798">
        <ele>334</ele>
        <time>2019-03-16T12:38:48Z</time>
      </trkpt>
      <trkpt lat="43.49963" lon="2.32809">
        <ele>333</ele>
        <time>2019-03-16T12:38:51Z</time>
      </trkpt>
      <trkpt lat="43.49964" lon="2.32815">
        <ele>333</ele>
        <time>2019-03-16T12:38:53Z</time>
      </trkpt>
      <trkpt lat="43.49965" lon="2.32821">
        <ele>333</ele>
        <time>2019-03-16T12:38:55Z</time>
      </trkpt>
      <trkpt lat="43.49968" lon="2.32831">
        <ele>332</ele>
        <time>2019-03-16T12:38:58Z</time>
      </trkpt>
      <trkpt lat="43.49971" lon="2.32838">
        <ele>331</ele>
        <time>2019-03-16T12:39:00Z</time>
      </trkpt>
      <trkpt lat="43.49972" lon="2.32842">
        <ele>331</ele>
        <time>2019-03-16T12:39:01Z</time>
      </trkpt>
      <trkpt lat="43.49979" lon="2.32851">
        <ele>329</ele>
        <time>2019-03-16T12:39:04Z</time>
      </trkpt>
      <trkpt lat="43.49988" lon="2.32854">
        <ele>329</ele>
        <time>2019-03-16T12:39:08Z</time>
      </trkpt>
      <trkpt lat="43.4999" lon="2.32857">
        <ele>328</ele>
        <time>2019-03-16T12:39:10Z</time>
      </trkpt>
      <trkpt lat="43.49993" lon="2.3286">
        <ele>327</ele>
        <time>2019-03-16T12:39:13Z</time>
      </trkpt>
      <trkpt lat="43.49993" lon="2.32861">
        <ele>327</ele>
        <time>2019-03-16T12:39:14Z</time>
      </trkpt>
      <trkpt lat="43.49997" lon="2.32867">
        <ele>325</ele>
        <time>2019-03-16T12:39:21Z</time>
      </trkpt>
      <trkpt lat="43.49999" lon="2.32871">
        <ele>325</ele>
        <time>2019-03-16T12:39:23Z</time>
      </trkpt>
      <trkpt lat="43.5" lon="2.32872">
        <ele>325</ele>
        <time>2019-03-16T12:39:24Z</time>
      </trkpt>
      <trkpt lat="43.5" lon="2.32875">
        <ele>325</ele>
        <time>2019-03-16T12:39:25Z</time>
      </trkpt>
      <trkpt lat="43.5" lon="2.32877">
        <ele>324</ele>
        <time>2019-03-16T12:39:26Z</time>
      </trkpt>
      <trkpt lat="43.50002" lon="2.32879">
        <ele>324</ele>
        <time>2019-03-16T12:39:27Z</time>
      </trkpt>
      <trkpt lat="43.50004" lon="2.32887">
        <ele>323</ele>
        <time>2019-03-16T12:39:30Z</time>
      </trkpt>
      <trkpt lat="43.50005" lon="2.32893">
        <ele>323</ele>
        <time>2019-03-16T12:39:32Z</time>
      </trkpt>
      <trkpt lat="43.50012" lon="2.32913">
        <ele>323</ele>
        <time>2019-03-16T12:39:38Z</time>
      </trkpt>
      <trkpt lat="43.5002" lon="2.32938">
        <ele>325</ele>
        <time>2019-03-16T12:39:45Z</time>
      </trkpt>
      <trkpt lat="43.50027" lon="2.32961">
        <ele>325</ele>
        <time>2019-03-16T12:39:51Z</time>
      </trkpt>
      <trkpt lat="43.50038" lon="2.32991">
        <ele>325</ele>
        <time>2019-03-16T12:39:59Z</time>
      </trkpt>
      <trkpt lat="43.50041" lon="2.33006">
        <ele>326</ele>
        <time>2019-03-16T12:40:04Z</time>
      </trkpt>
      <trkpt lat="43.50041" lon="2.33007">
        <ele>326</ele>
        <time>2019-03-16T12:40:05Z</time>
      </trkpt>
      <trkpt lat="43.50043" lon="2.33017">
        <ele>327</ele>
        <time>2019-03-16T12:40:10Z</time>
      </trkpt>
      <trkpt lat="43.50044" lon="2.33019">
        <ele>327</ele>
        <time>2019-03-16T12:40:14Z</time>
      </trkpt>
      <trkpt lat="43.50045" lon="2.33019">
        <ele>327</ele>
        <time>2019-03-16T12:41:06Z</time>
      </trkpt>
      <trkpt lat="43.50045" lon="2.3302">
        <ele>327</ele>
        <time>2019-03-16T12:41:07Z</time>
      </trkpt>
      <trkpt lat="43.50045" lon="2.33021">
        <ele>327</ele>
        <time>2019-03-16T12:41:09Z</time>
      </trkpt>
      <trkpt lat="43.50046" lon="2.33021">
        <ele>327</ele>
        <time>2019-03-16T12:41:12Z</time>
      </trkpt>
      <trkpt lat="43.50048" lon="2.33026">
        <ele>327</ele>
        <time>2019-03-16T12:41:15Z</time>
      </trkpt>
      <trkpt lat="43.5005" lon="2.33031">
        <ele>327</ele>
        <time>2019-03-16T12:41:17Z</time>
      </trkpt>
      <trkpt lat="43.50051" lon="2.33034">
        <ele>326</ele>
        <time>2019-03-16T12:41:18Z</time>
      </trkpt>
      <trkpt lat="43.50053" lon="2.33036">
        <ele>326</ele>
        <time>2019-03-16T12:41:19Z</time>
      </trkpt>
      <trkpt lat="43.50055" lon="2.33042">
        <ele>326</ele>
        <time>2019-03-16T12:41:21Z</time>
      </trkpt>
      <trkpt lat="43.50057" lon="2.33045">
        <ele>326</ele>
        <time>2019-03-16T12:41:22Z</time>
      </trkpt>
      <trkpt lat="43.50064" lon="2.33068">
        <ele>326</ele>
        <time>2019-03-16T12:41:28Z</time>
      </trkpt>
      <trkpt lat="43.50066" lon="2.33072">
        <ele>326</ele>
        <time>2019-03-16T12:41:29Z</time>
      </trkpt>
      <trkpt lat="43.50078" lon="2.33102">
        <ele>326</ele>
        <time>2019-03-16T12:41:35Z</time>
      </trkpt>
      <trkpt lat="43.50081" lon="2.33107">
        <ele>326</ele>
        <time>2019-03-16T12:41:36Z</time>
      </trkpt>
      <trkpt lat="43.50098" lon="2.3314">
        <ele>326</ele>
        <time>2019-03-16T12:41:42Z</time>
      </trkpt>
      <trkpt lat="43.50113" lon="2.33175">
        <ele>325</ele>
        <time>2019-03-16T12:41:47Z</time>
      </trkpt>
      <trkpt lat="43.50116" lon="2.33183">
        <ele>325</ele>
        <time>2019-03-16T12:41:48Z</time>
      </trkpt>
      <trkpt lat="43.50126" lon="2.33204">
        <ele>324</ele>
        <time>2019-03-16T12:41:51Z</time>
      </trkpt>
      <trkpt lat="43.50134" lon="2.33215">
        <ele>323</ele>
        <time>2019-03-16T12:41:53Z</time>
      </trkpt>
      <trkpt lat="43.50141" lon="2.33225">
        <ele>323</ele>
        <time>2019-03-16T12:41:55Z</time>
      </trkpt>
      <trkpt lat="43.50147" lon="2.33236">
        <ele>322</ele>
        <time>2019-03-16T12:41:57Z</time>
      </trkpt>
      <trkpt lat="43.5015" lon="2.33242">
        <ele>322</ele>
        <time>2019-03-16T12:41:58Z</time>
      </trkpt>
      <trkpt lat="43.50159" lon="2.33256">
        <ele>321</ele>
        <time>2019-03-16T12:42:00Z</time>
      </trkpt>
      <trkpt lat="43.50166" lon="2.33272">
        <ele>320</ele>
        <time>2019-03-16T12:42:02Z</time>
      </trkpt>
      <trkpt lat="43.5017" lon="2.3328">
        <ele>320</ele>
        <time>2019-03-16T12:42:03Z</time>
      </trkpt>
      <trkpt lat="43.50188" lon="2.33322">
        <ele>319</ele>
        <time>2019-03-16T12:42:08Z</time>
      </trkpt>
      <trkpt lat="43.50191" lon="2.33328">
        <ele>318</ele>
        <time>2019-03-16T12:42:09Z</time>
      </trkpt>
      <trkpt lat="43.50202" lon="2.33343">
        <ele>318</ele>
        <time>2019-03-16T12:42:13Z</time>
      </trkpt>
      <trkpt lat="43.50207" lon="2.33355">
        <ele>318</ele>
        <time>2019-03-16T12:42:16Z</time>
      </trkpt>
      <trkpt lat="43.5021" lon="2.33362">
        <ele>317</ele>
        <time>2019-03-16T12:42:18Z</time>
      </trkpt>
      <trkpt lat="43.50211" lon="2.33369">
        <ele>317</ele>
        <time>2019-03-16T12:42:20Z</time>
      </trkpt>
      <trkpt lat="43.50215" lon="2.33373">
        <ele>317</ele>
        <time>2019-03-16T12:42:22Z</time>
      </trkpt>
      <trkpt lat="43.50219" lon="2.3338">
        <ele>317</ele>
        <time>2019-03-16T12:42:24Z</time>
      </trkpt>
      <trkpt lat="43.50224" lon="2.33392">
        <ele>316</ele>
        <time>2019-03-16T12:42:26Z</time>
      </trkpt>
      <trkpt lat="43.50227" lon="2.33399">
        <ele>315</ele>
        <time>2019-03-16T12:42:27Z</time>
      </trkpt>
      <trkpt lat="43.50234" lon="2.33414">
        <ele>314</ele>
        <time>2019-03-16T12:42:29Z</time>
      </trkpt>
      <trkpt lat="43.50238" lon="2.33423">
        <ele>313</ele>
        <time>2019-03-16T12:42:30Z</time>
      </trkpt>
      <trkpt lat="43.50248" lon="2.33439">
        <ele>312</ele>
        <time>2019-03-16T12:42:32Z</time>
      </trkpt>
      <trkpt lat="43.50252" lon="2.33447">
        <ele>311</ele>
        <time>2019-03-16T12:42:33Z</time>
      </trkpt>
      <trkpt lat="43.50255" lon="2.33456">
        <ele>310</ele>
        <time>2019-03-16T12:42:34Z</time>
      </trkpt>
      <trkpt lat="43.50259" lon="2.33476">
        <ele>309</ele>
        <time>2019-03-16T12:42:36Z</time>
      </trkpt>
      <trkpt lat="43.50262" lon="2.33483">
        <ele>308</ele>
        <time>2019-03-16T12:42:37Z</time>
      </trkpt>
      <trkpt lat="43.50276" lon="2.335">
        <ele>308</ele>
        <time>2019-03-16T12:42:40Z</time>
      </trkpt>
      <trkpt lat="43.50282" lon="2.33505">
        <ele>307</ele>
        <time>2019-03-16T12:42:41Z</time>
      </trkpt>
      <trkpt lat="43.50292" lon="2.33515">
        <ele>307</ele>
        <time>2019-03-16T12:42:43Z</time>
      </trkpt>
      <trkpt lat="43.50297" lon="2.33522">
        <ele>306</ele>
        <time>2019-03-16T12:42:44Z</time>
      </trkpt>
      <trkpt lat="43.50301" lon="2.3353">
        <ele>306</ele>
        <time>2019-03-16T12:42:45Z</time>
      </trkpt>
      <trkpt lat="43.50309" lon="2.33547">
        <ele>305</ele>
        <time>2019-03-16T12:42:47Z</time>
      </trkpt>
      <trkpt lat="43.50312" lon="2.33557">
        <ele>304</ele>
        <time>2019-03-16T12:42:48Z</time>
      </trkpt>
      <trkpt lat="43.50318" lon="2.33575">
        <ele>304</ele>
        <time>2019-03-16T12:42:50Z</time>
      </trkpt>
      <trkpt lat="43.50329" lon="2.33605">
        <ele>302</ele>
        <time>2019-03-16T12:42:53Z</time>
      </trkpt>
      <trkpt lat="43.50341" lon="2.33636">
        <ele>301</ele>
        <time>2019-03-16T12:42:56Z</time>
      </trkpt>
      <trkpt lat="43.50351" lon="2.33672">
        <ele>300</ele>
        <time>2019-03-16T12:43:00Z</time>
      </trkpt>
      <trkpt lat="43.50353" lon="2.33678">
        <ele>300</ele>
        <time>2019-03-16T12:43:01Z</time>
      </trkpt>
      <trkpt lat="43.50358" lon="2.33687">
        <ele>300</ele>
        <time>2019-03-16T12:43:03Z</time>
      </trkpt>
      <trkpt lat="43.50365" lon="2.33696">
        <ele>300</ele>
        <time>2019-03-16T12:43:05Z</time>
      </trkpt>
      <trkpt lat="43.50372" lon="2.33705">
        <ele>299</ele>
        <time>2019-03-16T12:43:07Z</time>
      </trkpt>
      <trkpt lat="43.50375" lon="2.3371">
        <ele>299</ele>
        <time>2019-03-16T12:43:08Z</time>
      </trkpt>
      <trkpt lat="43.50389" lon="2.33728">
        <ele>298</ele>
        <time>2019-03-16T12:43:12Z</time>
      </trkpt>
      <trkpt lat="43.50406" lon="2.33752">
        <ele>298</ele>
        <time>2019-03-16T12:43:17Z</time>
      </trkpt>
      <trkpt lat="43.50409" lon="2.33758">
        <ele>298</ele>
        <time>2019-03-16T12:43:18Z</time>
      </trkpt>
      <trkpt lat="43.50421" lon="2.33782">
        <ele>298</ele>
        <time>2019-03-16T12:43:22Z</time>
      </trkpt>
      <trkpt lat="43.50427" lon="2.338">
        <ele>298</ele>
        <time>2019-03-16T12:43:25Z</time>
      </trkpt>
      <trkpt lat="43.50431" lon="2.33812">
        <ele>297</ele>
        <time>2019-03-16T12:43:27Z</time>
      </trkpt>
      <trkpt lat="43.50435" lon="2.33831">
        <ele>296</ele>
        <time>2019-03-16T12:43:30Z</time>
      </trkpt>
      <trkpt lat="43.50439" lon="2.33846">
        <ele>294</ele>
        <time>2019-03-16T12:43:32Z</time>
      </trkpt>
      <trkpt lat="43.50444" lon="2.3386">
        <ele>293</ele>
        <time>2019-03-16T12:43:34Z</time>
      </trkpt>
      <trkpt lat="43.50449" lon="2.33873">
        <ele>292</ele>
        <time>2019-03-16T12:43:36Z</time>
      </trkpt>
      <trkpt lat="43.5046" lon="2.33883">
        <ele>291</ele>
        <time>2019-03-16T12:43:39Z</time>
      </trkpt>
      <trkpt lat="43.50464" lon="2.33885">
        <ele>291</ele>
        <time>2019-03-16T12:43:40Z</time>
      </trkpt>
      <trkpt lat="43.50468" lon="2.33888">
        <ele>291</ele>
        <time>2019-03-16T12:43:41Z</time>
      </trkpt>
      <trkpt lat="43.5048" lon="2.33896">
        <ele>291</ele>
        <time>2019-03-16T12:43:44Z</time>
      </trkpt>
      <trkpt lat="43.50491" lon="2.33908">
        <ele>291</ele>
        <time>2019-03-16T12:43:48Z</time>
      </trkpt>
      <trkpt lat="43.50499" lon="2.33916">
        <ele>291</ele>
        <time>2019-03-16T12:43:52Z</time>
      </trkpt>
      <trkpt lat="43.50509" lon="2.33921">
        <ele>291</ele>
        <time>2019-03-16T12:43:57Z</time>
      </trkpt>
      <trkpt lat="43.50517" lon="2.33928">
        <ele>290</ele>
        <time>2019-03-16T12:43:59Z</time>
      </trkpt>
      <trkpt lat="43.50521" lon="2.33933">
        <ele>289</ele>
        <time>2019-03-16T12:44:00Z</time>
      </trkpt>
      <trkpt lat="43.50529" lon="2.33941">
        <ele>288</ele>
        <time>2019-03-16T12:44:02Z</time>
      </trkpt>
      <trkpt lat="43.50538" lon="2.33945">
        <ele>288</ele>
        <time>2019-03-16T12:44:04Z</time>
      </trkpt>
      <trkpt lat="43.50548" lon="2.33946">
        <ele>288</ele>
        <time>2019-03-16T12:44:06Z</time>
      </trkpt>
      <trkpt lat="43.50563" lon="2.33945">
        <ele>288</ele>
        <time>2019-03-16T12:44:09Z</time>
      </trkpt>
      <trkpt lat="43.50576" lon="2.33947">
        <ele>288</ele>
        <time>2019-03-16T12:44:12Z</time>
      </trkpt>
      <trkpt lat="43.50589" lon="2.33954">
        <ele>288</ele>
        <time>2019-03-16T12:44:14Z</time>
      </trkpt>
      <trkpt lat="43.50596" lon="2.33958">
        <ele>287</ele>
        <time>2019-03-16T12:44:15Z</time>
      </trkpt>
      <trkpt lat="43.50602" lon="2.33963">
        <ele>286</ele>
        <time>2019-03-16T12:44:16Z</time>
      </trkpt>
      <trkpt lat="43.50608" lon="2.33967">
        <ele>286</ele>
        <time>2019-03-16T12:44:17Z</time>
      </trkpt>
      <trkpt lat="43.50615" lon="2.33971">
        <ele>285</ele>
        <time>2019-03-16T12:44:18Z</time>
      </trkpt>
      <trkpt lat="43.50622" lon="2.33974">
        <ele>284</ele>
        <time>2019-03-16T12:44:19Z</time>
      </trkpt>
      <trkpt lat="43.50629" lon="2.33977">
        <ele>283</ele>
        <time>2019-03-16T12:44:20Z</time>
      </trkpt>
      <trkpt lat="43.50637" lon="2.33979">
        <ele>282</ele>
        <time>2019-03-16T12:44:21Z</time>
      </trkpt>
      <trkpt lat="43.50644" lon="2.33981">
        <ele>282</ele>
        <time>2019-03-16T12:44:22Z</time>
      </trkpt>
      <trkpt lat="43.50658" lon="2.33984">
        <ele>282</ele>
        <time>2019-03-16T12:44:24Z</time>
      </trkpt>
      <trkpt lat="43.50671" lon="2.33986">
        <ele>281</ele>
        <time>2019-03-16T12:44:26Z</time>
      </trkpt>
      <trkpt lat="43.50684" lon="2.33987">
        <ele>281</ele>
        <time>2019-03-16T12:44:28Z</time>
      </trkpt>
      <trkpt lat="43.5069" lon="2.33987">
        <ele>281</ele>
        <time>2019-03-16T12:44:29Z</time>
      </trkpt>
      <trkpt lat="43.50719" lon="2.33992">
        <ele>280</ele>
        <time>2019-03-16T12:44:34Z</time>
      </trkpt>
      <trkpt lat="43.50726" lon="2.33993">
        <ele>279</ele>
        <time>2019-03-16T12:44:35Z</time>
      </trkpt>
      <trkpt lat="43.50731" lon="2.33994">
        <ele>279</ele>
        <time>2019-03-16T12:44:36Z</time>
      </trkpt>
      <trkpt lat="43.50734" lon="2.33995">
        <ele>279</ele>
        <time>2019-03-16T12:44:37Z</time>
      </trkpt>
      <trkpt lat="43.50746" lon="2.34009">
        <ele>279</ele>
        <time>2019-03-16T12:44:40Z</time>
      </trkpt>
      <trkpt lat="43.5075" lon="2.34015">
        <ele>279</ele>
        <time>2019-03-16T12:44:41Z</time>
      </trkpt>
      <trkpt lat="43.50763" lon="2.34041">
        <ele>278</ele>
        <time>2019-03-16T12:44:44Z</time>
      </trkpt>
      <trkpt lat="43.50775" lon="2.34056">
        <ele>276</ele>
        <time>2019-03-16T12:44:46Z</time>
      </trkpt>
      <trkpt lat="43.50781" lon="2.34061">
        <ele>275</ele>
        <time>2019-03-16T12:44:47Z</time>
      </trkpt>
      <trkpt lat="43.50788" lon="2.34065">
        <ele>274</ele>
        <time>2019-03-16T12:44:48Z</time>
      </trkpt>
      <trkpt lat="43.50794" lon="2.34068">
        <ele>274</ele>
        <time>2019-03-16T12:44:49Z</time>
      </trkpt>
      <trkpt lat="43.508" lon="2.34071">
        <ele>274</ele>
        <time>2019-03-16T12:44:50Z</time>
      </trkpt>
      <trkpt lat="43.50812" lon="2.34081">
        <ele>274</ele>
        <time>2019-03-16T12:44:52Z</time>
      </trkpt>
      <trkpt lat="43.50818" lon="2.34087">
        <ele>275</ele>
        <time>2019-03-16T12:44:53Z</time>
      </trkpt>
      <trkpt lat="43.50826" lon="2.341">
        <ele>276</ele>
        <time>2019-03-16T12:44:55Z</time>
      </trkpt>
      <trkpt lat="43.50827" lon="2.34106">
        <ele>276</ele>
        <time>2019-03-16T12:44:56Z</time>
      </trkpt>
      <trkpt lat="43.50828" lon="2.34112">
        <ele>277</ele>
        <time>2019-03-16T12:44:57Z</time>
      </trkpt>
      <trkpt lat="43.50827" lon="2.34122">
        <ele>278</ele>
        <time>2019-03-16T12:44:59Z</time>
      </trkpt>
      <trkpt lat="43.50827" lon="2.34126">
        <ele>278</ele>
        <time>2019-03-16T12:45:00Z</time>
      </trkpt>
      <trkpt lat="43.50827" lon="2.34136">
        <ele>279</ele>
        <time>2019-03-16T12:45:02Z</time>
      </trkpt>
      <trkpt lat="43.50826" lon="2.34141">
        <ele>280</ele>
        <time>2019-03-16T12:45:03Z</time>
      </trkpt>
      <trkpt lat="43.50825" lon="2.34146">
        <ele>280</ele>
        <time>2019-03-16T12:45:04Z</time>
      </trkpt>
      <trkpt lat="43.50823" lon="2.34158">
        <ele>280</ele>
        <time>2019-03-16T12:45:06Z</time>
      </trkpt>
      <trkpt lat="43.5082" lon="2.34179">
        <ele>281</ele>
        <time>2019-03-16T12:45:10Z</time>
      </trkpt>
      <trkpt lat="43.50813" lon="2.34223">
        <ele>280</ele>
        <time>2019-03-16T12:45:17Z</time>
      </trkpt>
      <trkpt lat="43.50808" lon="2.34256">
        <ele>280</ele>
        <time>2019-03-16T12:45:22Z</time>
      </trkpt>
      <trkpt lat="43.50804" lon="2.34283">
        <ele>280</ele>
        <time>2019-03-16T12:45:26Z</time>
      </trkpt>
      <trkpt lat="43.50803" lon="2.34297">
        <ele>280</ele>
        <time>2019-03-16T12:45:28Z</time>
      </trkpt>
      <trkpt lat="43.50798" lon="2.34351">
        <ele>280</ele>
        <time>2019-03-16T12:45:36Z</time>
      </trkpt>
      <trkpt lat="43.50796" lon="2.34383">
        <ele>280</ele>
        <time>2019-03-16T12:45:42Z</time>
      </trkpt>
      <trkpt lat="43.50789" lon="2.3439">
        <ele>281</ele>
        <time>2019-03-16T12:45:46Z</time>
      </trkpt>
      <trkpt lat="43.50785" lon="2.34388">
        <ele>281</ele>
        <time>2019-03-16T12:45:48Z</time>
      </trkpt>
      <trkpt lat="43.50777" lon="2.34389">
        <ele>281</ele>
        <time>2019-03-16T12:45:53Z</time>
      </trkpt>
      <trkpt lat="43.50777" lon="2.3439">
        <ele>281</ele>
        <time>2019-03-16T12:45:54Z</time>
      </trkpt>
      <trkpt lat="43.50777" lon="2.3439">
        <ele>282</ele>
        <time>2019-03-16T12:45:55Z</time>
      </trkpt>
    </trkseg>
  </trk>
</gpx>